<?xml version='1.0' encoding='UTF-8'?><gpx version="1.1" creator="JPX - https://github.com/jenetics/jpx" xmlns="http://www.topografix.com/GPX/1/1"><trk><trkseg><trkpt lat="38.1056214" lon="15.6415147"><ele>21.0</ele><time>2026-04-25T06:41:22.871Z</time></trkpt><trkpt lat="38.1055965" lon="15.6416138"><ele>21.0</ele><time>2026-04-25T06:41:38.817Z</time></trkpt><trkpt lat="38.1057048" lon="15.6416869"><ele>21.0</ele><time>2026-04-25T06:41:51.848Z</time></trkpt><trkpt lat="38.1057768" lon="15.6416955"><ele>21.0</ele><time>2026-04-25T06:51:35.817Z</time></trkpt><trkpt lat="38.1057354" lon="15.641632"><ele>21.0</ele><time>2026-04-25T07:01:53.872Z</time></trkpt><trkpt lat="38.1057653" lon="15.641544"><ele>21.0</ele><time>2026-04-25T07:02:05.842Z</time></trkpt><trkpt lat="38.105845" lon="15.6415217"><ele>21.166666666666668</ele><time>2026-04-25T07:03:51.817Z</time></trkpt><trkpt lat="38.1058783" lon="15.641445"><ele>21.333333333333332</ele><time>2026-04-25T07:05:02.817Z</time></trkpt><trkpt lat="38.10592" lon="15.6413833"><ele>21.5</ele><time>2026-04-25T07:05:10.817Z</time></trkpt><trkpt lat="38.1060233" lon="15.6413483"><ele>21.666666666666664</ele><time>2026-04-25T07:05:36.817Z</time></trkpt><trkpt lat="38.1060983" lon="15.6412483"><ele>21.833333333333332</ele><time>2026-04-25T07:05:38.817Z</time></trkpt><trkpt lat="38.1061467" lon="15.6411667"><ele>22.0</ele><time>2026-04-25T07:05:39.817Z</time></trkpt><trkpt lat="38.1062167" lon="15.6410833"><ele>21.6</ele><time>2026-04-25T07:05:40.817Z</time></trkpt><trkpt lat="38.10628" lon="15.6410033"><ele>21.200000000000003</ele><time>2026-04-25T07:05:41.816Z</time></trkpt><trkpt lat="38.1063517" lon="15.6409233"><ele>20.8</ele><time>2026-04-25T07:05:42.816Z</time></trkpt><trkpt lat="38.1064183" lon="15.6408467"><ele>20.4</ele><time>2026-04-25T07:05:43.817Z</time></trkpt><trkpt lat="38.10649" lon="15.64077"><ele>20.0</ele><time>2026-04-25T07:05:44.817Z</time></trkpt><trkpt lat="38.1065583" lon="15.6406967"><ele>19.8</ele><time>2026-04-25T07:05:45.817Z</time></trkpt><trkpt lat="38.10663" lon="15.640625"><ele>19.6</ele><time>2026-04-25T07:05:46.817Z</time></trkpt><trkpt lat="38.1066917" lon="15.640545"><ele>19.4</ele><time>2026-04-25T07:05:47.817Z</time></trkpt><trkpt lat="38.1067583" lon="15.6404667"><ele>19.2</ele><time>2026-04-25T07:05:48.817Z</time></trkpt><trkpt lat="38.106825" lon="15.6403783"><ele>19.0</ele><time>2026-04-25T07:05:49.817Z</time></trkpt><trkpt lat="38.1068917" lon="15.6402917"><ele>18.25</ele><time>2026-04-25T07:05:50.816Z</time></trkpt><trkpt lat="38.107025" lon="15.6401267"><ele>17.5</ele><time>2026-04-25T07:05:52.818Z</time></trkpt><trkpt lat="38.1070917" lon="15.6400333"><ele>16.75</ele><time>2026-04-25T07:05:53.818Z</time></trkpt><trkpt lat="38.1070883" lon="15.6399117"><ele>16.0</ele><time>2026-04-25T07:05:54.817Z</time></trkpt><trkpt lat="38.1070983" lon="15.639815"><ele>15.999999999999998</ele><time>2026-04-25T07:05:55.818Z</time></trkpt><trkpt lat="38.10711" lon="15.6397217"><ele>16.0</ele><time>2026-04-25T07:05:56.818Z</time></trkpt><trkpt lat="38.1071533" lon="15.6396383"><ele>16.0</ele><time>2026-04-25T07:05:57.818Z</time></trkpt><trkpt lat="38.1071767" lon="15.6395433"><ele>16.0</ele><time>2026-04-25T07:05:58.818Z</time></trkpt><trkpt lat="38.1071733" lon="15.6394467"><ele>15.999999999999998</ele><time>2026-04-25T07:05:59.817Z</time></trkpt><trkpt lat="38.1071967" lon="15.63935"><ele>16.0</ele><time>2026-04-25T07:06:00.818Z</time></trkpt><trkpt lat="38.10708" lon="15.6393367"><ele>15.0</ele><time>2026-04-25T07:06:04.817Z</time></trkpt><trkpt lat="38.1069867" lon="15.6392783"><ele>14.000000000000002</ele><time>2026-04-25T07:06:05.818Z</time></trkpt><trkpt lat="38.1069033" lon="15.63921"><ele>13.0</ele><time>2026-04-25T07:06:06.818Z</time></trkpt><trkpt lat="38.1068183" lon="15.6391433"><ele>12.0</ele><time>2026-04-25T07:06:07.818Z</time></trkpt><trkpt lat="38.106725" lon="15.639065"><ele>11.0</ele><time>2026-04-25T07:06:08.818Z</time></trkpt><trkpt lat="38.1065983" lon="15.6389617"><ele>10.75</ele><time>2026-04-25T07:06:09.818Z</time></trkpt><trkpt lat="38.1065" lon="15.6388767"><ele>10.5</ele><time>2026-04-25T07:06:10.818Z</time></trkpt><trkpt lat="38.1063917" lon="15.638785"><ele>10.25</ele><time>2026-04-25T07:06:11.818Z</time></trkpt><trkpt lat="38.1062567" lon="15.6386733"><ele>10.0</ele><time>2026-04-25T07:06:12.818Z</time></trkpt><trkpt lat="38.1061233" lon="15.6385617"><ele>10.0</ele><time>2026-04-25T07:06:13.817Z</time></trkpt><trkpt lat="38.105975" lon="15.638475"><ele>10.0</ele><time>2026-04-25T07:06:14.818Z</time></trkpt><trkpt lat="38.1058617" lon="15.6383917"><ele>10.0</ele><time>2026-04-25T07:06:15.818Z</time></trkpt><trkpt lat="38.1057433" lon="15.6383067"><ele>10.0</ele><time>2026-04-25T07:06:16.818Z</time></trkpt><trkpt lat="38.1056283" lon="15.63822"><ele>10.25</ele><time>2026-04-25T07:06:17.817Z</time></trkpt><trkpt lat="38.105505" lon="15.6381233"><ele>10.5</ele><time>2026-04-25T07:06:18.818Z</time></trkpt><trkpt lat="38.1053933" lon="15.6380317"><ele>10.75</ele><time>2026-04-25T07:06:19.817Z</time></trkpt><trkpt lat="38.10528" lon="15.6379383"><ele>11.0</ele><time>2026-04-25T07:06:20.818Z</time></trkpt><trkpt lat="38.1051433" lon="15.6378433"><ele>10.5</ele><time>2026-04-25T07:06:21.818Z</time></trkpt><trkpt lat="38.1050233" lon="15.6377533"><ele>10.0</ele><time>2026-04-25T07:06:22.818Z</time></trkpt><trkpt lat="38.1049033" lon="15.6376617"><ele>9.5</ele><time>2026-04-25T07:06:23.818Z</time></trkpt><trkpt lat="38.1047733" lon="15.6375567"><ele>9.0</ele><time>2026-04-25T07:06:24.817Z</time></trkpt><trkpt lat="38.1046567" lon="15.6374617"><ele>10.5</ele><time>2026-04-25T07:06:25.818Z</time></trkpt><trkpt lat="38.1045417" lon="15.6373667"><ele>12.0</ele><time>2026-04-25T07:06:26.818Z</time></trkpt><trkpt lat="38.1044233" lon="15.6372883"><ele>13.5</ele><time>2026-04-25T07:06:27.818Z</time></trkpt><trkpt lat="38.1043083" lon="15.6372317"><ele>15.0</ele><time>2026-04-25T07:06:28.817Z</time></trkpt><trkpt lat="38.104195" lon="15.6371633"><ele>15.0</ele><time>2026-04-25T07:06:29.818Z</time></trkpt><trkpt lat="38.1040967" lon="15.6370617"><ele>15.0</ele><time>2026-04-25T07:06:30.817Z</time></trkpt><trkpt lat="38.104015" lon="15.6369733"><ele>15.0</ele><time>2026-04-25T07:06:31.818Z</time></trkpt><trkpt lat="38.1039467" lon="15.63689"><ele>15.0</ele><time>2026-04-25T07:06:32.818Z</time></trkpt><trkpt lat="38.1038683" lon="15.63682"><ele>15.0</ele><time>2026-04-25T07:06:33.818Z</time></trkpt><trkpt lat="38.1038" lon="15.6367633"><ele>14.333333333333334</ele><time>2026-04-25T07:06:34.817Z</time></trkpt><trkpt lat="38.1037333" lon="15.6367283"><ele>13.666666666666666</ele><time>2026-04-25T07:06:35.817Z</time></trkpt><trkpt lat="38.1036233" lon="15.6367233"><ele>13.0</ele><time>2026-04-25T07:06:37.818Z</time></trkpt><trkpt lat="38.1035183" lon="15.6367217"><ele>12.333333333333332</ele><time>2026-04-25T07:06:39.818Z</time></trkpt><trkpt lat="38.1034467" lon="15.636775"><ele>11.666666666666666</ele><time>2026-04-25T07:06:41.818Z</time></trkpt><trkpt lat="38.1034717" lon="15.6368667"><ele>11.0</ele><time>2026-04-25T07:06:42.818Z</time></trkpt><trkpt lat="38.1034183" lon="15.6369283"><ele>12.0</ele><time>2026-04-25T07:06:44.817Z</time></trkpt><trkpt lat="38.1034083" lon="15.6370417"><ele>13.0</ele><time>2026-04-25T07:06:46.817Z</time></trkpt><trkpt lat="38.1033667" lon="15.63715"><ele>14.0</ele><time>2026-04-25T07:06:48.818Z</time></trkpt><trkpt lat="38.1033083" lon="15.6372333"><ele>15.0</ele><time>2026-04-25T07:06:50.817Z</time></trkpt><trkpt lat="38.10325" lon="15.6373067"><ele>16.0</ele><time>2026-04-25T07:06:52.817Z</time></trkpt><trkpt lat="38.1031817" lon="15.6373783"><ele>17.0</ele><time>2026-04-25T07:06:55.818Z</time></trkpt><trkpt lat="38.1031267" lon="15.63742"><ele>17.4</ele><time>2026-04-25T07:06:57.817Z</time></trkpt><trkpt lat="38.10306" lon="15.637485"><ele>17.799999999999997</ele><time>2026-04-25T07:06:59.817Z</time></trkpt><trkpt lat="38.1029967" lon="15.6375517"><ele>18.2</ele><time>2026-04-25T07:07:01.817Z</time></trkpt><trkpt lat="38.10289" lon="15.637475"><ele>18.599999999999998</ele><time>2026-04-25T07:07:03.818Z</time></trkpt><trkpt lat="38.102905" lon="15.6375883"><ele>19.0</ele><time>2026-04-25T07:07:04.817Z</time></trkpt><trkpt lat="38.102825" lon="15.6375683"><ele>19.0</ele><time>2026-04-25T07:07:06.818Z</time></trkpt><trkpt lat="38.1027367" lon="15.6374933"><ele>19.0</ele><time>2026-04-25T07:07:08.818Z</time></trkpt><trkpt lat="38.1026833" lon="15.63742"><ele>19.0</ele><time>2026-04-25T07:07:09.818Z</time></trkpt><trkpt lat="38.1026167" lon="15.6373433"><ele>19.0</ele><time>2026-04-25T07:07:10.818Z</time></trkpt><trkpt lat="38.102565" lon="15.6372733"><ele>19.0</ele><time>2026-04-25T07:07:11.817Z</time></trkpt><trkpt lat="38.1025117" lon="15.6372083"><ele>19.0</ele><time>2026-04-25T07:07:12.818Z</time></trkpt><trkpt lat="38.10245" lon="15.6371467"><ele>19.5</ele><time>2026-04-25T07:07:13.818Z</time></trkpt><trkpt lat="38.1023767" lon="15.6370483"><ele>20.0</ele><time>2026-04-25T07:07:14.818Z</time></trkpt><trkpt lat="38.1022783" lon="15.6369167"><ele>20.5</ele><time>2026-04-25T07:07:15.818Z</time></trkpt><trkpt lat="38.1021817" lon="15.6368133"><ele>21.0</ele><time>2026-04-25T07:07:16.817Z</time></trkpt><trkpt lat="38.1021" lon="15.6367017"><ele>21.0</ele><time>2026-04-25T07:07:17.818Z</time></trkpt><trkpt lat="38.102025" lon="15.6366033"><ele>21.0</ele><time>2026-04-25T07:07:18.818Z</time></trkpt><trkpt lat="38.1019567" lon="15.6365133"><ele>21.0</ele><time>2026-04-25T07:07:19.818Z</time></trkpt><trkpt lat="38.1018833" lon="15.636435"><ele>21.0</ele><time>2026-04-25T07:07:20.818Z</time></trkpt><trkpt lat="38.1018167" lon="15.6363617"><ele>21.0</ele><time>2026-04-25T07:07:21.817Z</time></trkpt><trkpt lat="38.1017633" lon="15.63627"><ele>21.0</ele><time>2026-04-25T07:07:22.818Z</time></trkpt><trkpt lat="38.10172" lon="15.636185"><ele>21.0</ele><time>2026-04-25T07:07:23.818Z</time></trkpt><trkpt lat="38.101675" lon="15.63612"><ele>21.0</ele><time>2026-04-25T07:07:24.818Z</time></trkpt><trkpt lat="38.1016283" lon="15.636005"><ele>21.0</ele><time>2026-04-25T07:07:26.818Z</time></trkpt><trkpt lat="38.101545" lon="15.6359767"><ele>21.0</ele><time>2026-04-25T07:07:28.817Z</time></trkpt><trkpt lat="38.1014783" lon="15.63591"><ele>21.0</ele><time>2026-04-25T07:07:30.818Z</time></trkpt><trkpt lat="38.101442" lon="15.6368741"><ele>21.0</ele><time>2026-04-25T07:07:44.176Z</time></trkpt><trkpt lat="38.1018069" lon="15.6371183"><ele>21.0</ele><time>2026-04-25T07:07:50.545Z</time></trkpt><trkpt lat="38.1020929" lon="15.6373848"><ele>19.0</ele><time>2026-04-25T07:07:55.982Z</time></trkpt><trkpt lat="38.1027383" lon="15.63729"><ele>19.0</ele><time>2026-04-25T07:08:04.816Z</time></trkpt><trkpt lat="38.1028067" lon="15.6372717"><ele>19.0</ele><time>2026-04-25T07:08:06.817Z</time></trkpt><trkpt lat="38.1028367" lon="15.6371567"><ele>19.0</ele><time>2026-04-25T07:08:08.817Z</time></trkpt><trkpt lat="38.1027933" lon="15.6369833"><ele>19.0</ele><time>2026-04-25T07:08:10.817Z</time></trkpt><trkpt lat="38.1027583" lon="15.63686"><ele>19.0</ele><time>2026-04-25T07:08:12.817Z</time></trkpt><trkpt lat="38.1027717" lon="15.6367683"><ele>18.599999999999998</ele><time>2026-04-25T07:08:14.817Z</time></trkpt><trkpt lat="38.1027183" lon="15.6367"><ele>18.2</ele><time>2026-04-25T07:08:15.817Z</time></trkpt><trkpt lat="38.1026383" lon="15.6366183"><ele>17.799999999999997</ele><time>2026-04-25T07:08:16.817Z</time></trkpt><trkpt lat="38.1025383" lon="15.6365283"><ele>17.4</ele><time>2026-04-25T07:08:17.816Z</time></trkpt><trkpt lat="38.1024467" lon="15.6364333"><ele>17.0</ele><time>2026-04-25T07:08:18.817Z</time></trkpt><trkpt lat="38.1022833" lon="15.6362867"><ele>16.5</ele><time>2026-04-25T07:08:19.817Z</time></trkpt><trkpt lat="38.102145" lon="15.6361983"><ele>16.0</ele><time>2026-04-25T07:08:20.817Z</time></trkpt><trkpt lat="38.1020717" lon="15.6360617"><ele>15.5</ele><time>2026-04-25T07:08:21.817Z</time></trkpt><trkpt lat="38.1020117" lon="15.6359417"><ele>15.0</ele><time>2026-04-25T07:08:22.817Z</time></trkpt><trkpt lat="38.1019617" lon="15.6358433"><ele>15.0</ele><time>2026-04-25T07:08:23.817Z</time></trkpt><trkpt lat="38.1019133" lon="15.6357717"><ele>15.0</ele><time>2026-04-25T07:08:24.817Z</time></trkpt><trkpt lat="38.1018683" lon="15.635715"><ele>15.0</ele><time>2026-04-25T07:08:25.817Z</time></trkpt><trkpt lat="38.101815" lon="15.63559"><ele>15.0</ele><time>2026-04-25T07:08:27.817Z</time></trkpt><trkpt lat="38.101865" lon="15.635475"><ele>15.0</ele><time>2026-04-25T07:08:28.817Z</time></trkpt><trkpt lat="38.1018017" lon="15.6354533"><ele>15.0</ele><time>2026-04-25T07:08:30.816Z</time></trkpt><trkpt lat="38.1017533" lon="15.6353733"><ele>14.6</ele><time>2026-04-25T07:08:32.817Z</time></trkpt><trkpt lat="38.1016783" lon="15.6353033"><ele>14.2</ele><time>2026-04-25T07:08:34.817Z</time></trkpt><trkpt lat="38.1016033" lon="15.6352483"><ele>13.8</ele><time>2026-04-25T07:08:36.817Z</time></trkpt><trkpt lat="38.101525" lon="15.63524"><ele>13.4</ele><time>2026-04-25T07:08:38.817Z</time></trkpt><trkpt lat="38.10145" lon="15.6352183"><ele>13.0</ele><time>2026-04-25T07:08:40.816Z</time></trkpt><trkpt lat="38.100932" lon="15.6391023"><ele>15.5</ele><time>2026-04-25T07:09:11.766Z</time></trkpt><trkpt lat="38.1010347" lon="15.6392521"><ele>18.0</ele><time>2026-04-25T07:09:44.476Z</time></trkpt><trkpt lat="38.1015589" lon="15.6408621"><ele>20.5</ele><time>2026-04-25T07:09:50.717Z</time></trkpt><trkpt lat="38.1015944" lon="15.6410075"><ele>23.0</ele><time>2026-04-25T07:09:55.896Z</time></trkpt><trkpt lat="38.1012553" lon="15.6429135"><ele>34.0</ele><time>2026-04-25T07:10:03.334Z</time></trkpt><trkpt lat="38.1016425" lon="15.6445623"><ele>34.0</ele><time>2026-04-25T07:10:08.938Z</time></trkpt><trkpt lat="38.1015963" lon="15.6460108"><ele>35.0</ele><time>2026-04-25T07:10:15.55Z</time></trkpt><trkpt lat="38.1013076" lon="15.6469996"><ele>49.0</ele><time>2026-04-25T07:10:22.278Z</time></trkpt><trkpt lat="38.101655" lon="15.6500974"><ele>51.0</ele><time>2026-04-25T07:10:28.568Z</time></trkpt><trkpt lat="38.102992" lon="15.654078"><ele>59.0</ele><time>2026-04-25T07:10:47.175Z</time></trkpt><trkpt lat="38.099903" lon="15.6563106"><ele>87.0</ele><time>2026-04-25T07:10:53.805Z</time></trkpt><trkpt lat="38.0984508" lon="15.6597448"><ele>87.0</ele><time>2026-04-25T07:11:12.82Z</time></trkpt><trkpt lat="38.0983359" lon="15.6598222"><ele>87.0</ele><time>2026-04-25T07:11:25.52Z</time></trkpt><trkpt lat="38.0982639" lon="15.6598121"><ele>87.0</ele><time>2026-04-25T07:11:31.826Z</time></trkpt><trkpt lat="38.0967577" lon="15.6575582"><ele>83.0</ele><time>2026-04-25T07:11:38.072Z</time></trkpt><trkpt lat="38.0915043" lon="15.6595715"><ele>77.0</ele><time>2026-04-25T07:11:56.883Z</time></trkpt><trkpt lat="38.090721" lon="15.6600562"><ele>98.0</ele><time>2026-04-25T07:12:03.235Z</time></trkpt><trkpt lat="38.087732" lon="15.6663119"><ele>78.0</ele><time>2026-04-25T07:12:21.13Z</time></trkpt><trkpt lat="38.0865817" lon="15.6640486"><ele>74.0</ele><time>2026-04-25T07:12:28.249Z</time></trkpt><trkpt lat="38.0834326" lon="15.6646944"><ele>69.0</ele><time>2026-04-25T07:12:34.106Z</time></trkpt><trkpt lat="38.0811684" lon="15.6640803"><ele>62.0</ele><time>2026-04-25T07:12:47.109Z</time></trkpt><trkpt lat="38.0796988" lon="15.6652673"><ele>56.0</ele><time>2026-04-25T07:12:53.371Z</time></trkpt><trkpt lat="38.0790116" lon="15.6641528"><ele>46.0</ele><time>2026-04-25T07:12:59.685Z</time></trkpt><trkpt lat="38.0758826" lon="15.6645366"><ele>36.0</ele><time>2026-04-25T07:13:05.89Z</time></trkpt><trkpt lat="38.0746952" lon="15.6639366"><ele>32.0</ele><time>2026-04-25T07:13:18.61Z</time></trkpt><trkpt lat="38.0707203" lon="15.6627379"><ele>41.0</ele><time>2026-04-25T07:13:24.886Z</time></trkpt><trkpt lat="38.0706698" lon="15.6636583"><ele>41.0</ele><time>2026-04-25T07:13:31.111Z</time></trkpt><trkpt lat="38.0704028" lon="15.6639547"><ele>41.0</ele><time>2026-04-25T07:13:36.956Z</time></trkpt><trkpt lat="38.0693408" lon="15.6616712"><ele>40.0</ele><time>2026-04-25T07:13:43.64Z</time></trkpt><trkpt lat="38.0678209" lon="15.6625552"><ele>49.0</ele><time>2026-04-25T07:13:50.029Z</time></trkpt><trkpt lat="38.0651216" lon="15.6639322"><ele>41.0</ele><time>2026-04-25T07:14:02.594Z</time></trkpt><trkpt lat="38.0644423" lon="15.6621689"><ele>28.0</ele><time>2026-04-25T07:14:08.881Z</time></trkpt><trkpt lat="38.0619805" lon="15.660012"><ele>43.0</ele><time>2026-04-25T07:14:15.144Z</time></trkpt><trkpt lat="38.0602648" lon="15.6613921"><ele>38.0</ele><time>2026-04-25T07:14:21.343Z</time></trkpt><trkpt lat="38.05824" lon="15.6605367"><ele>38.0</ele><time>2026-04-25T07:14:35.817Z</time></trkpt><trkpt lat="38.058085" lon="15.6604283"><ele>38.0</ele><time>2026-04-25T07:14:36.817Z</time></trkpt><trkpt lat="38.0557967" lon="15.6591617"><ele>36.0</ele><time>2026-04-25T07:14:50.816Z</time></trkpt><trkpt lat="38.055465" lon="15.6589317"><ele>34.0</ele><time>2026-04-25T07:14:51.817Z</time></trkpt><trkpt lat="38.0552567" lon="15.6588083"><ele>34.0</ele><time>2026-04-25T07:14:52.816Z</time></trkpt><trkpt lat="38.0550283" lon="15.6586617"><ele>34.0</ele><time>2026-04-25T07:14:53.817Z</time></trkpt><trkpt lat="38.0547917" lon="15.6584933"><ele>34.5</ele><time>2026-04-25T07:14:54.817Z</time></trkpt><trkpt lat="38.0545617" lon="15.658405"><ele>35.0</ele><time>2026-04-25T07:14:55.817Z</time></trkpt><trkpt lat="38.0543467" lon="15.65831"><ele>35.0</ele><time>2026-04-25T07:14:56.817Z</time></trkpt><trkpt lat="38.0541283" lon="15.6582017"><ele>35.0</ele><time>2026-04-25T07:14:57.817Z</time></trkpt><trkpt lat="38.0539" lon="15.6581"><ele>34.5</ele><time>2026-04-25T07:14:58.817Z</time></trkpt><trkpt lat="38.05366" lon="15.6580033"><ele>34.0</ele><time>2026-04-25T07:14:59.817Z</time></trkpt><trkpt lat="38.053425" lon="15.65791"><ele>35.0</ele><time>2026-04-25T07:15:00.817Z</time></trkpt><trkpt lat="38.0531933" lon="15.6578117"><ele>36.0</ele><time>2026-04-25T07:15:01.817Z</time></trkpt><trkpt lat="38.0529667" lon="15.6577017"><ele>34.333333333333336</ele><time>2026-04-25T07:15:02.817Z</time></trkpt><trkpt lat="38.0527533" lon="15.6575967"><ele>32.66666666666667</ele><time>2026-04-25T07:15:03.816Z</time></trkpt><trkpt lat="38.052565" lon="15.657475"><ele>31.0</ele><time>2026-04-25T07:15:04.816Z</time></trkpt><trkpt lat="38.0524983" lon="15.6573283"><ele>31.333333333333336</ele><time>2026-04-25T07:15:05.817Z</time></trkpt><trkpt lat="38.0523467" lon="15.6572083"><ele>31.666666666666664</ele><time>2026-04-25T07:15:06.817Z</time></trkpt><trkpt lat="38.0521867" lon="15.6570733"><ele>32.0</ele><time>2026-04-25T07:15:07.817Z</time></trkpt><trkpt lat="38.051995" lon="15.6569533"><ele>30.5</ele><time>2026-04-25T07:15:08.817Z</time></trkpt><trkpt lat="38.0518033" lon="15.6568133"><ele>29.0</ele><time>2026-04-25T07:15:09.817Z</time></trkpt><trkpt lat="38.0516" lon="15.6566783"><ele>29.0</ele><time>2026-04-25T07:15:10.816Z</time></trkpt><trkpt lat="38.051415" lon="15.6565483"><ele>29.0</ele><time>2026-04-25T07:15:11.817Z</time></trkpt><trkpt lat="38.05123" lon="15.6564317"><ele>29.0</ele><time>2026-04-25T07:15:12.817Z</time></trkpt><trkpt lat="38.0510567" lon="15.656325"><ele>29.0</ele><time>2026-04-25T07:15:13.817Z</time></trkpt><trkpt lat="38.0508883" lon="15.6562283"><ele>29.0</ele><time>2026-04-25T07:15:14.817Z</time></trkpt><trkpt lat="38.0507117" lon="15.6561317"><ele>29.0</ele><time>2026-04-25T07:15:15.817Z</time></trkpt><trkpt lat="38.0505383" lon="15.656045"><ele>27.666666666666664</ele><time>2026-04-25T07:15:16.817Z</time></trkpt><trkpt lat="38.0503583" lon="15.6559483"><ele>26.333333333333336</ele><time>2026-04-25T07:15:17.816Z</time></trkpt><trkpt lat="38.0501833" lon="15.6558483"><ele>25.0</ele><time>2026-04-25T07:15:18.817Z</time></trkpt><trkpt lat="38.0500067" lon="15.6557467"><ele>24.0</ele><time>2026-04-25T07:15:19.817Z</time></trkpt><trkpt lat="38.0498317" lon="15.6556467"><ele>23.0</ele><time>2026-04-25T07:15:20.817Z</time></trkpt><trkpt lat="38.0496567" lon="15.655545"><ele>22.0</ele><time>2026-04-25T07:15:21.817Z</time></trkpt><trkpt lat="38.049485" lon="15.65544"><ele>22.0</ele><time>2026-04-25T07:15:22.817Z</time></trkpt><trkpt lat="38.0493217" lon="15.655325"><ele>22.0</ele><time>2026-04-25T07:15:23.816Z</time></trkpt><trkpt lat="38.049155" lon="15.6552217"><ele>22.0</ele><time>2026-04-25T07:15:24.817Z</time></trkpt><trkpt lat="38.0475434" lon="15.6552393"><ele>16.0</ele><time>2026-04-25T07:15:43.145Z</time></trkpt><trkpt lat="38.04694" lon="15.6561067"><ele>16.0</ele><time>2026-04-25T07:15:57.819Z</time></trkpt><trkpt lat="38.0471083" lon="15.6560133"><ele>16.0</ele><time>2026-04-25T07:15:58.819Z</time></trkpt><trkpt lat="38.047225" lon="15.65597"><ele>16.0</ele><time>2026-04-25T07:15:59.819Z</time></trkpt><trkpt lat="38.0473467" lon="15.6559283"><ele>16.0</ele><time>2026-04-25T07:16:00.819Z</time></trkpt><trkpt lat="38.04746" lon="15.6558883"><ele>16.5</ele><time>2026-04-25T07:16:01.818Z</time></trkpt><trkpt lat="38.04756" lon="15.655855"><ele>17.0</ele><time>2026-04-25T07:16:02.818Z</time></trkpt><trkpt lat="38.047685" lon="15.6558033"><ele>17.5</ele><time>2026-04-25T07:16:03.819Z</time></trkpt><trkpt lat="38.0478083" lon="15.6557717"><ele>18.0</ele><time>2026-04-25T07:16:04.818Z</time></trkpt><trkpt lat="38.0479183" lon="15.65575"><ele>18.0</ele><time>2026-04-25T07:16:05.819Z</time></trkpt><trkpt lat="38.0480233" lon="15.6557183"><ele>18.0</ele><time>2026-04-25T07:16:06.819Z</time></trkpt><trkpt lat="38.048125" lon="15.6556867"><ele>18.0</ele><time>2026-04-25T07:16:07.819Z</time></trkpt><trkpt lat="38.0482267" lon="15.6556567"><ele>18.0</ele><time>2026-04-25T07:16:08.819Z</time></trkpt><trkpt lat="38.0483317" lon="15.655625"><ele>18.0</ele><time>2026-04-25T07:16:09.819Z</time></trkpt><trkpt lat="38.0484417" lon="15.6556017"><ele>18.333333333333332</ele><time>2026-04-25T07:16:10.819Z</time></trkpt><trkpt lat="38.0485533" lon="15.65558"><ele>18.666666666666664</ele><time>2026-04-25T07:16:11.818Z</time></trkpt><trkpt lat="38.0486667" lon="15.6555617"><ele>19.0</ele><time>2026-04-25T07:16:12.819Z</time></trkpt><trkpt lat="38.051915" lon="15.6570583"><ele>25.5</ele><time>2026-04-25T07:16:26.819Z</time></trkpt><trkpt lat="38.05214" lon="15.6571883"><ele>32.0</ele><time>2026-04-25T07:16:27.819Z</time></trkpt><trkpt lat="38.0523567" lon="15.6573083"><ele>31.5</ele><time>2026-04-25T07:16:28.818Z</time></trkpt><trkpt lat="38.05257" lon="15.6574567"><ele>31.0</ele><time>2026-04-25T07:16:29.819Z</time></trkpt><trkpt lat="38.052785" lon="15.6576"><ele>31.0</ele><time>2026-04-25T07:16:30.818Z</time></trkpt><trkpt lat="38.053005" lon="15.657735"><ele>31.0</ele><time>2026-04-25T07:16:31.819Z</time></trkpt><trkpt lat="38.0532317" lon="15.6578683"><ele>32.5</ele><time>2026-04-25T07:16:32.819Z</time></trkpt><trkpt lat="38.0534583" lon="15.65799"><ele>34.0</ele><time>2026-04-25T07:16:33.819Z</time></trkpt><trkpt lat="38.0536983" lon="15.6581183"><ele>34.0</ele><time>2026-04-25T07:16:34.819Z</time></trkpt><trkpt lat="38.05392" lon="15.6582467"><ele>34.0</ele><time>2026-04-25T07:16:35.819Z</time></trkpt><trkpt lat="38.05414" lon="15.658375"><ele>34.5</ele><time>2026-04-25T07:16:36.819Z</time></trkpt><trkpt lat="38.0543367" lon="15.6584833"><ele>35.0</ele><time>2026-04-25T07:16:37.819Z</time></trkpt><trkpt lat="38.0545417" lon="15.65864"><ele>34.5</ele><time>2026-04-25T07:16:38.819Z</time></trkpt><trkpt lat="38.05475" lon="15.6587867"><ele>34.0</ele><time>2026-04-25T07:16:39.819Z</time></trkpt><trkpt lat="38.0549667" lon="15.6589283"><ele>34.0</ele><time>2026-04-25T07:16:40.819Z</time></trkpt><trkpt lat="38.055185" lon="15.6590467"><ele>34.0</ele><time>2026-04-25T07:16:41.819Z</time></trkpt><trkpt lat="38.0554017" lon="15.6591733"><ele>34.0</ele><time>2026-04-25T07:16:42.819Z</time></trkpt><trkpt lat="38.0556133" lon="15.6592817"><ele>34.0</ele><time>2026-04-25T07:16:43.819Z</time></trkpt><trkpt lat="38.0558217" lon="15.6593967"><ele>35.333333333333336</ele><time>2026-04-25T07:16:44.819Z</time></trkpt><trkpt lat="38.0560217" lon="15.6595117"><ele>36.666666666666664</ele><time>2026-04-25T07:16:45.819Z</time></trkpt><trkpt lat="38.0562133" lon="15.659625"><ele>38.0</ele><time>2026-04-25T07:16:46.819Z</time></trkpt><trkpt lat="38.0564183" lon="15.6597383"><ele>36.5</ele><time>2026-04-25T07:16:47.819Z</time></trkpt><trkpt lat="38.0566267" lon="15.659855"><ele>35.0</ele><time>2026-04-25T07:16:48.819Z</time></trkpt><trkpt lat="38.056835" lon="15.6599883"><ele>35.0</ele><time>2026-04-25T07:16:49.819Z</time></trkpt><trkpt lat="38.0570433" lon="15.660105"><ele>35.0</ele><time>2026-04-25T07:16:50.819Z</time></trkpt><trkpt lat="38.05726" lon="15.660205"><ele>36.5</ele><time>2026-04-25T07:16:51.819Z</time></trkpt><trkpt lat="38.0574717" lon="15.660315"><ele>38.0</ele><time>2026-04-25T07:16:52.819Z</time></trkpt><trkpt lat="38.0576817" lon="15.6604267"><ele>41.0</ele><time>2026-04-25T07:16:53.819Z</time></trkpt><trkpt lat="38.0589367" lon="15.6611833"><ele>41.0</ele><time>2026-04-25T07:17:00.817Z</time></trkpt><trkpt lat="38.0588083" lon="15.6610367"><ele>41.0</ele><time>2026-04-25T07:17:01.817Z</time></trkpt><trkpt lat="38.0588683" lon="15.66109"><ele>41.0</ele><time>2026-04-25T07:17:02.817Z</time></trkpt><trkpt lat="38.0589317" lon="15.661155"><ele>41.0</ele><time>2026-04-25T07:17:03.817Z</time></trkpt><trkpt lat="38.0590067" lon="15.661215"><ele>41.0</ele><time>2026-04-25T07:17:04.817Z</time></trkpt><trkpt lat="38.0590683" lon="15.661285"><ele>41.0</ele><time>2026-04-25T07:17:05.817Z</time></trkpt><trkpt lat="38.059125" lon="15.6613733"><ele>41.0</ele><time>2026-04-25T07:17:06.817Z</time></trkpt><trkpt lat="38.0591617" lon="15.66144"><ele>41.0</ele><time>2026-04-25T07:17:07.817Z</time></trkpt><trkpt lat="38.0591733" lon="15.6615317"><ele>41.0</ele><time>2026-04-25T07:17:08.817Z</time></trkpt><trkpt lat="38.0591367" lon="15.6616533"><ele>41.0</ele><time>2026-04-25T07:17:09.816Z</time></trkpt><trkpt lat="38.0590783" lon="15.6617767"><ele>41.0</ele><time>2026-04-25T07:17:10.817Z</time></trkpt><trkpt lat="38.058995" lon="15.6618833"><ele>41.0</ele><time>2026-04-25T07:17:11.817Z</time></trkpt><trkpt lat="38.0589" lon="15.6619683"><ele>41.0</ele><time>2026-04-25T07:17:12.817Z</time></trkpt><trkpt lat="38.0588" lon="15.662"><ele>41.0</ele><time>2026-04-25T07:17:13.816Z</time></trkpt><trkpt lat="38.0586633" lon="15.661985"><ele>41.0</ele><time>2026-04-25T07:17:14.817Z</time></trkpt><trkpt lat="38.0585017" lon="15.6619167"><ele>41.0</ele><time>2026-04-25T07:17:15.817Z</time></trkpt><trkpt lat="38.05836" lon="15.6618383"><ele>41.0</ele><time>2026-04-25T07:17:16.817Z</time></trkpt><trkpt lat="38.05823" lon="15.66172"><ele>41.0</ele><time>2026-04-25T07:17:17.817Z</time></trkpt><trkpt lat="38.0581367" lon="15.6615883"><ele>41.25</ele><time>2026-04-25T07:17:18.817Z</time></trkpt><trkpt lat="38.058065" lon="15.6614233"><ele>41.5</ele><time>2026-04-25T07:17:19.817Z</time></trkpt><trkpt lat="38.0580033" lon="15.6612767"><ele>41.75</ele><time>2026-04-25T07:17:20.817Z</time></trkpt><trkpt lat="38.0579633" lon="15.66112"><ele>42.0</ele><time>2026-04-25T07:17:21.817Z</time></trkpt><trkpt lat="38.0579417" lon="15.660945"><ele>40.666666666666664</ele><time>2026-04-25T07:17:22.817Z</time></trkpt><trkpt lat="38.05796" lon="15.6607583"><ele>39.33333333333333</ele><time>2026-04-25T07:17:23.817Z</time></trkpt><trkpt lat="38.0580867" lon="15.6605633"><ele>38.0</ele><time>2026-04-25T07:17:24.817Z</time></trkpt><trkpt lat="38.0581667" lon="15.6604317"><ele>38.0</ele><time>2026-04-25T07:17:25.816Z</time></trkpt><trkpt lat="38.0582567" lon="15.6603083"><ele>38.0</ele><time>2026-04-25T07:17:26.817Z</time></trkpt><trkpt lat="38.058325" lon="15.6602167"><ele>38.0</ele><time>2026-04-25T07:17:27.817Z</time></trkpt><trkpt lat="38.0584117" lon="15.6601633"><ele>38.0</ele><time>2026-04-25T07:17:28.816Z</time></trkpt><trkpt lat="38.05852" lon="15.6601517"><ele>38.0</ele><time>2026-04-25T07:17:29.816Z</time></trkpt><trkpt lat="38.0586417" lon="15.660165"><ele>37.6</ele><time>2026-04-25T07:17:30.817Z</time></trkpt><trkpt lat="38.058735" lon="15.6602117"><ele>37.199999999999996</ele><time>2026-04-25T07:17:31.817Z</time></trkpt><trkpt lat="38.058835" lon="15.6602983"><ele>36.8</ele><time>2026-04-25T07:17:32.817Z</time></trkpt><trkpt lat="38.0589133" lon="15.6603333"><ele>36.4</ele><time>2026-04-25T07:17:33.817Z</time></trkpt><trkpt lat="38.0589967" lon="15.66045"><ele>36.0</ele><time>2026-04-25T07:17:34.817Z</time></trkpt><trkpt lat="38.059085" lon="15.6605533"><ele>36.0</ele><time>2026-04-25T07:17:35.817Z</time></trkpt><trkpt lat="38.05913" lon="15.6606233"><ele>36.0</ele><time>2026-04-25T07:17:36.817Z</time></trkpt><trkpt lat="38.059155" lon="15.660795"><ele>36.0</ele><time>2026-04-25T07:17:37.817Z</time></trkpt><trkpt lat="38.0591667" lon="15.6609067"><ele>36.0</ele><time>2026-04-25T07:17:38.817Z</time></trkpt><trkpt lat="38.0592133" lon="15.6610233"><ele>36.0</ele><time>2026-04-25T07:17:40.817Z</time></trkpt><trkpt lat="38.0589617" lon="15.660715"><ele>36.0</ele><time>2026-04-25T07:17:51.816Z</time></trkpt><trkpt lat="38.0588783" lon="15.6605783"><ele>36.0</ele><time>2026-04-25T07:17:52.817Z</time></trkpt><trkpt lat="38.0587817" lon="15.6604483"><ele>36.0</ele><time>2026-04-25T07:17:53.817Z</time></trkpt><trkpt lat="38.0586883" lon="15.6603433"><ele>36.0</ele><time>2026-04-25T07:17:54.816Z</time></trkpt><trkpt lat="38.0585933" lon="15.66028"><ele>35.6</ele><time>2026-04-25T07:17:55.817Z</time></trkpt><trkpt lat="38.0585033" lon="15.660215"><ele>35.2</ele><time>2026-04-25T07:17:56.817Z</time></trkpt><trkpt lat="38.0584117" lon="15.660185"><ele>34.8</ele><time>2026-04-25T07:17:57.817Z</time></trkpt><trkpt lat="38.0583233" lon="15.66015"><ele>34.4</ele><time>2026-04-25T07:17:58.817Z</time></trkpt><trkpt lat="38.0582267" lon="15.6601033"><ele>34.0</ele><time>2026-04-25T07:17:59.816Z</time></trkpt><trkpt lat="38.058055" lon="15.6600517"><ele>34.0</ele><time>2026-04-25T07:18:00.817Z</time></trkpt><trkpt lat="38.057955" lon="15.6600017"><ele>34.0</ele><time>2026-04-25T07:18:01.817Z</time></trkpt><trkpt lat="38.0579267" lon="15.6601067"><ele>34.0</ele><time>2026-04-25T07:18:03.817Z</time></trkpt><trkpt lat="38.058" lon="15.6603433"><ele>34.0</ele><time>2026-04-25T07:18:22.817Z</time></trkpt><trkpt lat="38.057975" lon="15.6605017"><ele>35.0</ele><time>2026-04-25T07:18:24.817Z</time></trkpt><trkpt lat="38.0579517" lon="15.66063"><ele>36.0</ele><time>2026-04-25T07:18:25.816Z</time></trkpt><trkpt lat="38.0579283" lon="15.660785"><ele>37.0</ele><time>2026-04-25T07:18:26.817Z</time></trkpt><trkpt lat="38.0579033" lon="15.6609333"><ele>38.0</ele><time>2026-04-25T07:18:27.817Z</time></trkpt><trkpt lat="38.05788" lon="15.661175"><ele>39.33333333333333</ele><time>2026-04-25T07:18:28.817Z</time></trkpt><trkpt lat="38.05784" lon="15.6613967"><ele>40.666666666666664</ele><time>2026-04-25T07:18:29.816Z</time></trkpt><trkpt lat="38.0578167" lon="15.661585"><ele>42.0</ele><time>2026-04-25T07:18:30.817Z</time></trkpt><trkpt lat="38.0577733" lon="15.66178"><ele>43.0</ele><time>2026-04-25T07:18:31.816Z</time></trkpt><trkpt lat="38.0577283" lon="15.6619867"><ele>44.0</ele><time>2026-04-25T07:18:32.816Z</time></trkpt><trkpt lat="38.057695" lon="15.662175"><ele>45.0</ele><time>2026-04-25T07:18:33.816Z</time></trkpt><trkpt lat="38.057675" lon="15.6623533"><ele>45.0</ele><time>2026-04-25T07:18:34.816Z</time></trkpt><trkpt lat="38.0576617" lon="15.662525"><ele>45.0</ele><time>2026-04-25T07:18:35.816Z</time></trkpt><trkpt lat="38.057635" lon="15.6626767"><ele>45.0</ele><time>2026-04-25T07:18:36.816Z</time></trkpt><trkpt lat="38.057605" lon="15.66283"><ele>45.0</ele><time>2026-04-25T07:18:37.816Z</time></trkpt><trkpt lat="38.05757" lon="15.6629833"><ele>46.0</ele><time>2026-04-25T07:18:38.815Z</time></trkpt><trkpt lat="38.0575333" lon="15.663145"><ele>47.0</ele><time>2026-04-25T07:18:39.816Z</time></trkpt><trkpt lat="38.0574933" lon="15.6633117"><ele>48.0</ele><time>2026-04-25T07:18:40.816Z</time></trkpt><trkpt lat="38.0574583" lon="15.663485"><ele>49.0</ele><time>2026-04-25T07:18:41.816Z</time></trkpt><trkpt lat="38.057425" lon="15.66366"><ele>49.75</ele><time>2026-04-25T07:18:42.816Z</time></trkpt><trkpt lat="38.0573917" lon="15.663835"><ele>50.5</ele><time>2026-04-25T07:18:43.815Z</time></trkpt><trkpt lat="38.0573517" lon="15.6640183"><ele>51.25</ele><time>2026-04-25T07:18:44.816Z</time></trkpt><trkpt lat="38.0573167" lon="15.6642033"><ele>52.0</ele><time>2026-04-25T07:18:45.816Z</time></trkpt><trkpt lat="38.0572533" lon="15.6643967"><ele>53.0</ele><time>2026-04-25T07:18:46.815Z</time></trkpt><trkpt lat="38.0571917" lon="15.6645933"><ele>54.0</ele><time>2026-04-25T07:18:47.816Z</time></trkpt><trkpt lat="38.0571567" lon="15.6647467"><ele>55.0</ele><time>2026-04-25T07:18:48.815Z</time></trkpt><trkpt lat="38.0571183" lon="15.6648917"><ele>56.0</ele><time>2026-04-25T07:18:49.816Z</time></trkpt><trkpt lat="38.0570933" lon="15.6650333"><ele>56.0</ele><time>2026-04-25T07:18:50.816Z</time></trkpt><trkpt lat="38.05709" lon="15.6651817"><ele>56.0</ele><time>2026-04-25T07:18:51.815Z</time></trkpt><trkpt lat="38.0570767" lon="15.6653267"><ele>56.0</ele><time>2026-04-25T07:18:52.815Z</time></trkpt><trkpt lat="38.0570967" lon="15.66547"><ele>56.0</ele><time>2026-04-25T07:18:53.816Z</time></trkpt><trkpt lat="38.0570733" lon="15.6656167"><ele>56.66666666666667</ele><time>2026-04-25T07:18:54.815Z</time></trkpt><trkpt lat="38.0570367" lon="15.6658267"><ele>57.33333333333333</ele><time>2026-04-25T07:18:55.816Z</time></trkpt><trkpt lat="38.0569717" lon="15.666035"><ele>58.0</ele><time>2026-04-25T07:18:56.816Z</time></trkpt><trkpt lat="38.05691" lon="15.6662467"><ele>59.33333333333333</ele><time>2026-04-25T07:18:57.816Z</time></trkpt><trkpt lat="38.0568633" lon="15.6664417"><ele>60.66666666666667</ele><time>2026-04-25T07:18:58.816Z</time></trkpt><trkpt lat="38.05681" lon="15.6666517"><ele>62.0</ele><time>2026-04-25T07:18:59.816Z</time></trkpt><trkpt lat="38.0567533" lon="15.6668767"><ele>63.66666666666667</ele><time>2026-04-25T07:19:00.816Z</time></trkpt><trkpt lat="38.0566833" lon="15.6671117"><ele>65.33333333333333</ele><time>2026-04-25T07:19:01.816Z</time></trkpt><trkpt lat="38.0566067" lon="15.66735"><ele>67.0</ele><time>2026-04-25T07:19:02.816Z</time></trkpt><trkpt lat="38.05654" lon="15.66756"><ele>68.0</ele><time>2026-04-25T07:19:03.816Z</time></trkpt><trkpt lat="38.05644" lon="15.6677933"><ele>69.0</ele><time>2026-04-25T07:19:04.815Z</time></trkpt><trkpt lat="38.056355" lon="15.667975"><ele>70.0</ele><time>2026-04-25T07:19:05.816Z</time></trkpt><trkpt lat="38.0562767" lon="15.6681667"><ele>70.0</ele><time>2026-04-25T07:19:06.815Z</time></trkpt><trkpt lat="38.0561583" lon="15.6684"><ele>70.0</ele><time>2026-04-25T07:19:07.816Z</time></trkpt><trkpt lat="38.0560583" lon="15.66862"><ele>70.0</ele><time>2026-04-25T07:19:08.816Z</time></trkpt><trkpt lat="38.055965" lon="15.668845"><ele>72.0</ele><time>2026-04-25T07:19:09.815Z</time></trkpt><trkpt lat="38.0558667" lon="15.6690833"><ele>74.0</ele><time>2026-04-25T07:19:10.816Z</time></trkpt><trkpt lat="38.0557333" lon="15.66937"><ele>75.33333333333334</ele><time>2026-04-25T07:19:11.816Z</time></trkpt><trkpt lat="38.0556217" lon="15.6696133"><ele>76.66666666666667</ele><time>2026-04-25T07:19:12.816Z</time></trkpt><trkpt lat="38.0555467" lon="15.669815"><ele>78.0</ele><time>2026-04-25T07:19:13.815Z</time></trkpt><trkpt lat="38.0554967" lon="15.6699717"><ele>78.0</ele><time>2026-04-25T07:19:14.816Z</time></trkpt><trkpt lat="38.0554467" lon="15.6701383"><ele>78.0</ele><time>2026-04-25T07:19:15.815Z</time></trkpt><trkpt lat="38.0553967" lon="15.67031"><ele>78.0</ele><time>2026-04-25T07:19:16.816Z</time></trkpt><trkpt lat="38.0553667" lon="15.6705017"><ele>78.0</ele><time>2026-04-25T07:19:17.816Z</time></trkpt><trkpt lat="38.055335" lon="15.6706933"><ele>78.66666666666667</ele><time>2026-04-25T07:19:18.815Z</time></trkpt><trkpt lat="38.0553083" lon="15.670895"><ele>79.33333333333334</ele><time>2026-04-25T07:19:19.815Z</time></trkpt><trkpt lat="38.0552667" lon="15.6710967"><ele>80.0</ele><time>2026-04-25T07:19:20.816Z</time></trkpt><trkpt lat="38.0552167" lon="15.6712983"><ele>81.0</ele><time>2026-04-25T07:19:21.816Z</time></trkpt><trkpt lat="38.0551483" lon="15.67149"><ele>82.0</ele><time>2026-04-25T07:19:22.816Z</time></trkpt><trkpt lat="38.055085" lon="15.6716583"><ele>83.0</ele><time>2026-04-25T07:19:23.816Z</time></trkpt><trkpt lat="38.0550233" lon="15.671835"><ele>83.5</ele><time>2026-04-25T07:19:24.815Z</time></trkpt><trkpt lat="38.0549683" lon="15.67197"><ele>84.0</ele><time>2026-04-25T07:19:25.816Z</time></trkpt><trkpt lat="38.0549117" lon="15.672115"><ele>84.5</ele><time>2026-04-25T07:19:26.815Z</time></trkpt><trkpt lat="38.0548217" lon="15.67222"><ele>85.0</ele><time>2026-04-25T07:19:27.816Z</time></trkpt><trkpt lat="38.05474" lon="15.6723"><ele>85.0</ele><time>2026-04-25T07:19:28.816Z</time></trkpt><trkpt lat="38.05467" lon="15.6723567"><ele>85.0</ele><time>2026-04-25T07:19:29.816Z</time></trkpt><trkpt lat="38.0546067" lon="15.6723617"><ele>85.0</ele><time>2026-04-25T07:19:30.816Z</time></trkpt><trkpt lat="38.0545333" lon="15.6723317"><ele>85.0</ele><time>2026-04-25T07:19:31.816Z</time></trkpt><trkpt lat="38.0544467" lon="15.6722617"><ele>85.0</ele><time>2026-04-25T07:19:32.816Z</time></trkpt><trkpt lat="38.0543783" lon="15.6722433"><ele>85.0</ele><time>2026-04-25T07:19:33.816Z</time></trkpt><trkpt lat="38.05431" lon="15.67224"><ele>85.0</ele><time>2026-04-25T07:19:34.816Z</time></trkpt><trkpt lat="38.05419" lon="15.6722017"><ele>85.0</ele><time>2026-04-25T07:19:36.816Z</time></trkpt><trkpt lat="38.05412" lon="15.67217"><ele>85.0</ele><time>2026-04-25T07:19:37.816Z</time></trkpt><trkpt lat="38.0540567" lon="15.6721383"><ele>85.0</ele><time>2026-04-25T07:19:38.816Z</time></trkpt><trkpt lat="38.0539683" lon="15.6721133"><ele>85.0</ele><time>2026-04-25T07:19:39.816Z</time></trkpt><trkpt lat="38.0538917" lon="15.6720833"><ele>85.0</ele><time>2026-04-25T07:19:40.816Z</time></trkpt><trkpt lat="38.0537967" lon="15.6720633"><ele>86.0</ele><time>2026-04-25T07:19:41.815Z</time></trkpt><trkpt lat="38.0536867" lon="15.6720383"><ele>87.0</ele><time>2026-04-25T07:19:42.816Z</time></trkpt><trkpt lat="38.053555" lon="15.6720017"><ele>88.0</ele><time>2026-04-25T07:19:43.815Z</time></trkpt><trkpt lat="38.05345" lon="15.67198"><ele>89.0</ele><time>2026-04-25T07:19:44.816Z</time></trkpt><trkpt lat="38.05334" lon="15.6719683"><ele>92.0</ele><time>2026-04-25T07:19:45.816Z</time></trkpt><trkpt lat="38.0523714" lon="15.6720697"><ele>176.0</ele><time>2026-04-25T07:19:57.153Z</time></trkpt><trkpt lat="38.04773" lon="15.69041"><ele>176.0</ele><time>2026-04-25T07:22:00.815Z</time></trkpt><trkpt lat="38.0477133" lon="15.690535"><ele>176.0</ele><time>2026-04-25T07:22:01.816Z</time></trkpt><trkpt lat="38.0476883" lon="15.6907117"><ele>176.0</ele><time>2026-04-25T07:22:02.816Z</time></trkpt><trkpt lat="38.0476583" lon="15.690915"><ele>176.0</ele><time>2026-04-25T07:22:03.816Z</time></trkpt><trkpt lat="38.0476683" lon="15.6911333"><ele>177.33333333333331</ele><time>2026-04-25T07:22:04.816Z</time></trkpt><trkpt lat="38.0476783" lon="15.6913517"><ele>178.66666666666666</ele><time>2026-04-25T07:22:05.815Z</time></trkpt><trkpt lat="38.0477083" lon="15.6915833"><ele>180.0</ele><time>2026-04-25T07:22:06.816Z</time></trkpt><trkpt lat="38.0477" lon="15.6918067"><ele>181.66666666666666</ele><time>2026-04-25T07:22:07.816Z</time></trkpt><trkpt lat="38.0476617" lon="15.6920683"><ele>183.33333333333331</ele><time>2026-04-25T07:22:08.815Z</time></trkpt><trkpt lat="38.047675" lon="15.6922533"><ele>185.0</ele><time>2026-04-25T07:22:09.816Z</time></trkpt><trkpt lat="38.0476817" lon="15.692445"><ele>185.0</ele><time>2026-04-25T07:22:10.816Z</time></trkpt><trkpt lat="38.0476667" lon="15.69263"><ele>185.0</ele><time>2026-04-25T07:22:11.816Z</time></trkpt><trkpt lat="38.0476833" lon="15.6927417"><ele>185.0</ele><time>2026-04-25T07:22:12.816Z</time></trkpt><trkpt lat="38.0476783" lon="15.692885"><ele>185.0</ele><time>2026-04-25T07:22:13.816Z</time></trkpt><trkpt lat="38.0476633" lon="15.6930483"><ele>186.25</ele><time>2026-04-25T07:22:14.816Z</time></trkpt><trkpt lat="38.04765" lon="15.6932133"><ele>187.5</ele><time>2026-04-25T07:22:15.816Z</time></trkpt><trkpt lat="38.047635" lon="15.6933767"><ele>188.75</ele><time>2026-04-25T07:22:16.816Z</time></trkpt><trkpt lat="38.0476217" lon="15.69354"><ele>190.0</ele><time>2026-04-25T07:22:17.815Z</time></trkpt><trkpt lat="38.0476083" lon="15.6937033"><ele>191.0</ele><time>2026-04-25T07:22:18.816Z</time></trkpt><trkpt lat="38.0475967" lon="15.6938617"><ele>192.0</ele><time>2026-04-25T07:22:19.816Z</time></trkpt><trkpt lat="38.047595" lon="15.6940083"><ele>193.0</ele><time>2026-04-25T07:22:20.815Z</time></trkpt><trkpt lat="38.0475683" lon="15.6947183"><ele>202.0</ele><time>2026-04-25T07:22:25.817Z</time></trkpt><trkpt lat="38.0477367" lon="15.6954467"><ele>202.0</ele><time>2026-04-25T07:22:33.814Z</time></trkpt><trkpt lat="38.047765" lon="15.6955433"><ele>202.0</ele><time>2026-04-25T07:22:35.815Z</time></trkpt><trkpt lat="38.04785" lon="15.6951733"><ele>202.0</ele><time>2026-04-25T07:22:37.815Z</time></trkpt><trkpt lat="38.04789" lon="15.6952633"><ele>193.0</ele><time>2026-04-25T07:22:39.815Z</time></trkpt><trkpt lat="38.0477133" lon="15.6941367"><ele>193.0</ele><time>2026-04-25T07:22:41.815Z</time></trkpt><trkpt lat="38.04769" lon="15.6939533"><ele>193.0</ele><time>2026-04-25T07:22:42.815Z</time></trkpt><trkpt lat="38.04765" lon="15.693745"><ele>193.0</ele><time>2026-04-25T07:22:43.814Z</time></trkpt><trkpt lat="38.047625" lon="15.6935783"><ele>193.0</ele><time>2026-04-25T07:22:44.815Z</time></trkpt><trkpt lat="38.0475883" lon="15.6934067"><ele>192.5</ele><time>2026-04-25T07:22:45.815Z</time></trkpt><trkpt lat="38.0475433" lon="15.693255"><ele>192.0</ele><time>2026-04-25T07:22:46.815Z</time></trkpt><trkpt lat="38.0475033" lon="15.6931217"><ele>191.5</ele><time>2026-04-25T07:22:47.815Z</time></trkpt><trkpt lat="38.0474467" lon="15.6929983"><ele>191.0</ele><time>2026-04-25T07:22:48.815Z</time></trkpt><trkpt lat="38.0474033" lon="15.6928333"><ele>191.0</ele><time>2026-04-25T07:22:49.815Z</time></trkpt><trkpt lat="38.0473733" lon="15.6927583"><ele>191.0</ele><time>2026-04-25T07:22:50.815Z</time></trkpt><trkpt lat="38.04733" lon="15.6926917"><ele>191.0</ele><time>2026-04-25T07:22:52.815Z</time></trkpt><trkpt lat="38.047345" lon="15.6928583"><ele>191.0</ele><time>2026-04-25T07:23:00.814Z</time></trkpt><trkpt lat="38.0473767" lon="15.6929833"><ele>191.0</ele><time>2026-04-25T07:23:02.814Z</time></trkpt><trkpt lat="38.0474167" lon="15.69309"><ele>190.83333333333331</ele><time>2026-04-25T07:23:04.815Z</time></trkpt><trkpt lat="38.0474683" lon="15.6931383"><ele>190.66666666666666</ele><time>2026-04-25T07:23:06.815Z</time></trkpt><trkpt lat="38.0475583" lon="15.693125"><ele>190.5</ele><time>2026-04-25T07:23:08.814Z</time></trkpt><trkpt lat="38.0476533" lon="15.6930083"><ele>190.33333333333334</ele><time>2026-04-25T07:23:10.815Z</time></trkpt><trkpt lat="38.047705" lon="15.6929417"><ele>190.16666666666669</ele><time>2026-04-25T07:23:11.815Z</time></trkpt><trkpt lat="38.0477583" lon="15.69287"><ele>190.0</ele><time>2026-04-25T07:23:12.815Z</time></trkpt><trkpt lat="38.0478133" lon="15.692825"><ele>190.0</ele><time>2026-04-25T07:23:13.815Z</time></trkpt><trkpt lat="38.0479183" lon="15.6927817"><ele>190.0</ele><time>2026-04-25T07:23:15.815Z</time></trkpt><trkpt lat="38.04803" lon="15.6928033"><ele>190.0</ele><time>2026-04-25T07:23:17.815Z</time></trkpt><trkpt lat="38.0481367" lon="15.6928"><ele>190.0</ele><time>2026-04-25T07:23:19.815Z</time></trkpt><trkpt lat="38.0482033" lon="15.692855"><ele>190.0</ele><time>2026-04-25T07:23:21.814Z</time></trkpt><trkpt lat="38.0480983" lon="15.693095"><ele>190.0</ele><time>2026-04-25T07:23:23.815Z</time></trkpt><trkpt lat="38.04795" lon="15.693245"><ele>190.0</ele><time>2026-04-25T07:23:24.815Z</time></trkpt><trkpt lat="38.0478917" lon="15.69334"><ele>190.0</ele><time>2026-04-25T07:23:25.815Z</time></trkpt><trkpt lat="38.0478317" lon="15.6934533"><ele>190.0</ele><time>2026-04-25T07:23:27.814Z</time></trkpt><trkpt lat="38.0477917" lon="15.69352"><ele>190.5</ele><time>2026-04-25T07:23:29.815Z</time></trkpt><trkpt lat="38.0477417" lon="15.6936033"><ele>191.0</ele><time>2026-04-25T07:23:31.815Z</time></trkpt><trkpt lat="38.0477317" lon="15.6936917"><ele>191.5</ele><time>2026-04-25T07:23:33.815Z</time></trkpt><trkpt lat="38.047745" lon="15.69381"><ele>192.0</ele><time>2026-04-25T07:23:35.815Z</time></trkpt><trkpt lat="38.0477533" lon="15.6939083"><ele>192.49999999999997</ele><time>2026-04-25T07:23:36.815Z</time></trkpt><trkpt lat="38.04776" lon="15.6940233"><ele>193.0</ele><time>2026-04-25T07:23:37.815Z</time></trkpt><trkpt lat="38.047765" lon="15.6942233"><ele>194.0</ele><time>2026-04-25T07:23:38.815Z</time></trkpt><trkpt lat="38.04786" lon="15.694515"><ele>195.0</ele><time>2026-04-25T07:23:39.814Z</time></trkpt><trkpt lat="38.047845" lon="15.6946433"><ele>196.0</ele><time>2026-04-25T07:23:40.815Z</time></trkpt><trkpt lat="38.047815" lon="15.6947467"><ele>197.0</ele><time>2026-04-25T07:23:41.815Z</time></trkpt><trkpt lat="38.0477933" lon="15.6948417"><ele>197.0</ele><time>2026-04-25T07:23:42.815Z</time></trkpt><trkpt lat="38.047765" lon="15.6949333"><ele>197.0</ele><time>2026-04-25T07:23:43.815Z</time></trkpt><trkpt lat="38.0477367" lon="15.69503"><ele>197.0</ele><time>2026-04-25T07:23:44.815Z</time></trkpt><trkpt lat="38.0477167" lon="15.6951417"><ele>197.0</ele><time>2026-04-25T07:23:45.815Z</time></trkpt><trkpt lat="38.047715" lon="15.69528"><ele>197.0</ele><time>2026-04-25T07:23:46.814Z</time></trkpt><trkpt lat="38.0477" lon="15.6955567"><ele>198.25</ele><time>2026-04-25T07:23:47.815Z</time></trkpt><trkpt lat="38.0476367" lon="15.6958"><ele>199.5</ele><time>2026-04-25T07:23:48.814Z</time></trkpt><trkpt lat="38.0476133" lon="15.6959517"><ele>200.75</ele><time>2026-04-25T07:23:49.814Z</time></trkpt><trkpt lat="38.0475883" lon="15.6961017"><ele>202.0</ele><time>2026-04-25T07:23:50.815Z</time></trkpt><trkpt lat="38.0475617" lon="15.6962483"><ele>202.5</ele><time>2026-04-25T07:23:51.814Z</time></trkpt><trkpt lat="38.047535" lon="15.696395"><ele>203.0</ele><time>2026-04-25T07:23:52.815Z</time></trkpt><trkpt lat="38.047195" lon="15.6975833"><ele>206.66666666666669</ele><time>2026-04-25T07:23:59.817Z</time></trkpt><trkpt lat="38.0470517" lon="15.6977867"><ele>210.33333333333331</ele><time>2026-04-25T07:24:00.816Z</time></trkpt><trkpt lat="38.0469733" lon="15.698015"><ele>214.0</ele><time>2026-04-25T07:24:01.817Z</time></trkpt><trkpt lat="38.0468467" lon="15.6983033"><ele>214.0</ele><time>2026-04-25T07:24:02.816Z</time></trkpt><trkpt lat="38.04677" lon="15.698455"><ele>214.0</ele><time>2026-04-25T07:24:03.816Z</time></trkpt><trkpt lat="38.0467033" lon="15.69858"><ele>214.0</ele><time>2026-04-25T07:24:04.817Z</time></trkpt><trkpt lat="38.0466467" lon="15.6987417"><ele>214.0</ele><time>2026-04-25T07:24:05.817Z</time></trkpt><trkpt lat="38.046585" lon="15.698905"><ele>215.5</ele><time>2026-04-25T07:24:06.817Z</time></trkpt><trkpt lat="38.0465333" lon="15.6990433"><ele>217.0</ele><time>2026-04-25T07:24:07.816Z</time></trkpt><trkpt lat="38.0464533" lon="15.6991717"><ele>218.5</ele><time>2026-04-25T07:24:08.817Z</time></trkpt><trkpt lat="38.0464033" lon="15.699325"><ele>220.0</ele><time>2026-04-25T07:24:09.817Z</time></trkpt><trkpt lat="38.0463417" lon="15.699465"><ele>220.5</ele><time>2026-04-25T07:24:10.817Z</time></trkpt><trkpt lat="38.0463017" lon="15.6996133"><ele>221.0</ele><time>2026-04-25T07:24:11.817Z</time></trkpt><trkpt lat="38.0462633" lon="15.6997717"><ele>221.5</ele><time>2026-04-25T07:24:12.817Z</time></trkpt><trkpt lat="38.0462233" lon="15.6999333"><ele>222.0</ele><time>2026-04-25T07:24:13.817Z</time></trkpt><trkpt lat="38.0461883" lon="15.7000983"><ele>222.5</ele><time>2026-04-25T07:24:14.817Z</time></trkpt><trkpt lat="38.04616" lon="15.70025"><ele>223.0</ele><time>2026-04-25T07:24:15.816Z</time></trkpt><trkpt lat="38.0461117" lon="15.70042"><ele>223.5</ele><time>2026-04-25T07:24:16.817Z</time></trkpt><trkpt lat="38.04607" lon="15.7005917"><ele>224.0</ele><time>2026-04-25T07:24:17.817Z</time></trkpt><trkpt lat="38.0460567" lon="15.7007717"><ele>224.0</ele><time>2026-04-25T07:24:18.817Z</time></trkpt><trkpt lat="38.0460183" lon="15.7009483"><ele>224.0</ele><time>2026-04-25T07:24:19.817Z</time></trkpt><trkpt lat="38.04598" lon="15.701115"><ele>224.0</ele><time>2026-04-25T07:24:20.817Z</time></trkpt><trkpt lat="38.0459917" lon="15.7012583"><ele>224.0</ele><time>2026-04-25T07:24:21.817Z</time></trkpt><trkpt lat="38.0459717" lon="15.701425"><ele>226.0</ele><time>2026-04-25T07:24:22.817Z</time></trkpt><trkpt lat="38.0459983" lon="15.70166"><ele>228.0</ele><time>2026-04-25T07:24:23.817Z</time></trkpt><trkpt lat="38.0459867" lon="15.7018767"><ele>230.0</ele><time>2026-04-25T07:24:24.817Z</time></trkpt><trkpt lat="38.0459917" lon="15.7020917"><ele>231.33333333333334</ele><time>2026-04-25T07:24:25.817Z</time></trkpt><trkpt lat="38.0459783" lon="15.7023267"><ele>232.66666666666669</ele><time>2026-04-25T07:24:26.817Z</time></trkpt><trkpt lat="38.04596" lon="15.7025617"><ele>234.0</ele><time>2026-04-25T07:24:27.816Z</time></trkpt><trkpt lat="38.0459167" lon="15.702745"><ele>235.5</ele><time>2026-04-25T07:24:28.816Z</time></trkpt><trkpt lat="38.04589" lon="15.7029417"><ele>237.0</ele><time>2026-04-25T07:24:29.817Z</time></trkpt><trkpt lat="38.0458633" lon="15.7031033"><ele>238.5</ele><time>2026-04-25T07:24:30.817Z</time></trkpt><trkpt lat="38.0458433" lon="15.7032967"><ele>240.0</ele><time>2026-04-25T07:24:31.816Z</time></trkpt><trkpt lat="38.0458267" lon="15.7034567"><ele>240.33333333333334</ele><time>2026-04-25T07:24:32.817Z</time></trkpt><trkpt lat="38.0457583" lon="15.7035467"><ele>240.66666666666669</ele><time>2026-04-25T07:24:34.816Z</time></trkpt><trkpt lat="38.0457283" lon="15.7036267"><ele>241.0</ele><time>2026-04-25T07:24:35.817Z</time></trkpt><trkpt lat="38.0456883" lon="15.7036967"><ele>241.33333333333334</ele><time>2026-04-25T07:24:36.817Z</time></trkpt><trkpt lat="38.0456117" lon="15.70366"><ele>241.66666666666669</ele><time>2026-04-25T07:24:37.817Z</time></trkpt><trkpt lat="38.04552" lon="15.703605"><ele>242.0</ele><time>2026-04-25T07:24:38.817Z</time></trkpt><trkpt lat="38.0454067" lon="15.70355"><ele>242.0</ele><time>2026-04-25T07:24:39.817Z</time></trkpt><trkpt lat="38.045315" lon="15.7035083"><ele>242.0</ele><time>2026-04-25T07:24:40.817Z</time></trkpt><trkpt lat="38.04519" lon="15.703425"><ele>242.0</ele><time>2026-04-25T07:24:42.817Z</time></trkpt><trkpt lat="38.0451267" lon="15.703385"><ele>242.0</ele><time>2026-04-25T07:24:43.817Z</time></trkpt><trkpt lat="38.0450033" lon="15.70326"><ele>243.6</ele><time>2026-04-25T07:24:45.817Z</time></trkpt><trkpt lat="38.0448917" lon="15.7033067"><ele>245.2</ele><time>2026-04-25T07:24:47.817Z</time></trkpt><trkpt lat="38.04483" lon="15.7033667"><ele>246.8</ele><time>2026-04-25T07:24:48.817Z</time></trkpt><trkpt lat="38.0447517" lon="15.7034433"><ele>248.4</ele><time>2026-04-25T07:24:49.817Z</time></trkpt><trkpt lat="38.044675" lon="15.7034967"><ele>250.0</ele><time>2026-04-25T07:24:50.816Z</time></trkpt><trkpt lat="38.0445733" lon="15.70353"><ele>250.0</ele><time>2026-04-25T07:24:51.816Z</time></trkpt><trkpt lat="38.0444583" lon="15.7035583"><ele>250.0</ele><time>2026-04-25T07:24:52.816Z</time></trkpt><trkpt lat="38.0443267" lon="15.7035817"><ele>250.0</ele><time>2026-04-25T07:24:53.817Z</time></trkpt><trkpt lat="38.0441733" lon="15.7036083"><ele>250.0</ele><time>2026-04-25T07:24:54.817Z</time></trkpt><trkpt lat="38.04402" lon="15.7036217"><ele>256.66666666666663</ele><time>2026-04-25T07:24:55.816Z</time></trkpt><trkpt lat="38.04383" lon="15.7036633"><ele>263.3333333333333</ele><time>2026-04-25T07:24:56.817Z</time></trkpt><trkpt lat="38.0436717" lon="15.703685"><ele>270.0</ele><time>2026-04-25T07:24:57.817Z</time></trkpt><trkpt lat="38.04351" lon="15.7037"><ele>270.0</ele><time>2026-04-25T07:24:58.816Z</time></trkpt><trkpt lat="38.0433483" lon="15.7037067"><ele>270.0</ele><time>2026-04-25T07:24:59.817Z</time></trkpt><trkpt lat="38.043175" lon="15.7036767"><ele>270.0</ele><time>2026-04-25T07:25:00.817Z</time></trkpt><trkpt lat="38.0430167" lon="15.703655"><ele>273.2</ele><time>2026-04-25T07:25:01.817Z</time></trkpt><trkpt lat="38.0428717" lon="15.70365"><ele>276.4</ele><time>2026-04-25T07:25:02.817Z</time></trkpt><trkpt lat="38.04275" lon="15.703625"><ele>279.6</ele><time>2026-04-25T07:25:03.817Z</time></trkpt><trkpt lat="38.0426783" lon="15.7035783"><ele>282.8</ele><time>2026-04-25T07:25:04.817Z</time></trkpt><trkpt lat="38.04261" lon="15.703565"><ele>286.0</ele><time>2026-04-25T07:25:05.817Z</time></trkpt><trkpt lat="38.04253" lon="15.703595"><ele>286.0</ele><time>2026-04-25T07:25:07.816Z</time></trkpt><trkpt lat="38.0425033" lon="15.7036917"><ele>286.0</ele><time>2026-04-25T07:25:09.817Z</time></trkpt><trkpt lat="38.0424233" lon="15.7037283"><ele>286.0</ele><time>2026-04-25T07:25:11.817Z</time></trkpt><trkpt lat="38.04236" lon="15.70373"><ele>286.0</ele><time>2026-04-25T07:25:12.816Z</time></trkpt><trkpt lat="38.0422883" lon="15.7037283"><ele>286.0</ele><time>2026-04-25T07:25:13.816Z</time></trkpt><trkpt lat="38.0421833" lon="15.7037283"><ele>286.0</ele><time>2026-04-25T07:25:14.817Z</time></trkpt><trkpt lat="38.0421083" lon="15.7037383"><ele>288.8333333333333</ele><time>2026-04-25T07:25:15.817Z</time></trkpt><trkpt lat="38.042035" lon="15.70377"><ele>291.66666666666663</ele><time>2026-04-25T07:25:16.817Z</time></trkpt><trkpt lat="38.0419933" lon="15.7038383"><ele>294.5</ele><time>2026-04-25T07:25:19.817Z</time></trkpt><trkpt lat="38.042045" lon="15.7039383"><ele>297.3333333333333</ele><time>2026-04-25T07:25:21.817Z</time></trkpt><trkpt lat="38.042105" lon="15.7040833"><ele>300.1666666666667</ele><time>2026-04-25T07:25:23.816Z</time></trkpt><trkpt lat="38.0421367" lon="15.70416"><ele>303.0</ele><time>2026-04-25T07:25:24.817Z</time></trkpt><trkpt lat="38.04218" lon="15.7042367"><ele>303.0</ele><time>2026-04-25T07:25:25.817Z</time></trkpt><trkpt lat="38.0422683" lon="15.7043517"><ele>303.0</ele><time>2026-04-25T07:25:27.817Z</time></trkpt><trkpt lat="38.0423383" lon="15.704365"><ele>303.0</ele><time>2026-04-25T07:25:28.817Z</time></trkpt><trkpt lat="38.0424267" lon="15.70437"><ele>303.0</ele><time>2026-04-25T07:25:29.817Z</time></trkpt><trkpt lat="38.0424983" lon="15.7043867"><ele>303.0</ele><time>2026-04-25T07:25:30.816Z</time></trkpt><trkpt lat="38.0425883" lon="15.70436"><ele>303.3333333333333</ele><time>2026-04-25T07:25:31.816Z</time></trkpt><trkpt lat="38.04266" lon="15.7043733"><ele>303.6666666666667</ele><time>2026-04-25T07:25:32.817Z</time></trkpt><trkpt lat="38.042725" lon="15.7043917"><ele>304.0</ele><time>2026-04-25T07:25:33.817Z</time></trkpt><trkpt lat="38.0428433" lon="15.7044433"><ele>304.33333333333337</ele><time>2026-04-25T07:25:35.817Z</time></trkpt><trkpt lat="38.0428967" lon="15.7044883"><ele>304.6666666666667</ele><time>2026-04-25T07:25:36.817Z</time></trkpt><trkpt lat="38.0429383" lon="15.7045633"><ele>305.0</ele><time>2026-04-25T07:25:37.816Z</time></trkpt><trkpt lat="38.042985" lon="15.7046783"><ele>305.0</ele><time>2026-04-25T07:25:39.817Z</time></trkpt><trkpt lat="38.0429733" lon="15.7047867"><ele>305.0</ele><time>2026-04-25T07:25:42.817Z</time></trkpt><trkpt lat="38.0428833" lon="15.70473"><ele>305.0</ele><time>2026-04-25T07:25:46.817Z</time></trkpt><trkpt lat="38.0428117" lon="15.7046417"><ele>305.0</ele><time>2026-04-25T07:25:48.817Z</time></trkpt><trkpt lat="38.0426767" lon="15.7046433"><ele>305.0</ele><time>2026-04-25T07:25:50.817Z</time></trkpt><trkpt lat="38.0425883" lon="15.7046867"><ele>305.0</ele><time>2026-04-25T07:25:51.816Z</time></trkpt><trkpt lat="38.0425083" lon="15.7047383"><ele>305.0</ele><time>2026-04-25T07:25:52.817Z</time></trkpt><trkpt lat="38.04245" lon="15.7048683"><ele>305.0</ele><time>2026-04-25T07:25:54.817Z</time></trkpt><trkpt lat="38.042465" lon="15.704955"><ele>305.0</ele><time>2026-04-25T07:25:55.817Z</time></trkpt><trkpt lat="38.0424733" lon="15.7050483"><ele>305.0</ele><time>2026-04-25T07:25:56.817Z</time></trkpt><trkpt lat="38.0424317" lon="15.705205"><ele>314.8</ele><time>2026-04-25T07:25:58.816Z</time></trkpt><trkpt lat="38.0424033" lon="15.7052983"><ele>324.6</ele><time>2026-04-25T07:25:59.817Z</time></trkpt><trkpt lat="38.0423617" lon="15.7054083"><ele>334.4</ele><time>2026-04-25T07:26:00.816Z</time></trkpt><trkpt lat="38.042305" lon="15.7055433"><ele>344.2</ele><time>2026-04-25T07:26:01.817Z</time></trkpt><trkpt lat="38.0422083" lon="15.705695"><ele>354.0</ele><time>2026-04-25T07:26:02.817Z</time></trkpt><trkpt lat="38.0421533" lon="15.7057983"><ele>354.0</ele><time>2026-04-25T07:26:03.817Z</time></trkpt><trkpt lat="38.0421117" lon="15.7058967"><ele>354.0</ele><time>2026-04-25T07:26:04.817Z</time></trkpt><trkpt lat="38.0420883" lon="15.7060067"><ele>354.0</ele><time>2026-04-25T07:26:05.817Z</time></trkpt><trkpt lat="38.042075" lon="15.7061117"><ele>354.0</ele><time>2026-04-25T07:26:06.817Z</time></trkpt><trkpt lat="38.042075" lon="15.7062083"><ele>354.0</ele><time>2026-04-25T07:26:07.816Z</time></trkpt><trkpt lat="38.04209" lon="15.7063083"><ele>354.0</ele><time>2026-04-25T07:26:08.817Z</time></trkpt><trkpt lat="38.0421183" lon="15.70639"><ele>355.2</ele><time>2026-04-25T07:26:09.817Z</time></trkpt><trkpt lat="38.0421817" lon="15.7064917"><ele>356.4</ele><time>2026-04-25T07:26:11.816Z</time></trkpt><trkpt lat="38.0421983" lon="15.7066183"><ele>357.6</ele><time>2026-04-25T07:26:13.817Z</time></trkpt><trkpt lat="38.0422067" lon="15.7067683"><ele>358.8</ele><time>2026-04-25T07:26:15.817Z</time></trkpt><trkpt lat="38.0421983" lon="15.7068583"><ele>360.0</ele><time>2026-04-25T07:26:16.817Z</time></trkpt><trkpt lat="38.04218" lon="15.706965"><ele>362.0</ele><time>2026-04-25T07:26:17.817Z</time></trkpt><trkpt lat="38.042135" lon="15.7070833"><ele>364.0</ele><time>2026-04-25T07:26:18.817Z</time></trkpt><trkpt lat="38.0421133" lon="15.70722"><ele>366.0</ele><time>2026-04-25T07:26:20.817Z</time></trkpt><trkpt lat="38.04213" lon="15.7073217"><ele>368.0</ele><time>2026-04-25T07:26:22.817Z</time></trkpt><trkpt lat="38.0422183" lon="15.7073683"><ele>370.0</ele><time>2026-04-25T07:26:24.817Z</time></trkpt><trkpt lat="38.0423067" lon="15.7073683"><ele>370.0</ele><time>2026-04-25T07:26:25.816Z</time></trkpt><trkpt lat="38.042395" lon="15.7073817"><ele>370.0</ele><time>2026-04-25T07:26:26.817Z</time></trkpt><trkpt lat="38.0424717" lon="15.7074117"><ele>370.0</ele><time>2026-04-25T07:26:27.817Z</time></trkpt><trkpt lat="38.042545" lon="15.7074433"><ele>370.0</ele><time>2026-04-25T07:26:28.816Z</time></trkpt><trkpt lat="38.0426117" lon="15.7074883"><ele>370.0</ele><time>2026-04-25T07:26:29.817Z</time></trkpt><trkpt lat="38.0426617" lon="15.7075567"><ele>370.0</ele><time>2026-04-25T07:26:30.817Z</time></trkpt><trkpt lat="38.0427083" lon="15.7076233"><ele>368.16666666666663</ele><time>2026-04-25T07:26:31.817Z</time></trkpt><trkpt lat="38.042745" lon="15.707695"><ele>366.3333333333333</ele><time>2026-04-25T07:26:32.816Z</time></trkpt><trkpt lat="38.0426933" lon="15.7078117"><ele>364.5</ele><time>2026-04-25T07:26:33.817Z</time></trkpt><trkpt lat="38.0426767" lon="15.7079417"><ele>362.6666666666667</ele><time>2026-04-25T07:26:34.816Z</time></trkpt><trkpt lat="38.0426433" lon="15.70805"><ele>360.83333333333337</ele><time>2026-04-25T07:26:35.817Z</time></trkpt><trkpt lat="38.042585" lon="15.7080867"><ele>359.0</ele><time>2026-04-25T07:26:37.817Z</time></trkpt><trkpt lat="38.0425333" lon="15.7079833"><ele>359.0</ele><time>2026-04-25T07:26:39.816Z</time></trkpt><trkpt lat="38.0425033" lon="15.7079033"><ele>359.0</ele><time>2026-04-25T07:26:40.817Z</time></trkpt><trkpt lat="38.0424317" lon="15.707795"><ele>359.0</ele><time>2026-04-25T07:26:42.817Z</time></trkpt><trkpt lat="38.0423667" lon="15.7077617"><ele>359.0</ele><time>2026-04-25T07:26:44.816Z</time></trkpt><trkpt lat="38.042315" lon="15.7078267"><ele>359.0</ele><time>2026-04-25T07:26:48.816Z</time></trkpt><trkpt lat="38.0423183" lon="15.70798"><ele>359.0</ele><time>2026-04-25T07:26:50.817Z</time></trkpt><trkpt lat="38.0423167" lon="15.7080767"><ele>364.4</ele><time>2026-04-25T07:26:51.817Z</time></trkpt><trkpt lat="38.0423133" lon="15.7081667"><ele>369.79999999999995</ele><time>2026-04-25T07:26:52.817Z</time></trkpt><trkpt lat="38.0422767" lon="15.7082533"><ele>375.20000000000005</ele><time>2026-04-25T07:26:53.817Z</time></trkpt><trkpt lat="38.0422233" lon="15.7083317"><ele>380.6</ele><time>2026-04-25T07:26:54.817Z</time></trkpt><trkpt lat="38.0421333" lon="15.7084433"><ele>386.0</ele><time>2026-04-25T07:26:56.816Z</time></trkpt><trkpt lat="38.0420383" lon="15.7083833"><ele>385.99999999999994</ele><time>2026-04-25T07:26:58.817Z</time></trkpt><trkpt lat="38.04198" lon="15.7082383"><ele>386.0</ele><time>2026-04-25T07:27:00.817Z</time></trkpt><trkpt lat="38.0419733" lon="15.7081417"><ele>386.0</ele><time>2026-04-25T07:27:01.817Z</time></trkpt><trkpt lat="38.0419183" lon="15.7080667"><ele>386.0</ele><time>2026-04-25T07:27:02.817Z</time></trkpt><trkpt lat="38.0418617" lon="15.7080017"><ele>385.99999999999994</ele><time>2026-04-25T07:27:03.817Z</time></trkpt><trkpt lat="38.04179" lon="15.70795"><ele>386.0</ele><time>2026-04-25T07:27:04.817Z</time></trkpt><trkpt lat="38.0416983" lon="15.7078717"><ele>395.0</ele><time>2026-04-25T07:27:05.816Z</time></trkpt><trkpt lat="38.0416017" lon="15.70778"><ele>404.0</ele><time>2026-04-25T07:27:06.817Z</time></trkpt><trkpt lat="38.0414983" lon="15.70766"><ele>413.0</ele><time>2026-04-25T07:27:07.817Z</time></trkpt><trkpt lat="38.04141" lon="15.7075467"><ele>422.0</ele><time>2026-04-25T07:27:08.817Z</time></trkpt><trkpt lat="38.0413367" lon="15.707435"><ele>421.99999999999994</ele><time>2026-04-25T07:27:09.817Z</time></trkpt><trkpt lat="38.0412633" lon="15.7073433"><ele>422.0</ele><time>2026-04-25T07:27:10.817Z</time></trkpt><trkpt lat="38.04123" lon="15.7072517"><ele>422.0</ele><time>2026-04-25T07:27:11.816Z</time></trkpt><trkpt lat="38.04121" lon="15.7071617"><ele>422.0</ele><time>2026-04-25T07:27:12.817Z</time></trkpt><trkpt lat="38.0412017" lon="15.7070783"><ele>421.99999999999994</ele><time>2026-04-25T07:27:13.816Z</time></trkpt><trkpt lat="38.0411867" lon="15.7069933"><ele>422.0</ele><time>2026-04-25T07:27:14.817Z</time></trkpt><trkpt lat="38.0411733" lon="15.7069067"><ele>419.3333333333333</ele><time>2026-04-25T07:27:15.816Z</time></trkpt><trkpt lat="38.04116" lon="15.706805"><ele>416.66666666666663</ele><time>2026-04-25T07:27:16.817Z</time></trkpt><trkpt lat="38.0411367" lon="15.7067083"><ele>414.0</ele><time>2026-04-25T07:27:17.817Z</time></trkpt><trkpt lat="38.041105" lon="15.70661"><ele>411.33333333333337</ele><time>2026-04-25T07:27:18.817Z</time></trkpt><trkpt lat="38.0410833" lon="15.7065133"><ele>408.6666666666667</ele><time>2026-04-25T07:27:19.817Z</time></trkpt><trkpt lat="38.0410767" lon="15.7064167"><ele>406.0</ele><time>2026-04-25T07:27:20.817Z</time></trkpt><trkpt lat="38.04105" lon="15.70632"><ele>406.0</ele><time>2026-04-25T07:27:21.817Z</time></trkpt><trkpt lat="38.0410117" lon="15.7062333"><ele>406.0</ele><time>2026-04-25T07:27:22.816Z</time></trkpt><trkpt lat="38.04096" lon="15.7061667"><ele>406.0</ele><time>2026-04-25T07:27:23.817Z</time></trkpt><trkpt lat="38.04092" lon="15.706085"><ele>406.0</ele><time>2026-04-25T07:27:24.817Z</time></trkpt><trkpt lat="38.0408367" lon="15.7061967"><ele>406.0</ele><time>2026-04-25T07:27:26.817Z</time></trkpt><trkpt lat="38.0408183" lon="15.70633"><ele>406.0</ele><time>2026-04-25T07:27:28.817Z</time></trkpt><trkpt lat="38.0408267" lon="15.7064133"><ele>406.0</ele><time>2026-04-25T07:27:29.817Z</time></trkpt><trkpt lat="38.04086" lon="15.7065167"><ele>406.0</ele><time>2026-04-25T07:27:30.816Z</time></trkpt><trkpt lat="38.0408933" lon="15.7066267"><ele>406.0</ele><time>2026-04-25T07:27:31.816Z</time></trkpt><trkpt lat="38.04094" lon="15.70676"><ele>406.0</ele><time>2026-04-25T07:27:32.817Z</time></trkpt><trkpt lat="38.040985" lon="15.7068883"><ele>409.20000000000005</ele><time>2026-04-25T07:27:33.817Z</time></trkpt><trkpt lat="38.0410733" lon="15.707035"><ele>412.40000000000003</ele><time>2026-04-25T07:27:34.816Z</time></trkpt><trkpt lat="38.0410983" lon="15.7071317"><ele>415.6</ele><time>2026-04-25T07:27:35.816Z</time></trkpt><trkpt lat="38.0411183" lon="15.70724"><ele>418.8</ele><time>2026-04-25T07:27:36.817Z</time></trkpt><trkpt lat="38.04112" lon="15.7073467"><ele>422.0</ele><time>2026-04-25T07:27:37.817Z</time></trkpt><trkpt lat="38.04113" lon="15.7074667"><ele>421.99999999999994</ele><time>2026-04-25T07:27:38.817Z</time></trkpt><trkpt lat="38.0411317" lon="15.7075817"><ele>422.0</ele><time>2026-04-25T07:27:39.817Z</time></trkpt><trkpt lat="38.0411167" lon="15.7076933"><ele>422.0</ele><time>2026-04-25T07:27:40.816Z</time></trkpt><trkpt lat="38.0410667" lon="15.7077633"><ele>422.0</ele><time>2026-04-25T07:27:41.817Z</time></trkpt><trkpt lat="38.041065" lon="15.7078683"><ele>421.99999999999994</ele><time>2026-04-25T07:27:42.817Z</time></trkpt><trkpt lat="38.04106" lon="15.7079533"><ele>422.0</ele><time>2026-04-25T07:27:43.816Z</time></trkpt><trkpt lat="38.0410483" lon="15.7081183"><ele>424.16666666666663</ele><time>2026-04-25T07:27:45.817Z</time></trkpt><trkpt lat="38.0410967" lon="15.7082933"><ele>426.3333333333333</ele><time>2026-04-25T07:27:47.816Z</time></trkpt><trkpt lat="38.0411" lon="15.7083967"><ele>428.5</ele><time>2026-04-25T07:27:48.817Z</time></trkpt><trkpt lat="38.0411017" lon="15.7084983"><ele>430.66666666666663</ele><time>2026-04-25T07:27:49.816Z</time></trkpt><trkpt lat="38.0410967" lon="15.7085867"><ele>432.8333333333333</ele><time>2026-04-25T07:27:50.816Z</time></trkpt><trkpt lat="38.0410917" lon="15.70867"><ele>435.0</ele><time>2026-04-25T07:27:51.817Z</time></trkpt><trkpt lat="38.0410367" lon="15.70875"><ele>435.0</ele><time>2026-04-25T07:27:53.817Z</time></trkpt><trkpt lat="38.0409617" lon="15.7086983"><ele>435.0</ele><time>2026-04-25T07:27:55.816Z</time></trkpt><trkpt lat="38.0409817" lon="15.7085617"><ele>435.0</ele><time>2026-04-25T07:27:57.817Z</time></trkpt><trkpt lat="38.0409733" lon="15.7083767"><ele>435.0</ele><time>2026-04-25T07:27:59.816Z</time></trkpt><trkpt lat="38.0409817" lon="15.7082683"><ele>435.0</ele><time>2026-04-25T07:28:01.817Z</time></trkpt><trkpt lat="38.0409783" lon="15.7081633"><ele>435.0</ele><time>2026-04-25T07:28:03.817Z</time></trkpt><trkpt lat="38.0409467" lon="15.7080517"><ele>435.0</ele><time>2026-04-25T07:28:04.817Z</time></trkpt><trkpt lat="38.040825" lon="15.70788"><ele>435.0</ele><time>2026-04-25T07:28:05.816Z</time></trkpt><trkpt lat="38.040765" lon="15.70773"><ele>435.0</ele><time>2026-04-25T07:28:06.817Z</time></trkpt><trkpt lat="38.0406883" lon="15.7075267"><ele>445.33333333333337</ele><time>2026-04-25T07:28:07.817Z</time></trkpt><trkpt lat="38.0406017" lon="15.7073517"><ele>455.6666666666667</ele><time>2026-04-25T07:28:08.817Z</time></trkpt><trkpt lat="38.0404783" lon="15.70718"><ele>466.0</ele><time>2026-04-25T07:28:09.817Z</time></trkpt><trkpt lat="38.0403883" lon="15.7070267"><ele>457.75</ele><time>2026-04-25T07:28:10.816Z</time></trkpt><trkpt lat="38.0403233" lon="15.706895"><ele>449.5</ele><time>2026-04-25T07:28:11.816Z</time></trkpt><trkpt lat="38.0402117" lon="15.7066883"><ele>441.25</ele><time>2026-04-25T07:28:12.817Z</time></trkpt><trkpt lat="38.0401467" lon="15.7065767"><ele>433.0</ele><time>2026-04-25T07:28:13.817Z</time></trkpt><trkpt lat="38.0400817" lon="15.7065233"><ele>433.0</ele><time>2026-04-25T07:28:15.816Z</time></trkpt><trkpt lat="38.040095" lon="15.70666"><ele>432.99999999999994</ele><time>2026-04-25T07:28:17.817Z</time></trkpt><trkpt lat="38.040115" lon="15.7067683"><ele>432.99999999999994</ele><time>2026-04-25T07:28:18.817Z</time></trkpt><trkpt lat="38.04013" lon="15.70685"><ele>433.0</ele><time>2026-04-25T07:28:19.817Z</time></trkpt><trkpt lat="38.0401233" lon="15.70699"><ele>433.0</ele><time>2026-04-25T07:28:21.817Z</time></trkpt><trkpt lat="38.0401733" lon="15.7071283"><ele>444.0</ele><time>2026-04-25T07:28:22.816Z</time></trkpt><trkpt lat="38.0402917" lon="15.7073617"><ele>455.0</ele><time>2026-04-25T07:28:23.817Z</time></trkpt><trkpt lat="38.0403467" lon="15.70753"><ele>466.0</ele><time>2026-04-25T07:28:24.816Z</time></trkpt><trkpt lat="38.04037" lon="15.7076633"><ele>469.8</ele><time>2026-04-25T07:28:25.817Z</time></trkpt><trkpt lat="38.0404033" lon="15.7077967"><ele>473.6</ele><time>2026-04-25T07:28:26.817Z</time></trkpt><trkpt lat="38.040415" lon="15.707955"><ele>477.4</ele><time>2026-04-25T07:28:27.817Z</time></trkpt><trkpt lat="38.04044" lon="15.7080817"><ele>481.2</ele><time>2026-04-25T07:28:28.817Z</time></trkpt><trkpt lat="38.0404683" lon="15.7081983"><ele>485.0</ele><time>2026-04-25T07:28:29.817Z</time></trkpt><trkpt lat="38.0405017" lon="15.7083233"><ele>485.0</ele><time>2026-04-25T07:28:30.817Z</time></trkpt><trkpt lat="38.0405283" lon="15.70844"><ele>485.0</ele><time>2026-04-25T07:28:31.817Z</time></trkpt><trkpt lat="38.040555" lon="15.708555"><ele>485.0</ele><time>2026-04-25T07:28:32.817Z</time></trkpt><trkpt lat="38.0405833" lon="15.7086717"><ele>485.0</ele><time>2026-04-25T07:28:33.817Z</time></trkpt><trkpt lat="38.0406" lon="15.70882"><ele>485.0</ele><time>2026-04-25T07:28:34.817Z</time></trkpt><trkpt lat="38.0406233" lon="15.7089383"><ele>486.8</ele><time>2026-04-25T07:28:35.817Z</time></trkpt><trkpt lat="38.0406317" lon="15.70907"><ele>488.6</ele><time>2026-04-25T07:28:36.817Z</time></trkpt><trkpt lat="38.0406383" lon="15.7092217"><ele>490.4</ele><time>2026-04-25T07:28:37.816Z</time></trkpt><trkpt lat="38.0406533" lon="15.709335"><ele>492.2</ele><time>2026-04-25T07:28:38.817Z</time></trkpt><trkpt lat="38.0406667" lon="15.709455"><ele>494.0</ele><time>2026-04-25T07:28:39.817Z</time></trkpt><trkpt lat="38.04064" lon="15.709585"><ele>495.66666666666663</ele><time>2026-04-25T07:28:41.817Z</time></trkpt><trkpt lat="38.040645" lon="15.709675"><ele>497.3333333333333</ele><time>2026-04-25T07:28:42.817Z</time></trkpt><trkpt lat="38.0407083" lon="15.7097683"><ele>499.0</ele><time>2026-04-25T07:28:44.817Z</time></trkpt><trkpt lat="38.0407983" lon="15.7098917"><ele>500.66666666666663</ele><time>2026-04-25T07:28:46.816Z</time></trkpt><trkpt lat="38.0408483" lon="15.70995"><ele>502.3333333333333</ele><time>2026-04-25T07:28:47.817Z</time></trkpt><trkpt lat="38.0408867" lon="15.710025"><ele>504.0</ele><time>2026-04-25T07:28:48.816Z</time></trkpt><trkpt lat="38.0401233" lon="15.71043"><ele>507.5</ele><time>2026-04-25T07:29:27.817Z</time></trkpt><trkpt lat="38.0402217" lon="15.7103767"><ele>511.0</ele><time>2026-04-25T07:29:31.817Z</time></trkpt><trkpt lat="38.0359417" lon="15.708115"><ele>550.75</ele><time>2026-04-25T07:32:08.817Z</time></trkpt><trkpt lat="38.0358117" lon="15.707945"><ele>590.5</ele><time>2026-04-25T07:32:09.817Z</time></trkpt><trkpt lat="38.03569" lon="15.7078783"><ele>630.25</ele><time>2026-04-25T07:32:10.816Z</time></trkpt><trkpt lat="38.0355817" lon="15.7078133"><ele>670.0</ele><time>2026-04-25T07:32:11.817Z</time></trkpt><trkpt lat="38.0354883" lon="15.70775"><ele>667.5</ele><time>2026-04-25T07:32:12.816Z</time></trkpt><trkpt lat="38.0354017" lon="15.7076867"><ele>665.0</ele><time>2026-04-25T07:32:13.817Z</time></trkpt><trkpt lat="38.03526" lon="15.70756"><ele>662.5</ele><time>2026-04-25T07:32:15.816Z</time></trkpt><trkpt lat="38.0351783" lon="15.7075167"><ele>660.0</ele><time>2026-04-25T07:32:16.817Z</time></trkpt><trkpt lat="38.0350467" lon="15.7074667"><ele>660.0</ele><time>2026-04-25T07:32:18.817Z</time></trkpt><trkpt lat="38.0349767" lon="15.707485"><ele>660.0</ele><time>2026-04-25T07:32:19.817Z</time></trkpt><trkpt lat="38.0348967" lon="15.70746"><ele>660.0</ele><time>2026-04-25T07:32:20.816Z</time></trkpt><trkpt lat="38.0348183" lon="15.7075"><ele>660.0</ele><time>2026-04-25T07:32:21.817Z</time></trkpt><trkpt lat="38.0347317" lon="15.7075433"><ele>660.0</ele><time>2026-04-25T07:32:22.817Z</time></trkpt><trkpt lat="38.03466" lon="15.7076167"><ele>660.0</ele><time>2026-04-25T07:32:23.817Z</time></trkpt><trkpt lat="38.0345833" lon="15.7077"><ele>665.0</ele><time>2026-04-25T07:32:24.816Z</time></trkpt><trkpt lat="38.0344933" lon="15.7077983"><ele>670.0</ele><time>2026-04-25T07:32:25.816Z</time></trkpt><trkpt lat="38.0343783" lon="15.7079217"><ele>675.0</ele><time>2026-04-25T07:32:26.817Z</time></trkpt><trkpt lat="38.0342867" lon="15.707985"><ele>680.0</ele><time>2026-04-25T07:32:27.817Z</time></trkpt><trkpt lat="38.0341967" lon="15.708145"><ele>680.75</ele><time>2026-04-25T07:32:28.817Z</time></trkpt><trkpt lat="38.0341283" lon="15.708325"><ele>681.5</ele><time>2026-04-25T07:32:29.817Z</time></trkpt><trkpt lat="38.0340733" lon="15.7084883"><ele>682.25</ele><time>2026-04-25T07:32:30.817Z</time></trkpt><trkpt lat="38.0340283" lon="15.7086317"><ele>683.0</ele><time>2026-04-25T07:32:31.817Z</time></trkpt><trkpt lat="38.0339917" lon="15.7087717"><ele>683.0</ele><time>2026-04-25T07:32:32.817Z</time></trkpt><trkpt lat="38.033965" lon="15.7089017"><ele>683.0</ele><time>2026-04-25T07:32:33.817Z</time></trkpt><trkpt lat="38.0339567" lon="15.7090683"><ele>683.0</ele><time>2026-04-25T07:32:34.817Z</time></trkpt><trkpt lat="38.0339383" lon="15.70924"><ele>683.0</ele><time>2026-04-25T07:32:35.817Z</time></trkpt><trkpt lat="38.0339217" lon="15.7094133"><ele>684.4</ele><time>2026-04-25T07:32:36.817Z</time></trkpt><trkpt lat="38.033895" lon="15.7095583"><ele>685.8</ele><time>2026-04-25T07:32:37.817Z</time></trkpt><trkpt lat="38.0338683" lon="15.709685"><ele>687.2</ele><time>2026-04-25T07:32:38.817Z</time></trkpt><trkpt lat="38.0338483" lon="15.7098117"><ele>688.6</ele><time>2026-04-25T07:32:39.817Z</time></trkpt><trkpt lat="38.0338233" lon="15.7099383"><ele>690.0</ele><time>2026-04-25T07:32:40.817Z</time></trkpt><trkpt lat="38.0337817" lon="15.7100367"><ele>690.0</ele><time>2026-04-25T07:32:41.817Z</time></trkpt><trkpt lat="38.0337417" lon="15.7101433"><ele>690.0</ele><time>2026-04-25T07:32:42.816Z</time></trkpt><trkpt lat="38.033695" lon="15.7102483"><ele>690.0</ele><time>2026-04-25T07:32:43.817Z</time></trkpt><trkpt lat="38.033655" lon="15.7103583"><ele>690.0</ele><time>2026-04-25T07:32:44.817Z</time></trkpt><trkpt lat="38.0336367" lon="15.7104767"><ele>690.0</ele><time>2026-04-25T07:32:45.816Z</time></trkpt><trkpt lat="38.0336433" lon="15.7106017"><ele>690.2</ele><time>2026-04-25T07:32:46.816Z</time></trkpt><trkpt lat="38.0336633" lon="15.7107167"><ele>690.4</ele><time>2026-04-25T07:32:47.817Z</time></trkpt><trkpt lat="38.033705" lon="15.710845"><ele>690.5999999999999</ele><time>2026-04-25T07:32:48.817Z</time></trkpt><trkpt lat="38.0337367" lon="15.710985"><ele>690.8</ele><time>2026-04-25T07:32:49.816Z</time></trkpt><trkpt lat="38.0337583" lon="15.7111233"><ele>691.0</ele><time>2026-04-25T07:32:50.816Z</time></trkpt><trkpt lat="38.0337683" lon="15.7112517"><ele>692.8</ele><time>2026-04-25T07:32:51.817Z</time></trkpt><trkpt lat="38.0337567" lon="15.7114"><ele>694.5999999999999</ele><time>2026-04-25T07:32:52.817Z</time></trkpt><trkpt lat="38.0337333" lon="15.7115183"><ele>696.4</ele><time>2026-04-25T07:32:53.817Z</time></trkpt><trkpt lat="38.033735" lon="15.7116367"><ele>698.2</ele><time>2026-04-25T07:32:54.817Z</time></trkpt><trkpt lat="38.0337317" lon="15.7117567"><ele>700.0</ele><time>2026-04-25T07:32:55.817Z</time></trkpt><trkpt lat="38.0337333" lon="15.7118833"><ele>696.5</ele><time>2026-04-25T07:32:56.816Z</time></trkpt><trkpt lat="38.0337517" lon="15.7120067"><ele>693.0</ele><time>2026-04-25T07:32:57.817Z</time></trkpt><trkpt lat="38.0337667" lon="15.7121283"><ele>689.5</ele><time>2026-04-25T07:32:58.816Z</time></trkpt><trkpt lat="38.0338033" lon="15.7122733"><ele>686.0</ele><time>2026-04-25T07:32:59.816Z</time></trkpt><trkpt lat="38.034025" lon="15.7124733"><ele>686.0</ele><time>2026-04-25T07:33:00.817Z</time></trkpt><trkpt lat="38.0341333" lon="15.71267"><ele>686.0</ele><time>2026-04-25T07:33:01.817Z</time></trkpt><trkpt lat="38.0342033" lon="15.7128717"><ele>686.0</ele><time>2026-04-25T07:33:02.816Z</time></trkpt><trkpt lat="38.03426" lon="15.7130783"><ele>687.0</ele><time>2026-04-25T07:33:03.817Z</time></trkpt><trkpt lat="38.0343183" lon="15.7132733"><ele>688.0</ele><time>2026-04-25T07:33:04.817Z</time></trkpt><trkpt lat="38.03436" lon="15.71348"><ele>689.0</ele><time>2026-04-25T07:33:05.817Z</time></trkpt><trkpt lat="38.03441" lon="15.7136883"><ele>693.3333333333333</ele><time>2026-04-25T07:33:06.817Z</time></trkpt><trkpt lat="38.03446" lon="15.7138967"><ele>697.6666666666666</ele><time>2026-04-25T07:33:07.817Z</time></trkpt><trkpt lat="38.0345083" lon="15.7140917"><ele>702.0</ele><time>2026-04-25T07:33:08.817Z</time></trkpt><trkpt lat="38.03455" lon="15.7142883"><ele>703.25</ele><time>2026-04-25T07:33:09.817Z</time></trkpt><trkpt lat="38.0345933" lon="15.7144533"><ele>704.5</ele><time>2026-04-25T07:33:10.817Z</time></trkpt><trkpt lat="38.034625" lon="15.7146"><ele>705.75</ele><time>2026-04-25T07:33:11.817Z</time></trkpt><trkpt lat="38.0346367" lon="15.7147483"><ele>707.0</ele><time>2026-04-25T07:33:12.817Z</time></trkpt><trkpt lat="38.034655" lon="15.714905"><ele>707.0</ele><time>2026-04-25T07:33:13.817Z</time></trkpt><trkpt lat="38.034685" lon="15.7150667"><ele>707.0</ele><time>2026-04-25T07:33:14.817Z</time></trkpt><trkpt lat="38.0346567" lon="15.71522"><ele>707.0</ele><time>2026-04-25T07:33:15.817Z</time></trkpt><trkpt lat="38.034605" lon="15.7153383"><ele>707.0</ele><time>2026-04-25T07:33:16.816Z</time></trkpt><trkpt lat="38.034575" lon="15.7154567"><ele>706.75</ele><time>2026-04-25T07:33:17.817Z</time></trkpt><trkpt lat="38.0345217" lon="15.715615"><ele>706.5</ele><time>2026-04-25T07:33:18.816Z</time></trkpt><trkpt lat="38.0344883" lon="15.71574"><ele>706.25</ele><time>2026-04-25T07:33:19.817Z</time></trkpt><trkpt lat="38.0344717" lon="15.71586"><ele>706.0</ele><time>2026-04-25T07:33:20.817Z</time></trkpt><trkpt lat="38.0344067" lon="15.7159833"><ele>702.75</ele><time>2026-04-25T07:33:21.817Z</time></trkpt><trkpt lat="38.0342683" lon="15.7161033"><ele>699.5</ele><time>2026-04-25T07:33:22.817Z</time></trkpt><trkpt lat="38.034145" lon="15.7161817"><ele>696.25</ele><time>2026-04-25T07:33:23.816Z</time></trkpt><trkpt lat="38.034065" lon="15.71627"><ele>693.0</ele><time>2026-04-25T07:33:24.817Z</time></trkpt><trkpt lat="38.0340117" lon="15.7163733"><ele>692.1666666666666</ele><time>2026-04-25T07:33:25.817Z</time></trkpt><trkpt lat="38.033945" lon="15.7164717"><ele>691.3333333333334</ele><time>2026-04-25T07:33:26.817Z</time></trkpt><trkpt lat="38.0339283" lon="15.7165583"><ele>690.5</ele><time>2026-04-25T07:33:27.817Z</time></trkpt><trkpt lat="38.033945" lon="15.7166567"><ele>689.6666666666667</ele><time>2026-04-25T07:33:28.817Z</time></trkpt><trkpt lat="38.0339533" lon="15.7167883"><ele>688.8333333333334</ele><time>2026-04-25T07:33:29.817Z</time></trkpt><trkpt lat="38.03395" lon="15.7168833"><ele>688.0</ele><time>2026-04-25T07:33:30.816Z</time></trkpt><trkpt lat="38.0339633" lon="15.7170017"><ele>686.0</ele><time>2026-04-25T07:33:31.816Z</time></trkpt><trkpt lat="38.03395" lon="15.7171117"><ele>684.0</ele><time>2026-04-25T07:33:32.817Z</time></trkpt><trkpt lat="38.0339267" lon="15.7172017"><ele>682.0</ele><time>2026-04-25T07:33:33.816Z</time></trkpt><trkpt lat="38.03388" lon="15.7172833"><ele>680.0</ele><time>2026-04-25T07:33:34.817Z</time></trkpt><trkpt lat="38.033815" lon="15.7173583"><ele>678.0</ele><time>2026-04-25T07:33:35.816Z</time></trkpt><trkpt lat="38.0337217" lon="15.7173633"><ele>676.0</ele><time>2026-04-25T07:33:36.817Z</time></trkpt><trkpt lat="38.033635" lon="15.7173483"><ele>676.0</ele><time>2026-04-25T07:33:37.817Z</time></trkpt><trkpt lat="38.0335533" lon="15.717325"><ele>676.0</ele><time>2026-04-25T07:33:38.817Z</time></trkpt><trkpt lat="38.0334867" lon="15.7173117"><ele>676.0</ele><time>2026-04-25T07:33:39.817Z</time></trkpt><trkpt lat="38.0334683" lon="15.7173933"><ele>676.0</ele><time>2026-04-25T07:33:43.816Z</time></trkpt><trkpt lat="38.0335533" lon="15.717485"><ele>676.0</ele><time>2026-04-25T07:33:45.817Z</time></trkpt><trkpt lat="38.0336133" lon="15.7176183"><ele>676.0</ele><time>2026-04-25T07:33:47.817Z</time></trkpt><trkpt lat="38.0336267" lon="15.7177317"><ele>676.0</ele><time>2026-04-25T07:33:48.817Z</time></trkpt><trkpt lat="38.0336" lon="15.71789"><ele>676.0</ele><time>2026-04-25T07:33:49.817Z</time></trkpt><trkpt lat="38.0335733" lon="15.7180433"><ele>676.0</ele><time>2026-04-25T07:33:50.816Z</time></trkpt><trkpt lat="38.0335383" lon="15.7181767"><ele>675.5999999999999</ele><time>2026-04-25T07:33:51.817Z</time></trkpt><trkpt lat="38.0334783" lon="15.7182833"><ele>675.2</ele><time>2026-04-25T07:33:52.817Z</time></trkpt><trkpt lat="38.03341" lon="15.7183767"><ele>674.8</ele><time>2026-04-25T07:33:53.816Z</time></trkpt><trkpt lat="38.0333533" lon="15.7184417"><ele>674.4000000000001</ele><time>2026-04-25T07:33:54.817Z</time></trkpt><trkpt lat="38.0332967" lon="15.7185417"><ele>674.0</ele><time>2026-04-25T07:33:55.816Z</time></trkpt><trkpt lat="38.033275" lon="15.718675"><ele>673.75</ele><time>2026-04-25T07:33:56.817Z</time></trkpt><trkpt lat="38.0332733" lon="15.7188183"><ele>673.5</ele><time>2026-04-25T07:33:57.817Z</time></trkpt><trkpt lat="38.0332683" lon="15.7189667"><ele>673.25</ele><time>2026-04-25T07:33:58.816Z</time></trkpt><trkpt lat="38.033255" lon="15.71912"><ele>673.0</ele><time>2026-04-25T07:33:59.817Z</time></trkpt><trkpt lat="38.03322" lon="15.7192467"><ele>673.0</ele><time>2026-04-25T07:34:00.817Z</time></trkpt><trkpt lat="38.03319" lon="15.71939"><ele>673.0</ele><time>2026-04-25T07:34:01.816Z</time></trkpt><trkpt lat="38.03319" lon="15.719515"><ele>673.0</ele><time>2026-04-25T07:34:02.817Z</time></trkpt><trkpt lat="38.0331883" lon="15.7196233"><ele>673.0</ele><time>2026-04-25T07:34:03.817Z</time></trkpt><trkpt lat="38.033205" lon="15.719725"><ele>673.0</ele><time>2026-04-25T07:34:04.816Z</time></trkpt><trkpt lat="38.0332317" lon="15.719835"><ele>673.5</ele><time>2026-04-25T07:34:05.817Z</time></trkpt><trkpt lat="38.033265" lon="15.719965"><ele>674.0</ele><time>2026-04-25T07:34:06.816Z</time></trkpt><trkpt lat="38.0333167" lon="15.720105"><ele>674.5</ele><time>2026-04-25T07:34:07.817Z</time></trkpt><trkpt lat="38.033335" lon="15.720255"><ele>675.0</ele><time>2026-04-25T07:34:08.817Z</time></trkpt><trkpt lat="38.0333583" lon="15.7204017"><ele>677.2</ele><time>2026-04-25T07:34:09.817Z</time></trkpt><trkpt lat="38.033365" lon="15.720515"><ele>679.4</ele><time>2026-04-25T07:34:10.817Z</time></trkpt><trkpt lat="38.0333717" lon="15.720645"><ele>681.5999999999999</ele><time>2026-04-25T07:34:11.817Z</time></trkpt><trkpt lat="38.0333667" lon="15.72078"><ele>683.8</ele><time>2026-04-25T07:34:12.817Z</time></trkpt><trkpt lat="38.0333567" lon="15.72091"><ele>686.0</ele><time>2026-04-25T07:34:13.816Z</time></trkpt><trkpt lat="38.033315" lon="15.7210117"><ele>688.0</ele><time>2026-04-25T07:34:14.816Z</time></trkpt><trkpt lat="38.0332867" lon="15.721125"><ele>690.0</ele><time>2026-04-25T07:34:15.816Z</time></trkpt><trkpt lat="38.03326" lon="15.721225"><ele>692.0</ele><time>2026-04-25T07:34:16.817Z</time></trkpt><trkpt lat="38.033305" lon="15.7213517"><ele>694.0</ele><time>2026-04-25T07:34:18.817Z</time></trkpt><trkpt lat="38.0333517" lon="15.7214067"><ele>696.0</ele><time>2026-04-25T07:34:19.816Z</time></trkpt><trkpt lat="38.0333817" lon="15.7214917"><ele>698.0</ele><time>2026-04-25T07:34:20.817Z</time></trkpt><trkpt lat="38.0333917" lon="15.7215833"><ele>698.0</ele><time>2026-04-25T07:34:21.817Z</time></trkpt><trkpt lat="38.033385" lon="15.7216867"><ele>698.0</ele><time>2026-04-25T07:34:22.817Z</time></trkpt><trkpt lat="38.033325" lon="15.7217967"><ele>698.0</ele><time>2026-04-25T07:34:23.817Z</time></trkpt><trkpt lat="38.03329" lon="15.721895"><ele>698.0</ele><time>2026-04-25T07:34:24.817Z</time></trkpt><trkpt lat="38.0332483" lon="15.7219833"><ele>698.0</ele><time>2026-04-25T07:34:25.817Z</time></trkpt><trkpt lat="38.0332033" lon="15.7220633"><ele>698.0</ele><time>2026-04-25T07:34:26.817Z</time></trkpt><trkpt lat="38.0331683" lon="15.7222017"><ele>699.8</ele><time>2026-04-25T07:34:28.817Z</time></trkpt><trkpt lat="38.0332333" lon="15.7223533"><ele>701.5999999999999</ele><time>2026-04-25T07:34:30.816Z</time></trkpt><trkpt lat="38.0332833" lon="15.7224367"><ele>703.4000000000001</ele><time>2026-04-25T07:34:31.817Z</time></trkpt><trkpt lat="38.0333383" lon="15.722525"><ele>705.2</ele><time>2026-04-25T07:34:32.817Z</time></trkpt><trkpt lat="38.0333817" lon="15.7226117"><ele>707.0</ele><time>2026-04-25T07:34:33.816Z</time></trkpt><trkpt lat="38.0334217" lon="15.7227017"><ele>707.8</ele><time>2026-04-25T07:34:34.817Z</time></trkpt><trkpt lat="38.033455" lon="15.7227983"><ele>708.6</ele><time>2026-04-25T07:34:35.817Z</time></trkpt><trkpt lat="38.0334583" lon="15.7228783"><ele>709.4</ele><time>2026-04-25T07:34:36.817Z</time></trkpt><trkpt lat="38.0334467" lon="15.7229783"><ele>710.1999999999999</ele><time>2026-04-25T07:34:40.817Z</time></trkpt><trkpt lat="38.0333683" lon="15.7229833"><ele>711.0</ele><time>2026-04-25T07:34:56.817Z</time></trkpt><trkpt lat="38.0333433" lon="15.722765"><ele>711.1666666666666</ele><time>2026-04-25T07:34:58.816Z</time></trkpt><trkpt lat="38.0333417" lon="15.7226517"><ele>711.3333333333334</ele><time>2026-04-25T07:34:59.817Z</time></trkpt><trkpt lat="38.0333567" lon="15.722555"><ele>711.5</ele><time>2026-04-25T07:35:00.816Z</time></trkpt><trkpt lat="38.0333517" lon="15.7224517"><ele>711.6666666666667</ele><time>2026-04-25T07:35:01.817Z</time></trkpt><trkpt lat="38.0333367" lon="15.7223533"><ele>711.8333333333334</ele><time>2026-04-25T07:35:02.816Z</time></trkpt><trkpt lat="38.0332967" lon="15.7222583"><ele>712.0</ele><time>2026-04-25T07:35:03.817Z</time></trkpt><trkpt lat="38.0332283" lon="15.7221783"><ele>711.0</ele><time>2026-04-25T07:35:04.817Z</time></trkpt><trkpt lat="38.0331917" lon="15.722095"><ele>710.0</ele><time>2026-04-25T07:35:05.817Z</time></trkpt><trkpt lat="38.0331717" lon="15.721935"><ele>709.0</ele><time>2026-04-25T07:35:07.817Z</time></trkpt><trkpt lat="38.0332117" lon="15.7218567"><ele>708.0</ele><time>2026-04-25T07:35:08.817Z</time></trkpt><trkpt lat="38.0332667" lon="15.721775"><ele>707.0</ele><time>2026-04-25T07:35:09.816Z</time></trkpt><trkpt lat="38.033335" lon="15.721665"><ele>706.0</ele><time>2026-04-25T07:35:10.817Z</time></trkpt><trkpt lat="38.03339" lon="15.7215483"><ele>705.0</ele><time>2026-04-25T07:35:11.817Z</time></trkpt><trkpt lat="38.0334133" lon="15.7214233"><ele>704.0</ele><time>2026-04-25T07:35:12.817Z</time></trkpt><trkpt lat="38.0334083" lon="15.721315"><ele>703.0</ele><time>2026-04-25T07:35:13.816Z</time></trkpt><trkpt lat="38.0334" lon="15.7212017"><ele>702.0</ele><time>2026-04-25T07:35:14.817Z</time></trkpt><trkpt lat="38.0333767" lon="15.721105"><ele>699.3333333333334</ele><time>2026-04-25T07:35:15.817Z</time></trkpt><trkpt lat="38.0333333" lon="15.7210183"><ele>696.6666666666666</ele><time>2026-04-25T07:35:16.817Z</time></trkpt><trkpt lat="38.0333083" lon="15.72092"><ele>694.0</ele><time>2026-04-25T07:35:17.817Z</time></trkpt><trkpt lat="38.033325" lon="15.720765"><ele>691.3333333333333</ele><time>2026-04-25T07:35:19.817Z</time></trkpt><trkpt lat="38.0333467" lon="15.7206683"><ele>688.6666666666666</ele><time>2026-04-25T07:35:20.816Z</time></trkpt><trkpt lat="38.03337" lon="15.7205667"><ele>686.0</ele><time>2026-04-25T07:35:21.816Z</time></trkpt><trkpt lat="38.03339" lon="15.72046"><ele>686.0</ele><time>2026-04-25T07:35:22.816Z</time></trkpt><trkpt lat="38.0334" lon="15.7203417"><ele>686.0</ele><time>2026-04-25T07:35:23.817Z</time></trkpt><trkpt lat="38.03339" lon="15.7202183"><ele>686.0</ele><time>2026-04-25T07:35:24.817Z</time></trkpt><trkpt lat="38.03336" lon="15.7200733"><ele>686.0</ele><time>2026-04-25T07:35:25.817Z</time></trkpt><trkpt lat="38.0333" lon="15.7198983"><ele>686.0</ele><time>2026-04-25T07:35:26.816Z</time></trkpt><trkpt lat="38.0332883" lon="15.71974"><ele>686.0</ele><time>2026-04-25T07:35:27.817Z</time></trkpt><trkpt lat="38.0332883" lon="15.7195983"><ele>686.0</ele><time>2026-04-25T07:35:28.817Z</time></trkpt><trkpt lat="38.0332833" lon="15.719485"><ele>686.0</ele><time>2026-04-25T07:35:29.817Z</time></trkpt><trkpt lat="38.0332567" lon="15.7194"><ele>686.0</ele><time>2026-04-25T07:35:30.817Z</time></trkpt><trkpt lat="38.0331483" lon="15.71936"><ele>686.0</ele><time>2026-04-25T07:35:32.817Z</time></trkpt><trkpt lat="38.0330733" lon="15.7194033"><ele>686.0</ele><time>2026-04-25T07:35:34.817Z</time></trkpt><trkpt lat="38.0330333" lon="15.7195433"><ele>686.0</ele><time>2026-04-25T07:35:36.817Z</time></trkpt><trkpt lat="38.0331267" lon="15.7198167"><ele>686.0</ele><time>2026-04-25T07:35:37.816Z</time></trkpt><trkpt lat="38.03314" lon="15.7199867"><ele>686.0</ele><time>2026-04-25T07:35:38.816Z</time></trkpt><trkpt lat="38.033145" lon="15.7201483"><ele>686.0</ele><time>2026-04-25T07:35:39.817Z</time></trkpt><trkpt lat="38.0331283" lon="15.7202767"><ele>686.0</ele><time>2026-04-25T07:35:40.817Z</time></trkpt><trkpt lat="38.03309" lon="15.7203817"><ele>686.0</ele><time>2026-04-25T07:35:41.816Z</time></trkpt><trkpt lat="38.03306" lon="15.72046"><ele>686.0</ele><time>2026-04-25T07:35:42.817Z</time></trkpt><trkpt lat="38.033005" lon="15.7205367"><ele>686.0</ele><time>2026-04-25T07:35:44.817Z</time></trkpt><trkpt lat="38.0329867" lon="15.72046"><ele>686.0</ele><time>2026-04-25T07:35:46.817Z</time></trkpt><trkpt lat="38.0330433" lon="15.7203733"><ele>686.0</ele><time>2026-04-25T07:35:47.817Z</time></trkpt><trkpt lat="38.0330467" lon="15.7202883"><ele>686.0</ele><time>2026-04-25T07:35:48.817Z</time></trkpt><trkpt lat="38.0330183" lon="15.7202017"><ele>686.0</ele><time>2026-04-25T07:35:49.817Z</time></trkpt><trkpt lat="38.0329733" lon="15.72012"><ele>686.0</ele><time>2026-04-25T07:35:50.817Z</time></trkpt><trkpt lat="38.0329217" lon="15.720035"><ele>686.0</ele><time>2026-04-25T07:35:51.817Z</time></trkpt><trkpt lat="38.0328517" lon="15.7199483"><ele>686.0</ele><time>2026-04-25T07:35:52.817Z</time></trkpt><trkpt lat="38.0327617" lon="15.7198433"><ele>686.0</ele><time>2026-04-25T07:35:53.817Z</time></trkpt><trkpt lat="38.0326717" lon="15.7197017"><ele>686.0</ele><time>2026-04-25T07:35:54.817Z</time></trkpt><trkpt lat="38.0325983" lon="15.7195883"><ele>686.0</ele><time>2026-04-25T07:35:55.816Z</time></trkpt><trkpt lat="38.0325283" lon="15.7194817"><ele>686.0</ele><time>2026-04-25T07:35:56.817Z</time></trkpt><trkpt lat="38.0324583" lon="15.7193583"><ele>686.0</ele><time>2026-04-25T07:35:57.817Z</time></trkpt><trkpt lat="38.03241" lon="15.7192533"><ele>686.0</ele><time>2026-04-25T07:35:58.817Z</time></trkpt><trkpt lat="38.0323767" lon="15.7191783"><ele>686.0</ele><time>2026-04-25T07:35:59.817Z</time></trkpt><trkpt lat="38.0324483" lon="15.7190417"><ele>687.1999999999999</ele><time>2026-04-25T07:36:01.817Z</time></trkpt><trkpt lat="38.0325217" lon="15.7189783"><ele>688.4</ele><time>2026-04-25T07:36:02.817Z</time></trkpt><trkpt lat="38.0325233" lon="15.71885"><ele>689.6</ele><time>2026-04-25T07:36:04.816Z</time></trkpt><trkpt lat="38.032495" lon="15.7187083"><ele>690.8</ele><time>2026-04-25T07:36:06.817Z</time></trkpt><trkpt lat="38.0324683" lon="15.71863"><ele>692.0</ele><time>2026-04-25T07:36:07.816Z</time></trkpt><trkpt lat="38.0324217" lon="15.7185433"><ele>694.0</ele><time>2026-04-25T07:36:08.816Z</time></trkpt><trkpt lat="38.03238" lon="15.7184433"><ele>696.0</ele><time>2026-04-25T07:36:09.817Z</time></trkpt><trkpt lat="38.0323433" lon="15.7183667"><ele>698.0</ele><time>2026-04-25T07:36:10.817Z</time></trkpt><trkpt lat="38.032335" lon="15.7182783"><ele>700.0</ele><time>2026-04-25T07:36:11.817Z</time></trkpt><trkpt lat="38.03234" lon="15.7181917"><ele>702.0</ele><time>2026-04-25T07:36:12.817Z</time></trkpt><trkpt lat="38.0323333" lon="15.718105"><ele>704.0</ele><time>2026-04-25T07:36:13.816Z</time></trkpt><trkpt lat="38.0323233" lon="15.71801"><ele>706.0</ele><time>2026-04-25T07:36:14.816Z</time></trkpt><trkpt lat="38.0322867" lon="15.7179317"><ele>706.0</ele><time>2026-04-25T07:36:15.817Z</time></trkpt><trkpt lat="38.032235" lon="15.7178383"><ele>706.0</ele><time>2026-04-25T07:36:16.817Z</time></trkpt><trkpt lat="38.0321767" lon="15.7177367"><ele>706.0</ele><time>2026-04-25T07:36:17.816Z</time></trkpt><trkpt lat="38.0321167" lon="15.7176333"><ele>706.0</ele><time>2026-04-25T07:36:18.816Z</time></trkpt><trkpt lat="38.0320567" lon="15.71753"><ele>706.0</ele><time>2026-04-25T07:36:19.817Z</time></trkpt><trkpt lat="38.0319967" lon="15.71745"><ele>704.1666666666667</ele><time>2026-04-25T07:36:20.817Z</time></trkpt><trkpt lat="38.0319367" lon="15.717375"><ele>702.3333333333334</ele><time>2026-04-25T07:36:21.816Z</time></trkpt><trkpt lat="38.0318683" lon="15.7173183"><ele>700.5</ele><time>2026-04-25T07:36:22.816Z</time></trkpt><trkpt lat="38.03179" lon="15.71731"><ele>698.6666666666666</ele><time>2026-04-25T07:36:23.816Z</time></trkpt><trkpt lat="38.031725" lon="15.7173033"><ele>696.8333333333333</ele><time>2026-04-25T07:36:24.816Z</time></trkpt><trkpt lat="38.0316583" lon="15.7172733"><ele>695.0</ele><time>2026-04-25T07:36:25.817Z</time></trkpt><trkpt lat="38.0315833" lon="15.7173083"><ele>700.2</ele><time>2026-04-25T07:36:26.816Z</time></trkpt><trkpt lat="38.0314917" lon="15.717335"><ele>705.4</ele><time>2026-04-25T07:36:27.817Z</time></trkpt><trkpt lat="38.0314217" lon="15.7173483"><ele>710.5999999999999</ele><time>2026-04-25T07:36:28.817Z</time></trkpt><trkpt lat="38.031345" lon="15.7172783"><ele>715.8</ele><time>2026-04-25T07:36:30.817Z</time></trkpt><trkpt lat="38.0314067" lon="15.7171533"><ele>721.0</ele><time>2026-04-25T07:36:31.817Z</time></trkpt><trkpt lat="38.0314183" lon="15.7170517"><ele>721.0</ele><time>2026-04-25T07:36:32.817Z</time></trkpt><trkpt lat="38.0314233" lon="15.71696"><ele>721.0</ele><time>2026-04-25T07:36:33.817Z</time></trkpt><trkpt lat="38.0314117" lon="15.71681"><ele>721.0</ele><time>2026-04-25T07:36:35.816Z</time></trkpt><trkpt lat="38.03138" lon="15.71667"><ele>721.0</ele><time>2026-04-25T07:36:37.817Z</time></trkpt><trkpt lat="38.03132" lon="15.7166133"><ele>721.0</ele><time>2026-04-25T07:36:38.817Z</time></trkpt><trkpt lat="38.0312083" lon="15.7165767"><ele>719.0</ele><time>2026-04-25T07:36:40.817Z</time></trkpt><trkpt lat="38.0310967" lon="15.7165383"><ele>717.0</ele><time>2026-04-25T07:36:42.817Z</time></trkpt><trkpt lat="38.0310433" lon="15.7163883"><ele>715.0</ele><time>2026-04-25T07:36:44.817Z</time></trkpt><trkpt lat="38.0310033" lon="15.71632"><ele>713.0</ele><time>2026-04-25T07:36:45.817Z</time></trkpt><trkpt lat="38.030955" lon="15.7162567"><ele>711.0</ele><time>2026-04-25T07:36:46.817Z</time></trkpt><trkpt lat="38.0308783" lon="15.7161917"><ele>712.0</ele><time>2026-04-25T07:36:47.817Z</time></trkpt><trkpt lat="38.0307883" lon="15.7161433"><ele>713.0</ele><time>2026-04-25T07:36:48.816Z</time></trkpt><trkpt lat="38.030695" lon="15.7161417"><ele>714.0</ele><time>2026-04-25T07:36:49.817Z</time></trkpt><trkpt lat="38.03058" lon="15.7161867"><ele>715.0</ele><time>2026-04-25T07:36:50.817Z</time></trkpt><trkpt lat="38.0305067" lon="15.7161917"><ele>716.0</ele><time>2026-04-25T07:36:51.817Z</time></trkpt><trkpt lat="38.0304217" lon="15.71621"><ele>716.0</ele><time>2026-04-25T07:36:52.817Z</time></trkpt><trkpt lat="38.030355" lon="15.7161917"><ele>716.0</ele><time>2026-04-25T07:36:53.816Z</time></trkpt><trkpt lat="38.03029" lon="15.71615"><ele>716.0</ele><time>2026-04-25T07:36:54.817Z</time></trkpt><trkpt lat="38.0302633" lon="15.7160683"><ele>716.0</ele><time>2026-04-25T07:36:55.817Z</time></trkpt><trkpt lat="38.0302367" lon="15.7159467"><ele>716.0</ele><time>2026-04-25T07:36:56.817Z</time></trkpt><trkpt lat="38.0301933" lon="15.715815"><ele>716.0</ele><time>2026-04-25T07:36:57.817Z</time></trkpt><trkpt lat="38.03015" lon="15.7156667"><ele>715.4</ele><time>2026-04-25T07:36:58.817Z</time></trkpt><trkpt lat="38.0300933" lon="15.715525"><ele>714.8</ele><time>2026-04-25T07:36:59.817Z</time></trkpt><trkpt lat="38.030045" lon="15.7154067"><ele>714.1999999999999</ele><time>2026-04-25T07:37:00.817Z</time></trkpt><trkpt lat="38.0300017" lon="15.7153133"><ele>713.5999999999999</ele><time>2026-04-25T07:37:01.817Z</time></trkpt><trkpt lat="38.0299533" lon="15.71525"><ele>713.0</ele><time>2026-04-25T07:37:02.817Z</time></trkpt><trkpt lat="38.0298783" lon="15.7152683"><ele>713.0</ele><time>2026-04-25T07:37:05.816Z</time></trkpt><trkpt lat="38.0299383" lon="15.7154117"><ele>713.0</ele><time>2026-04-25T07:37:07.817Z</time></trkpt><trkpt lat="38.0300033" lon="15.7155467"><ele>713.0</ele><time>2026-04-25T07:37:08.817Z</time></trkpt><trkpt lat="38.0300433" lon="15.7157067"><ele>713.0</ele><time>2026-04-25T07:37:09.817Z</time></trkpt><trkpt lat="38.0300783" lon="15.7159"><ele>713.0</ele><time>2026-04-25T07:37:10.816Z</time></trkpt><trkpt lat="38.0300983" lon="15.7160667"><ele>713.0</ele><time>2026-04-25T07:37:11.817Z</time></trkpt><trkpt lat="38.0301017" lon="15.7162133"><ele>713.0</ele><time>2026-04-25T07:37:12.817Z</time></trkpt><trkpt lat="38.0300967" lon="15.7163517"><ele>713.0</ele><time>2026-04-25T07:37:13.817Z</time></trkpt><trkpt lat="38.030105" lon="15.7164817"><ele>713.5</ele><time>2026-04-25T07:37:14.816Z</time></trkpt><trkpt lat="38.030155" lon="15.7166017"><ele>714.0</ele><time>2026-04-25T07:37:15.816Z</time></trkpt><trkpt lat="38.0302183" lon="15.7167217"><ele>714.5</ele><time>2026-04-25T07:37:16.817Z</time></trkpt><trkpt lat="38.0302733" lon="15.7168433"><ele>715.0</ele><time>2026-04-25T07:37:17.816Z</time></trkpt><trkpt lat="38.0303433" lon="15.7169767"><ele>715.0</ele><time>2026-04-25T07:37:18.816Z</time></trkpt><trkpt lat="38.0304067" lon="15.7171117"><ele>715.0</ele><time>2026-04-25T07:37:19.817Z</time></trkpt><trkpt lat="38.0304833" lon="15.7172583"><ele>715.0</ele><time>2026-04-25T07:37:20.817Z</time></trkpt><trkpt lat="38.03055" lon="15.7174017"><ele>715.0</ele><time>2026-04-25T07:37:21.816Z</time></trkpt><trkpt lat="38.0306" lon="15.717545"><ele>715.0</ele><time>2026-04-25T07:37:22.817Z</time></trkpt><trkpt lat="38.0306283" lon="15.71768"><ele>715.0</ele><time>2026-04-25T07:37:23.816Z</time></trkpt><trkpt lat="38.030625" lon="15.7177983"><ele>715.0</ele><time>2026-04-25T07:37:24.817Z</time></trkpt><trkpt lat="38.0306083" lon="15.7179167"><ele>715.0</ele><time>2026-04-25T07:37:25.817Z</time></trkpt><trkpt lat="38.0305933" lon="15.7180567"><ele>715.0</ele><time>2026-04-25T07:37:26.817Z</time></trkpt><trkpt lat="38.0305483" lon="15.7182"><ele>717.0</ele><time>2026-04-25T07:37:27.817Z</time></trkpt><trkpt lat="38.03048" lon="15.7183317"><ele>719.0</ele><time>2026-04-25T07:37:28.816Z</time></trkpt><trkpt lat="38.0303933" lon="15.7184833"><ele>721.0</ele><time>2026-04-25T07:37:29.817Z</time></trkpt><trkpt lat="38.0303133" lon="15.7186333"><ele>723.0</ele><time>2026-04-25T07:37:30.817Z</time></trkpt><trkpt lat="38.030255" lon="15.7187683"><ele>724.0</ele><time>2026-04-25T07:37:31.816Z</time></trkpt><trkpt lat="38.0302167" lon="15.7189067"><ele>725.0</ele><time>2026-04-25T07:37:32.817Z</time></trkpt><trkpt lat="38.0302067" lon="15.7190233"><ele>726.0</ele><time>2026-04-25T07:37:33.816Z</time></trkpt><trkpt lat="38.0301733" lon="15.719145"><ele>727.0</ele><time>2026-04-25T07:37:34.817Z</time></trkpt><trkpt lat="38.0301033" lon="15.7192467"><ele>728.0</ele><time>2026-04-25T07:37:35.816Z</time></trkpt><trkpt lat="38.030035" lon="15.7193467"><ele>728.0</ele><time>2026-04-25T07:37:36.816Z</time></trkpt><trkpt lat="38.0299833" lon="15.7194783"><ele>728.0</ele><time>2026-04-25T07:37:37.817Z</time></trkpt><trkpt lat="38.029945" lon="15.7195833"><ele>728.0</ele><time>2026-04-25T07:37:38.817Z</time></trkpt><trkpt lat="38.0299033" lon="15.7196767"><ele>728.0</ele><time>2026-04-25T07:37:39.817Z</time></trkpt><trkpt lat="38.029875" lon="15.71982"><ele>728.0</ele><time>2026-04-25T07:37:40.817Z</time></trkpt><trkpt lat="38.02986" lon="15.7199583"><ele>730.6666666666666</ele><time>2026-04-25T07:37:41.817Z</time></trkpt><trkpt lat="38.02985" lon="15.720075"><ele>733.3333333333333</ele><time>2026-04-25T07:37:42.817Z</time></trkpt><trkpt lat="38.0298617" lon="15.7201933"><ele>736.0</ele><time>2026-04-25T07:37:43.817Z</time></trkpt><trkpt lat="38.0298633" lon="15.720305"><ele>738.6666666666666</ele><time>2026-04-25T07:37:44.816Z</time></trkpt><trkpt lat="38.0298383" lon="15.7204067"><ele>741.3333333333334</ele><time>2026-04-25T07:37:45.816Z</time></trkpt><trkpt lat="38.0297967" lon="15.72048"><ele>744.0</ele><time>2026-04-25T07:37:46.817Z</time></trkpt><trkpt lat="38.0297567" lon="15.7205567"><ele>744.8000000000001</ele><time>2026-04-25T07:37:47.817Z</time></trkpt><trkpt lat="38.0296783" lon="15.7205867"><ele>745.6</ele><time>2026-04-25T07:37:48.817Z</time></trkpt><trkpt lat="38.0295917" lon="15.7206067"><ele>746.4</ele><time>2026-04-25T07:37:49.817Z</time></trkpt><trkpt lat="38.02949" lon="15.7206283"><ele>747.2</ele><time>2026-04-25T07:37:50.817Z</time></trkpt><trkpt lat="38.02937" lon="15.7206483"><ele>748.0</ele><time>2026-04-25T07:37:51.817Z</time></trkpt><trkpt lat="38.02926" lon="15.7207133"><ele>748.0</ele><time>2026-04-25T07:37:52.816Z</time></trkpt><trkpt lat="38.029145" lon="15.72076"><ele>748.0</ele><time>2026-04-25T07:37:53.817Z</time></trkpt><trkpt lat="38.0290467" lon="15.7208017"><ele>748.0</ele><time>2026-04-25T07:37:54.817Z</time></trkpt><trkpt lat="38.028955" lon="15.7208367"><ele>748.0</ele><time>2026-04-25T07:37:55.817Z</time></trkpt><trkpt lat="38.0288683" lon="15.7208933"><ele>748.0</ele><time>2026-04-25T07:37:56.817Z</time></trkpt><trkpt lat="38.0287883" lon="15.72098"><ele>749.2</ele><time>2026-04-25T07:37:57.817Z</time></trkpt><trkpt lat="38.0287517" lon="15.72108"><ele>750.4</ele><time>2026-04-25T07:37:58.817Z</time></trkpt><trkpt lat="38.0287583" lon="15.72121"><ele>751.6</ele><time>2026-04-25T07:37:59.817Z</time></trkpt><trkpt lat="38.02877" lon="15.7213433"><ele>752.8000000000001</ele><time>2026-04-25T07:38:00.817Z</time></trkpt><trkpt lat="38.0288033" lon="15.7214633"><ele>754.0</ele><time>2026-04-25T07:38:01.817Z</time></trkpt><trkpt lat="38.02883" lon="15.72161"><ele>754.0</ele><time>2026-04-25T07:38:02.817Z</time></trkpt><trkpt lat="38.0288217" lon="15.7217517"><ele>754.0</ele><time>2026-04-25T07:38:03.817Z</time></trkpt><trkpt lat="38.0287933" lon="15.7218817"><ele>754.0</ele><time>2026-04-25T07:38:04.817Z</time></trkpt><trkpt lat="38.0287567" lon="15.722015"><ele>754.0</ele><time>2026-04-25T07:38:05.817Z</time></trkpt><trkpt lat="38.0287167" lon="15.72215"><ele>754.0</ele><time>2026-04-25T07:38:06.817Z</time></trkpt><trkpt lat="38.0286733" lon="15.72228"><ele>756.4000000000001</ele><time>2026-04-25T07:38:07.817Z</time></trkpt><trkpt lat="38.0286467" lon="15.722425"><ele>758.8</ele><time>2026-04-25T07:38:08.817Z</time></trkpt><trkpt lat="38.0286367" lon="15.722555"><ele>761.2</ele><time>2026-04-25T07:38:09.817Z</time></trkpt><trkpt lat="38.02865" lon="15.7226967"><ele>763.5999999999999</ele><time>2026-04-25T07:38:10.817Z</time></trkpt><trkpt lat="38.0286617" lon="15.7228417"><ele>766.0</ele><time>2026-04-25T07:38:11.817Z</time></trkpt><trkpt lat="38.028675" lon="15.72296"><ele>767.5999999999999</ele><time>2026-04-25T07:38:12.816Z</time></trkpt><trkpt lat="38.0286883" lon="15.7230733"><ele>769.2</ele><time>2026-04-25T07:38:13.817Z</time></trkpt><trkpt lat="38.028695" lon="15.723175"><ele>770.8</ele><time>2026-04-25T07:38:14.817Z</time></trkpt><trkpt lat="38.028695" lon="15.72329"><ele>772.4000000000001</ele><time>2026-04-25T07:38:15.817Z</time></trkpt><trkpt lat="38.02871" lon="15.7234267"><ele>774.0</ele><time>2026-04-25T07:38:16.817Z</time></trkpt><trkpt lat="38.02869" lon="15.7235617"><ele>775.4000000000001</ele><time>2026-04-25T07:38:17.817Z</time></trkpt><trkpt lat="38.0286833" lon="15.7236933"><ele>776.8</ele><time>2026-04-25T07:38:18.817Z</time></trkpt><trkpt lat="38.0286867" lon="15.7238333"><ele>778.2</ele><time>2026-04-25T07:38:19.816Z</time></trkpt><trkpt lat="38.0286783" lon="15.7239533"><ele>779.5999999999999</ele><time>2026-04-25T07:38:20.817Z</time></trkpt><trkpt lat="38.028665" lon="15.7240667"><ele>781.0</ele><time>2026-04-25T07:38:21.817Z</time></trkpt><trkpt lat="38.0286667" lon="15.7242"><ele>781.0</ele><time>2026-04-25T07:38:22.817Z</time></trkpt><trkpt lat="38.0286867" lon="15.72435"><ele>781.0</ele><time>2026-04-25T07:38:23.816Z</time></trkpt><trkpt lat="38.0287217" lon="15.7244883"><ele>781.0</ele><time>2026-04-25T07:38:24.816Z</time></trkpt><trkpt lat="38.0287667" lon="15.7246317"><ele>781.0</ele><time>2026-04-25T07:38:25.817Z</time></trkpt><trkpt lat="38.0287933" lon="15.724775"><ele>781.9999999999999</ele><time>2026-04-25T07:38:26.816Z</time></trkpt><trkpt lat="38.0288183" lon="15.724895"><ele>783.0</ele><time>2026-04-25T07:38:27.817Z</time></trkpt><trkpt lat="38.028845" lon="15.724995"><ele>784.0</ele><time>2026-04-25T07:38:28.816Z</time></trkpt><trkpt lat="38.02887" lon="15.7250783"><ele>785.0</ele><time>2026-04-25T07:38:29.816Z</time></trkpt><trkpt lat="38.0288817" lon="15.725165"><ele>785.9999999999999</ele><time>2026-04-25T07:38:34.817Z</time></trkpt><trkpt lat="38.02877" lon="15.7252433"><ele>787.0</ele><time>2026-04-25T07:38:36.817Z</time></trkpt><trkpt lat="38.0287167" lon="15.7252967"><ele>787.4000000000001</ele><time>2026-04-25T07:38:37.816Z</time></trkpt><trkpt lat="38.0286567" lon="15.725365"><ele>787.8000000000001</ele><time>2026-04-25T07:38:38.817Z</time></trkpt><trkpt lat="38.0285933" lon="15.7254417"><ele>788.2</ele><time>2026-04-25T07:38:39.817Z</time></trkpt><trkpt lat="38.0285367" lon="15.7255367"><ele>788.6</ele><time>2026-04-25T07:38:40.817Z</time></trkpt><trkpt lat="38.0284717" lon="15.7256583"><ele>789.0</ele><time>2026-04-25T07:38:41.816Z</time></trkpt><trkpt lat="38.0284117" lon="15.7257867"><ele>789.0</ele><time>2026-04-25T07:38:42.816Z</time></trkpt><trkpt lat="38.0283433" lon="15.7259333"><ele>789.0</ele><time>2026-04-25T07:38:43.817Z</time></trkpt><trkpt lat="38.02829" lon="15.7260833"><ele>789.0</ele><time>2026-04-25T07:38:44.816Z</time></trkpt><trkpt lat="38.02822" lon="15.726215"><ele>789.0</ele><time>2026-04-25T07:38:45.817Z</time></trkpt><trkpt lat="38.028195" lon="15.72634"><ele>789.8000000000001</ele><time>2026-04-25T07:38:46.817Z</time></trkpt><trkpt lat="38.028195" lon="15.726445"><ele>790.6</ele><time>2026-04-25T07:38:47.817Z</time></trkpt><trkpt lat="38.0282333" lon="15.7265367"><ele>791.4</ele><time>2026-04-25T07:38:48.817Z</time></trkpt><trkpt lat="38.028255" lon="15.7266517"><ele>792.2</ele><time>2026-04-25T07:38:49.817Z</time></trkpt><trkpt lat="38.0283283" lon="15.7267617"><ele>793.0</ele><time>2026-04-25T07:38:50.816Z</time></trkpt><trkpt lat="38.0283667" lon="15.7268683"><ele>794.0</ele><time>2026-04-25T07:38:51.817Z</time></trkpt><trkpt lat="38.02839" lon="15.7269767"><ele>795.0</ele><time>2026-04-25T07:38:52.816Z</time></trkpt><trkpt lat="38.0284033" lon="15.7270933"><ele>796.0</ele><time>2026-04-25T07:38:53.817Z</time></trkpt><trkpt lat="38.0283933" lon="15.7272117"><ele>797.0</ele><time>2026-04-25T07:38:54.817Z</time></trkpt><trkpt lat="38.0283633" lon="15.7273433"><ele>798.0</ele><time>2026-04-25T07:38:55.817Z</time></trkpt><trkpt lat="38.0283683" lon="15.72748"><ele>798.0</ele><time>2026-04-25T07:38:56.817Z</time></trkpt><trkpt lat="38.0283717" lon="15.7276083"><ele>798.0</ele><time>2026-04-25T07:38:57.816Z</time></trkpt><trkpt lat="38.02837" lon="15.7277317"><ele>798.0</ele><time>2026-04-25T07:38:58.817Z</time></trkpt><trkpt lat="38.02836" lon="15.7278567"><ele>798.0</ele><time>2026-04-25T07:38:59.817Z</time></trkpt><trkpt lat="38.02834" lon="15.727965"><ele>798.0</ele><time>2026-04-25T07:39:00.816Z</time></trkpt><trkpt lat="38.0282983" lon="15.72807"><ele>799.6666666666666</ele><time>2026-04-25T07:39:01.817Z</time></trkpt><trkpt lat="38.0282467" lon="15.7281617"><ele>801.3333333333333</ele><time>2026-04-25T07:39:02.816Z</time></trkpt><trkpt lat="38.028205" lon="15.7282433"><ele>803.0</ele><time>2026-04-25T07:39:03.816Z</time></trkpt><trkpt lat="38.028135" lon="15.7282933"><ele>804.6666666666666</ele><time>2026-04-25T07:39:04.817Z</time></trkpt><trkpt lat="38.0280417" lon="15.7283267"><ele>806.3333333333333</ele><time>2026-04-25T07:39:05.817Z</time></trkpt><trkpt lat="38.027945" lon="15.728365"><ele>808.0</ele><time>2026-04-25T07:39:06.817Z</time></trkpt><trkpt lat="38.0278133" lon="15.7284083"><ele>808.0</ele><time>2026-04-25T07:39:07.817Z</time></trkpt><trkpt lat="38.02772" lon="15.7284533"><ele>808.0</ele><time>2026-04-25T07:39:08.816Z</time></trkpt><trkpt lat="38.0276317" lon="15.728515"><ele>808.0</ele><time>2026-04-25T07:39:09.817Z</time></trkpt><trkpt lat="38.027535" lon="15.7285767"><ele>808.0</ele><time>2026-04-25T07:39:10.816Z</time></trkpt><trkpt lat="38.027485" lon="15.72873"><ele>808.0</ele><time>2026-04-25T07:39:12.817Z</time></trkpt><trkpt lat="38.027475" lon="15.7288217"><ele>808.4</ele><time>2026-04-25T07:39:13.817Z</time></trkpt><trkpt lat="38.027495" lon="15.72892"><ele>808.8</ele><time>2026-04-25T07:39:14.817Z</time></trkpt><trkpt lat="38.02759" lon="15.7290283"><ele>809.2</ele><time>2026-04-25T07:39:15.817Z</time></trkpt><trkpt lat="38.02768" lon="15.7291267"><ele>809.6</ele><time>2026-04-25T07:39:16.817Z</time></trkpt><trkpt lat="38.02775" lon="15.729235"><ele>810.0</ele><time>2026-04-25T07:39:17.817Z</time></trkpt><trkpt lat="38.027815" lon="15.7293317"><ele>810.0</ele><time>2026-04-25T07:39:18.817Z</time></trkpt><trkpt lat="38.02796" lon="15.7293783"><ele>810.0</ele><time>2026-04-25T07:39:19.817Z</time></trkpt><trkpt lat="38.0280533" lon="15.729425"><ele>810.0</ele><time>2026-04-25T07:39:20.817Z</time></trkpt><trkpt lat="38.0281417" lon="15.7294883"><ele>810.0</ele><time>2026-04-25T07:39:21.816Z</time></trkpt><trkpt lat="38.0282167" lon="15.7295783"><ele>809.8</ele><time>2026-04-25T07:39:22.816Z</time></trkpt><trkpt lat="38.0282667" lon="15.7296733"><ele>809.6</ele><time>2026-04-25T07:39:23.816Z</time></trkpt><trkpt lat="38.02832" lon="15.7297883"><ele>809.4000000000001</ele><time>2026-04-25T07:39:24.817Z</time></trkpt><trkpt lat="38.0283667" lon="15.72991"><ele>809.2</ele><time>2026-04-25T07:39:25.817Z</time></trkpt><trkpt lat="38.028415" lon="15.73006"><ele>809.0</ele><time>2026-04-25T07:39:26.817Z</time></trkpt><trkpt lat="38.0284683" lon="15.7302133"><ele>808.0</ele><time>2026-04-25T07:39:27.817Z</time></trkpt><trkpt lat="38.0285017" lon="15.7303283"><ele>807.0</ele><time>2026-04-25T07:39:28.816Z</time></trkpt><trkpt lat="38.0285267" lon="15.730445"><ele>806.0</ele><time>2026-04-25T07:39:29.816Z</time></trkpt><trkpt lat="38.02849" lon="15.7305433"><ele>805.0</ele><time>2026-04-25T07:39:30.816Z</time></trkpt><trkpt lat="38.0284833" lon="15.7306533"><ele>804.0</ele><time>2026-04-25T07:39:31.817Z</time></trkpt><trkpt lat="38.02847" lon="15.7307883"><ele>804.0</ele><time>2026-04-25T07:39:32.816Z</time></trkpt><trkpt lat="38.0284717" lon="15.7309233"><ele>804.0</ele><time>2026-04-25T07:39:33.816Z</time></trkpt><trkpt lat="38.0284933" lon="15.7310733"><ele>804.0</ele><time>2026-04-25T07:39:34.816Z</time></trkpt><trkpt lat="38.0285017" lon="15.7312117"><ele>804.0</ele><time>2026-04-25T07:39:35.817Z</time></trkpt><trkpt lat="38.02852" lon="15.7313067"><ele>804.0</ele><time>2026-04-25T07:39:36.817Z</time></trkpt><trkpt lat="38.0285683" lon="15.73139"><ele>803.6</ele><time>2026-04-25T07:39:37.817Z</time></trkpt><trkpt lat="38.0286417" lon="15.731475"><ele>803.2</ele><time>2026-04-25T07:39:38.817Z</time></trkpt><trkpt lat="38.0287" lon="15.7315917"><ele>802.8000000000001</ele><time>2026-04-25T07:39:39.817Z</time></trkpt><trkpt lat="38.02875" lon="15.7317117"><ele>802.4000000000001</ele><time>2026-04-25T07:39:40.816Z</time></trkpt><trkpt lat="38.0287917" lon="15.7318383"><ele>802.0</ele><time>2026-04-25T07:39:41.817Z</time></trkpt><trkpt lat="38.0288067" lon="15.7319417"><ele>802.0</ele><time>2026-04-25T07:39:42.817Z</time></trkpt><trkpt lat="38.02883" lon="15.73204"><ele>802.0</ele><time>2026-04-25T07:39:43.817Z</time></trkpt><trkpt lat="38.0288433" lon="15.7321533"><ele>802.0</ele><time>2026-04-25T07:39:44.817Z</time></trkpt><trkpt lat="38.0288233" lon="15.7322767"><ele>802.0</ele><time>2026-04-25T07:39:45.816Z</time></trkpt><trkpt lat="38.0287733" lon="15.7324067"><ele>802.0</ele><time>2026-04-25T07:39:46.817Z</time></trkpt><trkpt lat="38.0287133" lon="15.7325133"><ele>802.0</ele><time>2026-04-25T07:39:47.816Z</time></trkpt><trkpt lat="38.0286483" lon="15.7326233"><ele>802.0</ele><time>2026-04-25T07:39:48.816Z</time></trkpt><trkpt lat="38.02858" lon="15.7327433"><ele>802.0</ele><time>2026-04-25T07:39:49.817Z</time></trkpt><trkpt lat="38.0285267" lon="15.7328483"><ele>802.0</ele><time>2026-04-25T07:39:50.817Z</time></trkpt><trkpt lat="38.0284717" lon="15.732925"><ele>802.0</ele><time>2026-04-25T07:39:51.817Z</time></trkpt><trkpt lat="38.028415" lon="15.73297"><ele>802.4000000000001</ele><time>2026-04-25T07:39:52.817Z</time></trkpt><trkpt lat="38.0283283" lon="15.7330167"><ele>802.8000000000001</ele><time>2026-04-25T07:39:53.817Z</time></trkpt><trkpt lat="38.0282417" lon="15.733065"><ele>803.2</ele><time>2026-04-25T07:39:54.816Z</time></trkpt><trkpt lat="38.02814" lon="15.7331167"><ele>803.6</ele><time>2026-04-25T07:39:55.816Z</time></trkpt><trkpt lat="38.0280317" lon="15.7331783"><ele>804.0</ele><time>2026-04-25T07:39:56.817Z</time></trkpt><trkpt lat="38.0279217" lon="15.733245"><ele>801.75</ele><time>2026-04-25T07:39:57.817Z</time></trkpt><trkpt lat="38.02782" lon="15.7333283"><ele>799.5</ele><time>2026-04-25T07:39:58.816Z</time></trkpt><trkpt lat="38.0277267" lon="15.7334267"><ele>797.25</ele><time>2026-04-25T07:39:59.817Z</time></trkpt><trkpt lat="38.0276367" lon="15.73351"><ele>795.0</ele><time>2026-04-25T07:40:00.817Z</time></trkpt><trkpt lat="38.027555" lon="15.7335833"><ele>792.6</ele><time>2026-04-25T07:40:01.816Z</time></trkpt><trkpt lat="38.02745" lon="15.7336667"><ele>790.2</ele><time>2026-04-25T07:40:02.817Z</time></trkpt><trkpt lat="38.0273533" lon="15.7337267"><ele>787.8</ele><time>2026-04-25T07:40:03.817Z</time></trkpt><trkpt lat="38.0272567" lon="15.7337833"><ele>785.4</ele><time>2026-04-25T07:40:04.817Z</time></trkpt><trkpt lat="38.0271617" lon="15.733835"><ele>783.0</ele><time>2026-04-25T07:40:05.816Z</time></trkpt><trkpt lat="38.0270683" lon="15.73389"><ele>783.0</ele><time>2026-04-25T07:40:06.817Z</time></trkpt><trkpt lat="38.0269883" lon="15.7339383"><ele>783.0</ele><time>2026-04-25T07:40:07.817Z</time></trkpt><trkpt lat="38.0269083" lon="15.733995"><ele>783.0</ele><time>2026-04-25T07:40:08.817Z</time></trkpt><trkpt lat="38.02683" lon="15.7340667"><ele>783.0</ele><time>2026-04-25T07:40:09.817Z</time></trkpt><trkpt lat="38.02675" lon="15.7341517"><ele>783.0</ele><time>2026-04-25T07:40:10.817Z</time></trkpt><trkpt lat="38.026655" lon="15.7342433"><ele>784.0</ele><time>2026-04-25T07:40:11.817Z</time></trkpt><trkpt lat="38.0265617" lon="15.73434"><ele>785.0</ele><time>2026-04-25T07:40:12.817Z</time></trkpt><trkpt lat="38.026465" lon="15.7344367"><ele>786.0</ele><time>2026-04-25T07:40:13.817Z</time></trkpt><trkpt lat="38.0263717" lon="15.73454"><ele>787.0</ele><time>2026-04-25T07:40:14.817Z</time></trkpt><trkpt lat="38.02626" lon="15.73464"><ele>788.6666666666666</ele><time>2026-04-25T07:40:15.816Z</time></trkpt><trkpt lat="38.0261933" lon="15.7347017"><ele>790.3333333333333</ele><time>2026-04-25T07:40:16.817Z</time></trkpt><trkpt lat="38.0261133" lon="15.734725"><ele>792.0</ele><time>2026-04-25T07:40:17.817Z</time></trkpt><trkpt lat="38.02602" lon="15.73472"><ele>793.6666666666667</ele><time>2026-04-25T07:40:18.817Z</time></trkpt><trkpt lat="38.0259317" lon="15.7347317"><ele>795.3333333333334</ele><time>2026-04-25T07:40:19.817Z</time></trkpt><trkpt lat="38.0258567" lon="15.7347683"><ele>797.0</ele><time>2026-04-25T07:40:20.816Z</time></trkpt><trkpt lat="38.0257917" lon="15.73479"><ele>797.2</ele><time>2026-04-25T07:40:21.817Z</time></trkpt><trkpt lat="38.0257433" lon="15.7348717"><ele>797.4000000000001</ele><time>2026-04-25T07:40:22.817Z</time></trkpt><trkpt lat="38.0256767" lon="15.7349917"><ele>797.5999999999999</ele><time>2026-04-25T07:40:23.817Z</time></trkpt><trkpt lat="38.0255933" lon="15.7350683"><ele>797.8</ele><time>2026-04-25T07:40:24.817Z</time></trkpt><trkpt lat="38.0254933" lon="15.73516"><ele>798.0</ele><time>2026-04-25T07:40:25.817Z</time></trkpt><trkpt lat="38.02538" lon="15.73525"><ele>800.3333333333333</ele><time>2026-04-25T07:40:26.817Z</time></trkpt><trkpt lat="38.0252533" lon="15.7353367"><ele>802.6666666666666</ele><time>2026-04-25T07:40:27.817Z</time></trkpt><trkpt lat="38.0251067" lon="15.73544"><ele>805.0</ele><time>2026-04-25T07:40:28.817Z</time></trkpt><trkpt lat="38.024985" lon="15.7355383"><ele>803.5</ele><time>2026-04-25T07:40:29.817Z</time></trkpt><trkpt lat="38.02488" lon="15.7356367"><ele>802.0</ele><time>2026-04-25T07:40:30.817Z</time></trkpt><trkpt lat="38.0247833" lon="15.73574"><ele>800.5</ele><time>2026-04-25T07:40:31.817Z</time></trkpt><trkpt lat="38.0247033" lon="15.7358317"><ele>799.0</ele><time>2026-04-25T07:40:32.816Z</time></trkpt><trkpt lat="38.0246217" lon="15.7359367"><ele>799.0</ele><time>2026-04-25T07:40:33.817Z</time></trkpt><trkpt lat="38.0245733" lon="15.7360467"><ele>799.0</ele><time>2026-04-25T07:40:34.817Z</time></trkpt><trkpt lat="38.0245517" lon="15.7361917"><ele>799.0</ele><time>2026-04-25T07:40:35.817Z</time></trkpt><trkpt lat="38.0245583" lon="15.7363433"><ele>799.0</ele><time>2026-04-25T07:40:36.817Z</time></trkpt><trkpt lat="38.02455" lon="15.7364733"><ele>799.0</ele><time>2026-04-25T07:40:37.816Z</time></trkpt><trkpt lat="38.024505" lon="15.73659"><ele>800.6</ele><time>2026-04-25T07:40:38.816Z</time></trkpt><trkpt lat="38.024435" lon="15.7366667"><ele>802.2</ele><time>2026-04-25T07:40:39.816Z</time></trkpt><trkpt lat="38.0243583" lon="15.736755"><ele>803.8000000000001</ele><time>2026-04-25T07:40:40.817Z</time></trkpt><trkpt lat="38.0242767" lon="15.7368433"><ele>805.4000000000001</ele><time>2026-04-25T07:40:41.817Z</time></trkpt><trkpt lat="38.0241902" lon="15.7369361"><ele>807.0</ele><time>2026-04-25T07:40:42.817Z</time></trkpt><trkpt lat="38.0241063" lon="15.7370129"><ele>809.6</ele><time>2026-04-25T07:40:43.817Z</time></trkpt><trkpt lat="38.024029" lon="15.7370753"><ele>812.2</ele><time>2026-04-25T07:40:44.817Z</time></trkpt><trkpt lat="38.0239557" lon="15.7371584"><ele>814.8</ele><time>2026-04-25T07:40:45.816Z</time></trkpt><trkpt lat="38.0238849" lon="15.7372501"><ele>817.4</ele><time>2026-04-25T07:40:46.817Z</time></trkpt><trkpt lat="38.0238227" lon="15.7373264"><ele>820.0</ele><time>2026-04-25T07:40:47.817Z</time></trkpt><trkpt lat="38.0237616" lon="15.7374006"><ele>820.0</ele><time>2026-04-25T07:40:48.816Z</time></trkpt><trkpt lat="38.0236945" lon="15.737449"><ele>820.0</ele><time>2026-04-25T07:40:49.817Z</time></trkpt><trkpt lat="38.0236314" lon="15.7374669"><ele>820.0</ele><time>2026-04-25T07:40:50.817Z</time></trkpt><trkpt lat="38.0235425" lon="15.7374487"><ele>820.0</ele><time>2026-04-25T07:40:51.817Z</time></trkpt><trkpt lat="38.023429" lon="15.7373901"><ele>820.0</ele><time>2026-04-25T07:40:52.817Z</time></trkpt><trkpt lat="38.0233028" lon="15.7373046"><ele>818.0</ele><time>2026-04-25T07:40:53.816Z</time></trkpt><trkpt lat="38.0231814" lon="15.7372134"><ele>816.0</ele><time>2026-04-25T07:40:54.817Z</time></trkpt><trkpt lat="38.0230662" lon="15.7371446"><ele>814.0</ele><time>2026-04-25T07:40:55.816Z</time></trkpt><trkpt lat="38.0229543" lon="15.7371002"><ele>812.0</ele><time>2026-04-25T07:40:56.817Z</time></trkpt><trkpt lat="38.0228492" lon="15.7370692"><ele>812.0</ele><time>2026-04-25T07:40:57.816Z</time></trkpt><trkpt lat="38.0227557" lon="15.7370379"><ele>812.0</ele><time>2026-04-25T07:40:58.817Z</time></trkpt><trkpt lat="38.0226551" lon="15.7370064"><ele>812.0</ele><time>2026-04-25T07:40:59.817Z</time></trkpt><trkpt lat="38.0225653" lon="15.7369413"><ele>812.0</ele><time>2026-04-25T07:41:00.817Z</time></trkpt><trkpt lat="38.0224851" lon="15.736865"><ele>812.0</ele><time>2026-04-25T07:41:01.817Z</time></trkpt><trkpt lat="38.022401" lon="15.7367761"><ele>810.0</ele><time>2026-04-25T07:41:02.816Z</time></trkpt><trkpt lat="38.0223151" lon="15.7366867"><ele>808.0</ele><time>2026-04-25T07:41:03.816Z</time></trkpt><trkpt lat="38.022238" lon="15.7366164"><ele>806.0</ele><time>2026-04-25T07:41:04.817Z</time></trkpt><trkpt lat="38.0221613" lon="15.7365691"><ele>804.0</ele><time>2026-04-25T07:41:05.817Z</time></trkpt><trkpt lat="38.0220763" lon="15.7365479"><ele>802.0</ele><time>2026-04-25T07:41:06.816Z</time></trkpt><trkpt lat="38.0219745" lon="15.7365431"><ele>802.0</ele><time>2026-04-25T07:41:07.817Z</time></trkpt><trkpt lat="38.0218676" lon="15.7365567"><ele>802.0</ele><time>2026-04-25T07:41:08.817Z</time></trkpt><trkpt lat="38.0217685" lon="15.7365665"><ele>802.0</ele><time>2026-04-25T07:41:09.816Z</time></trkpt><trkpt lat="38.0216843" lon="15.7366016"><ele>802.0</ele><time>2026-04-25T07:41:10.817Z</time></trkpt><trkpt lat="38.0216027" lon="15.7366469"><ele>802.0</ele><time>2026-04-25T07:41:11.817Z</time></trkpt><trkpt lat="38.0215254" lon="15.736712"><ele>801.4000000000001</ele><time>2026-04-25T07:41:12.817Z</time></trkpt><trkpt lat="38.021447" lon="15.7367783"><ele>800.8000000000001</ele><time>2026-04-25T07:41:13.816Z</time></trkpt><trkpt lat="38.0213734" lon="15.7368528"><ele>800.2</ele><time>2026-04-25T07:41:14.816Z</time></trkpt><trkpt lat="38.0212883" lon="15.7369567"><ele>799.6</ele><time>2026-04-25T07:41:15.817Z</time></trkpt><trkpt lat="38.02123" lon="15.7370583"><ele>799.0</ele><time>2026-04-25T07:41:16.817Z</time></trkpt><trkpt lat="38.0211833" lon="15.737165"><ele>798.3333333333333</ele><time>2026-04-25T07:41:17.817Z</time></trkpt><trkpt lat="38.02113" lon="15.73725"><ele>797.6666666666666</ele><time>2026-04-25T07:41:18.816Z</time></trkpt><trkpt lat="38.0210933" lon="15.7373433"><ele>797.0</ele><time>2026-04-25T07:41:19.816Z</time></trkpt><trkpt lat="38.02105" lon="15.7374233"><ele>796.3333333333333</ele><time>2026-04-25T07:41:20.817Z</time></trkpt><trkpt lat="38.0210083" lon="15.7375067"><ele>795.6666666666666</ele><time>2026-04-25T07:41:21.817Z</time></trkpt><trkpt lat="38.020915" lon="15.73758"><ele>795.0</ele><time>2026-04-25T07:41:23.817Z</time></trkpt><trkpt lat="38.020775" lon="15.7375367"><ele>796.8333333333334</ele><time>2026-04-25T07:41:25.817Z</time></trkpt><trkpt lat="38.020695" lon="15.7374933"><ele>798.6666666666667</ele><time>2026-04-25T07:41:26.817Z</time></trkpt><trkpt lat="38.0206033" lon="15.7374667"><ele>800.5</ele><time>2026-04-25T07:41:27.816Z</time></trkpt><trkpt lat="38.02052" lon="15.737445"><ele>802.3333333333334</ele><time>2026-04-25T07:41:28.817Z</time></trkpt><trkpt lat="38.020435" lon="15.73745"><ele>804.1666666666667</ele><time>2026-04-25T07:41:29.817Z</time></trkpt><trkpt lat="38.0203617" lon="15.7374783"><ele>806.0</ele><time>2026-04-25T07:41:30.817Z</time></trkpt><trkpt lat="38.02031" lon="15.7375317"><ele>806.0</ele><time>2026-04-25T07:41:31.816Z</time></trkpt><trkpt lat="38.0202183" lon="15.7376867"><ele>806.0</ele><time>2026-04-25T07:41:33.817Z</time></trkpt><trkpt lat="38.02015" lon="15.7377867"><ele>806.0</ele><time>2026-04-25T07:41:34.816Z</time></trkpt><trkpt lat="38.0200317" lon="15.7379783"><ele>806.0</ele><time>2026-04-25T07:41:35.817Z</time></trkpt><trkpt lat="38.019935" lon="15.7381383"><ele>806.6666666666667</ele><time>2026-04-25T07:41:36.816Z</time></trkpt><trkpt lat="38.0197983" lon="15.7383067"><ele>807.3333333333333</ele><time>2026-04-25T07:41:37.816Z</time></trkpt><trkpt lat="38.01969" lon="15.7384333"><ele>808.0</ele><time>2026-04-25T07:41:38.816Z</time></trkpt><trkpt lat="38.0195817" lon="15.7385167"><ele>808.0</ele><time>2026-04-25T07:41:39.817Z</time></trkpt><trkpt lat="38.0194783" lon="15.7385917"><ele>808.0</ele><time>2026-04-25T07:41:40.816Z</time></trkpt><trkpt lat="38.0193783" lon="15.738665"><ele>808.0</ele><time>2026-04-25T07:41:41.817Z</time></trkpt><trkpt lat="38.0192967" lon="15.7387517"><ele>808.0</ele><time>2026-04-25T07:41:42.817Z</time></trkpt><trkpt lat="38.0192183" lon="15.7388433"><ele>808.0</ele><time>2026-04-25T07:41:43.816Z</time></trkpt><trkpt lat="38.0191567" lon="15.7388967"><ele>810.9999999999999</ele><time>2026-04-25T07:41:44.817Z</time></trkpt><trkpt lat="38.0190883" lon="15.7389483"><ele>814.0</ele><time>2026-04-25T07:41:45.817Z</time></trkpt><trkpt lat="38.0190133" lon="15.7390067"><ele>817.0</ele><time>2026-04-25T07:41:46.817Z</time></trkpt><trkpt lat="38.0189317" lon="15.7389633"><ele>820.0</ele><time>2026-04-25T07:41:48.817Z</time></trkpt><trkpt lat="38.0188717" lon="15.7388983"><ele>822.9999999999999</ele><time>2026-04-25T07:41:49.817Z</time></trkpt><trkpt lat="38.018785" lon="15.7388317"><ele>826.0</ele><time>2026-04-25T07:41:50.817Z</time></trkpt><trkpt lat="38.0186883" lon="15.7387517"><ele>826.0</ele><time>2026-04-25T07:41:51.817Z</time></trkpt><trkpt lat="38.0185783" lon="15.7386833"><ele>826.0</ele><time>2026-04-25T07:41:52.816Z</time></trkpt><trkpt lat="38.0184567" lon="15.7386283"><ele>826.0</ele><time>2026-04-25T07:41:53.816Z</time></trkpt><trkpt lat="38.018335" lon="15.738585"><ele>826.0</ele><time>2026-04-25T07:41:54.817Z</time></trkpt><trkpt lat="38.018225" lon="15.7385517"><ele>829.0</ele><time>2026-04-25T07:41:55.817Z</time></trkpt><trkpt lat="38.0181317" lon="15.7385217"><ele>832.0</ele><time>2026-04-25T07:41:56.817Z</time></trkpt><trkpt lat="38.0180583" lon="15.7384817"><ele>835.0</ele><time>2026-04-25T07:41:58.817Z</time></trkpt><trkpt lat="38.017955" lon="15.7384567"><ele>838.0</ele><time>2026-04-25T07:42:00.817Z</time></trkpt><trkpt lat="38.0179817" lon="15.7385683"><ele>841.0</ele><time>2026-04-25T07:42:03.817Z</time></trkpt><trkpt lat="38.01794" lon="15.7386583"><ele>841.0</ele><time>2026-04-25T07:42:05.817Z</time></trkpt><trkpt lat="38.0179133" lon="15.738765"><ele>841.0</ele><time>2026-04-25T07:42:07.817Z</time></trkpt><trkpt lat="38.01784" lon="15.7388483"><ele>841.0</ele><time>2026-04-25T07:42:09.816Z</time></trkpt><trkpt lat="38.0177733" lon="15.7389233"><ele>841.0</ele><time>2026-04-25T07:42:11.817Z</time></trkpt><trkpt lat="38.017695" lon="15.7390017"><ele>841.0</ele><time>2026-04-25T07:42:13.817Z</time></trkpt><trkpt lat="38.0176367" lon="15.7390933"><ele>841.0</ele><time>2026-04-25T07:42:15.817Z</time></trkpt><trkpt lat="38.0174917" lon="15.7391033"><ele>841.0</ele><time>2026-04-25T07:42:17.817Z</time></trkpt><trkpt lat="38.0174233" lon="15.739175"><ele>841.0</ele><time>2026-04-25T07:42:19.816Z</time></trkpt><trkpt lat="38.0173767" lon="15.7392933"><ele>841.0</ele><time>2026-04-25T07:42:21.816Z</time></trkpt><trkpt lat="38.0173183" lon="15.7393817"><ele>841.0</ele><time>2026-04-25T07:42:23.817Z</time></trkpt><trkpt lat="38.0173067" lon="15.7394767"><ele>844.4</ele><time>2026-04-25T07:42:25.817Z</time></trkpt><trkpt lat="38.017305" lon="15.7396"><ele>847.8</ele><time>2026-04-25T07:42:28.816Z</time></trkpt><trkpt lat="38.0173833" lon="15.7396417"><ele>851.1999999999999</ele><time>2026-04-25T07:42:30.817Z</time></trkpt><trkpt lat="38.01743" lon="15.739745"><ele>854.5999999999999</ele><time>2026-04-25T07:42:33.817Z</time></trkpt><trkpt lat="38.01744" lon="15.7398867"><ele>858.0</ele><time>2026-04-25T07:42:35.817Z</time></trkpt><trkpt lat="38.0174167" lon="15.7399833"><ele>858.0</ele><time>2026-04-25T07:42:36.817Z</time></trkpt><trkpt lat="38.0173933" lon="15.7400733"><ele>858.0</ele><time>2026-04-25T07:42:37.817Z</time></trkpt><trkpt lat="38.0173833" lon="15.7401967"><ele>858.0</ele><time>2026-04-25T07:42:38.817Z</time></trkpt><trkpt lat="38.017375" lon="15.7403117"><ele>858.0</ele><time>2026-04-25T07:42:39.817Z</time></trkpt><trkpt lat="38.0173483" lon="15.7404167"><ele>858.0</ele><time>2026-04-25T07:42:40.817Z</time></trkpt><trkpt lat="38.0173017" lon="15.7405283"><ele>858.0</ele><time>2026-04-25T07:42:41.816Z</time></trkpt><trkpt lat="38.017275" lon="15.740625"><ele>858.0</ele><time>2026-04-25T07:42:42.816Z</time></trkpt><trkpt lat="38.01723" lon="15.740715"><ele>858.0</ele><time>2026-04-25T07:42:43.816Z</time></trkpt><trkpt lat="38.0171617" lon="15.7408183"><ele>858.0</ele><time>2026-04-25T07:42:44.817Z</time></trkpt><trkpt lat="38.0171467" lon="15.7408967"><ele>858.0</ele><time>2026-04-25T07:42:45.817Z</time></trkpt><trkpt lat="38.0171317" lon="15.74105"><ele>858.0</ele><time>2026-04-25T07:42:47.817Z</time></trkpt><trkpt lat="38.0171067" lon="15.7411267"><ele>858.0</ele><time>2026-04-25T07:42:48.817Z</time></trkpt><trkpt lat="38.0170267" lon="15.74114"><ele>858.0</ele><time>2026-04-25T07:42:50.817Z</time></trkpt><trkpt lat="38.016905" lon="15.7411533"><ele>858.0</ele><time>2026-04-25T07:42:52.817Z</time></trkpt><trkpt lat="38.0168183" lon="15.7411817"><ele>858.0</ele><time>2026-04-25T07:42:53.816Z</time></trkpt><trkpt lat="38.0167367" lon="15.7412167"><ele>858.0</ele><time>2026-04-25T07:42:54.817Z</time></trkpt><trkpt lat="38.01665" lon="15.7412583"><ele>859.5999999999999</ele><time>2026-04-25T07:42:55.816Z</time></trkpt><trkpt lat="38.0165533" lon="15.7413117"><ele>861.1999999999999</ele><time>2026-04-25T07:42:56.817Z</time></trkpt><trkpt lat="38.0164617" lon="15.7414033"><ele>862.8</ele><time>2026-04-25T07:42:57.816Z</time></trkpt><trkpt lat="38.0163633" lon="15.741475"><ele>864.4</ele><time>2026-04-25T07:42:58.816Z</time></trkpt><trkpt lat="38.0162817" lon="15.7415367"><ele>866.0</ele><time>2026-04-25T07:42:59.817Z</time></trkpt><trkpt lat="38.0162017" lon="15.74163"><ele>866.0</ele><time>2026-04-25T07:43:00.817Z</time></trkpt><trkpt lat="38.0161133" lon="15.7417667"><ele>866.0</ele><time>2026-04-25T07:43:01.817Z</time></trkpt><trkpt lat="38.0160283" lon="15.741865"><ele>866.0</ele><time>2026-04-25T07:43:02.817Z</time></trkpt><trkpt lat="38.0159883" lon="15.7419717"><ele>866.0</ele><time>2026-04-25T07:43:03.816Z</time></trkpt><trkpt lat="38.0159067" lon="15.74212"><ele>865.0</ele><time>2026-04-25T07:43:04.817Z</time></trkpt><trkpt lat="38.0158233" lon="15.7422483"><ele>864.0</ele><time>2026-04-25T07:43:05.816Z</time></trkpt><trkpt lat="38.0157083" lon="15.7424067"><ele>863.0</ele><time>2026-04-25T07:43:06.816Z</time></trkpt><trkpt lat="38.015635" lon="15.7424967"><ele>862.0</ele><time>2026-04-25T07:43:07.817Z</time></trkpt><trkpt lat="38.015555" lon="15.7426117"><ele>861.75</ele><time>2026-04-25T07:43:08.817Z</time></trkpt><trkpt lat="38.01546" lon="15.742735"><ele>861.5</ele><time>2026-04-25T07:43:09.817Z</time></trkpt><trkpt lat="38.0153767" lon="15.742855"><ele>861.25</ele><time>2026-04-25T07:43:10.816Z</time></trkpt><trkpt lat="38.0153033" lon="15.7429567"><ele>861.0</ele><time>2026-04-25T07:43:11.817Z</time></trkpt><trkpt lat="38.0152333" lon="15.7430367"><ele>861.0</ele><time>2026-04-25T07:43:12.817Z</time></trkpt><trkpt lat="38.0151533" lon="15.74311"><ele>861.0</ele><time>2026-04-25T07:43:13.817Z</time></trkpt><trkpt lat="38.0150517" lon="15.7432083"><ele>861.0</ele><time>2026-04-25T07:43:14.817Z</time></trkpt><trkpt lat="38.0149433" lon="15.7433283"><ele>861.0</ele><time>2026-04-25T07:43:15.817Z</time></trkpt><trkpt lat="38.0148233" lon="15.7434333"><ele>860.75</ele><time>2026-04-25T07:43:16.817Z</time></trkpt><trkpt lat="38.0147267" lon="15.743545"><ele>860.5</ele><time>2026-04-25T07:43:17.817Z</time></trkpt><trkpt lat="38.0146367" lon="15.74365"><ele>860.25</ele><time>2026-04-25T07:43:18.817Z</time></trkpt><trkpt lat="38.0145517" lon="15.743745"><ele>860.0</ele><time>2026-04-25T07:43:19.817Z</time></trkpt><trkpt lat="38.01448" lon="15.7438683"><ele>860.0000000000001</ele><time>2026-04-25T07:43:20.817Z</time></trkpt><trkpt lat="38.01443" lon="15.74398"><ele>860.0</ele><time>2026-04-25T07:43:21.817Z</time></trkpt><trkpt lat="38.0143817" lon="15.7440867"><ele>860.0</ele><time>2026-04-25T07:43:22.817Z</time></trkpt><trkpt lat="38.0143333" lon="15.7441833"><ele>860.0</ele><time>2026-04-25T07:43:23.816Z</time></trkpt><trkpt lat="38.0143033" lon="15.7442733"><ele>860.0000000000001</ele><time>2026-04-25T07:43:24.817Z</time></trkpt><trkpt lat="38.01428" lon="15.7443617"><ele>860.0</ele><time>2026-04-25T07:43:25.816Z</time></trkpt><trkpt lat="38.0143033" lon="15.7444683"><ele>859.8</ele><time>2026-04-25T07:43:26.816Z</time></trkpt><trkpt lat="38.0143283" lon="15.7445733"><ele>859.6</ele><time>2026-04-25T07:43:27.817Z</time></trkpt><trkpt lat="38.014375" lon="15.7446617"><ele>859.4000000000001</ele><time>2026-04-25T07:43:28.816Z</time></trkpt><trkpt lat="38.01441" lon="15.7447417"><ele>859.2</ele><time>2026-04-25T07:43:29.817Z</time></trkpt><trkpt lat="38.014465" lon="15.7448433"><ele>859.0</ele><time>2026-04-25T07:43:31.816Z</time></trkpt><trkpt lat="38.0145883" lon="15.7448717"><ele>858.9999999999999</ele><time>2026-04-25T07:43:33.817Z</time></trkpt><trkpt lat="38.0146667" lon="15.7448967"><ele>859.0</ele><time>2026-04-25T07:43:34.817Z</time></trkpt><trkpt lat="38.0147083" lon="15.74496"><ele>859.0</ele><time>2026-04-25T07:43:35.817Z</time></trkpt><trkpt lat="38.0147683" lon="15.7450133"><ele>859.0</ele><time>2026-04-25T07:43:36.817Z</time></trkpt><trkpt lat="38.0148583" lon="15.7450867"><ele>858.9999999999999</ele><time>2026-04-25T07:43:38.816Z</time></trkpt><trkpt lat="38.0149633" lon="15.7451583"><ele>859.0</ele><time>2026-04-25T07:43:40.817Z</time></trkpt><trkpt lat="38.0150317" lon="15.74518"><ele>857.4000000000001</ele><time>2026-04-25T07:43:41.817Z</time></trkpt><trkpt lat="38.015125" lon="15.745255"><ele>855.8000000000001</ele><time>2026-04-25T07:43:43.817Z</time></trkpt><trkpt lat="38.01516" lon="15.745355"><ele>854.2</ele><time>2026-04-25T07:43:45.817Z</time></trkpt><trkpt lat="38.0151117" lon="15.7454117"><ele>852.5999999999999</ele><time>2026-04-25T07:43:46.817Z</time></trkpt><trkpt lat="38.0150267" lon="15.745425"><ele>851.0</ele><time>2026-04-25T07:43:48.816Z</time></trkpt><trkpt lat="38.0149067" lon="15.745375"><ele>851.0</ele><time>2026-04-25T07:43:50.816Z</time></trkpt><trkpt lat="38.0148433" lon="15.7453733"><ele>851.0</ele><time>2026-04-25T07:43:51.817Z</time></trkpt><trkpt lat="38.0147583" lon="15.7454083"><ele>851.0</ele><time>2026-04-25T07:43:52.816Z</time></trkpt><trkpt lat="38.0146733" lon="15.7454667"><ele>851.0</ele><time>2026-04-25T07:43:53.817Z</time></trkpt><trkpt lat="38.0146033" lon="15.745555"><ele>851.0</ele><time>2026-04-25T07:43:54.817Z</time></trkpt><trkpt lat="38.0145417" lon="15.74568"><ele>851.0</ele><time>2026-04-25T07:43:55.816Z</time></trkpt><trkpt lat="38.0144767" lon="15.74583"><ele>851.0</ele><time>2026-04-25T07:43:56.817Z</time></trkpt><trkpt lat="38.01442" lon="15.746005"><ele>851.0</ele><time>2026-04-25T07:43:57.817Z</time></trkpt><trkpt lat="38.0143817" lon="15.74619"><ele>851.0</ele><time>2026-04-25T07:43:58.817Z</time></trkpt><trkpt lat="38.0143367" lon="15.7464117"><ele>846.75</ele><time>2026-04-25T07:43:59.816Z</time></trkpt><trkpt lat="38.014285" lon="15.7465833"><ele>842.5</ele><time>2026-04-25T07:44:00.817Z</time></trkpt><trkpt lat="38.014225" lon="15.74675"><ele>838.25</ele><time>2026-04-25T07:44:01.817Z</time></trkpt><trkpt lat="38.014205" lon="15.7469183"><ele>834.0</ele><time>2026-04-25T07:44:02.817Z</time></trkpt><trkpt lat="38.0141867" lon="15.747085"><ele>830.6</ele><time>2026-04-25T07:44:03.817Z</time></trkpt><trkpt lat="38.0141617" lon="15.7472283"><ele>827.2</ele><time>2026-04-25T07:44:04.816Z</time></trkpt><trkpt lat="38.0140917" lon="15.7473567"><ele>823.8000000000001</ele><time>2026-04-25T07:44:06.816Z</time></trkpt><trkpt lat="38.0140283" lon="15.7474233"><ele>820.4000000000001</ele><time>2026-04-25T07:44:07.817Z</time></trkpt><trkpt lat="38.0139833" lon="15.7474867"><ele>817.0</ele><time>2026-04-25T07:44:08.817Z</time></trkpt><trkpt lat="38.0138017" lon="15.7474317"><ele>814.8</ele><time>2026-04-25T07:44:10.817Z</time></trkpt><trkpt lat="38.0137217" lon="15.7474467"><ele>812.6</ele><time>2026-04-25T07:44:11.817Z</time></trkpt><trkpt lat="38.0136283" lon="15.7473783"><ele>810.4</ele><time>2026-04-25T07:44:12.816Z</time></trkpt><trkpt lat="38.0135383" lon="15.7472933"><ele>808.1999999999999</ele><time>2026-04-25T07:44:13.817Z</time></trkpt><trkpt lat="38.0134433" lon="15.74717"><ele>806.0</ele><time>2026-04-25T07:44:14.817Z</time></trkpt><trkpt lat="38.013335" lon="15.7470767"><ele>803.0</ele><time>2026-04-25T07:44:15.817Z</time></trkpt><trkpt lat="38.0132617" lon="15.7469533"><ele>800.0</ele><time>2026-04-25T07:44:16.817Z</time></trkpt><trkpt lat="38.01317" lon="15.7468633"><ele>797.0</ele><time>2026-04-25T07:44:17.817Z</time></trkpt><trkpt lat="38.0130833" lon="15.7468017"><ele>794.0</ele><time>2026-04-25T07:44:18.817Z</time></trkpt><trkpt lat="38.0129917" lon="15.7467367"><ele>791.0</ele><time>2026-04-25T07:44:19.817Z</time></trkpt><trkpt lat="38.0128983" lon="15.7466633"><ele>791.0</ele><time>2026-04-25T07:44:20.816Z</time></trkpt><trkpt lat="38.012825" lon="15.7465967"><ele>791.0</ele><time>2026-04-25T07:44:21.817Z</time></trkpt><trkpt lat="38.0127733" lon="15.74649"><ele>791.0</ele><time>2026-04-25T07:44:22.816Z</time></trkpt><trkpt lat="38.01273" lon="15.7463967"><ele>791.0</ele><time>2026-04-25T07:44:23.817Z</time></trkpt><trkpt lat="38.012695" lon="15.746275"><ele>791.0</ele><time>2026-04-25T07:44:24.816Z</time></trkpt><trkpt lat="38.0126667" lon="15.74611"><ele>792.8</ele><time>2026-04-25T07:44:25.816Z</time></trkpt><trkpt lat="38.01261" lon="15.7459717"><ele>794.5999999999999</ele><time>2026-04-25T07:44:26.816Z</time></trkpt><trkpt lat="38.0125417" lon="15.7458783"><ele>796.4</ele><time>2026-04-25T07:44:27.817Z</time></trkpt><trkpt lat="38.0124867" lon="15.7457783"><ele>798.2</ele><time>2026-04-25T07:44:28.817Z</time></trkpt><trkpt lat="38.0124383" lon="15.7456883"><ele>800.0</ele><time>2026-04-25T07:44:29.817Z</time></trkpt><trkpt lat="38.0124017" lon="15.7455983"><ele>796.0</ele><time>2026-04-25T07:44:30.817Z</time></trkpt><trkpt lat="38.0123533" lon="15.7455117"><ele>792.0</ele><time>2026-04-25T07:44:31.816Z</time></trkpt><trkpt lat="38.0122467" lon="15.7454133"><ele>788.0</ele><time>2026-04-25T07:44:33.817Z</time></trkpt><trkpt lat="38.012155" lon="15.745365"><ele>784.0</ele><time>2026-04-25T07:44:34.817Z</time></trkpt><trkpt lat="38.0120867" lon="15.745315"><ele>780.0</ele><time>2026-04-25T07:44:35.817Z</time></trkpt><trkpt lat="38.0120067" lon="15.7452833"><ele>780.0</ele><time>2026-04-25T07:44:36.817Z</time></trkpt><trkpt lat="38.0119283" lon="15.745275"><ele>780.0</ele><time>2026-04-25T07:44:37.817Z</time></trkpt><trkpt lat="38.0118233" lon="15.7452783"><ele>780.0</ele><time>2026-04-25T07:44:38.816Z</time></trkpt><trkpt lat="38.0117117" lon="15.7452867"><ele>780.0</ele><time>2026-04-25T07:44:39.817Z</time></trkpt><trkpt lat="38.0115983" lon="15.74529"><ele>780.0</ele><time>2026-04-25T07:44:40.817Z</time></trkpt><trkpt lat="38.0114933" lon="15.7452833"><ele>778.8</ele><time>2026-04-25T07:44:41.817Z</time></trkpt><trkpt lat="38.0113933" lon="15.7452883"><ele>777.6</ele><time>2026-04-25T07:44:42.817Z</time></trkpt><trkpt lat="38.0113083" lon="15.7452683"><ele>776.4000000000001</ele><time>2026-04-25T07:44:43.817Z</time></trkpt><trkpt lat="38.0112133" lon="15.74528"><ele>775.2</ele><time>2026-04-25T07:44:44.817Z</time></trkpt><trkpt lat="38.011115" lon="15.7453117"><ele>774.0</ele><time>2026-04-25T07:44:45.817Z</time></trkpt><trkpt lat="38.0110117" lon="15.74536"><ele>774.0</ele><time>2026-04-25T07:44:46.817Z</time></trkpt><trkpt lat="38.0109017" lon="15.7454183"><ele>774.0</ele><time>2026-04-25T07:44:47.817Z</time></trkpt><trkpt lat="38.0108183" lon="15.7454467"><ele>774.0</ele><time>2026-04-25T07:44:48.816Z</time></trkpt><trkpt lat="38.010725" lon="15.7454483"><ele>774.0</ele><time>2026-04-25T07:44:49.817Z</time></trkpt><trkpt lat="38.0106367" lon="15.74541"><ele>774.0</ele><time>2026-04-25T07:44:50.816Z</time></trkpt><trkpt lat="38.010525" lon="15.7453783"><ele>771.5</ele><time>2026-04-25T07:44:51.817Z</time></trkpt><trkpt lat="38.0104017" lon="15.74531"><ele>769.0</ele><time>2026-04-25T07:44:52.817Z</time></trkpt><trkpt lat="38.010275" lon="15.7452517"><ele>766.5</ele><time>2026-04-25T07:44:53.817Z</time></trkpt><trkpt lat="38.010155" lon="15.745225"><ele>764.0</ele><time>2026-04-25T07:44:54.816Z</time></trkpt><trkpt lat="38.01005" lon="15.7452217"><ele>764.3333333333333</ele><time>2026-04-25T07:44:55.817Z</time></trkpt><trkpt lat="38.0099817" lon="15.7451883"><ele>764.6666666666666</ele><time>2026-04-25T07:44:56.817Z</time></trkpt><trkpt lat="38.0099333" lon="15.7451283"><ele>765.0</ele><time>2026-04-25T07:44:57.816Z</time></trkpt><trkpt lat="38.0098383" lon="15.74507"><ele>765.3333333333334</ele><time>2026-04-25T07:44:59.817Z</time></trkpt><trkpt lat="38.0097867" lon="15.7451517"><ele>765.6666666666667</ele><time>2026-04-25T07:45:01.816Z</time></trkpt><trkpt lat="38.0097983" lon="15.7452383"><ele>766.0</ele><time>2026-04-25T07:45:02.817Z</time></trkpt><trkpt lat="38.0098133" lon="15.74537"><ele>765.5999999999999</ele><time>2026-04-25T07:45:03.816Z</time></trkpt><trkpt lat="38.009835" lon="15.7454983"><ele>765.2</ele><time>2026-04-25T07:45:04.817Z</time></trkpt><trkpt lat="38.0098767" lon="15.74562"><ele>764.8</ele><time>2026-04-25T07:45:05.817Z</time></trkpt><trkpt lat="38.009935" lon="15.745735"><ele>764.4000000000001</ele><time>2026-04-25T07:45:06.817Z</time></trkpt><trkpt lat="38.01001" lon="15.7458117"><ele>764.0</ele><time>2026-04-25T07:45:07.817Z</time></trkpt><trkpt lat="38.01007" lon="15.7458867"><ele>764.0</ele><time>2026-04-25T07:45:08.817Z</time></trkpt><trkpt lat="38.0101167" lon="15.7459683"><ele>764.0</ele><time>2026-04-25T07:45:09.817Z</time></trkpt><trkpt lat="38.0101583" lon="15.74606"><ele>764.0</ele><time>2026-04-25T07:45:10.816Z</time></trkpt><trkpt lat="38.0102217" lon="15.7461517"><ele>764.0</ele><time>2026-04-25T07:45:11.817Z</time></trkpt><trkpt lat="38.0103" lon="15.746205"><ele>764.0</ele><time>2026-04-25T07:45:12.817Z</time></trkpt><trkpt lat="38.0103617" lon="15.7462767"><ele>764.0</ele><time>2026-04-25T07:45:13.817Z</time></trkpt><trkpt lat="38.0104133" lon="15.7463483"><ele>760.6666666666666</ele><time>2026-04-25T07:45:14.817Z</time></trkpt><trkpt lat="38.01046" lon="15.746415"><ele>757.3333333333333</ele><time>2026-04-25T07:45:15.816Z</time></trkpt><trkpt lat="38.0105033" lon="15.7464783"><ele>754.0</ele><time>2026-04-25T07:45:16.817Z</time></trkpt><trkpt lat="38.0105417" lon="15.7465583"><ele>750.6666666666666</ele><time>2026-04-25T07:45:17.817Z</time></trkpt><trkpt lat="38.0105483" lon="15.74666"><ele>747.3333333333334</ele><time>2026-04-25T07:45:19.817Z</time></trkpt><trkpt lat="38.01043" lon="15.7466783"><ele>744.0</ele><time>2026-04-25T07:45:21.816Z</time></trkpt><trkpt lat="38.0103417" lon="15.74664"><ele>744.0</ele><time>2026-04-25T07:45:22.817Z</time></trkpt><trkpt lat="38.010205" lon="15.7465633"><ele>744.0</ele><time>2026-04-25T07:45:23.816Z</time></trkpt><trkpt lat="38.0100817" lon="15.7464617"><ele>744.0</ele><time>2026-04-25T07:45:24.817Z</time></trkpt><trkpt lat="38.0099533" lon="15.74636"><ele>744.0</ele><time>2026-04-25T07:45:25.817Z</time></trkpt><trkpt lat="38.009835" lon="15.7462517"><ele>744.5</ele><time>2026-04-25T07:45:26.816Z</time></trkpt><trkpt lat="38.0097367" lon="15.7461567"><ele>745.0</ele><time>2026-04-25T07:45:27.816Z</time></trkpt><trkpt lat="38.0096533" lon="15.74606"><ele>745.5</ele><time>2026-04-25T07:45:28.817Z</time></trkpt><trkpt lat="38.0095533" lon="15.745975"><ele>746.0</ele><time>2026-04-25T07:45:29.817Z</time></trkpt><trkpt lat="38.0094667" lon="15.7459033"><ele>746.0</ele><time>2026-04-25T07:45:30.817Z</time></trkpt><trkpt lat="38.0093817" lon="15.74585"><ele>746.0</ele><time>2026-04-25T07:45:31.817Z</time></trkpt><trkpt lat="38.0092617" lon="15.745845"><ele>746.0</ele><time>2026-04-25T07:45:32.817Z</time></trkpt><trkpt lat="38.00913" lon="15.74584"><ele>746.0</ele><time>2026-04-25T07:45:33.817Z</time></trkpt><trkpt lat="38.00901" lon="15.74584"><ele>742.5</ele><time>2026-04-25T07:45:34.816Z</time></trkpt><trkpt lat="38.008905" lon="15.745845"><ele>739.0</ele><time>2026-04-25T07:45:35.817Z</time></trkpt><trkpt lat="38.0088083" lon="15.7458183"><ele>735.5</ele><time>2026-04-25T07:45:36.817Z</time></trkpt><trkpt lat="38.00875" lon="15.7457783"><ele>732.0</ele><time>2026-04-25T07:45:37.816Z</time></trkpt><trkpt lat="38.0087" lon="15.745715"><ele>728.5</ele><time>2026-04-25T07:45:38.817Z</time></trkpt><trkpt lat="38.0086617" lon="15.7456467"><ele>725.0</ele><time>2026-04-25T07:45:39.817Z</time></trkpt><trkpt lat="38.0086233" lon="15.74557"><ele>725.0</ele><time>2026-04-25T07:45:40.817Z</time></trkpt><trkpt lat="38.008535" lon="15.745495"><ele>725.0</ele><time>2026-04-25T07:45:42.817Z</time></trkpt><trkpt lat="38.008465" lon="15.7454717"><ele>725.0</ele><time>2026-04-25T07:45:45.816Z</time></trkpt><trkpt lat="38.0083933" lon="15.745515"><ele>725.0</ele><time>2026-04-25T07:45:48.817Z</time></trkpt><trkpt lat="38.0083783" lon="15.745605"><ele>725.0</ele><time>2026-04-25T07:45:50.816Z</time></trkpt><trkpt lat="38.0084033" lon="15.745695"><ele>725.0</ele><time>2026-04-25T07:45:51.817Z</time></trkpt><trkpt lat="38.008515" lon="15.7458683"><ele>725.0</ele><time>2026-04-25T07:45:52.816Z</time></trkpt><trkpt lat="38.0086" lon="15.746"><ele>725.0</ele><time>2026-04-25T07:45:53.816Z</time></trkpt><trkpt lat="38.0086883" lon="15.7461333"><ele>725.0</ele><time>2026-04-25T07:45:54.817Z</time></trkpt><trkpt lat="38.0087617" lon="15.746275"><ele>725.0</ele><time>2026-04-25T07:45:55.817Z</time></trkpt><trkpt lat="38.0088433" lon="15.746385"><ele>724.4</ele><time>2026-04-25T07:45:56.817Z</time></trkpt><trkpt lat="38.0089267" lon="15.7464867"><ele>723.8</ele><time>2026-04-25T07:45:57.816Z</time></trkpt><trkpt lat="38.009005" lon="15.74657"><ele>723.2</ele><time>2026-04-25T07:45:58.817Z</time></trkpt><trkpt lat="38.0090833" lon="15.7466333"><ele>722.6</ele><time>2026-04-25T07:45:59.816Z</time></trkpt><trkpt lat="38.0091567" lon="15.746705"><ele>722.0</ele><time>2026-04-25T07:46:00.816Z</time></trkpt><trkpt lat="38.0092233" lon="15.746785"><ele>722.0</ele><time>2026-04-25T07:46:01.816Z</time></trkpt><trkpt lat="38.009285" lon="15.7468633"><ele>722.0</ele><time>2026-04-25T07:46:02.816Z</time></trkpt><trkpt lat="38.0093433" lon="15.74694"><ele>722.0</ele><time>2026-04-25T07:46:03.817Z</time></trkpt><trkpt lat="38.0094133" lon="15.7470733"><ele>722.0</ele><time>2026-04-25T07:46:05.816Z</time></trkpt><trkpt lat="38.0094483" lon="15.7472133"><ele>722.0</ele><time>2026-04-25T07:46:07.816Z</time></trkpt><trkpt lat="38.0094667" lon="15.7472967"><ele>718.1666666666666</ele><time>2026-04-25T07:46:08.817Z</time></trkpt><trkpt lat="38.0094283" lon="15.747405"><ele>714.3333333333333</ele><time>2026-04-25T07:46:09.817Z</time></trkpt><trkpt lat="38.009425" lon="15.747495"><ele>710.5</ele><time>2026-04-25T07:46:10.817Z</time></trkpt><trkpt lat="38.0093967" lon="15.7475933"><ele>706.6666666666666</ele><time>2026-04-25T07:46:11.816Z</time></trkpt><trkpt lat="38.009355" lon="15.747675"><ele>702.8333333333334</ele><time>2026-04-25T07:46:12.817Z</time></trkpt><trkpt lat="38.00934" lon="15.74776"><ele>699.0</ele><time>2026-04-25T07:46:13.817Z</time></trkpt><trkpt lat="38.0093367" lon="15.7479317"><ele>695.6666666666666</ele><time>2026-04-25T07:46:15.817Z</time></trkpt><trkpt lat="38.0093533" lon="15.7480867"><ele>692.3333333333334</ele><time>2026-04-25T07:46:17.817Z</time></trkpt><trkpt lat="38.00938" lon="15.74817"><ele>689.0</ele><time>2026-04-25T07:46:18.817Z</time></trkpt><trkpt lat="38.0093983" lon="15.74826"><ele>685.6666666666667</ele><time>2026-04-25T07:46:19.817Z</time></trkpt><trkpt lat="38.0094283" lon="15.7483583"><ele>682.3333333333334</ele><time>2026-04-25T07:46:20.817Z</time></trkpt><trkpt lat="38.0094683" lon="15.7484433"><ele>679.0</ele><time>2026-04-25T07:46:21.817Z</time></trkpt><trkpt lat="38.009435" lon="15.748515"><ele>674.0</ele><time>2026-04-25T07:46:22.817Z</time></trkpt><trkpt lat="38.0095217" lon="15.7485833"><ele>669.0</ele><time>2026-04-25T07:46:23.816Z</time></trkpt><trkpt lat="38.00961" lon="15.7486583"><ele>664.0</ele><time>2026-04-25T07:46:24.817Z</time></trkpt><trkpt lat="38.0097067" lon="15.748735"><ele>659.0</ele><time>2026-04-25T07:46:25.816Z</time></trkpt><trkpt lat="38.0097967" lon="15.7488133"><ele>654.0</ele><time>2026-04-25T07:46:26.817Z</time></trkpt><trkpt lat="38.0098883" lon="15.7488733"><ele>658.75</ele><time>2026-04-25T07:46:27.817Z</time></trkpt><trkpt lat="38.0100567" lon="15.7488767"><ele>663.5</ele><time>2026-04-25T07:46:28.817Z</time></trkpt><trkpt lat="38.01016" lon="15.7489183"><ele>668.25</ele><time>2026-04-25T07:46:29.817Z</time></trkpt><trkpt lat="38.0102517" lon="15.7489517"><ele>673.0</ele><time>2026-04-25T07:46:30.817Z</time></trkpt><trkpt lat="38.0103667" lon="15.7489583"><ele>673.0</ele><time>2026-04-25T07:46:31.817Z</time></trkpt><trkpt lat="38.0104533" lon="15.7489967"><ele>673.0</ele><time>2026-04-25T07:46:32.816Z</time></trkpt><trkpt lat="38.01053" lon="15.7490517"><ele>673.0</ele><time>2026-04-25T07:46:33.817Z</time></trkpt><trkpt lat="38.0105917" lon="15.7491183"><ele>673.0</ele><time>2026-04-25T07:46:34.817Z</time></trkpt><trkpt lat="38.01063" lon="15.7492133"><ele>673.0</ele><time>2026-04-25T07:46:35.817Z</time></trkpt><trkpt lat="38.0106667" lon="15.7492967"><ele>673.0</ele><time>2026-04-25T07:46:36.817Z</time></trkpt><trkpt lat="38.0106967" lon="15.7493883"><ele>667.5999999999999</ele><time>2026-04-25T07:46:37.817Z</time></trkpt><trkpt lat="38.010775" lon="15.749545"><ele>662.1999999999999</ele><time>2026-04-25T07:46:39.817Z</time></trkpt><trkpt lat="38.0107817" lon="15.7496433"><ele>656.8</ele><time>2026-04-25T07:46:40.817Z</time></trkpt><trkpt lat="38.010785" lon="15.7497917"><ele>651.4</ele><time>2026-04-25T07:46:42.817Z</time></trkpt><trkpt lat="38.0107333" lon="15.7498583"><ele>646.0</ele><time>2026-04-25T07:46:43.816Z</time></trkpt><trkpt lat="38.0106883" lon="15.7499267"><ele>646.0</ele><time>2026-04-25T07:46:45.817Z</time></trkpt><trkpt lat="38.010575" lon="15.7499183"><ele>646.0</ele><time>2026-04-25T07:46:47.816Z</time></trkpt><trkpt lat="38.01049" lon="15.749875"><ele>646.0</ele><time>2026-04-25T07:46:48.817Z</time></trkpt><trkpt lat="38.0104067" lon="15.7498383"><ele>646.0</ele><time>2026-04-25T07:46:49.816Z</time></trkpt><trkpt lat="38.01032" lon="15.74983"><ele>646.0</ele><time>2026-04-25T07:46:50.817Z</time></trkpt><trkpt lat="38.01024" lon="15.74981"><ele>646.0</ele><time>2026-04-25T07:46:51.817Z</time></trkpt><trkpt lat="38.0101633" lon="15.7497967"><ele>646.0</ele><time>2026-04-25T07:46:52.816Z</time></trkpt><trkpt lat="38.0100383" lon="15.74977"><ele>646.0</ele><time>2026-04-25T07:46:53.817Z</time></trkpt><trkpt lat="38.009945" lon="15.7497567"><ele>646.0</ele><time>2026-04-25T07:46:54.817Z</time></trkpt><trkpt lat="38.009855" lon="15.7498083"><ele>646.0</ele><time>2026-04-25T07:46:55.817Z</time></trkpt><trkpt lat="38.0097783" lon="15.7499017"><ele>643.6666666666667</ele><time>2026-04-25T07:46:56.816Z</time></trkpt><trkpt lat="38.0096933" lon="15.7499883"><ele>641.3333333333334</ele><time>2026-04-25T07:46:57.817Z</time></trkpt><trkpt lat="38.0096183" lon="15.7501233"><ele>639.0</ele><time>2026-04-25T07:46:59.816Z</time></trkpt><trkpt lat="38.0095817" lon="15.7501983"><ele>636.6666666666666</ele><time>2026-04-25T07:47:00.817Z</time></trkpt><trkpt lat="38.009535" lon="15.750265"><ele>634.3333333333333</ele><time>2026-04-25T07:47:01.817Z</time></trkpt><trkpt lat="38.0094967" lon="15.75033"><ele>632.0</ele><time>2026-04-25T07:47:02.816Z</time></trkpt><trkpt lat="38.009435" lon="15.7503133"><ele>632.0</ele><time>2026-04-25T07:47:04.816Z</time></trkpt><trkpt lat="38.00935" lon="15.7502183"><ele>632.0</ele><time>2026-04-25T07:47:06.817Z</time></trkpt><trkpt lat="38.0092783" lon="15.7501267"><ele>632.0</ele><time>2026-04-25T07:47:07.816Z</time></trkpt><trkpt lat="38.0092083" lon="15.7500283"><ele>632.0</ele><time>2026-04-25T07:47:08.817Z</time></trkpt><trkpt lat="38.0091533" lon="15.749935"><ele>632.0</ele><time>2026-04-25T07:47:09.817Z</time></trkpt><trkpt lat="38.0090833" lon="15.74987"><ele>628.0</ele><time>2026-04-25T07:47:10.816Z</time></trkpt><trkpt lat="38.00901" lon="15.74983"><ele>624.0</ele><time>2026-04-25T07:47:11.816Z</time></trkpt><trkpt lat="38.0089417" lon="15.7498267"><ele>620.0</ele><time>2026-04-25T07:47:13.816Z</time></trkpt><trkpt lat="38.00891" lon="15.7499267"><ele>616.0</ele><time>2026-04-25T07:47:15.816Z</time></trkpt><trkpt lat="38.0089267" lon="15.7500317"><ele>612.0</ele><time>2026-04-25T07:47:16.817Z</time></trkpt><trkpt lat="38.0089233" lon="15.7501617"><ele>608.0</ele><time>2026-04-25T07:47:17.817Z</time></trkpt><trkpt lat="38.0089283" lon="15.7502667"><ele>604.8</ele><time>2026-04-25T07:47:18.817Z</time></trkpt><trkpt lat="38.0089" lon="15.7503417"><ele>601.5999999999999</ele><time>2026-04-25T07:47:19.816Z</time></trkpt><trkpt lat="38.0088667" lon="15.7504483"><ele>598.4000000000001</ele><time>2026-04-25T07:47:20.817Z</time></trkpt><trkpt lat="38.0088017" lon="15.7505233"><ele>595.2</ele><time>2026-04-25T07:47:21.817Z</time></trkpt><trkpt lat="38.0087117" lon="15.7505883"><ele>592.0</ele><time>2026-04-25T07:47:23.817Z</time></trkpt><trkpt lat="38.0085967" lon="15.7505617"><ele>592.0</ele><time>2026-04-25T07:47:25.817Z</time></trkpt><trkpt lat="38.0085233" lon="15.750555"><ele>592.0</ele><time>2026-04-25T07:47:26.816Z</time></trkpt><trkpt lat="38.00844" lon="15.750585"><ele>592.0</ele><time>2026-04-25T07:47:28.817Z</time></trkpt><trkpt lat="38.008425" lon="15.7506633"><ele>592.0</ele><time>2026-04-25T07:47:30.816Z</time></trkpt><trkpt lat="38.00849" lon="15.7507517"><ele>592.0</ele><time>2026-04-25T07:47:31.817Z</time></trkpt><trkpt lat="38.0085233" lon="15.7508883"><ele>592.0</ele><time>2026-04-25T07:47:33.816Z</time></trkpt><trkpt lat="38.00855" lon="15.7509683"><ele>589.2</ele><time>2026-04-25T07:47:34.817Z</time></trkpt><trkpt lat="38.0086383" lon="15.7510583"><ele>586.4000000000001</ele><time>2026-04-25T07:47:35.816Z</time></trkpt><trkpt lat="38.0086817" lon="15.75117"><ele>583.5999999999999</ele><time>2026-04-25T07:47:36.817Z</time></trkpt><trkpt lat="38.0087333" lon="15.7512817"><ele>580.8</ele><time>2026-04-25T07:47:37.816Z</time></trkpt><trkpt lat="38.0087733" lon="15.7513817"><ele>578.0</ele><time>2026-04-25T07:47:38.816Z</time></trkpt><trkpt lat="38.0088133" lon="15.75153"><ele>578.0</ele><time>2026-04-25T07:47:40.817Z</time></trkpt><trkpt lat="38.00882" lon="15.75161"><ele>578.0</ele><time>2026-04-25T07:47:41.817Z</time></trkpt><trkpt lat="38.0088167" lon="15.7516983"><ele>578.0</ele><time>2026-04-25T07:47:42.817Z</time></trkpt><trkpt lat="38.008785" lon="15.75183"><ele>578.0</ele><time>2026-04-25T07:47:44.817Z</time></trkpt><trkpt lat="38.0087283" lon="15.7518667"><ele>578.0</ele><time>2026-04-25T07:47:45.816Z</time></trkpt><trkpt lat="38.00863" lon="15.75184"><ele>578.0</ele><time>2026-04-25T07:47:46.817Z</time></trkpt><trkpt lat="38.0085533" lon="15.7518017"><ele>578.0</ele><time>2026-04-25T07:47:47.816Z</time></trkpt><trkpt lat="38.008495" lon="15.7517333"><ele>578.0</ele><time>2026-04-25T07:47:48.817Z</time></trkpt><trkpt lat="38.0083883" lon="15.751645"><ele>578.0</ele><time>2026-04-25T07:47:49.817Z</time></trkpt><trkpt lat="38.00831" lon="15.7515733"><ele>578.0</ele><time>2026-04-25T07:47:50.817Z</time></trkpt><trkpt lat="38.0082283" lon="15.75148"><ele>578.0</ele><time>2026-04-25T07:47:51.817Z</time></trkpt><trkpt lat="38.0081383" lon="15.7513767"><ele>577.5</ele><time>2026-04-25T07:47:52.817Z</time></trkpt><trkpt lat="38.0080617" lon="15.7512417"><ele>577.0</ele><time>2026-04-25T07:47:53.816Z</time></trkpt><trkpt lat="38.0080017" lon="15.7510933"><ele>576.5</ele><time>2026-04-25T07:47:54.816Z</time></trkpt><trkpt lat="38.0079283" lon="15.75097"><ele>576.0</ele><time>2026-04-25T07:47:55.816Z</time></trkpt><trkpt lat="38.0078967" lon="15.75083"><ele>576.0</ele><time>2026-04-25T07:47:56.817Z</time></trkpt><trkpt lat="38.00787" lon="15.7506967"><ele>576.0</ele><time>2026-04-25T07:47:57.817Z</time></trkpt><trkpt lat="38.0078567" lon="15.7505683"><ele>576.0</ele><time>2026-04-25T07:47:58.817Z</time></trkpt><trkpt lat="38.0078217" lon="15.750455"><ele>576.0</ele><time>2026-04-25T07:47:59.817Z</time></trkpt><trkpt lat="38.0077583" lon="15.7503733"><ele>576.0</ele><time>2026-04-25T07:48:00.816Z</time></trkpt><trkpt lat="38.007695" lon="15.7502983"><ele>576.0</ele><time>2026-04-25T07:48:01.817Z</time></trkpt><trkpt lat="38.0076317" lon="15.75024"><ele>576.0</ele><time>2026-04-25T07:48:02.817Z</time></trkpt><trkpt lat="38.0075817" lon="15.7501767"><ele>576.0</ele><time>2026-04-25T07:48:03.816Z</time></trkpt><trkpt lat="38.0075283" lon="15.7501183"><ele>576.0</ele><time>2026-04-25T07:48:04.816Z</time></trkpt><trkpt lat="38.00745" lon="15.7500783"><ele>576.0</ele><time>2026-04-25T07:48:05.817Z</time></trkpt><trkpt lat="38.0073383" lon="15.7500467"><ele>576.0</ele><time>2026-04-25T07:48:07.817Z</time></trkpt><trkpt lat="38.0072433" lon="15.7501267"><ele>582.8</ele><time>2026-04-25T07:48:09.817Z</time></trkpt><trkpt lat="38.00722" lon="15.75021"><ele>589.6</ele><time>2026-04-25T07:48:10.817Z</time></trkpt><trkpt lat="38.00721" lon="15.7503167"><ele>596.4</ele><time>2026-04-25T07:48:11.816Z</time></trkpt><trkpt lat="38.0072367" lon="15.75047"><ele>603.2</ele><time>2026-04-25T07:48:12.817Z</time></trkpt><trkpt lat="38.0072533" lon="15.7506467"><ele>610.0</ele><time>2026-04-25T07:48:13.817Z</time></trkpt><trkpt lat="38.0072633" lon="15.7508133"><ele>610.0</ele><time>2026-04-25T07:48:14.817Z</time></trkpt><trkpt lat="38.0072467" lon="15.750985"><ele>610.0</ele><time>2026-04-25T07:48:15.817Z</time></trkpt><trkpt lat="38.007275" lon="15.751165"><ele>610.0</ele><time>2026-04-25T07:48:16.816Z</time></trkpt><trkpt lat="38.0072733" lon="15.75135"><ele>610.0</ele><time>2026-04-25T07:48:17.817Z</time></trkpt><trkpt lat="38.0072933" lon="15.7515283"><ele>603.25</ele><time>2026-04-25T07:48:18.816Z</time></trkpt><trkpt lat="38.00733" lon="15.751705"><ele>596.5</ele><time>2026-04-25T07:48:19.816Z</time></trkpt><trkpt lat="38.0073717" lon="15.7518767"><ele>589.75</ele><time>2026-04-25T07:48:20.817Z</time></trkpt><trkpt lat="38.0074233" lon="15.752045"><ele>583.0</ele><time>2026-04-25T07:48:21.817Z</time></trkpt><trkpt lat="38.0074733" lon="15.752195"><ele>577.0</ele><time>2026-04-25T07:48:22.817Z</time></trkpt><trkpt lat="38.0075133" lon="15.752335"><ele>571.0</ele><time>2026-04-25T07:48:23.816Z</time></trkpt><trkpt lat="38.0075533" lon="15.7524683"><ele>565.0</ele><time>2026-04-25T07:48:24.817Z</time></trkpt><trkpt lat="38.00758" lon="15.7526"><ele>559.0</ele><time>2026-04-25T07:48:25.817Z</time></trkpt><trkpt lat="38.00758" lon="15.752745"><ele>558.8</ele><time>2026-04-25T07:48:26.817Z</time></trkpt><trkpt lat="38.0075683" lon="15.7528783"><ele>558.5999999999999</ele><time>2026-04-25T07:48:27.817Z</time></trkpt><trkpt lat="38.007515" lon="15.7530117"><ele>558.4</ele><time>2026-04-25T07:48:28.817Z</time></trkpt><trkpt lat="38.0074883" lon="15.7531383"><ele>558.1999999999999</ele><time>2026-04-25T07:48:29.817Z</time></trkpt><trkpt lat="38.0074333" lon="15.753245"><ele>558.0</ele><time>2026-04-25T07:48:30.817Z</time></trkpt><trkpt lat="38.0073967" lon="15.7533533"><ele>558.0</ele><time>2026-04-25T07:48:31.817Z</time></trkpt><trkpt lat="38.0073633" lon="15.7534733"><ele>558.0</ele><time>2026-04-25T07:48:32.817Z</time></trkpt><trkpt lat="38.0073267" lon="15.7536117"><ele>558.0</ele><time>2026-04-25T07:48:33.817Z</time></trkpt><trkpt lat="38.0073133" lon="15.7537667"><ele>558.0</ele><time>2026-04-25T07:48:34.816Z</time></trkpt><trkpt lat="38.0072883" lon="15.7539467"><ele>554.0</ele><time>2026-04-25T07:48:35.817Z</time></trkpt><trkpt lat="38.0072567" lon="15.7541483"><ele>550.0</ele><time>2026-04-25T07:48:36.816Z</time></trkpt><trkpt lat="38.0072217" lon="15.7543567"><ele>546.0</ele><time>2026-04-25T07:48:37.816Z</time></trkpt><trkpt lat="38.0071867" lon="15.75456"><ele>542.6666666666666</ele><time>2026-04-25T07:48:38.817Z</time></trkpt><trkpt lat="38.0071433" lon="15.754785"><ele>539.3333333333333</ele><time>2026-04-25T07:48:39.816Z</time></trkpt><trkpt lat="38.0071067" lon="15.7550017"><ele>536.0</ele><time>2026-04-25T07:48:40.817Z</time></trkpt><trkpt lat="38.0070767" lon="15.7552183"><ele>533.6666666666666</ele><time>2026-04-25T07:48:41.816Z</time></trkpt><trkpt lat="38.0070367" lon="15.7554433"><ele>531.3333333333334</ele><time>2026-04-25T07:48:42.817Z</time></trkpt><trkpt lat="38.0069883" lon="15.7556733"><ele>529.0</ele><time>2026-04-25T07:48:43.817Z</time></trkpt><trkpt lat="38.0069433" lon="15.75589"><ele>526.3333333333334</ele><time>2026-04-25T07:48:44.817Z</time></trkpt><trkpt lat="38.0069" lon="15.7561"><ele>523.6666666666666</ele><time>2026-04-25T07:48:45.817Z</time></trkpt><trkpt lat="38.0068533" lon="15.75631"><ele>521.0</ele><time>2026-04-25T07:48:46.817Z</time></trkpt><trkpt lat="38.0068067" lon="15.7565117"><ele>521.0</ele><time>2026-04-25T07:48:47.817Z</time></trkpt><trkpt lat="38.00674" lon="15.7566917"><ele>521.0</ele><time>2026-04-25T07:48:48.817Z</time></trkpt><trkpt lat="38.0066633" lon="15.7568667"><ele>521.0</ele><time>2026-04-25T07:48:49.817Z</time></trkpt><trkpt lat="38.0065983" lon="15.757015"><ele>521.0</ele><time>2026-04-25T07:48:50.817Z</time></trkpt><trkpt lat="38.00653" lon="15.75715"><ele>520.6</ele><time>2026-04-25T07:48:51.816Z</time></trkpt><trkpt lat="38.0064617" lon="15.7572733"><ele>520.2</ele><time>2026-04-25T07:48:52.817Z</time></trkpt><trkpt lat="38.0063817" lon="15.7573917"><ele>519.8</ele><time>2026-04-25T07:48:53.816Z</time></trkpt><trkpt lat="38.0063167" lon="15.7574783"><ele>519.4</ele><time>2026-04-25T07:48:54.817Z</time></trkpt><trkpt lat="38.0062583" lon="15.7575417"><ele>519.0</ele><time>2026-04-25T07:48:55.816Z</time></trkpt><trkpt lat="38.0061733" lon="15.7576"><ele>519.0</ele><time>2026-04-25T07:48:57.817Z</time></trkpt><trkpt lat="38.006225" lon="15.7575483"><ele>519.0</ele><time>2026-04-25T07:49:04.817Z</time></trkpt><trkpt lat="38.0063617" lon="15.7573633"><ele>519.0</ele><time>2026-04-25T07:49:05.817Z</time></trkpt><trkpt lat="38.0064617" lon="15.75726"><ele>519.0</ele><time>2026-04-25T07:49:06.817Z</time></trkpt><trkpt lat="38.0065317" lon="15.7571983"><ele>519.0</ele><time>2026-04-25T07:49:07.817Z</time></trkpt><trkpt lat="38.00661" lon="15.75721"><ele>519.0</ele><time>2026-04-25T07:49:08.817Z</time></trkpt><trkpt lat="38.0066733" lon="15.7572267"><ele>519.0</ele><time>2026-04-25T07:49:09.816Z</time></trkpt><trkpt lat="38.00677" lon="15.75728"><ele>519.0</ele><time>2026-04-25T07:49:11.817Z</time></trkpt><trkpt lat="38.0068533" lon="15.75729"><ele>519.0</ele><time>2026-04-25T07:49:13.817Z</time></trkpt><trkpt lat="38.0069767" lon="15.75723"><ele>518.4285714285714</ele><time>2026-04-25T07:49:15.817Z</time></trkpt><trkpt lat="38.0070417" lon="15.7572083"><ele>517.8571428571428</ele><time>2026-04-25T07:49:16.817Z</time></trkpt><trkpt lat="38.0070733" lon="15.7571333"><ele>517.2857142857142</ele><time>2026-04-25T07:49:29.816Z</time></trkpt><trkpt lat="38.0069817" lon="15.75714"><ele>516.7142857142857</ele><time>2026-04-25T07:49:33.817Z</time></trkpt><trkpt lat="38.0069317" lon="15.7571933"><ele>516.1428571428571</ele><time>2026-04-25T07:49:34.816Z</time></trkpt><trkpt lat="38.0069183" lon="15.7572767"><ele>515.5714285714286</ele><time>2026-04-25T07:49:36.817Z</time></trkpt><trkpt lat="38.006895" lon="15.7573517"><ele>515.0</ele><time>2026-04-25T07:49:38.817Z</time></trkpt><trkpt lat="38.006855" lon="15.7574217"><ele>515.0</ele><time>2026-04-25T07:49:40.817Z</time></trkpt><trkpt lat="38.0067867" lon="15.757475"><ele>515.0</ele><time>2026-04-25T07:49:42.817Z</time></trkpt><trkpt lat="38.0067433" lon="15.7575383"><ele>515.0</ele><time>2026-04-25T07:49:44.816Z</time></trkpt><trkpt lat="38.0066817" lon="15.7576117"><ele>515.0</ele><time>2026-04-25T07:49:46.817Z</time></trkpt><trkpt lat="38.0066267" lon="15.757695"><ele>515.0</ele><time>2026-04-25T07:49:48.817Z</time></trkpt><trkpt lat="38.006575" lon="15.7578"><ele>515.0</ele><time>2026-04-25T07:49:50.817Z</time></trkpt><trkpt lat="38.0065233" lon="15.757945"><ele>514.4</ele><time>2026-04-25T07:49:52.817Z</time></trkpt><trkpt lat="38.0064967" lon="15.7580233"><ele>513.8</ele><time>2026-04-25T07:49:53.817Z</time></trkpt><trkpt lat="38.0064717" lon="15.7580967"><ele>513.2</ele><time>2026-04-25T07:49:54.816Z</time></trkpt><trkpt lat="38.0064267" lon="15.7582133"><ele>512.6</ele><time>2026-04-25T07:49:56.817Z</time></trkpt><trkpt lat="38.006365" lon="15.758345"><ele>512.0</ele><time>2026-04-25T07:49:58.816Z</time></trkpt><trkpt lat="38.0063017" lon="15.7584717"><ele>510.99999999999994</ele><time>2026-04-25T07:50:00.817Z</time></trkpt><trkpt lat="38.0062467" lon="15.7585683"><ele>510.0</ele><time>2026-04-25T07:50:02.816Z</time></trkpt><trkpt lat="38.0061817" lon="15.7586183"><ele>509.0</ele><time>2026-04-25T07:50:26.817Z</time></trkpt><trkpt lat="38.006225" lon="15.7586767"><ele>508.0</ele><time>2026-04-25T07:50:28.817Z</time></trkpt><trkpt lat="38.006245" lon="15.7587717"><ele>506.99999999999994</ele><time>2026-04-25T07:50:31.817Z</time></trkpt><trkpt lat="38.0062" lon="15.7588783"><ele>506.0</ele><time>2026-04-25T07:50:33.817Z</time></trkpt><trkpt lat="38.0061633" lon="15.758955"><ele>506.0</ele><time>2026-04-25T07:50:34.817Z</time></trkpt><trkpt lat="38.0060617" lon="15.7590983"><ele>506.0</ele><time>2026-04-25T07:50:35.817Z</time></trkpt><trkpt lat="38.0059867" lon="15.759205"><ele>506.0</ele><time>2026-04-25T07:50:36.816Z</time></trkpt><trkpt lat="38.00592" lon="15.7592967"><ele>506.0</ele><time>2026-04-25T07:50:37.817Z</time></trkpt><trkpt lat="38.0058283" lon="15.759395"><ele>504.3333333333333</ele><time>2026-04-25T07:50:38.817Z</time></trkpt><trkpt lat="38.0057517" lon="15.7594683"><ele>502.66666666666663</ele><time>2026-04-25T07:50:39.817Z</time></trkpt><trkpt lat="38.0056733" lon="15.7595233"><ele>501.0</ele><time>2026-04-25T07:50:40.817Z</time></trkpt><trkpt lat="38.0055967" lon="15.7595533"><ele>499.33333333333337</ele><time>2026-04-25T07:50:41.817Z</time></trkpt><trkpt lat="38.0055317" lon="15.7596017"><ele>497.6666666666667</ele><time>2026-04-25T07:50:42.816Z</time></trkpt><trkpt lat="38.0054633" lon="15.7596383"><ele>496.0</ele><time>2026-04-25T07:50:43.817Z</time></trkpt><trkpt lat="38.0053967" lon="15.7596817"><ele>496.00000000000006</ele><time>2026-04-25T07:50:44.817Z</time></trkpt><trkpt lat="38.0053067" lon="15.7597767"><ele>496.0</ele><time>2026-04-25T07:50:46.817Z</time></trkpt><trkpt lat="38.0052633" lon="15.7598433"><ele>496.0</ele><time>2026-04-25T07:50:47.817Z</time></trkpt><trkpt lat="38.0052217" lon="15.7599133"><ele>496.0</ele><time>2026-04-25T07:50:48.817Z</time></trkpt><trkpt lat="38.0051767" lon="15.7599967"><ele>496.00000000000006</ele><time>2026-04-25T07:50:49.816Z</time></trkpt><trkpt lat="38.0051233" lon="15.7600733"><ele>496.0</ele><time>2026-04-25T07:50:50.817Z</time></trkpt><trkpt lat="38.005065" lon="15.760165"><ele>496.00000000000006</ele><time>2026-04-25T07:50:51.817Z</time></trkpt><trkpt lat="38.0049983" lon="15.7602467"><ele>496.0</ele><time>2026-04-25T07:50:52.817Z</time></trkpt><trkpt lat="38.004925" lon="15.760325"><ele>496.0</ele><time>2026-04-25T07:50:53.816Z</time></trkpt><trkpt lat="38.0048783" lon="15.7603933"><ele>496.0</ele><time>2026-04-25T07:50:54.817Z</time></trkpt><trkpt lat="38.004825" lon="15.76047"><ele>496.00000000000006</ele><time>2026-04-25T07:50:55.816Z</time></trkpt><trkpt lat="38.004765" lon="15.7605467"><ele>496.0</ele><time>2026-04-25T07:50:56.817Z</time></trkpt><trkpt lat="38.0047067" lon="15.7606167"><ele>496.0</ele><time>2026-04-25T07:50:57.817Z</time></trkpt><trkpt lat="38.00465" lon="15.76069"><ele>496.0</ele><time>2026-04-25T07:50:58.817Z</time></trkpt><trkpt lat="38.0045983" lon="15.7607567"><ele>496.0</ele><time>2026-04-25T07:50:59.816Z</time></trkpt><trkpt lat="38.0045367" lon="15.7608983"><ele>496.0</ele><time>2026-04-25T07:51:01.816Z</time></trkpt><trkpt lat="38.00449" lon="15.7610833"><ele>496.0</ele><time>2026-04-25T07:51:03.817Z</time></trkpt><trkpt lat="38.0044417" lon="15.76118"><ele>494.00000000000006</ele><time>2026-04-25T07:51:04.817Z</time></trkpt><trkpt lat="38.0044067" lon="15.7612633"><ele>492.0</ele><time>2026-04-25T07:51:05.817Z</time></trkpt><trkpt lat="38.0043633" lon="15.761345"><ele>490.0</ele><time>2026-04-25T07:51:06.816Z</time></trkpt><trkpt lat="38.004305" lon="15.7614217"><ele>488.0</ele><time>2026-04-25T07:51:07.817Z</time></trkpt><trkpt lat="38.00426" lon="15.7615033"><ele>486.00000000000006</ele><time>2026-04-25T07:51:08.816Z</time></trkpt><trkpt lat="38.004205" lon="15.761575"><ele>484.0</ele><time>2026-04-25T07:51:09.817Z</time></trkpt><trkpt lat="38.0041533" lon="15.7616233"><ele>483.0</ele><time>2026-04-25T07:51:10.817Z</time></trkpt><trkpt lat="38.0041" lon="15.7616733"><ele>482.0</ele><time>2026-04-25T07:51:11.817Z</time></trkpt><trkpt lat="38.0040117" lon="15.76173"><ele>481.0</ele><time>2026-04-25T07:51:13.817Z</time></trkpt><trkpt lat="38.0039017" lon="15.7617767"><ele>480.0</ele><time>2026-04-25T07:51:15.817Z</time></trkpt><trkpt lat="38.0038383" lon="15.7617883"><ele>479.0</ele><time>2026-04-25T07:51:16.817Z</time></trkpt><trkpt lat="38.0037267" lon="15.7618"><ele>479.0</ele><time>2026-04-25T07:51:18.817Z</time></trkpt><trkpt lat="38.0036783" lon="15.761855"><ele>479.0</ele><time>2026-04-25T07:51:21.817Z</time></trkpt><trkpt lat="38.0037783" lon="15.7618867"><ele>479.0</ele><time>2026-04-25T07:51:24.817Z</time></trkpt><trkpt lat="38.0039117" lon="15.7619617"><ele>479.0</ele><time>2026-04-25T07:51:26.817Z</time></trkpt><trkpt lat="38.0040083" lon="15.7620167"><ele>479.0</ele><time>2026-04-25T07:51:27.816Z</time></trkpt><trkpt lat="38.00412" lon="15.762055"><ele>480.5</ele><time>2026-04-25T07:51:28.817Z</time></trkpt><trkpt lat="38.004245" lon="15.7620867"><ele>482.0</ele><time>2026-04-25T07:51:29.817Z</time></trkpt><trkpt lat="38.0043667" lon="15.7621033"><ele>483.5</ele><time>2026-04-25T07:51:30.817Z</time></trkpt><trkpt lat="38.0044683" lon="15.762125"><ele>485.0</ele><time>2026-04-25T07:51:31.817Z</time></trkpt><trkpt lat="38.004575" lon="15.76216"><ele>485.0</ele><time>2026-04-25T07:51:32.816Z</time></trkpt><trkpt lat="38.00468" lon="15.7622283"><ele>485.0</ele><time>2026-04-25T07:51:33.816Z</time></trkpt><trkpt lat="38.004805" lon="15.7623017"><ele>485.0</ele><time>2026-04-25T07:51:34.817Z</time></trkpt><trkpt lat="38.0049083" lon="15.7623633"><ele>485.0</ele><time>2026-04-25T07:51:35.817Z</time></trkpt><trkpt lat="38.005025" lon="15.7624117"><ele>487.0</ele><time>2026-04-25T07:51:36.817Z</time></trkpt><trkpt lat="38.0051533" lon="15.76246"><ele>489.0</ele><time>2026-04-25T07:51:37.817Z</time></trkpt><trkpt lat="38.005275" lon="15.762515"><ele>491.0</ele><time>2026-04-25T07:51:38.816Z</time></trkpt><trkpt lat="38.005395" lon="15.7625617"><ele>493.0</ele><time>2026-04-25T07:51:39.816Z</time></trkpt><trkpt lat="38.0055133" lon="15.7626217"><ele>493.25</ele><time>2026-04-25T07:51:40.817Z</time></trkpt><trkpt lat="38.0056283" lon="15.7627"><ele>493.5</ele><time>2026-04-25T07:51:41.817Z</time></trkpt><trkpt lat="38.0057417" lon="15.7627917"><ele>493.75</ele><time>2026-04-25T07:51:42.817Z</time></trkpt><trkpt lat="38.0058517" lon="15.762875"><ele>494.0</ele><time>2026-04-25T07:51:43.817Z</time></trkpt><trkpt lat="38.0059767" lon="15.76296"><ele>496.0</ele><time>2026-04-25T07:51:44.817Z</time></trkpt><trkpt lat="38.0061067" lon="15.7630483"><ele>498.0</ele><time>2026-04-25T07:51:45.817Z</time></trkpt><trkpt lat="38.0062233" lon="15.7631333"><ele>500.0</ele><time>2026-04-25T07:51:46.816Z</time></trkpt><trkpt lat="38.0063233" lon="15.76322"><ele>502.0</ele><time>2026-04-25T07:51:47.816Z</time></trkpt><trkpt lat="38.00642" lon="15.7633017"><ele>502.0</ele><time>2026-04-25T07:51:48.817Z</time></trkpt><trkpt lat="38.0065067" lon="15.763375"><ele>502.00000000000006</ele><time>2026-04-25T07:51:49.817Z</time></trkpt><trkpt lat="38.00661" lon="15.7634233"><ele>502.00000000000006</ele><time>2026-04-25T07:51:50.816Z</time></trkpt><trkpt lat="38.006705" lon="15.76348"><ele>502.0</ele><time>2026-04-25T07:51:51.817Z</time></trkpt><trkpt lat="38.0068167" lon="15.7635333"><ele>502.0</ele><time>2026-04-25T07:51:52.816Z</time></trkpt><trkpt lat="38.0069133" lon="15.763575"><ele>505.40000000000003</ele><time>2026-04-25T07:51:53.817Z</time></trkpt><trkpt lat="38.007" lon="15.763595"><ele>508.80000000000007</ele><time>2026-04-25T07:51:54.816Z</time></trkpt><trkpt lat="38.00707" lon="15.7636067"><ele>512.2</ele><time>2026-04-25T07:51:55.817Z</time></trkpt><trkpt lat="38.0071983" lon="15.763585"><ele>515.6</ele><time>2026-04-25T07:51:57.817Z</time></trkpt><trkpt lat="38.0073083" lon="15.7635733"><ele>519.0</ele><time>2026-04-25T07:51:59.816Z</time></trkpt><trkpt lat="38.00737" lon="15.7635983"><ele>519.0</ele><time>2026-04-25T07:52:09.816Z</time></trkpt><trkpt lat="38.00745" lon="15.7636417"><ele>519.0</ele><time>2026-04-25T07:52:11.817Z</time></trkpt><trkpt lat="38.00751" lon="15.7636667"><ele>519.0</ele><time>2026-04-25T07:52:12.817Z</time></trkpt><trkpt lat="38.0075767" lon="15.7636883"><ele>519.0</ele><time>2026-04-25T07:52:14.816Z</time></trkpt><trkpt lat="38.0074967" lon="15.7636317"><ele>519.0</ele><time>2026-04-25T07:52:17.817Z</time></trkpt><trkpt lat="38.0073567" lon="15.7635667"><ele>519.0</ele><time>2026-04-25T07:52:19.817Z</time></trkpt><trkpt lat="38.0072783" lon="15.7635283"><ele>519.0</ele><time>2026-04-25T07:52:20.816Z</time></trkpt><trkpt lat="38.0072117" lon="15.7635083"><ele>519.0</ele><time>2026-04-25T07:52:21.816Z</time></trkpt><trkpt lat="38.0071117" lon="15.76352"><ele>519.0</ele><time>2026-04-25T07:52:23.817Z</time></trkpt><trkpt lat="38.00709" lon="15.7636133"><ele>519.0</ele><time>2026-04-25T07:52:25.816Z</time></trkpt><trkpt lat="38.007115" lon="15.7636883"><ele>519.0</ele><time>2026-04-25T07:52:26.816Z</time></trkpt><trkpt lat="38.00717" lon="15.76378"><ele>519.0</ele><time>2026-04-25T07:52:27.817Z</time></trkpt><trkpt lat="38.0072017" lon="15.7638683"><ele>519.0</ele><time>2026-04-25T07:52:28.817Z</time></trkpt><trkpt lat="38.007315" lon="15.7640133"><ele>519.0</ele><time>2026-04-25T07:52:29.816Z</time></trkpt><trkpt lat="38.0073967" lon="15.7641583"><ele>519.0</ele><time>2026-04-25T07:52:30.816Z</time></trkpt><trkpt lat="38.0074633" lon="15.76428"><ele>522.3333333333334</ele><time>2026-04-25T07:52:31.816Z</time></trkpt><trkpt lat="38.007555" lon="15.76442"><ele>525.6666666666667</ele><time>2026-04-25T07:52:32.817Z</time></trkpt><trkpt lat="38.0076983" lon="15.7645967"><ele>529.0</ele><time>2026-04-25T07:52:33.817Z</time></trkpt><trkpt lat="38.0078367" lon="15.7647633"><ele>529.0</ele><time>2026-04-25T07:52:34.816Z</time></trkpt><trkpt lat="38.00803" lon="15.7649433"><ele>529.0</ele><time>2026-04-25T07:52:35.817Z</time></trkpt><trkpt lat="38.0082217" lon="15.7651217"><ele>531.3333333333334</ele><time>2026-04-25T07:52:36.816Z</time></trkpt><trkpt lat="38.00839" lon="15.7652933"><ele>533.6666666666666</ele><time>2026-04-25T07:52:37.817Z</time></trkpt><trkpt lat="38.008545" lon="15.765455"><ele>536.0</ele><time>2026-04-25T07:52:38.816Z</time></trkpt><trkpt lat="38.0087083" lon="15.765605"><ele>536.0</ele><time>2026-04-25T07:52:39.817Z</time></trkpt><trkpt lat="38.00888" lon="15.7657617"><ele>536.0</ele><time>2026-04-25T07:52:40.817Z</time></trkpt><trkpt lat="38.0090467" lon="15.7659233"><ele>536.0</ele><time>2026-04-25T07:52:41.816Z</time></trkpt><trkpt lat="38.0092017" lon="15.7660633"><ele>540.5</ele><time>2026-04-25T07:52:42.816Z</time></trkpt><trkpt lat="38.0093517" lon="15.7661933"><ele>545.0</ele><time>2026-04-25T07:52:43.817Z</time></trkpt><trkpt lat="38.0096067" lon="15.7664483"><ele>545.0</ele><time>2026-04-25T07:52:44.817Z</time></trkpt><trkpt lat="38.00978" lon="15.7666417"><ele>545.0</ele><time>2026-04-25T07:52:45.817Z</time></trkpt><trkpt lat="38.009875" lon="15.7667533"><ele>545.0</ele><time>2026-04-25T07:52:46.816Z</time></trkpt><trkpt lat="38.0099717" lon="15.766845"><ele>548.5</ele><time>2026-04-25T07:52:47.816Z</time></trkpt><trkpt lat="38.0100917" lon="15.7669217"><ele>552.0</ele><time>2026-04-25T07:52:48.817Z</time></trkpt><trkpt lat="38.0101933" lon="15.7670067"><ele>555.5</ele><time>2026-04-25T07:52:49.817Z</time></trkpt><trkpt lat="38.01029" lon="15.7671083"><ele>559.0</ele><time>2026-04-25T07:52:50.817Z</time></trkpt><trkpt lat="38.0104017" lon="15.7672183"><ele>559.0</ele><time>2026-04-25T07:52:51.816Z</time></trkpt><trkpt lat="38.0105133" lon="15.7673283"><ele>559.0</ele><time>2026-04-25T07:52:52.817Z</time></trkpt><trkpt lat="38.01062" lon="15.76745"><ele>559.0</ele><time>2026-04-25T07:52:53.817Z</time></trkpt><trkpt lat="38.01073" lon="15.767565"><ele>559.0</ele><time>2026-04-25T07:52:54.817Z</time></trkpt><trkpt lat="38.010835" lon="15.7676833"><ele>561.0</ele><time>2026-04-25T07:52:55.817Z</time></trkpt><trkpt lat="38.0109417" lon="15.7678033"><ele>563.0</ele><time>2026-04-25T07:52:56.817Z</time></trkpt><trkpt lat="38.0110417" lon="15.7679217"><ele>565.0</ele><time>2026-04-25T07:52:57.817Z</time></trkpt><trkpt lat="38.0111467" lon="15.7680433"><ele>567.0</ele><time>2026-04-25T07:52:58.817Z</time></trkpt><trkpt lat="38.011235" lon="15.7681467"><ele>567.0</ele><time>2026-04-25T07:52:59.817Z</time></trkpt><trkpt lat="38.0113517" lon="15.7682883"><ele>567.0</ele><time>2026-04-25T07:53:00.817Z</time></trkpt><trkpt lat="38.0114617" lon="15.7684267"><ele>567.0</ele><time>2026-04-25T07:53:01.816Z</time></trkpt><trkpt lat="38.0115917" lon="15.7685533"><ele>572.0</ele><time>2026-04-25T07:53:02.817Z</time></trkpt><trkpt lat="38.011685" lon="15.7686933"><ele>577.0</ele><time>2026-04-25T07:53:03.817Z</time></trkpt><trkpt lat="38.01182" lon="15.7687833"><ele>582.0</ele><time>2026-04-25T07:53:04.817Z</time></trkpt><trkpt lat="38.0119633" lon="15.7688617"><ele>582.0</ele><time>2026-04-25T07:53:05.817Z</time></trkpt><trkpt lat="38.0121067" lon="15.76895"><ele>582.0</ele><time>2026-04-25T07:53:06.817Z</time></trkpt><trkpt lat="38.012245" lon="15.769035"><ele>582.0</ele><time>2026-04-25T07:53:07.817Z</time></trkpt><trkpt lat="38.0123817" lon="15.7691217"><ele>581.0</ele><time>2026-04-25T07:53:08.817Z</time></trkpt><trkpt lat="38.012515" lon="15.7692017"><ele>580.0</ele><time>2026-04-25T07:53:09.817Z</time></trkpt><trkpt lat="38.012645" lon="15.769265"><ele>579.0</ele><time>2026-04-25T07:53:10.817Z</time></trkpt><trkpt lat="38.01275" lon="15.76932"><ele>578.0</ele><time>2026-04-25T07:53:11.817Z</time></trkpt><trkpt lat="38.01284" lon="15.7693283"><ele>578.0</ele><time>2026-04-25T07:53:12.816Z</time></trkpt><trkpt lat="38.0129067" lon="15.7693283"><ele>578.0</ele><time>2026-04-25T07:53:13.817Z</time></trkpt><trkpt lat="38.0130233" lon="15.7693183"><ele>578.0</ele><time>2026-04-25T07:53:15.816Z</time></trkpt><trkpt lat="38.0130933" lon="15.769305"><ele>578.0</ele><time>2026-04-25T07:53:16.817Z</time></trkpt><trkpt lat="38.0131717" lon="15.7692817"><ele>578.0</ele><time>2026-04-25T07:53:17.816Z</time></trkpt><trkpt lat="38.0132383" lon="15.76928"><ele>578.0</ele><time>2026-04-25T07:53:18.817Z</time></trkpt><trkpt lat="38.0133133" lon="15.769275"><ele>579.3333333333333</ele><time>2026-04-25T07:53:19.817Z</time></trkpt><trkpt lat="38.01339" lon="15.7692667"><ele>580.6666666666666</ele><time>2026-04-25T07:53:20.816Z</time></trkpt><trkpt lat="38.0134783" lon="15.7692667"><ele>582.0</ele><time>2026-04-25T07:53:21.817Z</time></trkpt><trkpt lat="38.0135517" lon="15.7692567"><ele>583.3333333333334</ele><time>2026-04-25T07:53:22.817Z</time></trkpt><trkpt lat="38.0136683" lon="15.769235"><ele>584.6666666666667</ele><time>2026-04-25T07:53:24.817Z</time></trkpt><trkpt lat="38.0137367" lon="15.7692267"><ele>586.0</ele><time>2026-04-25T07:53:25.817Z</time></trkpt><trkpt lat="38.013725" lon="15.77175"><ele>599.0</ele><time>2026-04-25T07:53:45.816Z</time></trkpt><trkpt lat="38.0138117" lon="15.7720317"><ele>612.0</ele><time>2026-04-25T07:53:46.816Z</time></trkpt><trkpt lat="38.0138567" lon="15.772235"><ele>625.0</ele><time>2026-04-25T07:53:47.816Z</time></trkpt><trkpt lat="38.0139417" lon="15.77241"><ele>625.0</ele><time>2026-04-25T07:53:48.815Z</time></trkpt><trkpt lat="38.0139617" lon="15.7725883"><ele>625.0</ele><time>2026-04-25T07:53:49.816Z</time></trkpt><trkpt lat="38.0140383" lon="15.7727283"><ele>625.0</ele><time>2026-04-25T07:53:50.815Z</time></trkpt><trkpt lat="38.01414" lon="15.77284"><ele>625.0</ele><time>2026-04-25T07:53:51.815Z</time></trkpt><trkpt lat="38.01428" lon="15.7729317"><ele>620.3333333333334</ele><time>2026-04-25T07:53:52.816Z</time></trkpt><trkpt lat="38.0143967" lon="15.7730367"><ele>615.6666666666666</ele><time>2026-04-25T07:53:53.816Z</time></trkpt><trkpt lat="38.0145167" lon="15.77315"><ele>611.0</ele><time>2026-04-25T07:53:54.816Z</time></trkpt><trkpt lat="38.0146533" lon="15.77326"><ele>611.0</ele><time>2026-04-25T07:53:55.815Z</time></trkpt><trkpt lat="38.0147767" lon="15.7733767"><ele>611.0</ele><time>2026-04-25T07:53:56.816Z</time></trkpt><trkpt lat="38.0149033" lon="15.7734967"><ele>611.0</ele><time>2026-04-25T07:53:57.816Z</time></trkpt><trkpt lat="38.01504" lon="15.7736117"><ele>613.0</ele><time>2026-04-25T07:53:58.816Z</time></trkpt><trkpt lat="38.01518" lon="15.7737133"><ele>615.0</ele><time>2026-04-25T07:53:59.816Z</time></trkpt><trkpt lat="38.01532" lon="15.77379"><ele>617.0</ele><time>2026-04-25T07:54:00.815Z</time></trkpt><trkpt lat="38.0154383" lon="15.7738217"><ele>619.0</ele><time>2026-04-25T07:54:01.816Z</time></trkpt><trkpt lat="38.0155633" lon="15.7738217"><ele>619.0</ele><time>2026-04-25T07:54:02.816Z</time></trkpt><trkpt lat="38.0156617" lon="15.7737867"><ele>619.0</ele><time>2026-04-25T07:54:03.816Z</time></trkpt><trkpt lat="38.0157783" lon="15.7737767"><ele>619.0</ele><time>2026-04-25T07:54:04.815Z</time></trkpt><trkpt lat="38.0159317" lon="15.773745"><ele>619.0</ele><time>2026-04-25T07:54:05.816Z</time></trkpt><trkpt lat="38.016075" lon="15.7737383"><ele>620.0</ele><time>2026-04-25T07:54:06.815Z</time></trkpt><trkpt lat="38.0161883" lon="15.77375"><ele>621.0</ele><time>2026-04-25T07:54:07.816Z</time></trkpt><trkpt lat="38.0162883" lon="15.7737917"><ele>622.0</ele><time>2026-04-25T07:54:08.816Z</time></trkpt><trkpt lat="38.0163183" lon="15.7738983"><ele>623.0</ele><time>2026-04-25T07:54:09.815Z</time></trkpt><trkpt lat="38.0163083" lon="15.7740117"><ele>624.0</ele><time>2026-04-25T07:54:10.815Z</time></trkpt><trkpt lat="38.016315" lon="15.77411"><ele>624.0</ele><time>2026-04-25T07:54:11.816Z</time></trkpt><trkpt lat="38.0162917" lon="15.77422"><ele>624.0</ele><time>2026-04-25T07:54:12.816Z</time></trkpt><trkpt lat="38.016245" lon="15.7743417"><ele>624.0</ele><time>2026-04-25T07:54:13.816Z</time></trkpt><trkpt lat="38.0161717" lon="15.7744967"><ele>624.0</ele><time>2026-04-25T07:54:14.816Z</time></trkpt><trkpt lat="38.0161117" lon="15.774655"><ele>627.0</ele><time>2026-04-25T07:54:15.816Z</time></trkpt><trkpt lat="38.0160533" lon="15.7748083"><ele>630.0</ele><time>2026-04-25T07:54:16.816Z</time></trkpt><trkpt lat="38.0159983" lon="15.7749433"><ele>633.0</ele><time>2026-04-25T07:54:17.815Z</time></trkpt><trkpt lat="38.0159267" lon="15.7750633"><ele>636.0</ele><time>2026-04-25T07:54:18.815Z</time></trkpt><trkpt lat="38.0158567" lon="15.7751683"><ele>641.75</ele><time>2026-04-25T07:54:19.816Z</time></trkpt><trkpt lat="38.015775" lon="15.77526"><ele>647.5</ele><time>2026-04-25T07:54:20.816Z</time></trkpt><trkpt lat="38.0156383" lon="15.7752717"><ele>653.25</ele><time>2026-04-25T07:54:21.816Z</time></trkpt><trkpt lat="38.0154983" lon="15.7752967"><ele>659.0</ele><time>2026-04-25T07:54:22.816Z</time></trkpt><trkpt lat="38.015385" lon="15.7753383"><ele>659.0</ele><time>2026-04-25T07:54:23.816Z</time></trkpt><trkpt lat="38.0152583" lon="15.77538"><ele>659.0</ele><time>2026-04-25T07:54:24.816Z</time></trkpt><trkpt lat="38.0151133" lon="15.7754083"><ele>659.0</ele><time>2026-04-25T07:54:25.816Z</time></trkpt><trkpt lat="38.0149783" lon="15.7754533"><ele>659.0</ele><time>2026-04-25T07:54:26.816Z</time></trkpt><trkpt lat="38.0148433" lon="15.775485"><ele>655.75</ele><time>2026-04-25T07:54:27.816Z</time></trkpt><trkpt lat="38.014705" lon="15.7755267"><ele>652.5</ele><time>2026-04-25T07:54:28.815Z</time></trkpt><trkpt lat="38.0146067" lon="15.775545"><ele>649.25</ele><time>2026-04-25T07:54:29.815Z</time></trkpt><trkpt lat="38.01451" lon="15.7756067"><ele>646.0</ele><time>2026-04-25T07:54:30.815Z</time></trkpt><trkpt lat="38.0145017" lon="15.7757433"><ele>646.0</ele><time>2026-04-25T07:54:32.816Z</time></trkpt><trkpt lat="38.01451" lon="15.7758883"><ele>646.0</ele><time>2026-04-25T07:54:34.815Z</time></trkpt><trkpt lat="38.014485" lon="15.775965"><ele>646.0</ele><time>2026-04-25T07:54:35.815Z</time></trkpt><trkpt lat="38.01444" lon="15.776025"><ele>646.0</ele><time>2026-04-25T07:54:36.815Z</time></trkpt><trkpt lat="38.0143833" lon="15.7760883"><ele>646.0</ele><time>2026-04-25T07:54:37.815Z</time></trkpt><trkpt lat="38.01432" lon="15.7761283"><ele>646.0</ele><time>2026-04-25T07:54:38.816Z</time></trkpt><trkpt lat="38.01425" lon="15.7761783"><ele>646.8333333333334</ele><time>2026-04-25T07:54:39.816Z</time></trkpt><trkpt lat="38.01419" lon="15.7762217"><ele>647.6666666666667</ele><time>2026-04-25T07:54:40.816Z</time></trkpt><trkpt lat="38.0141283" lon="15.776295"><ele>648.5</ele><time>2026-04-25T07:54:41.816Z</time></trkpt><trkpt lat="38.01406" lon="15.7763517"><ele>649.3333333333334</ele><time>2026-04-25T07:54:42.816Z</time></trkpt><trkpt lat="38.0139767" lon="15.7764033"><ele>650.1666666666666</ele><time>2026-04-25T07:54:43.816Z</time></trkpt><trkpt lat="38.0138917" lon="15.7764633"><ele>651.0</ele><time>2026-04-25T07:54:44.815Z</time></trkpt><trkpt lat="38.0138283" lon="15.7765"><ele>651.0</ele><time>2026-04-25T07:54:45.816Z</time></trkpt><trkpt lat="38.01376" lon="15.7765533"><ele>651.0</ele><time>2026-04-25T07:54:46.816Z</time></trkpt><trkpt lat="38.0136867" lon="15.776675"><ele>651.0</ele><time>2026-04-25T07:54:47.815Z</time></trkpt><trkpt lat="38.0136433" lon="15.7767767"><ele>651.0</ele><time>2026-04-25T07:54:48.816Z</time></trkpt><trkpt lat="38.0135967" lon="15.7768933"><ele>651.0</ele><time>2026-04-25T07:54:49.816Z</time></trkpt><trkpt lat="38.0135417" lon="15.777015"><ele>653.1999999999999</ele><time>2026-04-25T07:54:50.816Z</time></trkpt><trkpt lat="38.0135017" lon="15.777145"><ele>655.4</ele><time>2026-04-25T07:54:51.815Z</time></trkpt><trkpt lat="38.01347" lon="15.7772767"><ele>657.6</ele><time>2026-04-25T07:54:52.816Z</time></trkpt><trkpt lat="38.013475" lon="15.7774233"><ele>659.8</ele><time>2026-04-25T07:54:53.816Z</time></trkpt><trkpt lat="38.01349" lon="15.777555"><ele>662.0</ele><time>2026-04-25T07:54:54.816Z</time></trkpt><trkpt lat="38.0134933" lon="15.7776683"><ele>664.2</ele><time>2026-04-25T07:54:55.816Z</time></trkpt><trkpt lat="38.0134917" lon="15.777805"><ele>666.4000000000001</ele><time>2026-04-25T07:54:56.816Z</time></trkpt><trkpt lat="38.01349" lon="15.77795"><ele>668.5999999999999</ele><time>2026-04-25T07:54:57.816Z</time></trkpt><trkpt lat="38.0134633" lon="15.7780867"><ele>670.8</ele><time>2026-04-25T07:54:58.816Z</time></trkpt><trkpt lat="38.01345" lon="15.7782067"><ele>673.0</ele><time>2026-04-25T07:54:59.815Z</time></trkpt><trkpt lat="38.01343" lon="15.7783017"><ele>673.0</ele><time>2026-04-25T07:55:00.816Z</time></trkpt><trkpt lat="38.0134217" lon="15.7783867"><ele>673.0</ele><time>2026-04-25T07:55:01.815Z</time></trkpt><trkpt lat="38.01335" lon="15.7784983"><ele>673.0</ele><time>2026-04-25T07:55:03.815Z</time></trkpt><trkpt lat="38.0132183" lon="15.7784517"><ele>673.0</ele><time>2026-04-25T07:55:04.816Z</time></trkpt><trkpt lat="38.0131117" lon="15.77841"><ele>673.0</ele><time>2026-04-25T07:55:05.816Z</time></trkpt><trkpt lat="38.01303" lon="15.7783417"><ele>675.2</ele><time>2026-04-25T07:55:06.816Z</time></trkpt><trkpt lat="38.01295" lon="15.7783017"><ele>677.4</ele><time>2026-04-25T07:55:07.815Z</time></trkpt><trkpt lat="38.0128633" lon="15.7782333"><ele>679.6</ele><time>2026-04-25T07:55:08.815Z</time></trkpt><trkpt lat="38.0127733" lon="15.7781567"><ele>681.8000000000001</ele><time>2026-04-25T07:55:09.815Z</time></trkpt><trkpt lat="38.0127167" lon="15.7780617"><ele>684.0</ele><time>2026-04-25T07:55:10.816Z</time></trkpt><trkpt lat="38.012655" lon="15.7779717"><ele>684.0</ele><time>2026-04-25T07:55:11.816Z</time></trkpt><trkpt lat="38.012645" lon="15.77784"><ele>684.0</ele><time>2026-04-25T07:55:12.816Z</time></trkpt><trkpt lat="38.012605" lon="15.7777117"><ele>684.0</ele><time>2026-04-25T07:55:13.816Z</time></trkpt><trkpt lat="38.0125733" lon="15.7776033"><ele>684.0</ele><time>2026-04-25T07:55:14.816Z</time></trkpt><trkpt lat="38.0125267" lon="15.7775017"><ele>684.0</ele><time>2026-04-25T07:55:15.816Z</time></trkpt><trkpt lat="38.01247" lon="15.7774133"><ele>684.0</ele><time>2026-04-25T07:55:16.816Z</time></trkpt><trkpt lat="38.0123967" lon="15.7773483"><ele>684.0</ele><time>2026-04-25T07:55:17.816Z</time></trkpt><trkpt lat="38.0123217" lon="15.7772933"><ele>684.0</ele><time>2026-04-25T07:55:18.816Z</time></trkpt><trkpt lat="38.0122483" lon="15.7772283"><ele>684.0</ele><time>2026-04-25T07:55:19.815Z</time></trkpt><trkpt lat="38.0121717" lon="15.77718"><ele>684.0</ele><time>2026-04-25T07:55:20.816Z</time></trkpt><trkpt lat="38.012095" lon="15.7771417"><ele>684.0</ele><time>2026-04-25T07:55:21.816Z</time></trkpt><trkpt lat="38.0120167" lon="15.7771483"><ele>684.0</ele><time>2026-04-25T07:55:22.816Z</time></trkpt><trkpt lat="38.0119417" lon="15.7771433"><ele>684.0</ele><time>2026-04-25T07:55:23.816Z</time></trkpt><trkpt lat="38.0118717" lon="15.7771917"><ele>684.0</ele><time>2026-04-25T07:55:24.816Z</time></trkpt><trkpt lat="38.0118083" lon="15.7772617"><ele>684.0</ele><time>2026-04-25T07:55:25.816Z</time></trkpt><trkpt lat="38.0117417" lon="15.7773517"><ele>684.0</ele><time>2026-04-25T07:55:26.816Z</time></trkpt><trkpt lat="38.0116867" lon="15.77746"><ele>684.0</ele><time>2026-04-25T07:55:27.816Z</time></trkpt><trkpt lat="38.01166" lon="15.7775683"><ele>683.2</ele><time>2026-04-25T07:55:28.815Z</time></trkpt><trkpt lat="38.0116383" lon="15.7776767"><ele>682.4000000000001</ele><time>2026-04-25T07:55:29.816Z</time></trkpt><trkpt lat="38.01172" lon="15.777795"><ele>681.6</ele><time>2026-04-25T07:55:30.816Z</time></trkpt><trkpt lat="38.0117817" lon="15.7779067"><ele>680.8</ele><time>2026-04-25T07:55:31.816Z</time></trkpt><trkpt lat="38.0118533" lon="15.77801"><ele>680.0</ele><time>2026-04-25T07:55:32.815Z</time></trkpt><trkpt lat="38.0119733" lon="15.7780867"><ele>680.0</ele><time>2026-04-25T07:55:33.815Z</time></trkpt><trkpt lat="38.0120517" lon="15.7781383"><ele>680.0</ele><time>2026-04-25T07:55:34.816Z</time></trkpt><trkpt lat="38.0121467" lon="15.778175"><ele>680.0</ele><time>2026-04-25T07:55:35.816Z</time></trkpt><trkpt lat="38.0122433" lon="15.7782133"><ele>680.0</ele><time>2026-04-25T07:55:36.816Z</time></trkpt><trkpt lat="38.0123267" lon="15.778255"><ele>680.0</ele><time>2026-04-25T07:55:37.816Z</time></trkpt><trkpt lat="38.012385" lon="15.778355"><ele>680.0</ele><time>2026-04-25T07:55:38.816Z</time></trkpt><trkpt lat="38.0124217" lon="15.7784967"><ele>680.0</ele><time>2026-04-25T07:55:39.816Z</time></trkpt><trkpt lat="38.012455" lon="15.7786767"><ele>680.0</ele><time>2026-04-25T07:55:40.816Z</time></trkpt><trkpt lat="38.012485" lon="15.7788667"><ele>680.0</ele><time>2026-04-25T07:55:41.815Z</time></trkpt><trkpt lat="38.0125267" lon="15.7790267"><ele>683.25</ele><time>2026-04-25T07:55:42.815Z</time></trkpt><trkpt lat="38.012545" lon="15.77918"><ele>686.5</ele><time>2026-04-25T07:55:43.816Z</time></trkpt><trkpt lat="38.01256" lon="15.77934"><ele>689.75</ele><time>2026-04-25T07:55:44.816Z</time></trkpt><trkpt lat="38.0125617" lon="15.7795"><ele>693.0</ele><time>2026-04-25T07:55:45.816Z</time></trkpt><trkpt lat="38.0125683" lon="15.7796367"><ele>695.25</ele><time>2026-04-25T07:55:46.816Z</time></trkpt><trkpt lat="38.0125533" lon="15.7797767"><ele>697.5</ele><time>2026-04-25T07:55:47.815Z</time></trkpt><trkpt lat="38.0125317" lon="15.779925"><ele>699.75</ele><time>2026-04-25T07:55:48.815Z</time></trkpt><trkpt lat="38.0125083" lon="15.780095"><ele>702.0</ele><time>2026-04-25T07:55:49.815Z</time></trkpt><trkpt lat="38.0124883" lon="15.7802467"><ele>695.5</ele><time>2026-04-25T07:55:50.815Z</time></trkpt><trkpt lat="38.012475" lon="15.7804167"><ele>689.0</ele><time>2026-04-25T07:55:51.816Z</time></trkpt><trkpt lat="38.012455" lon="15.780565"><ele>682.5</ele><time>2026-04-25T07:55:52.816Z</time></trkpt><trkpt lat="38.01244" lon="15.7807133"><ele>676.0</ele><time>2026-04-25T07:55:53.815Z</time></trkpt><trkpt lat="38.012425" lon="15.7808567"><ele>680.5</ele><time>2026-04-25T07:55:54.816Z</time></trkpt><trkpt lat="38.0124183" lon="15.78102"><ele>685.0</ele><time>2026-04-25T07:55:55.816Z</time></trkpt><trkpt lat="38.0124067" lon="15.78118"><ele>689.5</ele><time>2026-04-25T07:55:56.816Z</time></trkpt><trkpt lat="38.012385" lon="15.78134"><ele>694.0</ele><time>2026-04-25T07:55:57.816Z</time></trkpt><trkpt lat="38.0123633" lon="15.781475"><ele>694.0</ele><time>2026-04-25T07:55:58.816Z</time></trkpt><trkpt lat="38.0123167" lon="15.7815667"><ele>694.0</ele><time>2026-04-25T07:55:59.815Z</time></trkpt><trkpt lat="38.0123067" lon="15.7816983"><ele>694.0</ele><time>2026-04-25T07:56:01.815Z</time></trkpt><trkpt lat="38.01235" lon="15.7818117"><ele>694.0</ele><time>2026-04-25T07:56:03.816Z</time></trkpt><trkpt lat="38.012365" lon="15.78195"><ele>694.0</ele><time>2026-04-25T07:56:05.815Z</time></trkpt><trkpt lat="38.01238" lon="15.7820967"><ele>696.6666666666667</ele><time>2026-04-25T07:56:07.815Z</time></trkpt><trkpt lat="38.0123883" lon="15.7821817"><ele>699.3333333333334</ele><time>2026-04-25T07:56:08.816Z</time></trkpt><trkpt lat="38.0123883" lon="15.7822667"><ele>702.0</ele><time>2026-04-25T07:56:09.816Z</time></trkpt><trkpt lat="38.0123667" lon="15.7823733"><ele>704.6666666666666</ele><time>2026-04-25T07:56:10.816Z</time></trkpt><trkpt lat="38.0123367" lon="15.7824783"><ele>707.3333333333333</ele><time>2026-04-25T07:56:11.816Z</time></trkpt><trkpt lat="38.012305" lon="15.7825917"><ele>710.0</ele><time>2026-04-25T07:56:12.816Z</time></trkpt><trkpt lat="38.0122933" lon="15.7827117"><ele>710.0</ele><time>2026-04-25T07:56:13.815Z</time></trkpt><trkpt lat="38.0122567" lon="15.7828133"><ele>710.0</ele><time>2026-04-25T07:56:14.816Z</time></trkpt><trkpt lat="38.0122167" lon="15.7829283"><ele>710.0</ele><time>2026-04-25T07:56:15.816Z</time></trkpt><trkpt lat="38.0121817" lon="15.78305"><ele>710.0</ele><time>2026-04-25T07:56:16.816Z</time></trkpt><trkpt lat="38.0121483" lon="15.7831967"><ele>710.0</ele><time>2026-04-25T07:56:17.816Z</time></trkpt><trkpt lat="38.012115" lon="15.7833383"><ele>710.0</ele><time>2026-04-25T07:56:18.816Z</time></trkpt><trkpt lat="38.0120833" lon="15.7834767"><ele>710.0</ele><time>2026-04-25T07:56:19.816Z</time></trkpt><trkpt lat="38.0120383" lon="15.7836083"><ele>710.0</ele><time>2026-04-25T07:56:20.816Z</time></trkpt><trkpt lat="38.012" lon="15.7837283"><ele>710.0</ele><time>2026-04-25T07:56:21.816Z</time></trkpt><trkpt lat="38.0119617" lon="15.7838333"><ele>710.0</ele><time>2026-04-25T07:56:22.816Z</time></trkpt><trkpt lat="38.011915" lon="15.7839333"><ele>708.6666666666666</ele><time>2026-04-25T07:56:23.815Z</time></trkpt><trkpt lat="38.0118733" lon="15.78404"><ele>707.3333333333333</ele><time>2026-04-25T07:56:24.816Z</time></trkpt><trkpt lat="38.0118567" lon="15.7841217"><ele>706.0</ele><time>2026-04-25T07:56:25.816Z</time></trkpt><trkpt lat="38.0118567" lon="15.78425"><ele>704.6666666666666</ele><time>2026-04-25T07:56:27.816Z</time></trkpt><trkpt lat="38.0119217" lon="15.78427"><ele>703.3333333333334</ele><time>2026-04-25T07:56:31.815Z</time></trkpt><trkpt lat="38.0119867" lon="15.7841983"><ele>702.0</ele><time>2026-04-25T07:56:32.815Z</time></trkpt><trkpt lat="38.012185" lon="15.7839817"><ele>702.0</ele><time>2026-04-25T07:56:33.815Z</time></trkpt><trkpt lat="38.0123317" lon="15.78387"><ele>702.0</ele><time>2026-04-25T07:56:34.816Z</time></trkpt><trkpt lat="38.0124033" lon="15.7837817"><ele>702.0</ele><time>2026-04-25T07:56:35.816Z</time></trkpt><trkpt lat="38.0124883" lon="15.7836983"><ele>702.0</ele><time>2026-04-25T07:56:36.815Z</time></trkpt><trkpt lat="38.0125683" lon="15.7836617"><ele>696.1666666666666</ele><time>2026-04-25T07:56:37.816Z</time></trkpt><trkpt lat="38.0126333" lon="15.78364"><ele>690.3333333333334</ele><time>2026-04-25T07:56:38.815Z</time></trkpt><trkpt lat="38.0127067" lon="15.7836317"><ele>684.5</ele><time>2026-04-25T07:56:39.816Z</time></trkpt><trkpt lat="38.0128067" lon="15.7836683"><ele>678.6666666666667</ele><time>2026-04-25T07:56:41.816Z</time></trkpt><trkpt lat="38.01281" lon="15.7838"><ele>672.8333333333334</ele><time>2026-04-25T07:56:43.815Z</time></trkpt><trkpt lat="38.0127817" lon="15.7838767"><ele>667.0</ele><time>2026-04-25T07:56:44.816Z</time></trkpt><trkpt lat="38.012735" lon="15.7839633"><ele>667.0</ele><time>2026-04-25T07:56:45.815Z</time></trkpt><trkpt lat="38.0126983" lon="15.784045"><ele>667.0</ele><time>2026-04-25T07:56:46.816Z</time></trkpt><trkpt lat="38.0126733" lon="15.7841317"><ele>667.0</ele><time>2026-04-25T07:56:47.816Z</time></trkpt><trkpt lat="38.012635" lon="15.78424"><ele>667.0</ele><time>2026-04-25T07:56:48.815Z</time></trkpt><trkpt lat="38.012605" lon="15.7843583"><ele>667.0</ele><time>2026-04-25T07:56:49.816Z</time></trkpt><trkpt lat="38.012595" lon="15.7844667"><ele>667.0</ele><time>2026-04-25T07:56:50.816Z</time></trkpt><trkpt lat="38.0125817" lon="15.7845633"><ele>664.2</ele><time>2026-04-25T07:56:51.816Z</time></trkpt><trkpt lat="38.012565" lon="15.7846617"><ele>661.4000000000001</ele><time>2026-04-25T07:56:52.816Z</time></trkpt><trkpt lat="38.01248" lon="15.7847683"><ele>658.5999999999999</ele><time>2026-04-25T07:56:54.816Z</time></trkpt><trkpt lat="38.012435" lon="15.784845"><ele>655.8</ele><time>2026-04-25T07:56:55.816Z</time></trkpt><trkpt lat="38.0123883" lon="15.7849433"><ele>653.0</ele><time>2026-04-25T07:56:56.816Z</time></trkpt><trkpt lat="38.0123617" lon="15.7850583"><ele>655.8</ele><time>2026-04-25T07:56:57.816Z</time></trkpt><trkpt lat="38.01234" lon="15.7851767"><ele>658.5999999999999</ele><time>2026-04-25T07:56:58.816Z</time></trkpt><trkpt lat="38.0123283" lon="15.7852983"><ele>661.4000000000001</ele><time>2026-04-25T07:56:59.816Z</time></trkpt><trkpt lat="38.0123567" lon="15.7854333"><ele>664.2</ele><time>2026-04-25T07:57:00.816Z</time></trkpt><trkpt lat="38.0123433" lon="15.7855617"><ele>667.0</ele><time>2026-04-25T07:57:01.816Z</time></trkpt><trkpt lat="38.0123383" lon="15.785695"><ele>667.0</ele><time>2026-04-25T07:57:02.816Z</time></trkpt><trkpt lat="38.0123383" lon="15.78583"><ele>667.0</ele><time>2026-04-25T07:57:03.816Z</time></trkpt><trkpt lat="38.0123233" lon="15.7859617"><ele>667.0</ele><time>2026-04-25T07:57:04.816Z</time></trkpt><trkpt lat="38.0123033" lon="15.7860683"><ele>667.0</ele><time>2026-04-25T07:57:05.816Z</time></trkpt><trkpt lat="38.0122833" lon="15.78617"><ele>667.0</ele><time>2026-04-25T07:57:06.816Z</time></trkpt><trkpt lat="38.01227" lon="15.7862583"><ele>667.0</ele><time>2026-04-25T07:57:08.816Z</time></trkpt><trkpt lat="38.0123383" lon="15.78619"><ele>667.0</ele><time>2026-04-25T07:57:10.816Z</time></trkpt><trkpt lat="38.012415" lon="15.7860617"><ele>667.0</ele><time>2026-04-25T07:57:12.816Z</time></trkpt><trkpt lat="38.01248" lon="15.7859267"><ele>667.0</ele><time>2026-04-25T07:57:13.816Z</time></trkpt><trkpt lat="38.0125383" lon="15.7858167"><ele>667.0</ele><time>2026-04-25T07:57:14.816Z</time></trkpt><trkpt lat="38.0126267" lon="15.7856733"><ele>660.2</ele><time>2026-04-25T07:57:15.815Z</time></trkpt><trkpt lat="38.0126917" lon="15.7855833"><ele>653.4000000000001</ele><time>2026-04-25T07:57:16.816Z</time></trkpt><trkpt lat="38.0127733" lon="15.7855033"><ele>646.5999999999999</ele><time>2026-04-25T07:57:17.815Z</time></trkpt><trkpt lat="38.0128383" lon="15.7854367"><ele>639.8</ele><time>2026-04-25T07:57:18.816Z</time></trkpt><trkpt lat="38.012935" lon="15.7854217"><ele>633.0</ele><time>2026-04-25T07:57:19.816Z</time></trkpt><trkpt lat="38.0130317" lon="15.7854117"><ele>633.0</ele><time>2026-04-25T07:57:20.816Z</time></trkpt><trkpt lat="38.0131333" lon="15.785395"><ele>633.0</ele><time>2026-04-25T07:57:21.816Z</time></trkpt><trkpt lat="38.0132317" lon="15.78536"><ele>633.0</ele><time>2026-04-25T07:57:22.816Z</time></trkpt><trkpt lat="38.0133333" lon="15.7852983"><ele>633.0</ele><time>2026-04-25T07:57:23.816Z</time></trkpt><trkpt lat="38.0134133" lon="15.7852017"><ele>633.0</ele><time>2026-04-25T07:57:24.816Z</time></trkpt><trkpt lat="38.0135017" lon="15.7851083"><ele>631.0</ele><time>2026-04-25T07:57:25.816Z</time></trkpt><trkpt lat="38.0135983" lon="15.7850233"><ele>629.0</ele><time>2026-04-25T07:57:26.816Z</time></trkpt><trkpt lat="38.0136667" lon="15.78495"><ele>627.0</ele><time>2026-04-25T07:57:27.816Z</time></trkpt><trkpt lat="38.0137317" lon="15.78488"><ele>625.0</ele><time>2026-04-25T07:57:28.816Z</time></trkpt><trkpt lat="38.0137667" lon="15.7847833"><ele>623.0</ele><time>2026-04-25T07:57:29.816Z</time></trkpt><trkpt lat="38.013785" lon="15.7846883"><ele>623.0</ele><time>2026-04-25T07:57:30.816Z</time></trkpt><trkpt lat="38.0138" lon="15.7845883"><ele>623.0</ele><time>2026-04-25T07:57:31.816Z</time></trkpt><trkpt lat="38.0138433" lon="15.7844983"><ele>623.0</ele><time>2026-04-25T07:57:32.816Z</time></trkpt><trkpt lat="38.0138833" lon="15.7844133"><ele>623.0</ele><time>2026-04-25T07:57:33.816Z</time></trkpt><trkpt lat="38.01392" lon="15.7843383"><ele>623.0</ele><time>2026-04-25T07:57:34.816Z</time></trkpt><trkpt lat="38.0140033" lon="15.7843367"><ele>623.0</ele><time>2026-04-25T07:57:36.816Z</time></trkpt><trkpt lat="38.014065" lon="15.784415"><ele>623.0</ele><time>2026-04-25T07:57:38.815Z</time></trkpt><trkpt lat="38.0140883" lon="15.7845333"><ele>623.0</ele><time>2026-04-25T07:57:40.816Z</time></trkpt><trkpt lat="38.014085" lon="15.784635"><ele>623.0</ele><time>2026-04-25T07:57:41.816Z</time></trkpt><trkpt lat="38.014065" lon="15.7847683"><ele>623.0</ele><time>2026-04-25T07:57:42.816Z</time></trkpt><trkpt lat="38.01405" lon="15.7849017"><ele>623.0</ele><time>2026-04-25T07:57:43.815Z</time></trkpt><trkpt lat="38.014045" lon="15.7850267"><ele>623.0</ele><time>2026-04-25T07:57:44.816Z</time></trkpt><trkpt lat="38.0140517" lon="15.7851667"><ele>623.0</ele><time>2026-04-25T07:57:45.816Z</time></trkpt><trkpt lat="38.01405" lon="15.7853217"><ele>623.0</ele><time>2026-04-25T07:57:46.815Z</time></trkpt><trkpt lat="38.0140483" lon="15.7854717"><ele>623.0</ele><time>2026-04-25T07:57:47.816Z</time></trkpt><trkpt lat="38.0140517" lon="15.7856017"><ele>619.8</ele><time>2026-04-25T07:57:48.816Z</time></trkpt><trkpt lat="38.01406" lon="15.785715"><ele>616.5999999999999</ele><time>2026-04-25T07:57:49.816Z</time></trkpt><trkpt lat="38.0140633" lon="15.7858167"><ele>613.4000000000001</ele><time>2026-04-25T07:57:50.816Z</time></trkpt><trkpt lat="38.01407" lon="15.7859233"><ele>610.2</ele><time>2026-04-25T07:57:51.816Z</time></trkpt><trkpt lat="38.0140783" lon="15.7860533"><ele>607.0</ele><time>2026-04-25T07:57:52.816Z</time></trkpt><trkpt lat="38.014085" lon="15.7861817"><ele>604.4</ele><time>2026-04-25T07:57:53.816Z</time></trkpt><trkpt lat="38.0140867" lon="15.7862967"><ele>601.8000000000001</ele><time>2026-04-25T07:57:54.816Z</time></trkpt><trkpt lat="38.0140917" lon="15.7864033"><ele>599.2</ele><time>2026-04-25T07:57:55.816Z</time></trkpt><trkpt lat="38.0140767" lon="15.7865617"><ele>596.6</ele><time>2026-04-25T07:57:57.816Z</time></trkpt><trkpt lat="38.0140283" lon="15.786725"><ele>594.0</ele><time>2026-04-25T07:57:59.816Z</time></trkpt><trkpt lat="38.014005" lon="15.7868367"><ele>591.6</ele><time>2026-04-25T07:58:00.816Z</time></trkpt><trkpt lat="38.0139833" lon="15.7869633"><ele>589.2</ele><time>2026-04-25T07:58:01.815Z</time></trkpt><trkpt lat="38.0139433" lon="15.7870967"><ele>586.8000000000001</ele><time>2026-04-25T07:58:02.816Z</time></trkpt><trkpt lat="38.0139233" lon="15.7872033"><ele>584.4</ele><time>2026-04-25T07:58:03.816Z</time></trkpt><trkpt lat="38.0139067" lon="15.7872917"><ele>582.0</ele><time>2026-04-25T07:58:04.816Z</time></trkpt><trkpt lat="38.0138833" lon="15.7874067"><ele>582.0</ele><time>2026-04-25T07:58:06.816Z</time></trkpt><trkpt lat="38.013865" lon="15.7875217"><ele>582.0</ele><time>2026-04-25T07:58:08.816Z</time></trkpt><trkpt lat="38.013885" lon="15.7876"><ele>582.0</ele><time>2026-04-25T07:58:09.816Z</time></trkpt><trkpt lat="38.0138917" lon="15.787695"><ele>582.0</ele><time>2026-04-25T07:58:10.816Z</time></trkpt><trkpt lat="38.0139083" lon="15.7878517"><ele>582.0</ele><time>2026-04-25T07:58:12.816Z</time></trkpt><trkpt lat="38.01389" lon="15.78798"><ele>581.0</ele><time>2026-04-25T07:58:14.816Z</time></trkpt><trkpt lat="38.01387" lon="15.7881167"><ele>580.0</ele><time>2026-04-25T07:58:16.816Z</time></trkpt><trkpt lat="38.0138317" lon="15.7882683"><ele>579.0</ele><time>2026-04-25T07:58:18.815Z</time></trkpt><trkpt lat="38.0138217" lon="15.788365"><ele>578.0</ele><time>2026-04-25T07:58:19.816Z</time></trkpt><trkpt lat="38.0138133" lon="15.78845"><ele>577.0</ele><time>2026-04-25T07:58:20.816Z</time></trkpt><trkpt lat="38.013815" lon="15.7885417"><ele>576.0</ele><time>2026-04-25T07:58:21.816Z</time></trkpt><trkpt lat="38.0138183" lon="15.7886367"><ele>575.0</ele><time>2026-04-25T07:58:22.816Z</time></trkpt><trkpt lat="38.0138117" lon="15.788735"><ele>574.0</ele><time>2026-04-25T07:58:23.816Z</time></trkpt><trkpt lat="38.0138067" lon="15.788845"><ele>573.0</ele><time>2026-04-25T07:58:24.815Z</time></trkpt><trkpt lat="38.0138033" lon="15.78895"><ele>572.0</ele><time>2026-04-25T07:58:25.816Z</time></trkpt><trkpt lat="38.0138" lon="15.7890367"><ele>571.0</ele><time>2026-04-25T07:58:26.815Z</time></trkpt><trkpt lat="38.013805" lon="15.7891217"><ele>571.0</ele><time>2026-04-25T07:58:27.815Z</time></trkpt><trkpt lat="38.013805" lon="15.78921"><ele>571.0</ele><time>2026-04-25T07:58:28.816Z</time></trkpt><trkpt lat="38.0138033" lon="15.7892983"><ele>571.0</ele><time>2026-04-25T07:58:29.815Z</time></trkpt><trkpt lat="38.01381" lon="15.789385"><ele>571.0</ele><time>2026-04-25T07:58:30.816Z</time></trkpt><trkpt lat="38.0138217" lon="15.789475"><ele>571.0</ele><time>2026-04-25T07:58:31.816Z</time></trkpt><trkpt lat="38.0138367" lon="15.7895717"><ele>571.0</ele><time>2026-04-25T07:58:32.815Z</time></trkpt><trkpt lat="38.0138467" lon="15.78969"><ele>569.2</ele><time>2026-04-25T07:58:33.816Z</time></trkpt><trkpt lat="38.01387" lon="15.7898233"><ele>567.4000000000001</ele><time>2026-04-25T07:58:34.815Z</time></trkpt><trkpt lat="38.013895" lon="15.7899717"><ele>565.6</ele><time>2026-04-25T07:58:35.816Z</time></trkpt><trkpt lat="38.0139117" lon="15.790115"><ele>563.8000000000001</ele><time>2026-04-25T07:58:36.816Z</time></trkpt><trkpt lat="38.01391" lon="15.7902517"><ele>562.0</ele><time>2026-04-25T07:58:37.816Z</time></trkpt><trkpt lat="38.0139117" lon="15.7903867"><ele>560.25</ele><time>2026-04-25T07:58:38.816Z</time></trkpt><trkpt lat="38.0139217" lon="15.7905267"><ele>558.5</ele><time>2026-04-25T07:58:39.816Z</time></trkpt><trkpt lat="38.0139083" lon="15.7906817"><ele>556.75</ele><time>2026-04-25T07:58:40.816Z</time></trkpt><trkpt lat="38.01389" lon="15.790835"><ele>555.0</ele><time>2026-04-25T07:58:41.816Z</time></trkpt><trkpt lat="38.01388" lon="15.790985"><ele>554.2</ele><time>2026-04-25T07:58:42.816Z</time></trkpt><trkpt lat="38.0138783" lon="15.7911117"><ele>553.4</ele><time>2026-04-25T07:58:43.815Z</time></trkpt><trkpt lat="38.013895" lon="15.7912167"><ele>552.6</ele><time>2026-04-25T07:58:44.816Z</time></trkpt><trkpt lat="38.0139183" lon="15.7913283"><ele>551.8</ele><time>2026-04-25T07:58:45.816Z</time></trkpt><trkpt lat="38.0139567" lon="15.7914483"><ele>551.0</ele><time>2026-04-25T07:58:46.816Z</time></trkpt><trkpt lat="38.01398" lon="15.79158"><ele>551.0</ele><time>2026-04-25T07:58:47.815Z</time></trkpt><trkpt lat="38.0140133" lon="15.791725"><ele>551.0</ele><time>2026-04-25T07:58:48.815Z</time></trkpt><trkpt lat="38.0140467" lon="15.79188"><ele>551.0</ele><time>2026-04-25T07:58:49.816Z</time></trkpt><trkpt lat="38.01407" lon="15.792045"><ele>551.0</ele><time>2026-04-25T07:58:50.816Z</time></trkpt><trkpt lat="38.014055" lon="15.7921967"><ele>549.25</ele><time>2026-04-25T07:58:51.816Z</time></trkpt><trkpt lat="38.0140433" lon="15.792345"><ele>547.5</ele><time>2026-04-25T07:58:52.816Z</time></trkpt><trkpt lat="38.014035" lon="15.7925"><ele>545.75</ele><time>2026-04-25T07:58:53.816Z</time></trkpt><trkpt lat="38.0140183" lon="15.7926433"><ele>544.0</ele><time>2026-04-25T07:58:54.816Z</time></trkpt><trkpt lat="38.0140017" lon="15.7927767"><ele>542.8</ele><time>2026-04-25T07:58:55.816Z</time></trkpt><trkpt lat="38.0139783" lon="15.7929117"><ele>541.5999999999999</ele><time>2026-04-25T07:58:56.815Z</time></trkpt><trkpt lat="38.0139667" lon="15.7930383"><ele>540.4</ele><time>2026-04-25T07:58:57.816Z</time></trkpt><trkpt lat="38.013965" lon="15.7931633"><ele>539.1999999999999</ele><time>2026-04-25T07:58:58.816Z</time></trkpt><trkpt lat="38.013975" lon="15.79327"><ele>538.0</ele><time>2026-04-25T07:58:59.816Z</time></trkpt><trkpt lat="38.013995" lon="15.7933733"><ele>538.0</ele><time>2026-04-25T07:59:00.816Z</time></trkpt><trkpt lat="38.0140367" lon="15.7934883"><ele>538.0</ele><time>2026-04-25T07:59:01.816Z</time></trkpt><trkpt lat="38.014095" lon="15.7936"><ele>538.0</ele><time>2026-04-25T07:59:02.815Z</time></trkpt><trkpt lat="38.0141583" lon="15.79372"><ele>538.0</ele><time>2026-04-25T07:59:03.816Z</time></trkpt><trkpt lat="38.0142033" lon="15.7938433"><ele>538.0</ele><time>2026-04-25T07:59:04.816Z</time></trkpt><trkpt lat="38.0142283" lon="15.7939583"><ele>535.4</ele><time>2026-04-25T07:59:05.816Z</time></trkpt><trkpt lat="38.0142433" lon="15.7940667"><ele>532.8</ele><time>2026-04-25T07:59:06.815Z</time></trkpt><trkpt lat="38.014245" lon="15.79418"><ele>530.2</ele><time>2026-04-25T07:59:07.816Z</time></trkpt><trkpt lat="38.01425" lon="15.7943117"><ele>527.6</ele><time>2026-04-25T07:59:08.816Z</time></trkpt><trkpt lat="38.014245" lon="15.79444"><ele>525.0</ele><time>2026-04-25T07:59:09.816Z</time></trkpt><trkpt lat="38.0142433" lon="15.79456"><ele>524.2</ele><time>2026-04-25T07:59:10.816Z</time></trkpt><trkpt lat="38.0142467" lon="15.7947"><ele>523.4</ele><time>2026-04-25T07:59:11.816Z</time></trkpt><trkpt lat="38.014255" lon="15.79484"><ele>522.6</ele><time>2026-04-25T07:59:12.816Z</time></trkpt><trkpt lat="38.014265" lon="15.7949833"><ele>521.8</ele><time>2026-04-25T07:59:13.816Z</time></trkpt><trkpt lat="38.014285" lon="15.7951217"><ele>521.0</ele><time>2026-04-25T07:59:14.815Z</time></trkpt><trkpt lat="38.014295" lon="15.7952517"><ele>520.6666666666666</ele><time>2026-04-25T07:59:15.816Z</time></trkpt><trkpt lat="38.0143083" lon="15.7953733"><ele>520.3333333333333</ele><time>2026-04-25T07:59:16.816Z</time></trkpt><trkpt lat="38.0143167" lon="15.7954833"><ele>520.0</ele><time>2026-04-25T07:59:17.816Z</time></trkpt><trkpt lat="38.0143333" lon="15.7955967"><ele>519.6666666666666</ele><time>2026-04-25T07:59:18.816Z</time></trkpt><trkpt lat="38.0143433" lon="15.7957033"><ele>519.3333333333334</ele><time>2026-04-25T07:59:19.816Z</time></trkpt><trkpt lat="38.0143517" lon="15.795795"><ele>519.0</ele><time>2026-04-25T07:59:20.815Z</time></trkpt><trkpt lat="38.0143583" lon="15.7958783"><ele>519.6</ele><time>2026-04-25T07:59:21.816Z</time></trkpt><trkpt lat="38.0143317" lon="15.79601"><ele>520.2</ele><time>2026-04-25T07:59:23.816Z</time></trkpt><trkpt lat="38.0142933" lon="15.7960967"><ele>520.8000000000001</ele><time>2026-04-25T07:59:24.815Z</time></trkpt><trkpt lat="38.0142433" lon="15.7962367"><ele>521.4</ele><time>2026-04-25T07:59:26.816Z</time></trkpt><trkpt lat="38.0142467" lon="15.7964117"><ele>522.0</ele><time>2026-04-25T07:59:28.816Z</time></trkpt><trkpt lat="38.0142883" lon="15.7965467"><ele>522.0</ele><time>2026-04-25T07:59:29.816Z</time></trkpt><trkpt lat="38.0143267" lon="15.796705"><ele>522.0</ele><time>2026-04-25T07:59:30.816Z</time></trkpt><trkpt lat="38.0144133" lon="15.7968817"><ele>522.0</ele><time>2026-04-25T07:59:31.816Z</time></trkpt><trkpt lat="38.0144683" lon="15.7970067"><ele>522.0</ele><time>2026-04-25T07:59:32.816Z</time></trkpt><trkpt lat="38.01454" lon="15.7971067"><ele>523.4</ele><time>2026-04-25T07:59:33.815Z</time></trkpt><trkpt lat="38.0146217" lon="15.7971917"><ele>524.8000000000001</ele><time>2026-04-25T07:59:34.816Z</time></trkpt><trkpt lat="38.0147083" lon="15.797265"><ele>526.2</ele><time>2026-04-25T07:59:35.816Z</time></trkpt><trkpt lat="38.0148133" lon="15.79732"><ele>527.6</ele><time>2026-04-25T07:59:36.815Z</time></trkpt><trkpt lat="38.01491" lon="15.79737"><ele>529.0</ele><time>2026-04-25T07:59:37.816Z</time></trkpt><trkpt lat="38.0149983" lon="15.7974167"><ele>525.3333333333334</ele><time>2026-04-25T07:59:38.816Z</time></trkpt><trkpt lat="38.0150783" lon="15.7974717"><ele>521.6666666666667</ele><time>2026-04-25T07:59:39.815Z</time></trkpt><trkpt lat="38.0151467" lon="15.7975333"><ele>518.0</ele><time>2026-04-25T07:59:40.816Z</time></trkpt><trkpt lat="38.0152083" lon="15.7976133"><ele>514.3333333333334</ele><time>2026-04-25T07:59:41.816Z</time></trkpt><trkpt lat="38.015265" lon="15.797695"><ele>510.6666666666667</ele><time>2026-04-25T07:59:42.816Z</time></trkpt><trkpt lat="38.0153233" lon="15.797775"><ele>507.0</ele><time>2026-04-25T07:59:43.816Z</time></trkpt><trkpt lat="38.0153883" lon="15.7978667"><ele>507.0</ele><time>2026-04-25T07:59:44.816Z</time></trkpt><trkpt lat="38.015455" lon="15.7979617"><ele>507.00000000000006</ele><time>2026-04-25T07:59:45.815Z</time></trkpt><trkpt lat="38.0155117" lon="15.79805"><ele>507.00000000000006</ele><time>2026-04-25T07:59:46.816Z</time></trkpt><trkpt lat="38.015555" lon="15.7981483"><ele>507.0</ele><time>2026-04-25T07:59:47.816Z</time></trkpt><trkpt lat="38.0155883" lon="15.79826"><ele>507.0</ele><time>2026-04-25T07:59:48.816Z</time></trkpt><trkpt lat="38.0156067" lon="15.79838"><ele>504.8</ele><time>2026-04-25T07:59:49.816Z</time></trkpt><trkpt lat="38.0156433" lon="15.7985117"><ele>502.6</ele><time>2026-04-25T07:59:50.816Z</time></trkpt><trkpt lat="38.0156883" lon="15.79862"><ele>500.40000000000003</ele><time>2026-04-25T07:59:51.816Z</time></trkpt><trkpt lat="38.0157367" lon="15.7986983"><ele>498.20000000000005</ele><time>2026-04-25T07:59:52.815Z</time></trkpt><trkpt lat="38.0157917" lon="15.7987833"><ele>496.0</ele><time>2026-04-25T07:59:53.816Z</time></trkpt><trkpt lat="38.0158567" lon="15.7988733"><ele>496.0</ele><time>2026-04-25T07:59:54.815Z</time></trkpt><trkpt lat="38.0159167" lon="15.7989633"><ele>496.0</ele><time>2026-04-25T07:59:55.816Z</time></trkpt><trkpt lat="38.0159733" lon="15.7990617"><ele>496.0</ele><time>2026-04-25T07:59:56.815Z</time></trkpt><trkpt lat="38.0160467" lon="15.7991567"><ele>496.0</ele><time>2026-04-25T07:59:57.815Z</time></trkpt><trkpt lat="38.0161317" lon="15.7992383"><ele>496.0</ele><time>2026-04-25T07:59:58.815Z</time></trkpt><trkpt lat="38.016225" lon="15.7993133"><ele>500.75</ele><time>2026-04-25T07:59:59.816Z</time></trkpt><trkpt lat="38.016335" lon="15.7993917"><ele>505.5</ele><time>2026-04-25T08:00:00.816Z</time></trkpt><trkpt lat="38.0164167" lon="15.7994633"><ele>510.25</ele><time>2026-04-25T08:00:01.816Z</time></trkpt><trkpt lat="38.0165267" lon="15.7995317"><ele>515.0</ele><time>2026-04-25T08:00:02.816Z</time></trkpt><trkpt lat="38.0166317" lon="15.7995983"><ele>510.6</ele><time>2026-04-25T08:00:03.816Z</time></trkpt><trkpt lat="38.0167217" lon="15.7996433"><ele>506.2</ele><time>2026-04-25T08:00:04.816Z</time></trkpt><trkpt lat="38.0168133" lon="15.799685"><ele>501.79999999999995</ele><time>2026-04-25T08:00:05.816Z</time></trkpt><trkpt lat="38.0169117" lon="15.79975"><ele>497.4</ele><time>2026-04-25T08:00:06.816Z</time></trkpt><trkpt lat="38.0170117" lon="15.799825"><ele>493.0</ele><time>2026-04-25T08:00:07.816Z</time></trkpt><trkpt lat="38.0171333" lon="15.7999183"><ele>493.0</ele><time>2026-04-25T08:00:08.815Z</time></trkpt><trkpt lat="38.0172617" lon="15.800015"><ele>493.0</ele><time>2026-04-25T08:00:09.815Z</time></trkpt><trkpt lat="38.0173917" lon="15.800115"><ele>493.0</ele><time>2026-04-25T08:00:10.815Z</time></trkpt><trkpt lat="38.01749" lon="15.80021"><ele>493.0</ele><time>2026-04-25T08:00:11.816Z</time></trkpt><trkpt lat="38.0175883" lon="15.8003133"><ele>490.4</ele><time>2026-04-25T08:00:12.816Z</time></trkpt><trkpt lat="38.01768" lon="15.8004133"><ele>487.79999999999995</ele><time>2026-04-25T08:00:13.816Z</time></trkpt><trkpt lat="38.01773" lon="15.8005133"><ele>485.2</ele><time>2026-04-25T08:00:14.815Z</time></trkpt><trkpt lat="38.0178067" lon="15.8006133"><ele>482.6</ele><time>2026-04-25T08:00:15.816Z</time></trkpt><trkpt lat="38.0178633" lon="15.8007133"><ele>480.0</ele><time>2026-04-25T08:00:16.816Z</time></trkpt><trkpt lat="38.0179117" lon="15.800805"><ele>480.0</ele><time>2026-04-25T08:00:17.816Z</time></trkpt><trkpt lat="38.0179717" lon="15.8008783"><ele>480.0</ele><time>2026-04-25T08:00:18.815Z</time></trkpt><trkpt lat="38.0180417" lon="15.8009633"><ele>480.0</ele><time>2026-04-25T08:00:19.816Z</time></trkpt><trkpt lat="38.0181267" lon="15.8010383"><ele>480.0</ele><time>2026-04-25T08:00:20.816Z</time></trkpt><trkpt lat="38.01821" lon="15.8011183"><ele>480.0</ele><time>2026-04-25T08:00:21.816Z</time></trkpt><trkpt lat="38.0182917" lon="15.8011867"><ele>478.0</ele><time>2026-04-25T08:00:22.816Z</time></trkpt><trkpt lat="38.0183583" lon="15.80123"><ele>476.0</ele><time>2026-04-25T08:00:23.816Z</time></trkpt><trkpt lat="38.0184267" lon="15.8012817"><ele>474.0</ele><time>2026-04-25T08:00:24.816Z</time></trkpt><trkpt lat="38.0184883" lon="15.801335"><ele>472.0</ele><time>2026-04-25T08:00:25.816Z</time></trkpt><trkpt lat="38.0186017" lon="15.8014217"><ele>470.0</ele><time>2026-04-25T08:00:27.816Z</time></trkpt><trkpt lat="38.01868" lon="15.8014817"><ele>469.99999999999994</ele><time>2026-04-25T08:00:28.816Z</time></trkpt><trkpt lat="38.0187533" lon="15.801545"><ele>470.0</ele><time>2026-04-25T08:00:29.816Z</time></trkpt><trkpt lat="38.01881" lon="15.8016083"><ele>470.0</ele><time>2026-04-25T08:00:30.815Z</time></trkpt><trkpt lat="38.0188733" lon="15.8016867"><ele>470.0</ele><time>2026-04-25T08:00:31.816Z</time></trkpt><trkpt lat="38.018935" lon="15.8017733"><ele>469.99999999999994</ele><time>2026-04-25T08:00:32.816Z</time></trkpt><trkpt lat="38.0189683" lon="15.8018667"><ele>470.0</ele><time>2026-04-25T08:00:33.816Z</time></trkpt><trkpt lat="38.019" lon="15.8019517"><ele>469.2</ele><time>2026-04-25T08:00:34.815Z</time></trkpt><trkpt lat="38.0190267" lon="15.802035"><ele>468.4</ele><time>2026-04-25T08:00:35.816Z</time></trkpt><trkpt lat="38.01906" lon="15.80211"><ele>467.6</ele><time>2026-04-25T08:00:36.815Z</time></trkpt><trkpt lat="38.0190917" lon="15.80218"><ele>466.8</ele><time>2026-04-25T08:00:37.816Z</time></trkpt><trkpt lat="38.0191717" lon="15.8022767"><ele>466.0</ele><time>2026-04-25T08:00:39.816Z</time></trkpt><trkpt lat="38.01931" lon="15.8023067"><ele>466.00000000000006</ele><time>2026-04-25T08:00:41.816Z</time></trkpt><trkpt lat="38.0193767" lon="15.8023317"><ele>466.0</ele><time>2026-04-25T08:00:42.815Z</time></trkpt><trkpt lat="38.0194417" lon="15.80236"><ele>466.0</ele><time>2026-04-25T08:00:43.816Z</time></trkpt><trkpt lat="38.01951" lon="15.8023967"><ele>466.0</ele><time>2026-04-25T08:00:44.816Z</time></trkpt><trkpt lat="38.0195767" lon="15.8024467"><ele>466.00000000000006</ele><time>2026-04-25T08:00:45.815Z</time></trkpt><trkpt lat="38.01964" lon="15.8025133"><ele>466.0</ele><time>2026-04-25T08:00:46.816Z</time></trkpt><trkpt lat="38.0196917" lon="15.8025867"><ele>466.00000000000006</ele><time>2026-04-25T08:00:47.815Z</time></trkpt><trkpt lat="38.0197367" lon="15.8026467"><ele>466.0</ele><time>2026-04-25T08:00:48.816Z</time></trkpt><trkpt lat="38.01978" lon="15.8027183"><ele>466.0</ele><time>2026-04-25T08:00:49.816Z</time></trkpt><trkpt lat="38.01981" lon="15.80284"><ele>466.0</ele><time>2026-04-25T08:00:51.816Z</time></trkpt><trkpt lat="38.019835" lon="15.8029267"><ele>466.00000000000006</ele><time>2026-04-25T08:00:54.815Z</time></trkpt><trkpt lat="38.0198867" lon="15.8029933"><ele>466.0</ele><time>2026-04-25T08:00:57.816Z</time></trkpt><trkpt lat="38.019945" lon="15.8030633"><ele>463.1666666666667</ele><time>2026-04-25T08:00:59.816Z</time></trkpt><trkpt lat="38.0200117" lon="15.8030967"><ele>460.33333333333337</ele><time>2026-04-25T08:01:01.816Z</time></trkpt><trkpt lat="38.0200967" lon="15.80314"><ele>457.5</ele><time>2026-04-25T08:01:03.816Z</time></trkpt><trkpt lat="38.0201767" lon="15.8031917"><ele>454.66666666666663</ele><time>2026-04-25T08:01:05.816Z</time></trkpt><trkpt lat="38.0202283" lon="15.8032533"><ele>451.8333333333333</ele><time>2026-04-25T08:01:06.816Z</time></trkpt><trkpt lat="38.0202783" lon="15.8033233"><ele>449.0</ele><time>2026-04-25T08:01:07.816Z</time></trkpt><trkpt lat="38.0202967" lon="15.8034"><ele>448.99999999999994</ele><time>2026-04-25T08:01:08.815Z</time></trkpt><trkpt lat="38.0203333" lon="15.803475"><ele>449.0</ele><time>2026-04-25T08:01:09.816Z</time></trkpt><trkpt lat="38.0203683" lon="15.80355"><ele>449.0</ele><time>2026-04-25T08:01:10.816Z</time></trkpt><trkpt lat="38.0204233" lon="15.8036283"><ele>449.0</ele><time>2026-04-25T08:01:11.816Z</time></trkpt><trkpt lat="38.0204617" lon="15.8037167"><ele>448.99999999999994</ele><time>2026-04-25T08:01:12.816Z</time></trkpt><trkpt lat="38.0205083" lon="15.8037817"><ele>449.0</ele><time>2026-04-25T08:01:14.815Z</time></trkpt><trkpt lat="38.020585" lon="15.8037433"><ele>449.49999999999994</ele><time>2026-04-25T08:01:17.816Z</time></trkpt><trkpt lat="38.0206533" lon="15.8036883"><ele>450.0</ele><time>2026-04-25T08:01:18.816Z</time></trkpt><trkpt lat="38.0207233" lon="15.8036267"><ele>450.5</ele><time>2026-04-25T08:01:19.816Z</time></trkpt><trkpt lat="38.0207817" lon="15.8035483"><ele>451.0</ele><time>2026-04-25T08:01:20.816Z</time></trkpt><trkpt lat="38.0208217" lon="15.803445"><ele>451.49999999999994</ele><time>2026-04-25T08:01:21.816Z</time></trkpt><trkpt lat="38.020845" lon="15.8033483"><ele>452.0</ele><time>2026-04-25T08:01:22.816Z</time></trkpt><trkpt lat="38.0208833" lon="15.80325"><ele>452.0</ele><time>2026-04-25T08:01:23.816Z</time></trkpt><trkpt lat="38.0209283" lon="15.8031383"><ele>452.00000000000006</ele><time>2026-04-25T08:01:24.815Z</time></trkpt><trkpt lat="38.0209883" lon="15.8030183"><ele>452.00000000000006</ele><time>2026-04-25T08:01:25.816Z</time></trkpt><trkpt lat="38.0210417" lon="15.8029133"><ele>452.0</ele><time>2026-04-25T08:01:26.815Z</time></trkpt><trkpt lat="38.02112" lon="15.8028367"><ele>452.0</ele><time>2026-04-25T08:01:27.816Z</time></trkpt><trkpt lat="38.0212" lon="15.8027667"><ele>452.0</ele><time>2026-04-25T08:01:28.816Z</time></trkpt><trkpt lat="38.0212867" lon="15.8027067"><ele>452.00000000000006</ele><time>2026-04-25T08:01:29.816Z</time></trkpt><trkpt lat="38.0213617" lon="15.8026267"><ele>452.00000000000006</ele><time>2026-04-25T08:01:30.816Z</time></trkpt><trkpt lat="38.0214317" lon="15.8025367"><ele>452.0</ele><time>2026-04-25T08:01:31.816Z</time></trkpt><trkpt lat="38.0214883" lon="15.8024533"><ele>452.0</ele><time>2026-04-25T08:01:32.816Z</time></trkpt><trkpt lat="38.0215467" lon="15.802365"><ele>452.6</ele><time>2026-04-25T08:01:33.816Z</time></trkpt><trkpt lat="38.02159" lon="15.802265"><ele>453.20000000000005</ele><time>2026-04-25T08:01:34.816Z</time></trkpt><trkpt lat="38.0216383" lon="15.8021833"><ele>453.8</ele><time>2026-04-25T08:01:35.816Z</time></trkpt><trkpt lat="38.0217233" lon="15.8021033"><ele>454.4</ele><time>2026-04-25T08:01:36.815Z</time></trkpt><trkpt lat="38.0218267" lon="15.8020433"><ele>455.0</ele><time>2026-04-25T08:01:37.816Z</time></trkpt><trkpt lat="38.0219433" lon="15.8020017"><ele>455.75</ele><time>2026-04-25T08:01:38.815Z</time></trkpt><trkpt lat="38.0220667" lon="15.8019733"><ele>456.5</ele><time>2026-04-25T08:01:39.816Z</time></trkpt><trkpt lat="38.0222133" lon="15.8019483"><ele>457.25</ele><time>2026-04-25T08:01:40.816Z</time></trkpt><trkpt lat="38.0223733" lon="15.801905"><ele>458.0</ele><time>2026-04-25T08:01:41.816Z</time></trkpt><trkpt lat="38.0225283" lon="15.8018533"><ele>461.3333333333333</ele><time>2026-04-25T08:01:42.816Z</time></trkpt><trkpt lat="38.0226867" lon="15.8017883"><ele>464.66666666666663</ele><time>2026-04-25T08:01:43.816Z</time></trkpt><trkpt lat="38.0228417" lon="15.8017267"><ele>468.0</ele><time>2026-04-25T08:01:44.815Z</time></trkpt><trkpt lat="38.0230017" lon="15.80167"><ele>468.0</ele><time>2026-04-25T08:01:45.816Z</time></trkpt><trkpt lat="38.02317" lon="15.8016183"><ele>468.0</ele><time>2026-04-25T08:01:46.816Z</time></trkpt><trkpt lat="38.023345" lon="15.8015583"><ele>468.0</ele><time>2026-04-25T08:01:47.816Z</time></trkpt><trkpt lat="38.0235067" lon="15.8014983"><ele>470.33333333333337</ele><time>2026-04-25T08:01:48.816Z</time></trkpt><trkpt lat="38.0236733" lon="15.801435"><ele>472.6666666666667</ele><time>2026-04-25T08:01:49.816Z</time></trkpt><trkpt lat="38.0238383" lon="15.8013783"><ele>475.0</ele><time>2026-04-25T08:01:50.816Z</time></trkpt><trkpt lat="38.0239917" lon="15.8013167"><ele>475.0</ele><time>2026-04-25T08:01:51.816Z</time></trkpt><trkpt lat="38.0241383" lon="15.80125"><ele>475.0</ele><time>2026-04-25T08:01:52.816Z</time></trkpt><trkpt lat="38.0242833" lon="15.8011917"><ele>475.0</ele><time>2026-04-25T08:01:53.816Z</time></trkpt><trkpt lat="38.0244183" lon="15.80114"><ele>475.0</ele><time>2026-04-25T08:01:54.816Z</time></trkpt><trkpt lat="38.02453" lon="15.8011017"><ele>476.4</ele><time>2026-04-25T08:01:55.816Z</time></trkpt><trkpt lat="38.0246333" lon="15.80105"><ele>477.8</ele><time>2026-04-25T08:01:56.816Z</time></trkpt><trkpt lat="38.02472" lon="15.8010017"><ele>479.20000000000005</ele><time>2026-04-25T08:01:57.816Z</time></trkpt><trkpt lat="38.0248" lon="15.8009567"><ele>480.6</ele><time>2026-04-25T08:01:58.816Z</time></trkpt><trkpt lat="38.024885" lon="15.8009417"><ele>482.0</ele><time>2026-04-25T08:01:59.816Z</time></trkpt><trkpt lat="38.0249617" lon="15.8009433"><ele>484.0</ele><time>2026-04-25T08:02:00.816Z</time></trkpt><trkpt lat="38.02508" lon="15.8010133"><ele>486.00000000000006</ele><time>2026-04-25T08:02:02.815Z</time></trkpt><trkpt lat="38.02517" lon="15.8010567"><ele>488.00000000000006</ele><time>2026-04-25T08:02:03.815Z</time></trkpt><trkpt lat="38.0252683" lon="15.8010883"><ele>490.0</ele><time>2026-04-25T08:02:04.815Z</time></trkpt><trkpt lat="38.0253733" lon="15.8010967"><ele>492.0</ele><time>2026-04-25T08:02:05.816Z</time></trkpt><trkpt lat="38.0254817" lon="15.8010917"><ele>492.0</ele><time>2026-04-25T08:02:06.816Z</time></trkpt><trkpt lat="38.0255867" lon="15.801095"><ele>492.00000000000006</ele><time>2026-04-25T08:02:07.815Z</time></trkpt><trkpt lat="38.02568" lon="15.8011133"><ele>492.00000000000006</ele><time>2026-04-25T08:02:08.816Z</time></trkpt><trkpt lat="38.02577" lon="15.801135"><ele>492.0</ele><time>2026-04-25T08:02:09.816Z</time></trkpt><trkpt lat="38.0258433" lon="15.8011317"><ele>492.0</ele><time>2026-04-25T08:02:10.816Z</time></trkpt><trkpt lat="38.0259317" lon="15.8011317"><ele>492.75</ele><time>2026-04-25T08:02:11.816Z</time></trkpt><trkpt lat="38.0260367" lon="15.8011167"><ele>493.5</ele><time>2026-04-25T08:02:12.816Z</time></trkpt><trkpt lat="38.02617" lon="15.8010567"><ele>494.25</ele><time>2026-04-25T08:02:13.816Z</time></trkpt><trkpt lat="38.0262983" lon="15.8010133"><ele>495.0</ele><time>2026-04-25T08:02:14.816Z</time></trkpt><trkpt lat="38.0264367" lon="15.8009433"><ele>495.0</ele><time>2026-04-25T08:02:15.815Z</time></trkpt><trkpt lat="38.0265683" lon="15.8008717"><ele>495.0</ele><time>2026-04-25T08:02:16.816Z</time></trkpt><trkpt lat="38.0266983" lon="15.8008117"><ele>495.0</ele><time>2026-04-25T08:02:17.816Z</time></trkpt><trkpt lat="38.026815" lon="15.80072"><ele>495.0</ele><time>2026-04-25T08:02:18.815Z</time></trkpt><trkpt lat="38.0269467" lon="15.8006217"><ele>499.66666666666663</ele><time>2026-04-25T08:02:19.816Z</time></trkpt><trkpt lat="38.0270833" lon="15.80052"><ele>504.3333333333333</ele><time>2026-04-25T08:02:20.815Z</time></trkpt><trkpt lat="38.027235" lon="15.8004233"><ele>509.0</ele><time>2026-04-25T08:02:21.816Z</time></trkpt><trkpt lat="38.027385" lon="15.800325"><ele>509.66666666666663</ele><time>2026-04-25T08:02:22.815Z</time></trkpt><trkpt lat="38.0275333" lon="15.800215"><ele>510.33333333333337</ele><time>2026-04-25T08:02:23.816Z</time></trkpt><trkpt lat="38.0276867" lon="15.8001267"><ele>511.0</ele><time>2026-04-25T08:02:24.815Z</time></trkpt><trkpt lat="38.02783" lon="15.800045"><ele>511.0</ele><time>2026-04-25T08:02:25.816Z</time></trkpt><trkpt lat="38.027965" lon="15.7999683"><ele>511.0</ele><time>2026-04-25T08:02:26.816Z</time></trkpt><trkpt lat="38.0280467" lon="15.7998833"><ele>511.0</ele><time>2026-04-25T08:02:27.816Z</time></trkpt><trkpt lat="38.0281383" lon="15.79979"><ele>511.0</ele><time>2026-04-25T08:02:28.816Z</time></trkpt><trkpt lat="38.02823" lon="15.7996767"><ele>513.0</ele><time>2026-04-25T08:02:29.816Z</time></trkpt><trkpt lat="38.0283183" lon="15.7995467"><ele>515.0</ele><time>2026-04-25T08:02:30.815Z</time></trkpt><trkpt lat="38.02841" lon="15.79941"><ele>517.0</ele><time>2026-04-25T08:02:31.816Z</time></trkpt><trkpt lat="38.0285267" lon="15.7993033"><ele>519.0</ele><time>2026-04-25T08:02:32.816Z</time></trkpt><trkpt lat="38.0286217" lon="15.7991717"><ele>519.0</ele><time>2026-04-25T08:02:33.816Z</time></trkpt><trkpt lat="38.0287367" lon="15.7990833"><ele>519.0</ele><time>2026-04-25T08:02:34.815Z</time></trkpt><trkpt lat="38.0288517" lon="15.799005"><ele>519.0</ele><time>2026-04-25T08:02:35.816Z</time></trkpt><trkpt lat="38.028965" lon="15.7989417"><ele>519.0</ele><time>2026-04-25T08:02:36.816Z</time></trkpt><trkpt lat="38.0291017" lon="15.7989"><ele>522.75</ele><time>2026-04-25T08:02:37.816Z</time></trkpt><trkpt lat="38.0292467" lon="15.7988683"><ele>526.5</ele><time>2026-04-25T08:02:38.816Z</time></trkpt><trkpt lat="38.029375" lon="15.7988383"><ele>530.25</ele><time>2026-04-25T08:02:39.816Z</time></trkpt><trkpt lat="38.0294883" lon="15.7988133"><ele>534.0</ele><time>2026-04-25T08:02:40.816Z</time></trkpt><trkpt lat="38.0295833" lon="15.79881"><ele>534.0</ele><time>2026-04-25T08:02:41.816Z</time></trkpt><trkpt lat="38.029695" lon="15.7988033"><ele>534.0</ele><time>2026-04-25T08:02:42.816Z</time></trkpt><trkpt lat="38.0298233" lon="15.798795"><ele>534.0</ele><time>2026-04-25T08:02:43.816Z</time></trkpt><trkpt lat="38.02995" lon="15.7987917"><ele>534.0</ele><time>2026-04-25T08:02:44.816Z</time></trkpt><trkpt lat="38.030065" lon="15.7987933"><ele>538.75</ele><time>2026-04-25T08:02:45.815Z</time></trkpt><trkpt lat="38.030185" lon="15.7988283"><ele>543.5</ele><time>2026-04-25T08:02:46.816Z</time></trkpt><trkpt lat="38.0303083" lon="15.798875"><ele>548.25</ele><time>2026-04-25T08:02:47.816Z</time></trkpt><trkpt lat="38.030415" lon="15.7989317"><ele>553.0</ele><time>2026-04-25T08:02:48.815Z</time></trkpt><trkpt lat="38.0305183" lon="15.7989833"><ele>553.0</ele><time>2026-04-25T08:02:49.816Z</time></trkpt><trkpt lat="38.0306283" lon="15.7990317"><ele>553.0</ele><time>2026-04-25T08:02:50.816Z</time></trkpt><trkpt lat="38.0307317" lon="15.799085"><ele>553.0</ele><time>2026-04-25T08:02:51.815Z</time></trkpt><trkpt lat="38.0308333" lon="15.7991217"><ele>553.0</ele><time>2026-04-25T08:02:52.815Z</time></trkpt><trkpt lat="38.03094" lon="15.7991367"><ele>553.0</ele><time>2026-04-25T08:02:53.816Z</time></trkpt><trkpt lat="38.0310467" lon="15.7991283"><ele>556.75</ele><time>2026-04-25T08:02:54.816Z</time></trkpt><trkpt lat="38.03115" lon="15.7991083"><ele>560.5</ele><time>2026-04-25T08:02:55.816Z</time></trkpt><trkpt lat="38.0312617" lon="15.7990817"><ele>564.25</ele><time>2026-04-25T08:02:56.816Z</time></trkpt><trkpt lat="38.031395" lon="15.7990533"><ele>568.0</ele><time>2026-04-25T08:02:57.816Z</time></trkpt><trkpt lat="38.0315083" lon="15.799035"><ele>568.0</ele><time>2026-04-25T08:02:58.816Z</time></trkpt><trkpt lat="38.0316267" lon="15.799015"><ele>568.0</ele><time>2026-04-25T08:02:59.816Z</time></trkpt><trkpt lat="38.0317383" lon="15.799"><ele>568.0</ele><time>2026-04-25T08:03:00.816Z</time></trkpt><trkpt lat="38.0318733" lon="15.79901"><ele>568.0</ele><time>2026-04-25T08:03:01.816Z</time></trkpt><trkpt lat="38.0320017" lon="15.79902"><ele>569.1999999999999</ele><time>2026-04-25T08:03:02.816Z</time></trkpt><trkpt lat="38.0321183" lon="15.7990233"><ele>570.4</ele><time>2026-04-25T08:03:03.816Z</time></trkpt><trkpt lat="38.0322217" lon="15.79904"><ele>571.5999999999999</ele><time>2026-04-25T08:03:04.815Z</time></trkpt><trkpt lat="38.0322883" lon="15.7990617"><ele>572.8</ele><time>2026-04-25T08:03:05.816Z</time></trkpt><trkpt lat="38.03238" lon="15.7990733"><ele>574.0</ele><time>2026-04-25T08:03:06.815Z</time></trkpt><trkpt lat="38.0324983" lon="15.7990817"><ele>576.5</ele><time>2026-04-25T08:03:07.816Z</time></trkpt><trkpt lat="38.0326217" lon="15.799075"><ele>579.0</ele><time>2026-04-25T08:03:08.816Z</time></trkpt><trkpt lat="38.0327783" lon="15.7990483"><ele>581.5</ele><time>2026-04-25T08:03:09.816Z</time></trkpt><trkpt lat="38.03294" lon="15.7990317"><ele>584.0</ele><time>2026-04-25T08:03:10.815Z</time></trkpt><trkpt lat="38.0331117" lon="15.7990067"><ele>584.0</ele><time>2026-04-25T08:03:11.815Z</time></trkpt><trkpt lat="38.0332817" lon="15.7989783"><ele>584.0</ele><time>2026-04-25T08:03:12.816Z</time></trkpt><trkpt lat="38.0334317" lon="15.798945"><ele>584.0</ele><time>2026-04-25T08:03:13.816Z</time></trkpt><trkpt lat="38.0335917" lon="15.7989083"><ele>586.75</ele><time>2026-04-25T08:03:14.816Z</time></trkpt><trkpt lat="38.0337217" lon="15.7988867"><ele>589.5</ele><time>2026-04-25T08:03:15.816Z</time></trkpt><trkpt lat="38.0338467" lon="15.7988683"><ele>592.25</ele><time>2026-04-25T08:03:16.816Z</time></trkpt><trkpt lat="38.0339033" lon="15.7987733"><ele>595.0</ele><time>2026-04-25T08:03:18.815Z</time></trkpt><trkpt lat="38.03402" lon="15.7987017"><ele>595.0</ele><time>2026-04-25T08:03:20.816Z</time></trkpt><trkpt lat="38.0341183" lon="15.79869"><ele>595.0</ele><time>2026-04-25T08:03:21.816Z</time></trkpt><trkpt lat="38.0342617" lon="15.798715"><ele>595.0</ele><time>2026-04-25T08:03:22.816Z</time></trkpt><trkpt lat="38.034375" lon="15.798715"><ele>595.0</ele><time>2026-04-25T08:03:23.816Z</time></trkpt><trkpt lat="38.0345167" lon="15.7987083"><ele>598.6666666666667</ele><time>2026-04-25T08:03:24.816Z</time></trkpt><trkpt lat="38.0346717" lon="15.7986983"><ele>602.3333333333334</ele><time>2026-04-25T08:03:25.815Z</time></trkpt><trkpt lat="38.0348033" lon="15.7986783"><ele>606.0</ele><time>2026-04-25T08:03:26.816Z</time></trkpt><trkpt lat="38.034965" lon="15.7986633"><ele>609.3333333333334</ele><time>2026-04-25T08:03:27.816Z</time></trkpt><trkpt lat="38.035135" lon="15.7986333"><ele>612.6666666666667</ele><time>2026-04-25T08:03:28.816Z</time></trkpt><trkpt lat="38.03529" lon="15.7985833"><ele>616.0</ele><time>2026-04-25T08:03:29.816Z</time></trkpt><trkpt lat="38.0354317" lon="15.7985183"><ele>611.3333333333334</ele><time>2026-04-25T08:03:30.816Z</time></trkpt><trkpt lat="38.0355767" lon="15.7984467"><ele>606.6666666666666</ele><time>2026-04-25T08:03:31.816Z</time></trkpt><trkpt lat="38.0357217" lon="15.79837"><ele>602.0</ele><time>2026-04-25T08:03:32.816Z</time></trkpt><trkpt lat="38.0358667" lon="15.79829"><ele>602.0</ele><time>2026-04-25T08:03:33.815Z</time></trkpt><trkpt lat="38.0360067" lon="15.7982133"><ele>602.0</ele><time>2026-04-25T08:03:34.816Z</time></trkpt><trkpt lat="38.036145" lon="15.7981233"><ele>602.0</ele><time>2026-04-25T08:03:35.815Z</time></trkpt><trkpt lat="38.03629" lon="15.79804"><ele>602.0</ele><time>2026-04-25T08:03:36.816Z</time></trkpt><trkpt lat="38.0364233" lon="15.7979683"><ele>602.0</ele><time>2026-04-25T08:03:37.816Z</time></trkpt><trkpt lat="38.0365383" lon="15.7978983"><ele>602.0</ele><time>2026-04-25T08:03:38.816Z</time></trkpt><trkpt lat="38.0366667" lon="15.7978467"><ele>602.0</ele><time>2026-04-25T08:03:39.816Z</time></trkpt><trkpt lat="38.0367967" lon="15.797795"><ele>602.0</ele><time>2026-04-25T08:03:40.815Z</time></trkpt><trkpt lat="38.0369217" lon="15.7977417"><ele>602.0</ele><time>2026-04-25T08:03:41.816Z</time></trkpt><trkpt lat="38.037045" lon="15.797685"><ele>602.0</ele><time>2026-04-25T08:03:42.815Z</time></trkpt><trkpt lat="38.0371467" lon="15.7976233"><ele>602.0</ele><time>2026-04-25T08:03:43.816Z</time></trkpt><trkpt lat="38.0372267" lon="15.79759"><ele>602.0</ele><time>2026-04-25T08:03:44.816Z</time></trkpt><trkpt lat="38.0373033" lon="15.7975517"><ele>602.0</ele><time>2026-04-25T08:03:45.816Z</time></trkpt><trkpt lat="38.0373733" lon="15.79748"><ele>602.0</ele><time>2026-04-25T08:03:46.815Z</time></trkpt><trkpt lat="38.0374417" lon="15.797425"><ele>602.0</ele><time>2026-04-25T08:03:47.816Z</time></trkpt><trkpt lat="38.0375233" lon="15.7973617"><ele>602.0</ele><time>2026-04-25T08:03:48.816Z</time></trkpt><trkpt lat="38.037615" lon="15.797305"><ele>605.5</ele><time>2026-04-25T08:03:49.816Z</time></trkpt><trkpt lat="38.0377167" lon="15.7972567"><ele>609.0</ele><time>2026-04-25T08:03:50.815Z</time></trkpt><trkpt lat="38.0378467" lon="15.7972067"><ele>612.5</ele><time>2026-04-25T08:03:51.816Z</time></trkpt><trkpt lat="38.0379933" lon="15.7971733"><ele>616.0</ele><time>2026-04-25T08:03:52.816Z</time></trkpt><trkpt lat="38.03814" lon="15.7971483"><ele>616.0</ele><time>2026-04-25T08:03:53.816Z</time></trkpt><trkpt lat="38.0382783" lon="15.797135"><ele>616.0</ele><time>2026-04-25T08:03:54.816Z</time></trkpt><trkpt lat="38.0384067" lon="15.797115"><ele>616.0</ele><time>2026-04-25T08:03:55.816Z</time></trkpt><trkpt lat="38.0385333" lon="15.7971233"><ele>616.0</ele><time>2026-04-25T08:03:56.816Z</time></trkpt><trkpt lat="38.0386333" lon="15.7971417"><ele>618.5</ele><time>2026-04-25T08:03:57.816Z</time></trkpt><trkpt lat="38.0387367" lon="15.797165"><ele>621.0</ele><time>2026-04-25T08:03:58.816Z</time></trkpt><trkpt lat="38.0388633" lon="15.7971933"><ele>623.5</ele><time>2026-04-25T08:03:59.815Z</time></trkpt><trkpt lat="38.0389817" lon="15.7972167"><ele>626.0</ele><time>2026-04-25T08:04:00.816Z</time></trkpt><trkpt lat="38.0390967" lon="15.79724"><ele>627.3333333333333</ele><time>2026-04-25T08:04:01.816Z</time></trkpt><trkpt lat="38.0392017" lon="15.7972567"><ele>628.6666666666666</ele><time>2026-04-25T08:04:02.816Z</time></trkpt><trkpt lat="38.0392767" lon="15.797265"><ele>630.0</ele><time>2026-04-25T08:04:03.815Z</time></trkpt><trkpt lat="38.039365" lon="15.7972917"><ele>631.3333333333334</ele><time>2026-04-25T08:04:04.816Z</time></trkpt><trkpt lat="38.0394333" lon="15.7973383"><ele>632.6666666666667</ele><time>2026-04-25T08:04:05.816Z</time></trkpt><trkpt lat="38.0394933" lon="15.797395"><ele>634.0</ele><time>2026-04-25T08:04:06.816Z</time></trkpt><trkpt lat="38.0395467" lon="15.79747"><ele>634.0</ele><time>2026-04-25T08:04:07.816Z</time></trkpt><trkpt lat="38.0396017" lon="15.79758"><ele>634.0</ele><time>2026-04-25T08:04:08.816Z</time></trkpt><trkpt lat="38.0396433" lon="15.7977533"><ele>634.0</ele><time>2026-04-25T08:04:09.816Z</time></trkpt><trkpt lat="38.0396967" lon="15.7978983"><ele>634.0</ele><time>2026-04-25T08:04:10.815Z</time></trkpt><trkpt lat="38.0397433" lon="15.798045"><ele>635.1666666666667</ele><time>2026-04-25T08:04:11.815Z</time></trkpt><trkpt lat="38.0397767" lon="15.7981717"><ele>636.3333333333334</ele><time>2026-04-25T08:04:12.816Z</time></trkpt><trkpt lat="38.039815" lon="15.79826"><ele>637.5</ele><time>2026-04-25T08:04:13.816Z</time></trkpt><trkpt lat="38.0398517" lon="15.7983317"><ele>638.6666666666666</ele><time>2026-04-25T08:04:14.816Z</time></trkpt><trkpt lat="38.0399733" lon="15.7982867"><ele>639.8333333333333</ele><time>2026-04-25T08:04:26.816Z</time></trkpt><trkpt lat="38.040035" lon="15.7982533"><ele>641.0</ele><time>2026-04-25T08:04:27.816Z</time></trkpt><trkpt lat="38.0401117" lon="15.79823"><ele>643.8</ele><time>2026-04-25T08:04:28.815Z</time></trkpt><trkpt lat="38.0401933" lon="15.7982"><ele>646.5999999999999</ele><time>2026-04-25T08:04:29.815Z</time></trkpt><trkpt lat="38.0402883" lon="15.7981767"><ele>649.4</ele><time>2026-04-25T08:04:30.815Z</time></trkpt><trkpt lat="38.0403983" lon="15.798145"><ele>652.2</ele><time>2026-04-25T08:04:31.816Z</time></trkpt><trkpt lat="38.040495" lon="15.798115"><ele>655.0</ele><time>2026-04-25T08:04:32.816Z</time></trkpt><trkpt lat="38.0406017" lon="15.798065"><ele>655.0</ele><time>2026-04-25T08:04:33.816Z</time></trkpt><trkpt lat="38.0407267" lon="15.7979917"><ele>655.0</ele><time>2026-04-25T08:04:34.815Z</time></trkpt><trkpt lat="38.0408367" lon="15.7979183"><ele>655.0</ele><time>2026-04-25T08:04:35.816Z</time></trkpt><trkpt lat="38.0409517" lon="15.7978317"><ele>655.0</ele><time>2026-04-25T08:04:36.815Z</time></trkpt><trkpt lat="38.0410783" lon="15.7977483"><ele>656.0</ele><time>2026-04-25T08:04:37.816Z</time></trkpt><trkpt lat="38.04116" lon="15.79768"><ele>657.0</ele><time>2026-04-25T08:04:38.816Z</time></trkpt><trkpt lat="38.04126" lon="15.7976333"><ele>658.0</ele><time>2026-04-25T08:04:39.816Z</time></trkpt><trkpt lat="38.041385" lon="15.7976017"><ele>659.0</ele><time>2026-04-25T08:04:40.816Z</time></trkpt><trkpt lat="38.0415083" lon="15.7975833"><ele>659.0</ele><time>2026-04-25T08:04:41.815Z</time></trkpt><trkpt lat="38.0415783" lon="15.7976067"><ele>659.0</ele><time>2026-04-25T08:04:42.816Z</time></trkpt><trkpt lat="38.0416467" lon="15.797615"><ele>659.0</ele><time>2026-04-25T08:04:43.815Z</time></trkpt><trkpt lat="38.04167" lon="15.7976917"><ele>659.0</ele><time>2026-04-25T08:04:46.815Z</time></trkpt><trkpt lat="38.041585" lon="15.7977683"><ele>659.0</ele><time>2026-04-25T08:04:48.816Z</time></trkpt><trkpt lat="38.0415117" lon="15.7978233"><ele>659.0</ele><time>2026-04-25T08:04:49.816Z</time></trkpt><trkpt lat="38.0414317" lon="15.7978667"><ele>662.3333333333333</ele><time>2026-04-25T08:04:50.816Z</time></trkpt><trkpt lat="38.041355" lon="15.79792"><ele>665.6666666666666</ele><time>2026-04-25T08:04:51.816Z</time></trkpt><trkpt lat="38.0412667" lon="15.798005"><ele>669.0</ele><time>2026-04-25T08:04:52.816Z</time></trkpt><trkpt lat="38.04121" lon="15.7981067"><ele>672.3333333333334</ele><time>2026-04-25T08:04:53.816Z</time></trkpt><trkpt lat="38.041195" lon="15.7981867"><ele>675.6666666666667</ele><time>2026-04-25T08:04:55.816Z</time></trkpt><trkpt lat="38.0412133" lon="15.7982717"><ele>679.0</ele><time>2026-04-25T08:04:57.816Z</time></trkpt><trkpt lat="38.0412717" lon="15.7984017"><ele>679.0</ele><time>2026-04-25T08:04:59.816Z</time></trkpt><trkpt lat="38.0413333" lon="15.79846"><ele>679.0</ele><time>2026-04-25T08:05:00.816Z</time></trkpt><trkpt lat="38.0414033" lon="15.7985167"><ele>679.0</ele><time>2026-04-25T08:05:01.816Z</time></trkpt><trkpt lat="38.0414817" lon="15.7985833"><ele>679.0</ele><time>2026-04-25T08:05:02.815Z</time></trkpt><trkpt lat="38.0415667" lon="15.7986733"><ele>679.0</ele><time>2026-04-25T08:05:03.815Z</time></trkpt><trkpt lat="38.0416517" lon="15.79878"><ele>683.6666666666667</ele><time>2026-04-25T08:05:04.816Z</time></trkpt><trkpt lat="38.0417183" lon="15.7988817"><ele>688.3333333333334</ele><time>2026-04-25T08:05:05.816Z</time></trkpt><trkpt lat="38.0417717" lon="15.798975"><ele>693.0</ele><time>2026-04-25T08:05:06.816Z</time></trkpt><trkpt lat="38.041805" lon="15.7990567"><ele>697.6666666666666</ele><time>2026-04-25T08:05:07.816Z</time></trkpt><trkpt lat="38.0418333" lon="15.7991483"><ele>702.3333333333333</ele><time>2026-04-25T08:05:08.816Z</time></trkpt><trkpt lat="38.04187" lon="15.7992517"><ele>707.0</ele><time>2026-04-25T08:05:09.815Z</time></trkpt><trkpt lat="38.0418867" lon="15.7993533"><ele>707.0</ele><time>2026-04-25T08:05:10.815Z</time></trkpt><trkpt lat="38.041915" lon="15.7994583"><ele>707.0</ele><time>2026-04-25T08:05:11.816Z</time></trkpt><trkpt lat="38.04196" lon="15.7995383"><ele>707.0</ele><time>2026-04-25T08:05:12.816Z</time></trkpt><trkpt lat="38.0419983" lon="15.799615"><ele>707.0</ele><time>2026-04-25T08:05:13.816Z</time></trkpt><trkpt lat="38.0420333" lon="15.7996817"><ele>707.0</ele><time>2026-04-25T08:05:14.815Z</time></trkpt><trkpt lat="38.0420967" lon="15.7996733"><ele>707.0</ele><time>2026-04-25T08:05:15.815Z</time></trkpt><trkpt lat="38.0421433" lon="15.7996"><ele>707.0</ele><time>2026-04-25T08:05:17.816Z</time></trkpt><trkpt lat="38.0421217" lon="15.7994233"><ele>707.4000000000001</ele><time>2026-04-25T08:05:20.816Z</time></trkpt><trkpt lat="38.0420967" lon="15.7993117"><ele>707.8000000000001</ele><time>2026-04-25T08:05:21.815Z</time></trkpt><trkpt lat="38.0421083" lon="15.7991583"><ele>708.2</ele><time>2026-04-25T08:05:22.816Z</time></trkpt><trkpt lat="38.0421583" lon="15.7990033"><ele>708.6</ele><time>2026-04-25T08:05:23.815Z</time></trkpt><trkpt lat="38.04217" lon="15.7988733"><ele>709.0</ele><time>2026-04-25T08:05:24.816Z</time></trkpt><trkpt lat="38.0421767" lon="15.7987517"><ele>709.0</ele><time>2026-04-25T08:05:25.816Z</time></trkpt><trkpt lat="38.0421767" lon="15.7986383"><ele>709.0</ele><time>2026-04-25T08:05:26.816Z</time></trkpt><trkpt lat="38.0421733" lon="15.7985317"><ele>709.0</ele><time>2026-04-25T08:05:27.816Z</time></trkpt><trkpt lat="38.0421667" lon="15.79844"><ele>709.0</ele><time>2026-04-25T08:05:28.816Z</time></trkpt><trkpt lat="38.0421733" lon="15.7983417"><ele>709.0</ele><time>2026-04-25T08:05:29.815Z</time></trkpt><trkpt lat="38.0422183" lon="15.7982367"><ele>709.0</ele><time>2026-04-25T08:05:30.815Z</time></trkpt><trkpt lat="38.0422467" lon="15.7981567"><ele>710.0</ele><time>2026-04-25T08:05:31.816Z</time></trkpt><trkpt lat="38.0422817" lon="15.7980817"><ele>711.0</ele><time>2026-04-25T08:05:32.816Z</time></trkpt><trkpt lat="38.0423367" lon="15.798025"><ele>712.0</ele><time>2026-04-25T08:05:33.816Z</time></trkpt><trkpt lat="38.0423917" lon="15.7979817"><ele>713.0</ele><time>2026-04-25T08:05:34.815Z</time></trkpt><trkpt lat="38.04246" lon="15.7979583"><ele>714.0</ele><time>2026-04-25T08:05:35.816Z</time></trkpt><trkpt lat="38.0426083" lon="15.7980733"><ele>715.0</ele><time>2026-04-25T08:05:36.816Z</time></trkpt><trkpt lat="38.0426717" lon="15.7980733"><ele>722.1666666666667</ele><time>2026-04-25T08:05:37.816Z</time></trkpt><trkpt lat="38.0427567" lon="15.7980283"><ele>729.3333333333334</ele><time>2026-04-25T08:05:39.816Z</time></trkpt><trkpt lat="38.0428067" lon="15.7979283"><ele>736.5</ele><time>2026-04-25T08:05:41.816Z</time></trkpt><trkpt lat="38.0428533" lon="15.79786"><ele>743.6666666666666</ele><time>2026-04-25T08:05:42.816Z</time></trkpt><trkpt lat="38.0428867" lon="15.7977833"><ele>750.8333333333333</ele><time>2026-04-25T08:05:43.816Z</time></trkpt><trkpt lat="38.04296" lon="15.7977217"><ele>758.0</ele><time>2026-04-25T08:05:46.816Z</time></trkpt><trkpt lat="38.0430567" lon="15.79779"><ele>758.0</ele><time>2026-04-25T08:05:48.816Z</time></trkpt><trkpt lat="38.0431617" lon="15.797865"><ele>758.0</ele><time>2026-04-25T08:05:50.815Z</time></trkpt><trkpt lat="38.0432367" lon="15.797875"><ele>758.0</ele><time>2026-04-25T08:05:51.816Z</time></trkpt><trkpt lat="38.0433017" lon="15.7978817"><ele>758.0</ele><time>2026-04-25T08:05:52.816Z</time></trkpt><trkpt lat="38.0434133" lon="15.79792"><ele>758.0</ele><time>2026-04-25T08:05:54.816Z</time></trkpt><trkpt lat="38.04348" lon="15.7979667"><ele>758.0</ele><time>2026-04-25T08:05:56.815Z</time></trkpt><trkpt lat="38.0434167" lon="15.798025"><ele>758.0</ele><time>2026-04-25T08:05:59.816Z</time></trkpt><trkpt lat="38.0433067" lon="15.79802"><ele>758.0</ele><time>2026-04-25T08:06:01.815Z</time></trkpt><trkpt lat="38.0432267" lon="15.798025"><ele>758.0</ele><time>2026-04-25T08:06:02.816Z</time></trkpt><trkpt lat="38.0431617" lon="15.7980417"><ele>758.0</ele><time>2026-04-25T08:06:03.815Z</time></trkpt><trkpt lat="38.043055" lon="15.798115"><ele>758.0</ele><time>2026-04-25T08:06:04.815Z</time></trkpt><trkpt lat="38.04297" lon="15.7981417"><ele>758.0</ele><time>2026-04-25T08:06:05.816Z</time></trkpt><trkpt lat="38.04289" lon="15.7982067"><ele>758.0</ele><time>2026-04-25T08:06:06.816Z</time></trkpt><trkpt lat="38.0428483" lon="15.798305"><ele>758.0</ele><time>2026-04-25T08:06:07.816Z</time></trkpt><trkpt lat="38.0428033" lon="15.7983917"><ele>758.0</ele><time>2026-04-25T08:06:08.816Z</time></trkpt><trkpt lat="38.0427583" lon="15.7984717"><ele>758.0</ele><time>2026-04-25T08:06:09.816Z</time></trkpt><trkpt lat="38.04272" lon="15.798575"><ele>758.6666666666666</ele><time>2026-04-25T08:06:10.816Z</time></trkpt><trkpt lat="38.042755" lon="15.7986583"><ele>759.3333333333333</ele><time>2026-04-25T08:06:12.816Z</time></trkpt><trkpt lat="38.042795" lon="15.79873"><ele>760.0</ele><time>2026-04-25T08:06:14.816Z</time></trkpt><trkpt lat="38.04289" lon="15.7986917"><ele>760.6666666666666</ele><time>2026-04-25T08:06:17.816Z</time></trkpt><trkpt lat="38.0429567" lon="15.7986433"><ele>761.3333333333334</ele><time>2026-04-25T08:06:18.815Z</time></trkpt><trkpt lat="38.043045" lon="15.7985833"><ele>762.0</ele><time>2026-04-25T08:06:19.816Z</time></trkpt><trkpt lat="38.0431367" lon="15.7985633"><ele>762.0</ele><time>2026-04-25T08:06:20.815Z</time></trkpt><trkpt lat="38.0432233" lon="15.79855"><ele>762.0</ele><time>2026-04-25T08:06:21.816Z</time></trkpt><trkpt lat="38.043335" lon="15.7985267"><ele>762.0</ele><time>2026-04-25T08:06:22.816Z</time></trkpt><trkpt lat="38.043405" lon="15.79853"><ele>762.0</ele><time>2026-04-25T08:06:23.816Z</time></trkpt><trkpt lat="38.04346" lon="15.7986017"><ele>762.0</ele><time>2026-04-25T08:06:25.816Z</time></trkpt><trkpt lat="38.0433983" lon="15.798635"><ele>762.0</ele><time>2026-04-25T08:06:28.815Z</time></trkpt><trkpt lat="38.0432683" lon="15.7986367"><ele>762.0</ele><time>2026-04-25T08:06:30.815Z</time></trkpt><trkpt lat="38.043165" lon="15.7986883"><ele>762.0</ele><time>2026-04-25T08:06:32.815Z</time></trkpt><trkpt lat="38.0431133" lon="15.7987467"><ele>762.0</ele><time>2026-04-25T08:06:33.816Z</time></trkpt><trkpt lat="38.04306" lon="15.7988433"><ele>762.0</ele><time>2026-04-25T08:06:35.816Z</time></trkpt><trkpt lat="38.0431567" lon="15.7989267"><ele>762.0</ele><time>2026-04-25T08:06:38.815Z</time></trkpt><trkpt lat="38.0432917" lon="15.7989583"><ele>770.6</ele><time>2026-04-25T08:06:39.815Z</time></trkpt><trkpt lat="38.0433967" lon="15.7990183"><ele>779.2</ele><time>2026-04-25T08:06:40.816Z</time></trkpt><trkpt lat="38.0435017" lon="15.7990783"><ele>787.8</ele><time>2026-04-25T08:06:41.816Z</time></trkpt><trkpt lat="38.0436033" lon="15.7991383"><ele>796.4</ele><time>2026-04-25T08:06:42.816Z</time></trkpt><trkpt lat="38.0436933" lon="15.7992083"><ele>805.0</ele><time>2026-04-25T08:06:43.815Z</time></trkpt><trkpt lat="38.0437767" lon="15.79929"><ele>799.5</ele><time>2026-04-25T08:06:44.815Z</time></trkpt><trkpt lat="38.0438617" lon="15.7993833"><ele>794.0</ele><time>2026-04-25T08:06:45.815Z</time></trkpt><trkpt lat="38.04397" lon="15.7995383"><ele>788.5</ele><time>2026-04-25T08:06:46.816Z</time></trkpt><trkpt lat="38.04405" lon="15.799635"><ele>783.0</ele><time>2026-04-25T08:06:47.815Z</time></trkpt><trkpt lat="38.0441367" lon="15.7997217"><ele>792.5999999999999</ele><time>2026-04-25T08:06:48.815Z</time></trkpt><trkpt lat="38.0442317" lon="15.7998217"><ele>802.1999999999999</ele><time>2026-04-25T08:06:49.816Z</time></trkpt><trkpt lat="38.044325" lon="15.7998883"><ele>811.8</ele><time>2026-04-25T08:06:50.816Z</time></trkpt><trkpt lat="38.044395" lon="15.79994"><ele>821.4</ele><time>2026-04-25T08:06:51.816Z</time></trkpt><trkpt lat="38.0444717" lon="15.8000433"><ele>831.0</ele><time>2026-04-25T08:06:53.816Z</time></trkpt><trkpt lat="38.0445617" lon="15.8001"><ele>831.0</ele><time>2026-04-25T08:06:55.815Z</time></trkpt><trkpt lat="38.044665" lon="15.8001467"><ele>831.0</ele><time>2026-04-25T08:06:57.816Z</time></trkpt><trkpt lat="38.04473" lon="15.8001783"><ele>831.0</ele><time>2026-04-25T08:06:59.816Z</time></trkpt><trkpt lat="38.0447583" lon="15.8002583"><ele>831.0</ele><time>2026-04-25T08:07:01.816Z</time></trkpt><trkpt lat="38.0447033" lon="15.8003233"><ele>831.0</ele><time>2026-04-25T08:07:07.815Z</time></trkpt><trkpt lat="38.0446717" lon="15.8004183"><ele>831.0</ele><time>2026-04-25T08:07:11.816Z</time></trkpt><trkpt lat="38.0446217" lon="15.800545"><ele>830.1999999999999</ele><time>2026-04-25T08:07:16.816Z</time></trkpt><trkpt lat="38.0446017" lon="15.800625"><ele>829.4</ele><time>2026-04-25T08:07:17.817Z</time></trkpt><trkpt lat="38.044535" lon="15.80075"><ele>828.6</ele><time>2026-04-25T08:07:19.817Z</time></trkpt><trkpt lat="38.0444717" lon="15.8008817"><ele>827.8</ele><time>2026-04-25T08:07:21.817Z</time></trkpt><trkpt lat="38.0444567" lon="15.80104"><ele>827.0</ele><time>2026-04-25T08:07:27.817Z</time></trkpt><trkpt lat="38.0445183" lon="15.80102"><ele>829.3333333333334</ele><time>2026-04-25T08:07:29.817Z</time></trkpt><trkpt lat="38.044575" lon="15.8009667"><ele>831.6666666666667</ele><time>2026-04-25T08:07:30.817Z</time></trkpt><trkpt lat="38.0446867" lon="15.8009067"><ele>834.0</ele><time>2026-04-25T08:07:32.817Z</time></trkpt><trkpt lat="38.04476" lon="15.8008433"><ele>836.3333333333333</ele><time>2026-04-25T08:07:33.817Z</time></trkpt><trkpt lat="38.0448233" lon="15.8008067"><ele>838.6666666666666</ele><time>2026-04-25T08:07:34.817Z</time></trkpt><trkpt lat="38.0448933" lon="15.8007683"><ele>841.0</ele><time>2026-04-25T08:07:35.817Z</time></trkpt><trkpt lat="38.04497" lon="15.80075"><ele>846.6666666666666</ele><time>2026-04-25T08:07:36.817Z</time></trkpt><trkpt lat="38.0450467" lon="15.800735"><ele>852.3333333333333</ele><time>2026-04-25T08:07:37.817Z</time></trkpt><trkpt lat="38.0451367" lon="15.8007083"><ele>858.0</ele><time>2026-04-25T08:07:38.817Z</time></trkpt><trkpt lat="38.04521" lon="15.8006567"><ele>863.6666666666667</ele><time>2026-04-25T08:07:39.817Z</time></trkpt><trkpt lat="38.045275" lon="15.8006167"><ele>869.3333333333334</ele><time>2026-04-25T08:07:40.816Z</time></trkpt><trkpt lat="38.0453667" lon="15.8005433"><ele>875.0</ele><time>2026-04-25T08:07:42.817Z</time></trkpt><trkpt lat="38.0453833" lon="15.8004617"><ele>875.0</ele><time>2026-04-25T08:07:44.817Z</time></trkpt><trkpt lat="38.0452717" lon="15.8002483"><ele>875.0</ele><time>2026-04-25T08:07:46.816Z</time></trkpt><trkpt lat="38.04521" lon="15.8001267"><ele>875.0</ele><time>2026-04-25T08:07:47.817Z</time></trkpt><trkpt lat="38.0451717" lon="15.79995"><ele>875.6</ele><time>2026-04-25T08:07:48.817Z</time></trkpt><trkpt lat="38.0451383" lon="15.799795"><ele>876.2</ele><time>2026-04-25T08:07:49.817Z</time></trkpt><trkpt lat="38.0451383" lon="15.7996333"><ele>876.8</ele><time>2026-04-25T08:07:50.817Z</time></trkpt><trkpt lat="38.04513" lon="15.799515"><ele>877.4</ele><time>2026-04-25T08:07:51.817Z</time></trkpt><trkpt lat="38.045125" lon="15.7994267"><ele>878.0</ele><time>2026-04-25T08:07:52.816Z</time></trkpt><trkpt lat="38.045175" lon="15.7996267"><ele>878.0</ele><time>2026-04-25T08:07:58.817Z</time></trkpt><trkpt lat="38.0452183" lon="15.7997267"><ele>878.0</ele><time>2026-04-25T08:07:59.817Z</time></trkpt><trkpt lat="38.04526" lon="15.799825"><ele>878.0</ele><time>2026-04-25T08:08:00.817Z</time></trkpt><trkpt lat="38.0453233" lon="15.7999"><ele>878.0</ele><time>2026-04-25T08:08:01.817Z</time></trkpt><trkpt lat="38.045395" lon="15.7999833"><ele>878.0</ele><time>2026-04-25T08:08:02.817Z</time></trkpt><trkpt lat="38.0454617" lon="15.800065"><ele>878.0</ele><time>2026-04-25T08:08:03.817Z</time></trkpt><trkpt lat="38.04556" lon="15.8001433"><ele>878.0</ele><time>2026-04-25T08:08:04.816Z</time></trkpt><trkpt lat="38.0456567" lon="15.8001917"><ele>878.0</ele><time>2026-04-25T08:08:05.817Z</time></trkpt><trkpt lat="38.0457217" lon="15.8002167"><ele>878.0</ele><time>2026-04-25T08:08:06.817Z</time></trkpt><trkpt lat="38.0458133" lon="15.8002117"><ele>878.0</ele><time>2026-04-25T08:08:07.817Z</time></trkpt><trkpt lat="38.045915" lon="15.8002167"><ele>882.8333333333334</ele><time>2026-04-25T08:08:08.817Z</time></trkpt><trkpt lat="38.046" lon="15.80022"><ele>887.6666666666667</ele><time>2026-04-25T08:08:09.816Z</time></trkpt><trkpt lat="38.0460817" lon="15.8002217"><ele>892.5</ele><time>2026-04-25T08:08:10.816Z</time></trkpt><trkpt lat="38.0461467" lon="15.8002417"><ele>897.3333333333333</ele><time>2026-04-25T08:08:11.817Z</time></trkpt><trkpt lat="38.0462417" lon="15.80029"><ele>902.1666666666666</ele><time>2026-04-25T08:08:13.816Z</time></trkpt><trkpt lat="38.0462233" lon="15.8003883"><ele>907.0</ele><time>2026-04-25T08:08:15.817Z</time></trkpt><trkpt lat="38.046175" lon="15.8004933"><ele>907.0</ele><time>2026-04-25T08:08:16.816Z</time></trkpt><trkpt lat="38.046095" lon="15.8006317"><ele>907.0</ele><time>2026-04-25T08:08:17.817Z</time></trkpt><trkpt lat="38.0459533" lon="15.80079"><ele>907.0</ele><time>2026-04-25T08:08:18.817Z</time></trkpt><trkpt lat="38.0459217" lon="15.8008617"><ele>907.0</ele><time>2026-04-25T08:08:19.817Z</time></trkpt><trkpt lat="38.045945" lon="15.800945"><ele>907.0</ele><time>2026-04-25T08:08:21.817Z</time></trkpt><trkpt lat="38.04605" lon="15.8007717"><ele>907.0</ele><time>2026-04-25T08:08:25.817Z</time></trkpt><trkpt lat="38.0460817" lon="15.800665"><ele>907.0</ele><time>2026-04-25T08:08:26.816Z</time></trkpt><trkpt lat="38.0461267" lon="15.8005783"><ele>907.0</ele><time>2026-04-25T08:08:27.817Z</time></trkpt><trkpt lat="38.046175" lon="15.80052"><ele>907.0</ele><time>2026-04-25T08:08:28.817Z</time></trkpt><trkpt lat="38.04623" lon="15.80047"><ele>907.0</ele><time>2026-04-25T08:08:29.817Z</time></trkpt><trkpt lat="38.0462633" lon="15.8003867"><ele>907.0</ele><time>2026-04-25T08:08:30.816Z</time></trkpt><trkpt lat="38.0463083" lon="15.800215"><ele>907.0</ele><time>2026-04-25T08:08:32.817Z</time></trkpt><trkpt lat="38.0462717" lon="15.800105"><ele>907.0</ele><time>2026-04-25T08:08:33.817Z</time></trkpt><trkpt lat="38.0462483" lon="15.8000017"><ele>907.0</ele><time>2026-04-25T08:08:34.817Z</time></trkpt><trkpt lat="38.0461533" lon="15.7999133"><ele>908.1666666666666</ele><time>2026-04-25T08:08:35.816Z</time></trkpt><trkpt lat="38.0460967" lon="15.799835"><ele>909.3333333333333</ele><time>2026-04-25T08:08:36.816Z</time></trkpt><trkpt lat="38.04605" lon="15.7997733"><ele>910.5</ele><time>2026-04-25T08:08:37.817Z</time></trkpt><trkpt lat="38.0460083" lon="15.799705"><ele>911.6666666666667</ele><time>2026-04-25T08:08:38.817Z</time></trkpt><trkpt lat="38.0460567" lon="15.7996433"><ele>912.8333333333334</ele><time>2026-04-25T08:08:42.817Z</time></trkpt><trkpt lat="38.0461233" lon="15.7996733"><ele>914.0</ele><time>2026-04-25T08:08:43.816Z</time></trkpt><trkpt lat="38.0463083" lon="15.7998217"><ele>914.0</ele><time>2026-04-25T08:08:44.817Z</time></trkpt><trkpt lat="38.0464483" lon="15.7999467"><ele>914.0</ele><time>2026-04-25T08:08:45.817Z</time></trkpt><trkpt lat="38.04655" lon="15.8000433"><ele>914.0</ele><time>2026-04-25T08:08:46.816Z</time></trkpt><trkpt lat="38.0466183" lon="15.8001283"><ele>914.0</ele><time>2026-04-25T08:08:47.817Z</time></trkpt><trkpt lat="38.0467" lon="15.8002133"><ele>917.5000000000001</ele><time>2026-04-25T08:08:48.817Z</time></trkpt><trkpt lat="38.0467467" lon="15.8003083"><ele>921.0</ele><time>2026-04-25T08:08:49.816Z</time></trkpt><trkpt lat="38.0467733" lon="15.8003933"><ele>924.5</ele><time>2026-04-25T08:08:50.817Z</time></trkpt><trkpt lat="38.0467633" lon="15.8004933"><ele>928.0</ele><time>2026-04-25T08:08:51.817Z</time></trkpt><trkpt lat="38.0467733" lon="15.8005767"><ele>931.5000000000001</ele><time>2026-04-25T08:08:52.817Z</time></trkpt><trkpt lat="38.046705" lon="15.8006333"><ele>935.0</ele><time>2026-04-25T08:08:53.817Z</time></trkpt><trkpt lat="38.0466933" lon="15.80072"><ele>935.0</ele><time>2026-04-25T08:08:54.816Z</time></trkpt><trkpt lat="38.0466617" lon="15.80083"><ele>935.0</ele><time>2026-04-25T08:08:56.817Z</time></trkpt><trkpt lat="38.04659" lon="15.800845"><ele>935.0</ele><time>2026-04-25T08:08:59.817Z</time></trkpt><trkpt lat="38.046725" lon="15.800835"><ele>935.0</ele><time>2026-04-25T08:09:05.817Z</time></trkpt><trkpt lat="38.046825" lon="15.80088"><ele>935.0</ele><time>2026-04-25T08:09:07.817Z</time></trkpt><trkpt lat="38.0468633" lon="15.800985"><ele>930.8</ele><time>2026-04-25T08:09:09.817Z</time></trkpt><trkpt lat="38.0469117" lon="15.8010917"><ele>926.6</ele><time>2026-04-25T08:09:11.817Z</time></trkpt><trkpt lat="38.0470017" lon="15.8011483"><ele>922.4000000000001</ele><time>2026-04-25T08:09:13.817Z</time></trkpt><trkpt lat="38.04709" lon="15.80113"><ele>918.2</ele><time>2026-04-25T08:09:15.817Z</time></trkpt><trkpt lat="38.0471617" lon="15.8011417"><ele>914.0</ele><time>2026-04-25T08:09:16.817Z</time></trkpt><trkpt lat="38.0472983" lon="15.80115"><ele>914.0</ele><time>2026-04-25T08:09:17.816Z</time></trkpt><trkpt lat="38.0473917" lon="15.8011617"><ele>914.0000000000001</ele><time>2026-04-25T08:09:18.817Z</time></trkpt><trkpt lat="38.0474833" lon="15.8011767"><ele>914.0000000000001</ele><time>2026-04-25T08:09:19.816Z</time></trkpt><trkpt lat="38.04758" lon="15.8012117"><ele>914.0</ele><time>2026-04-25T08:09:20.817Z</time></trkpt><trkpt lat="38.0476767" lon="15.8012517"><ele>914.0</ele><time>2026-04-25T08:09:21.817Z</time></trkpt><trkpt lat="38.0477717" lon="15.8013033"><ele>922.0</ele><time>2026-04-25T08:09:22.817Z</time></trkpt><trkpt lat="38.047865" lon="15.8013433"><ele>930.0000000000001</ele><time>2026-04-25T08:09:23.817Z</time></trkpt><trkpt lat="38.047965" lon="15.801415"><ele>938.0000000000001</ele><time>2026-04-25T08:09:24.817Z</time></trkpt><trkpt lat="38.0480567" lon="15.8014767"><ele>946.0</ele><time>2026-04-25T08:09:25.817Z</time></trkpt><trkpt lat="38.0481517" lon="15.8015317"><ele>954.0</ele><time>2026-04-25T08:09:26.816Z</time></trkpt><trkpt lat="38.0482367" lon="15.8015567"><ele>958.2</ele><time>2026-04-25T08:09:27.817Z</time></trkpt><trkpt lat="38.048325" lon="15.8015783"><ele>962.4000000000001</ele><time>2026-04-25T08:09:28.816Z</time></trkpt><trkpt lat="38.0484183" lon="15.8015967"><ele>966.6</ele><time>2026-04-25T08:09:29.816Z</time></trkpt><trkpt lat="38.0485067" lon="15.80162"><ele>970.8</ele><time>2026-04-25T08:09:30.816Z</time></trkpt><trkpt lat="38.0485983" lon="15.8016533"><ele>975.0</ele><time>2026-04-25T08:09:31.817Z</time></trkpt><trkpt lat="38.0487017" lon="15.80174"><ele>975.0</ele><time>2026-04-25T08:09:33.817Z</time></trkpt><trkpt lat="38.04878" lon="15.8017767"><ele>975.0</ele><time>2026-04-25T08:09:34.816Z</time></trkpt><trkpt lat="38.0488467" lon="15.80181"><ele>975.0</ele><time>2026-04-25T08:09:35.817Z</time></trkpt><trkpt lat="38.048935" lon="15.8018317"><ele>975.0</ele><time>2026-04-25T08:09:36.817Z</time></trkpt><trkpt lat="38.0490333" lon="15.80177"><ele>975.0</ele><time>2026-04-25T08:09:37.816Z</time></trkpt><trkpt lat="38.0491367" lon="15.801715"><ele>979.0</ele><time>2026-04-25T08:09:38.817Z</time></trkpt><trkpt lat="38.049245" lon="15.801635"><ele>983.0</ele><time>2026-04-25T08:09:39.816Z</time></trkpt><trkpt lat="38.0493617" lon="15.8015717"><ele>987.0</ele><time>2026-04-25T08:09:40.817Z</time></trkpt><trkpt lat="38.0494083" lon="15.8014767"><ele>991.0</ele><time>2026-04-25T08:09:41.817Z</time></trkpt><trkpt lat="38.0494617" lon="15.8013933"><ele>995.0</ele><time>2026-04-25T08:09:42.817Z</time></trkpt><trkpt lat="38.0494983" lon="15.8013167"><ele>995.0000000000001</ele><time>2026-04-25T08:09:43.817Z</time></trkpt><trkpt lat="38.0495683" lon="15.801295"><ele>995.0</ele><time>2026-04-25T08:09:44.816Z</time></trkpt><trkpt lat="38.0496133" lon="15.8013533"><ele>995.0</ele><time>2026-04-25T08:09:46.817Z</time></trkpt><trkpt lat="38.0495533" lon="15.8015367"><ele>995.0</ele><time>2026-04-25T08:09:48.816Z</time></trkpt><trkpt lat="38.0495233" lon="15.8016083"><ele>995.0000000000001</ele><time>2026-04-25T08:09:49.816Z</time></trkpt><trkpt lat="38.0494633" lon="15.80167"><ele>995.0</ele><time>2026-04-25T08:09:50.817Z</time></trkpt><trkpt lat="38.0494133" lon="15.8018167"><ele>993.6</ele><time>2026-04-25T08:09:52.816Z</time></trkpt><trkpt lat="38.0494217" lon="15.8019033"><ele>992.2</ele><time>2026-04-25T08:09:53.817Z</time></trkpt><trkpt lat="38.0495183" lon="15.8020267"><ele>990.8</ele><time>2026-04-25T08:09:55.817Z</time></trkpt><trkpt lat="38.0495733" lon="15.8021067"><ele>989.4</ele><time>2026-04-25T08:09:56.817Z</time></trkpt><trkpt lat="38.0496183" lon="15.8022133"><ele>988.0</ele><time>2026-04-25T08:09:57.817Z</time></trkpt><trkpt lat="38.04969" lon="15.8023267"><ele>988.0</ele><time>2026-04-25T08:09:58.817Z</time></trkpt><trkpt lat="38.049755" lon="15.8024183"><ele>988.0</ele><time>2026-04-25T08:09:59.816Z</time></trkpt><trkpt lat="38.0498017" lon="15.8025567"><ele>988.0</ele><time>2026-04-25T08:10:00.816Z</time></trkpt><trkpt lat="38.049865" lon="15.8026367"><ele>988.0</ele><time>2026-04-25T08:10:01.817Z</time></trkpt><trkpt lat="38.0499267" lon="15.8027283"><ele>988.0</ele><time>2026-04-25T08:10:02.817Z</time></trkpt><trkpt lat="38.0499683" lon="15.8028133"><ele>992.6666666666666</ele><time>2026-04-25T08:10:03.817Z</time></trkpt><trkpt lat="38.0499683" lon="15.8029167"><ele>997.3333333333333</ele><time>2026-04-25T08:10:04.817Z</time></trkpt><trkpt lat="38.0500133" lon="15.802995"><ele>1002.0</ele><time>2026-04-25T08:10:05.817Z</time></trkpt><trkpt lat="38.0501317" lon="15.8029667"><ele>1006.6666666666667</ele><time>2026-04-25T08:10:07.817Z</time></trkpt><trkpt lat="38.0501983" lon="15.802965"><ele>1011.3333333333334</ele><time>2026-04-25T08:10:08.816Z</time></trkpt><trkpt lat="38.0502683" lon="15.8030383"><ele>1016.0</ele><time>2026-04-25T08:10:10.817Z</time></trkpt><trkpt lat="38.0503267" lon="15.8031383"><ele>1016.0</ele><time>2026-04-25T08:10:12.816Z</time></trkpt><trkpt lat="38.0503717" lon="15.8032383"><ele>1015.9999999999999</ele><time>2026-04-25T08:10:14.816Z</time></trkpt><trkpt lat="38.0504633" lon="15.8033517"><ele>1015.9999999999999</ele><time>2026-04-25T08:10:16.817Z</time></trkpt><trkpt lat="38.0505283" lon="15.8034217"><ele>1016.0</ele><time>2026-04-25T08:10:17.816Z</time></trkpt><trkpt lat="38.0506033" lon="15.8034733"><ele>1016.0</ele><time>2026-04-25T08:10:18.816Z</time></trkpt><trkpt lat="38.0506483" lon="15.80353"><ele>1015.1666666666667</ele><time>2026-04-25T08:10:19.817Z</time></trkpt><trkpt lat="38.050725" lon="15.8036317"><ele>1014.3333333333334</ele><time>2026-04-25T08:10:21.817Z</time></trkpt><trkpt lat="38.0507117" lon="15.803745"><ele>1013.5</ele><time>2026-04-25T08:10:23.817Z</time></trkpt><trkpt lat="38.05066" lon="15.8038083"><ele>1012.6666666666667</ele><time>2026-04-25T08:10:24.817Z</time></trkpt><trkpt lat="38.050625" lon="15.8039317"><ele>1011.8333333333334</ele><time>2026-04-25T08:10:26.817Z</time></trkpt><trkpt lat="38.050645" lon="15.8040167"><ele>1011.0</ele><time>2026-04-25T08:10:27.817Z</time></trkpt><trkpt lat="38.0506767" lon="15.804095"><ele>1011.0</ele><time>2026-04-25T08:10:28.817Z</time></trkpt><trkpt lat="38.0507267" lon="15.80424"><ele>1010.9999999999999</ele><time>2026-04-25T08:10:30.817Z</time></trkpt><trkpt lat="38.0507533" lon="15.8043383"><ele>1010.9999999999999</ele><time>2026-04-25T08:10:31.817Z</time></trkpt><trkpt lat="38.050795" lon="15.8044533"><ele>1011.0</ele><time>2026-04-25T08:10:32.817Z</time></trkpt><trkpt lat="38.0508483" lon="15.8045733"><ele>1011.0</ele><time>2026-04-25T08:10:33.817Z</time></trkpt><trkpt lat="38.0508933" lon="15.804665"><ele>1014.7142857142856</ele><time>2026-04-25T08:10:34.817Z</time></trkpt><trkpt lat="38.050935" lon="15.8047467"><ele>1018.4285714285713</ele><time>2026-04-25T08:10:35.817Z</time></trkpt><trkpt lat="38.0509817" lon="15.804815"><ele>1022.1428571428571</ele><time>2026-04-25T08:10:36.817Z</time></trkpt><trkpt lat="38.051025" lon="15.8048733"><ele>1025.8571428571427</ele><time>2026-04-25T08:10:37.817Z</time></trkpt><trkpt lat="38.0510883" lon="15.8048733"><ele>1029.5714285714284</ele><time>2026-04-25T08:10:38.817Z</time></trkpt><trkpt lat="38.0511517" lon="15.8048983"><ele>1033.2857142857142</ele><time>2026-04-25T08:10:39.817Z</time></trkpt><trkpt lat="38.0512233" lon="15.8049433"><ele>1037.0</ele><time>2026-04-25T08:10:40.817Z</time></trkpt><trkpt lat="38.051285" lon="15.8049883"><ele>1037.0</ele><time>2026-04-25T08:10:41.817Z</time></trkpt><trkpt lat="38.0513683" lon="15.805005"><ele>1037.0</ele><time>2026-04-25T08:10:43.817Z</time></trkpt><trkpt lat="38.0514467" lon="15.805005"><ele>1037.0</ele><time>2026-04-25T08:10:45.816Z</time></trkpt><trkpt lat="38.05147" lon="15.804885"><ele>1037.0</ele><time>2026-04-25T08:10:47.817Z</time></trkpt><trkpt lat="38.051475" lon="15.80474"><ele>1037.0</ele><time>2026-04-25T08:10:48.817Z</time></trkpt><trkpt lat="38.0514867" lon="15.8045767"><ele>1037.0</ele><time>2026-04-25T08:10:49.817Z</time></trkpt><trkpt lat="38.0515317" lon="15.8044033"><ele>1037.0</ele><time>2026-04-25T08:10:50.816Z</time></trkpt><trkpt lat="38.0515833" lon="15.8042683"><ele>1037.0</ele><time>2026-04-25T08:10:51.816Z</time></trkpt><trkpt lat="38.05161" lon="15.8041717"><ele>1037.0</ele><time>2026-04-25T08:10:52.817Z</time></trkpt><trkpt lat="38.0516383" lon="15.8041"><ele>1037.0</ele><time>2026-04-25T08:10:53.817Z</time></trkpt><trkpt lat="38.051735" lon="15.80403"><ele>1041.6</ele><time>2026-04-25T08:10:55.816Z</time></trkpt><trkpt lat="38.05182" lon="15.804085"><ele>1046.2</ele><time>2026-04-25T08:10:56.816Z</time></trkpt><trkpt lat="38.0518917" lon="15.8041467"><ele>1050.8</ele><time>2026-04-25T08:10:57.817Z</time></trkpt><trkpt lat="38.0519733" lon="15.8042067"><ele>1055.4</ele><time>2026-04-25T08:10:58.816Z</time></trkpt><trkpt lat="38.0520967" lon="15.80427"><ele>1060.0</ele><time>2026-04-25T08:11:00.817Z</time></trkpt><trkpt lat="38.0522633" lon="15.80444"><ele>1063.3333333333333</ele><time>2026-04-25T08:11:01.816Z</time></trkpt><trkpt lat="38.0524117" lon="15.804585"><ele>1066.6666666666667</ele><time>2026-04-25T08:11:02.817Z</time></trkpt><trkpt lat="38.0525267" lon="15.8047183"><ele>1070.0</ele><time>2026-04-25T08:11:03.817Z</time></trkpt><trkpt lat="38.0526233" lon="15.804815"><ele>1069.6</ele><time>2026-04-25T08:11:04.817Z</time></trkpt><trkpt lat="38.0526933" lon="15.8049117"><ele>1069.2</ele><time>2026-04-25T08:11:05.816Z</time></trkpt><trkpt lat="38.052765" lon="15.8050083"><ele>1068.8</ele><time>2026-04-25T08:11:06.816Z</time></trkpt><trkpt lat="38.052835" lon="15.8051"><ele>1068.4</ele><time>2026-04-25T08:11:07.817Z</time></trkpt><trkpt lat="38.0529117" lon="15.8051817"><ele>1068.0</ele><time>2026-04-25T08:11:08.817Z</time></trkpt><trkpt lat="38.052985" lon="15.80527"><ele>1068.0</ele><time>2026-04-25T08:11:09.817Z</time></trkpt><trkpt lat="38.0530183" lon="15.8053583"><ele>1068.0</ele><time>2026-04-25T08:11:10.817Z</time></trkpt><trkpt lat="38.05313" lon="15.8054517"><ele>1068.0</ele><time>2026-04-25T08:11:12.817Z</time></trkpt><trkpt lat="38.0531983" lon="15.8055083"><ele>1068.0</ele><time>2026-04-25T08:11:13.817Z</time></trkpt><trkpt lat="38.0532717" lon="15.8055633"><ele>1068.0</ele><time>2026-04-25T08:11:14.817Z</time></trkpt><trkpt lat="38.0533567" lon="15.8055917"><ele>1069.6</ele><time>2026-04-25T08:11:16.817Z</time></trkpt><trkpt lat="38.0534417" lon="15.80563"><ele>1071.1999999999998</ele><time>2026-04-25T08:11:17.816Z</time></trkpt><trkpt lat="38.053535" lon="15.8056783"><ele>1072.8</ele><time>2026-04-25T08:11:18.817Z</time></trkpt><trkpt lat="38.0536233" lon="15.80572"><ele>1074.3999999999999</ele><time>2026-04-25T08:11:19.817Z</time></trkpt><trkpt lat="38.053765" lon="15.805785"><ele>1076.0</ele><time>2026-04-25T08:11:20.817Z</time></trkpt><trkpt lat="38.053875" lon="15.80582"><ele>1076.0</ele><time>2026-04-25T08:11:21.817Z</time></trkpt><trkpt lat="38.0539817" lon="15.805835"><ele>1076.0</ele><time>2026-04-25T08:11:22.816Z</time></trkpt><trkpt lat="38.0540883" lon="15.8058467"><ele>1076.0</ele><time>2026-04-25T08:11:23.817Z</time></trkpt><trkpt lat="38.054195" lon="15.8058533"><ele>1076.0</ele><time>2026-04-25T08:11:24.817Z</time></trkpt><trkpt lat="38.0542867" lon="15.805845"><ele>1076.0</ele><time>2026-04-25T08:11:25.817Z</time></trkpt><trkpt lat="38.0543867" lon="15.8058517"><ele>1078.6</ele><time>2026-04-25T08:11:26.817Z</time></trkpt><trkpt lat="38.05449" lon="15.805875"><ele>1081.1999999999998</ele><time>2026-04-25T08:11:27.816Z</time></trkpt><trkpt lat="38.0545967" lon="15.8059033"><ele>1083.8000000000002</ele><time>2026-04-25T08:11:28.817Z</time></trkpt><trkpt lat="38.0547" lon="15.8059317"><ele>1086.4</ele><time>2026-04-25T08:11:29.817Z</time></trkpt><trkpt lat="38.0547933" lon="15.8059617"><ele>1089.0</ele><time>2026-04-25T08:11:30.817Z</time></trkpt><trkpt lat="38.054875" lon="15.8059917"><ele>1089.4</ele><time>2026-04-25T08:11:31.816Z</time></trkpt><trkpt lat="38.05495" lon="15.8060167"><ele>1089.8000000000002</ele><time>2026-04-25T08:11:32.817Z</time></trkpt><trkpt lat="38.055025" lon="15.80603"><ele>1090.1999999999998</ele><time>2026-04-25T08:11:33.817Z</time></trkpt><trkpt lat="38.0551317" lon="15.8060133"><ele>1090.6</ele><time>2026-04-25T08:11:35.817Z</time></trkpt><trkpt lat="38.055175" lon="15.8061167"><ele>1091.0</ele><time>2026-04-25T08:11:40.816Z</time></trkpt><trkpt lat="38.0551683" lon="15.806305"><ele>1092.8333333333335</ele><time>2026-04-25T08:11:42.817Z</time></trkpt><trkpt lat="38.05521" lon="15.8063883"><ele>1094.6666666666667</ele><time>2026-04-25T08:11:43.817Z</time></trkpt><trkpt lat="38.0552683" lon="15.80647"><ele>1096.5</ele><time>2026-04-25T08:11:44.817Z</time></trkpt><trkpt lat="38.0553317" lon="15.806525"><ele>1098.3333333333333</ele><time>2026-04-25T08:11:45.817Z</time></trkpt><trkpt lat="38.05542" lon="15.80653"><ele>1100.1666666666665</ele><time>2026-04-25T08:11:46.816Z</time></trkpt><trkpt lat="38.0555" lon="15.8065333"><ele>1102.0</ele><time>2026-04-25T08:11:47.817Z</time></trkpt><trkpt lat="38.055615" lon="15.80647"><ele>1102.0</ele><time>2026-04-25T08:11:48.817Z</time></trkpt><trkpt lat="38.0557083" lon="15.8063783"><ele>1102.0</ele><time>2026-04-25T08:11:49.817Z</time></trkpt><trkpt lat="38.0557767" lon="15.8062983"><ele>1102.0</ele><time>2026-04-25T08:11:50.817Z</time></trkpt><trkpt lat="38.05584" lon="15.8061667"><ele>1102.0</ele><time>2026-04-25T08:11:51.816Z</time></trkpt><trkpt lat="38.05591" lon="15.8060517"><ele>1102.0</ele><time>2026-04-25T08:11:52.816Z</time></trkpt><trkpt lat="38.0559683" lon="15.805965"><ele>1104.2</ele><time>2026-04-25T08:11:53.817Z</time></trkpt><trkpt lat="38.056045" lon="15.8058983"><ele>1106.4</ele><time>2026-04-25T08:11:54.817Z</time></trkpt><trkpt lat="38.0561567" lon="15.80585"><ele>1108.6</ele><time>2026-04-25T08:11:55.817Z</time></trkpt><trkpt lat="38.0562667" lon="15.8058167"><ele>1110.8</ele><time>2026-04-25T08:11:56.817Z</time></trkpt><trkpt lat="38.0563717" lon="15.80578"><ele>1113.0</ele><time>2026-04-25T08:11:57.817Z</time></trkpt><trkpt lat="38.0564667" lon="15.80577"><ele>1113.0</ele><time>2026-04-25T08:11:58.817Z</time></trkpt><trkpt lat="38.05659" lon="15.8057467"><ele>1113.0</ele><time>2026-04-25T08:12:00.817Z</time></trkpt><trkpt lat="38.0567033" lon="15.8057267"><ele>1113.0</ele><time>2026-04-25T08:12:02.816Z</time></trkpt><trkpt lat="38.0567817" lon="15.8056933"><ele>1113.0</ele><time>2026-04-25T08:12:04.817Z</time></trkpt><trkpt lat="38.056815" lon="15.805575"><ele>1113.0</ele><time>2026-04-25T08:12:07.817Z</time></trkpt><trkpt lat="38.056805" lon="15.8054167"><ele>1114.6</ele><time>2026-04-25T08:12:09.817Z</time></trkpt><trkpt lat="38.0567817" lon="15.805265"><ele>1116.1999999999998</ele><time>2026-04-25T08:12:10.817Z</time></trkpt><trkpt lat="38.0567833" lon="15.8051733"><ele>1117.8</ele><time>2026-04-25T08:12:11.817Z</time></trkpt><trkpt lat="38.0567833" lon="15.8050683"><ele>1119.3999999999999</ele><time>2026-04-25T08:12:12.816Z</time></trkpt><trkpt lat="38.056785" lon="15.8049783"><ele>1121.0</ele><time>2026-04-25T08:12:13.817Z</time></trkpt><trkpt lat="38.0567517" lon="15.80485"><ele>1121.0</ele><time>2026-04-25T08:12:14.817Z</time></trkpt><trkpt lat="38.0567367" lon="15.8046517"><ele>1121.0</ele><time>2026-04-25T08:12:15.817Z</time></trkpt><trkpt lat="38.05677" lon="15.8044183"><ele>1121.0</ele><time>2026-04-25T08:12:16.817Z</time></trkpt><trkpt lat="38.0568683" lon="15.8039533"><ele>1118.6666666666667</ele><time>2026-04-25T08:12:17.817Z</time></trkpt><trkpt lat="38.0568933" lon="15.8037417"><ele>1116.3333333333333</ele><time>2026-04-25T08:12:18.817Z</time></trkpt><trkpt lat="38.056935" lon="15.803585"><ele>1114.0</ele><time>2026-04-25T08:12:19.816Z</time></trkpt><trkpt lat="38.0570067" lon="15.80341"><ele>1114.0</ele><time>2026-04-25T08:12:20.817Z</time></trkpt><trkpt lat="38.057075" lon="15.8032517"><ele>1114.0</ele><time>2026-04-25T08:12:21.817Z</time></trkpt><trkpt lat="38.0571483" lon="15.803105"><ele>1114.0</ele><time>2026-04-25T08:12:22.817Z</time></trkpt><trkpt lat="38.0572383" lon="15.8029867"><ele>1114.0</ele><time>2026-04-25T08:12:23.816Z</time></trkpt><trkpt lat="38.057325" lon="15.8028767"><ele>1114.25</ele><time>2026-04-25T08:12:24.817Z</time></trkpt><trkpt lat="38.0574567" lon="15.8027667"><ele>1114.5</ele><time>2026-04-25T08:12:25.816Z</time></trkpt><trkpt lat="38.0575483" lon="15.80267"><ele>1114.75</ele><time>2026-04-25T08:12:26.816Z</time></trkpt><trkpt lat="38.0576483" lon="15.8025867"><ele>1115.0</ele><time>2026-04-25T08:12:27.817Z</time></trkpt><trkpt lat="38.0577567" lon="15.8024967"><ele>1115.0</ele><time>2026-04-25T08:12:28.817Z</time></trkpt><trkpt lat="38.0578767" lon="15.80237"><ele>1115.0</ele><time>2026-04-25T08:12:29.816Z</time></trkpt><trkpt lat="38.05799" lon="15.8022467"><ele>1115.0</ele><time>2026-04-25T08:12:30.816Z</time></trkpt><trkpt lat="38.0580883" lon="15.8021217"><ele>1115.0</ele><time>2026-04-25T08:12:31.817Z</time></trkpt><trkpt lat="38.0581933" lon="15.8019917"><ele>1115.6666666666667</ele><time>2026-04-25T08:12:32.817Z</time></trkpt><trkpt lat="38.058315" lon="15.801855"><ele>1116.3333333333333</ele><time>2026-04-25T08:12:33.816Z</time></trkpt><trkpt lat="38.0584317" lon="15.801715"><ele>1117.0</ele><time>2026-04-25T08:12:34.817Z</time></trkpt><trkpt lat="38.0585517" lon="15.8015917"><ele>1117.0</ele><time>2026-04-25T08:12:35.816Z</time></trkpt><trkpt lat="38.0586617" lon="15.8014533"><ele>1117.0</ele><time>2026-04-25T08:12:36.816Z</time></trkpt><trkpt lat="38.0587683" lon="15.8013217"><ele>1117.0</ele><time>2026-04-25T08:12:37.816Z</time></trkpt><trkpt lat="38.0588683" lon="15.8011983"><ele>1117.0</ele><time>2026-04-25T08:12:38.817Z</time></trkpt><trkpt lat="38.05896" lon="15.8010967"><ele>1116.75</ele><time>2026-04-25T08:12:39.817Z</time></trkpt><trkpt lat="38.0590633" lon="15.8009933"><ele>1116.5</ele><time>2026-04-25T08:12:40.817Z</time></trkpt><trkpt lat="38.0591717" lon="15.8009"><ele>1116.25</ele><time>2026-04-25T08:12:41.817Z</time></trkpt><trkpt lat="38.0592633" lon="15.8008133"><ele>1116.0</ele><time>2026-04-25T08:12:42.817Z</time></trkpt><trkpt lat="38.059365" lon="15.8007467"><ele>1116.0</ele><time>2026-04-25T08:12:43.817Z</time></trkpt><trkpt lat="38.05946" lon="15.8006833"><ele>1116.0</ele><time>2026-04-25T08:12:44.817Z</time></trkpt><trkpt lat="38.0595583" lon="15.8006233"><ele>1116.0</ele><time>2026-04-25T08:12:45.817Z</time></trkpt><trkpt lat="38.059645" lon="15.80057"><ele>1116.0</ele><time>2026-04-25T08:12:46.817Z</time></trkpt><trkpt lat="38.0597483" lon="15.80051"><ele>1116.0</ele><time>2026-04-25T08:12:47.816Z</time></trkpt><trkpt lat="38.05985" lon="15.80044"><ele>1116.0</ele><time>2026-04-25T08:12:48.817Z</time></trkpt><trkpt lat="38.0599483" lon="15.8003833"><ele>1116.0</ele><time>2026-04-25T08:12:49.816Z</time></trkpt><trkpt lat="38.0600583" lon="15.8003333"><ele>1116.0</ele><time>2026-04-25T08:12:50.816Z</time></trkpt><trkpt lat="38.0601817" lon="15.8002983"><ele>1116.0</ele><time>2026-04-25T08:12:51.816Z</time></trkpt><trkpt lat="38.0603033" lon="15.8002833"><ele>1116.75</ele><time>2026-04-25T08:12:52.817Z</time></trkpt><trkpt lat="38.06042" lon="15.8002483"><ele>1117.5</ele><time>2026-04-25T08:12:53.816Z</time></trkpt><trkpt lat="38.06056" lon="15.8002217"><ele>1118.25</ele><time>2026-04-25T08:12:54.817Z</time></trkpt><trkpt lat="38.06065" lon="15.8001583"><ele>1119.0</ele><time>2026-04-25T08:12:55.817Z</time></trkpt><trkpt lat="38.0607517" lon="15.8001033"><ele>1119.6000000000001</ele><time>2026-04-25T08:12:56.817Z</time></trkpt><trkpt lat="38.0608533" lon="15.80006"><ele>1120.2</ele><time>2026-04-25T08:12:57.817Z</time></trkpt><trkpt lat="38.0609617" lon="15.80003"><ele>1120.8000000000002</ele><time>2026-04-25T08:12:58.817Z</time></trkpt><trkpt lat="38.061055" lon="15.8000233"><ele>1121.4</ele><time>2026-04-25T08:12:59.817Z</time></trkpt><trkpt lat="38.0611367" lon="15.8000233"><ele>1122.0</ele><time>2026-04-25T08:13:00.816Z</time></trkpt><trkpt lat="38.06123" lon="15.8000217"><ele>1122.0</ele><time>2026-04-25T08:13:01.817Z</time></trkpt><trkpt lat="38.0613083" lon="15.800005"><ele>1122.0</ele><time>2026-04-25T08:13:02.816Z</time></trkpt><trkpt lat="38.0613833" lon="15.79999"><ele>1122.0</ele><time>2026-04-25T08:13:03.816Z</time></trkpt><trkpt lat="38.0614467" lon="15.79995"><ele>1122.0</ele><time>2026-04-25T08:13:04.817Z</time></trkpt><trkpt lat="38.0615333" lon="15.7999167"><ele>1122.0</ele><time>2026-04-25T08:13:05.817Z</time></trkpt><trkpt lat="38.061615" lon="15.7998883"><ele>1122.0</ele><time>2026-04-25T08:13:06.817Z</time></trkpt><trkpt lat="38.06169" lon="15.7998433"><ele>1121.5</ele><time>2026-04-25T08:13:07.817Z</time></trkpt><trkpt lat="38.0617567" lon="15.799805"><ele>1121.0</ele><time>2026-04-25T08:13:08.817Z</time></trkpt><trkpt lat="38.0618183" lon="15.7997583"><ele>1120.5</ele><time>2026-04-25T08:13:09.816Z</time></trkpt><trkpt lat="38.061905" lon="15.7996783"><ele>1120.0</ele><time>2026-04-25T08:13:11.816Z</time></trkpt><trkpt lat="38.0619917" lon="15.7995717"><ele>1119.5</ele><time>2026-04-25T08:13:13.817Z</time></trkpt><trkpt lat="38.0620367" lon="15.7995067"><ele>1119.0</ele><time>2026-04-25T08:13:14.817Z</time></trkpt><trkpt lat="38.0620767" lon="15.79944"><ele>1119.0</ele><time>2026-04-25T08:13:15.817Z</time></trkpt><trkpt lat="38.06211" lon="15.7993583"><ele>1119.0</ele><time>2026-04-25T08:13:16.817Z</time></trkpt><trkpt lat="38.062145" lon="15.7992783"><ele>1119.0</ele><time>2026-04-25T08:13:17.817Z</time></trkpt><trkpt lat="38.0621633" lon="15.799195"><ele>1119.0</ele><time>2026-04-25T08:13:18.816Z</time></trkpt><trkpt lat="38.0621967" lon="15.79908"><ele>1119.0</ele><time>2026-04-25T08:13:20.817Z</time></trkpt><trkpt lat="38.06227" lon="15.799015"><ele>1119.0</ele><time>2026-04-25T08:13:23.817Z</time></trkpt><trkpt lat="38.06231" lon="15.7991117"><ele>1119.0</ele><time>2026-04-25T08:13:26.816Z</time></trkpt><trkpt lat="38.062305" lon="15.7991917"><ele>1119.0</ele><time>2026-04-25T08:13:27.816Z</time></trkpt><trkpt lat="38.0622667" lon="15.7993083"><ele>1119.0</ele><time>2026-04-25T08:13:28.817Z</time></trkpt><trkpt lat="38.0622317" lon="15.7994167"><ele>1119.0</ele><time>2026-04-25T08:13:29.816Z</time></trkpt><trkpt lat="38.0621933" lon="15.7995567"><ele>1119.0</ele><time>2026-04-25T08:13:31.816Z</time></trkpt><trkpt lat="38.0621667" lon="15.799695"><ele>1119.0</ele><time>2026-04-25T08:13:33.817Z</time></trkpt><trkpt lat="38.062235" lon="15.7997517"><ele>1119.0</ele><time>2026-04-25T08:13:37.816Z</time></trkpt><trkpt lat="38.0623033" lon="15.7996833"><ele>1119.0</ele><time>2026-04-25T08:13:44.817Z</time></trkpt><trkpt lat="38.0623817" lon="15.799675"><ele>1119.0</ele><time>2026-04-25T08:13:51.817Z</time></trkpt><trkpt lat="38.0624433" lon="15.7996967"><ele>1119.0</ele><time>2026-04-25T08:13:53.817Z</time></trkpt><trkpt lat="38.06253" lon="15.799725"><ele>1119.0</ele><time>2026-04-25T08:13:55.816Z</time></trkpt><trkpt lat="38.0626233" lon="15.7997483"><ele>1117.2</ele><time>2026-04-25T08:13:57.816Z</time></trkpt><trkpt lat="38.0626833" lon="15.7997783"><ele>1115.4</ele><time>2026-04-25T08:13:59.817Z</time></trkpt><trkpt lat="38.0627717" lon="15.79982"><ele>1113.6</ele><time>2026-04-25T08:14:01.816Z</time></trkpt><trkpt lat="38.0628917" lon="15.7998533"><ele>1111.8</ele><time>2026-04-25T08:14:03.817Z</time></trkpt><trkpt lat="38.0629867" lon="15.7998833"><ele>1110.0</ele><time>2026-04-25T08:14:04.817Z</time></trkpt><trkpt lat="38.0630617" lon="15.7998983"><ele>1110.0</ele><time>2026-04-25T08:14:05.817Z</time></trkpt><trkpt lat="38.0631883" lon="15.7999133"><ele>1110.0</ele><time>2026-04-25T08:14:07.816Z</time></trkpt><trkpt lat="38.0632717" lon="15.799955"><ele>1110.0</ele><time>2026-04-25T08:14:08.816Z</time></trkpt><trkpt lat="38.0633567" lon="15.8000083"><ele>1110.0</ele><time>2026-04-25T08:14:09.816Z</time></trkpt><trkpt lat="38.06344" lon="15.800065"><ele>1110.0</ele><time>2026-04-25T08:14:10.817Z</time></trkpt><trkpt lat="38.06355" lon="15.8001133"><ele>1111.0</ele><time>2026-04-25T08:14:11.817Z</time></trkpt><trkpt lat="38.0636533" lon="15.80015"><ele>1112.0</ele><time>2026-04-25T08:14:12.817Z</time></trkpt><trkpt lat="38.0637467" lon="15.8001883"><ele>1113.0</ele><time>2026-04-25T08:14:13.817Z</time></trkpt><trkpt lat="38.0638583" lon="15.8002233"><ele>1114.0</ele><time>2026-04-25T08:14:14.817Z</time></trkpt><trkpt lat="38.0639583" lon="15.8002533"><ele>1115.0</ele><time>2026-04-25T08:14:15.816Z</time></trkpt><trkpt lat="38.0640617" lon="15.80026"><ele>1117.0</ele><time>2026-04-25T08:14:16.817Z</time></trkpt><trkpt lat="38.0641733" lon="15.800255"><ele>1119.0</ele><time>2026-04-25T08:14:17.817Z</time></trkpt><trkpt lat="38.0642833" lon="15.8002467"><ele>1121.0</ele><time>2026-04-25T08:14:18.817Z</time></trkpt><trkpt lat="38.0644033" lon="15.8002417"><ele>1123.0</ele><time>2026-04-25T08:14:19.817Z</time></trkpt><trkpt lat="38.0645133" lon="15.8002367"><ele>1123.0</ele><time>2026-04-25T08:14:20.817Z</time></trkpt><trkpt lat="38.0646267" lon="15.800235"><ele>1123.0</ele><time>2026-04-25T08:14:21.817Z</time></trkpt><trkpt lat="38.0647367" lon="15.8002233"><ele>1123.0</ele><time>2026-04-25T08:14:22.817Z</time></trkpt><trkpt lat="38.0648733" lon="15.8002017"><ele>1123.0</ele><time>2026-04-25T08:14:23.817Z</time></trkpt><trkpt lat="38.064985" lon="15.8001733"><ele>1123.3333333333333</ele><time>2026-04-25T08:14:24.817Z</time></trkpt><trkpt lat="38.065085" lon="15.80013"><ele>1123.6666666666665</ele><time>2026-04-25T08:14:25.816Z</time></trkpt><trkpt lat="38.0651767" lon="15.80009"><ele>1124.0</ele><time>2026-04-25T08:14:26.817Z</time></trkpt><trkpt lat="38.0652533" lon="15.800065"><ele>1124.3333333333333</ele><time>2026-04-25T08:14:27.817Z</time></trkpt><trkpt lat="38.0653167" lon="15.80008"><ele>1124.6666666666667</ele><time>2026-04-25T08:14:30.817Z</time></trkpt><trkpt lat="38.065325" lon="15.80018"><ele>1125.0</ele><time>2026-04-25T08:14:32.817Z</time></trkpt><trkpt lat="38.0653333" lon="15.8002633"><ele>1125.5</ele><time>2026-04-25T08:14:33.816Z</time></trkpt><trkpt lat="38.0653683" lon="15.8004"><ele>1126.0</ele><time>2026-04-25T08:14:34.817Z</time></trkpt><trkpt lat="38.065395" lon="15.8005567"><ele>1126.5</ele><time>2026-04-25T08:14:35.817Z</time></trkpt><trkpt lat="38.0654317" lon="15.800715"><ele>1127.0</ele><time>2026-04-25T08:14:36.817Z</time></trkpt><trkpt lat="38.06546" lon="15.8008867"><ele>1126.5</ele><time>2026-04-25T08:14:37.817Z</time></trkpt><trkpt lat="38.065495" lon="15.80103"><ele>1126.0</ele><time>2026-04-25T08:14:38.817Z</time></trkpt><trkpt lat="38.065525" lon="15.8011717"><ele>1125.5</ele><time>2026-04-25T08:14:39.817Z</time></trkpt><trkpt lat="38.0655367" lon="15.8013117"><ele>1125.0</ele><time>2026-04-25T08:14:40.816Z</time></trkpt><trkpt lat="38.0655383" lon="15.8014483"><ele>1125.0</ele><time>2026-04-25T08:14:41.816Z</time></trkpt><trkpt lat="38.06554" lon="15.8015883"><ele>1125.0</ele><time>2026-04-25T08:14:42.817Z</time></trkpt><trkpt lat="38.06554" lon="15.80173"><ele>1125.0</ele><time>2026-04-25T08:14:43.817Z</time></trkpt><trkpt lat="38.0655283" lon="15.8018767"><ele>1125.0</ele><time>2026-04-25T08:14:44.817Z</time></trkpt><trkpt lat="38.0655083" lon="15.802055"><ele>1125.0</ele><time>2026-04-25T08:14:45.817Z</time></trkpt><trkpt lat="38.0655167" lon="15.8021917"><ele>1125.0</ele><time>2026-04-25T08:14:46.816Z</time></trkpt><trkpt lat="38.0655267" lon="15.802335"><ele>1125.0</ele><time>2026-04-25T08:14:47.816Z</time></trkpt><trkpt lat="38.0655517" lon="15.8024567"><ele>1125.0</ele><time>2026-04-25T08:14:48.817Z</time></trkpt><trkpt lat="38.0655783" lon="15.8025817"><ele>1125.0</ele><time>2026-04-25T08:14:49.816Z</time></trkpt><trkpt lat="38.06561" lon="15.802695"><ele>1126.0</ele><time>2026-04-25T08:14:50.817Z</time></trkpt><trkpt lat="38.065635" lon="15.802805"><ele>1127.0</ele><time>2026-04-25T08:14:51.817Z</time></trkpt><trkpt lat="38.0656717" lon="15.8029417"><ele>1128.0</ele><time>2026-04-25T08:14:52.816Z</time></trkpt><trkpt lat="38.0657117" lon="15.8030933"><ele>1129.0</ele><time>2026-04-25T08:14:53.817Z</time></trkpt><trkpt lat="38.0657533" lon="15.8032433"><ele>1129.5</ele><time>2026-04-25T08:14:54.817Z</time></trkpt><trkpt lat="38.0657917" lon="15.8034017"><ele>1130.0</ele><time>2026-04-25T08:14:55.817Z</time></trkpt><trkpt lat="38.065835" lon="15.8035567"><ele>1130.5</ele><time>2026-04-25T08:14:56.817Z</time></trkpt><trkpt lat="38.0658767" lon="15.8036983"><ele>1131.0</ele><time>2026-04-25T08:14:57.816Z</time></trkpt><trkpt lat="38.065905" lon="15.8038217"><ele>1132.25</ele><time>2026-04-25T08:14:58.817Z</time></trkpt><trkpt lat="38.0659367" lon="15.803955"><ele>1133.5</ele><time>2026-04-25T08:14:59.817Z</time></trkpt><trkpt lat="38.065965" lon="15.804085"><ele>1134.75</ele><time>2026-04-25T08:15:00.817Z</time></trkpt><trkpt lat="38.0659917" lon="15.80423"><ele>1136.0</ele><time>2026-04-25T08:15:01.816Z</time></trkpt><trkpt lat="38.0660167" lon="15.8043917"><ele>1136.6</ele><time>2026-04-25T08:15:02.817Z</time></trkpt><trkpt lat="38.0660483" lon="15.8045383"><ele>1137.1999999999998</ele><time>2026-04-25T08:15:03.817Z</time></trkpt><trkpt lat="38.06607" lon="15.8046667"><ele>1137.8000000000002</ele><time>2026-04-25T08:15:04.816Z</time></trkpt><trkpt lat="38.0660767" lon="15.8047883"><ele>1138.4</ele><time>2026-04-25T08:15:05.817Z</time></trkpt><trkpt lat="38.066085" lon="15.8048967"><ele>1139.0</ele><time>2026-04-25T08:15:06.817Z</time></trkpt><trkpt lat="38.0660917" lon="15.805005"><ele>1139.0</ele><time>2026-04-25T08:15:07.817Z</time></trkpt><trkpt lat="38.0660967" lon="15.8051"><ele>1139.0</ele><time>2026-04-25T08:15:08.816Z</time></trkpt><trkpt lat="38.0660933" lon="15.8051933"><ele>1139.0</ele><time>2026-04-25T08:15:09.816Z</time></trkpt><trkpt lat="38.06609" lon="15.80529"><ele>1139.0</ele><time>2026-04-25T08:15:10.816Z</time></trkpt><trkpt lat="38.0660883" lon="15.8053967"><ele>1139.0</ele><time>2026-04-25T08:15:11.817Z</time></trkpt><trkpt lat="38.0660883" lon="15.8055117"><ele>1139.0</ele><time>2026-04-25T08:15:12.816Z</time></trkpt><trkpt lat="38.0661" lon="15.8056633"><ele>1139.5</ele><time>2026-04-25T08:15:13.816Z</time></trkpt><trkpt lat="38.0661267" lon="15.8058217"><ele>1140.0</ele><time>2026-04-25T08:15:14.817Z</time></trkpt><trkpt lat="38.06615" lon="15.8059933"><ele>1140.5</ele><time>2026-04-25T08:15:15.817Z</time></trkpt><trkpt lat="38.0661667" lon="15.8061667"><ele>1141.0</ele><time>2026-04-25T08:15:16.817Z</time></trkpt><trkpt lat="38.0661917" lon="15.8063383"><ele>1141.5</ele><time>2026-04-25T08:15:17.816Z</time></trkpt><trkpt lat="38.0662183" lon="15.8064983"><ele>1142.0</ele><time>2026-04-25T08:15:18.817Z</time></trkpt><trkpt lat="38.0662317" lon="15.8066517"><ele>1142.5</ele><time>2026-04-25T08:15:19.816Z</time></trkpt><trkpt lat="38.0662583" lon="15.8067783"><ele>1143.0</ele><time>2026-04-25T08:15:20.817Z</time></trkpt><trkpt lat="38.06629" lon="15.806925"><ele>1143.6</ele><time>2026-04-25T08:15:21.817Z</time></trkpt><trkpt lat="38.0663183" lon="15.8070667"><ele>1144.1999999999998</ele><time>2026-04-25T08:15:22.817Z</time></trkpt><trkpt lat="38.0663567" lon="15.8072067"><ele>1144.8</ele><time>2026-04-25T08:15:23.817Z</time></trkpt><trkpt lat="38.0663983" lon="15.80734"><ele>1145.3999999999999</ele><time>2026-04-25T08:15:24.816Z</time></trkpt><trkpt lat="38.066435" lon="15.80746"><ele>1146.0</ele><time>2026-04-25T08:15:25.817Z</time></trkpt><trkpt lat="38.066485" lon="15.807585"><ele>1147.0</ele><time>2026-04-25T08:15:26.817Z</time></trkpt><trkpt lat="38.0665333" lon="15.8077083"><ele>1148.0</ele><time>2026-04-25T08:15:27.817Z</time></trkpt><trkpt lat="38.0665717" lon="15.8078483"><ele>1149.0</ele><time>2026-04-25T08:15:28.816Z</time></trkpt><trkpt lat="38.0666017" lon="15.8079933"><ele>1150.0</ele><time>2026-04-25T08:15:29.817Z</time></trkpt><trkpt lat="38.0666217" lon="15.8081383"><ele>1150.0</ele><time>2026-04-25T08:15:30.817Z</time></trkpt><trkpt lat="38.0666367" lon="15.8082983"><ele>1150.0</ele><time>2026-04-25T08:15:31.817Z</time></trkpt><trkpt lat="38.06664" lon="15.808455"><ele>1150.0</ele><time>2026-04-25T08:15:32.817Z</time></trkpt><trkpt lat="38.0666383" lon="15.808585"><ele>1150.0</ele><time>2026-04-25T08:15:33.817Z</time></trkpt><trkpt lat="38.0666667" lon="15.8087317"><ele>1150.0</ele><time>2026-04-25T08:15:34.817Z</time></trkpt><trkpt lat="38.0666917" lon="15.8088617"><ele>1150.0</ele><time>2026-04-25T08:15:35.816Z</time></trkpt><trkpt lat="38.0667317" lon="15.8089967"><ele>1150.0</ele><time>2026-04-25T08:15:36.817Z</time></trkpt><trkpt lat="38.0667683" lon="15.8091267"><ele>1150.0</ele><time>2026-04-25T08:15:37.816Z</time></trkpt><trkpt lat="38.06682" lon="15.809275"><ele>1150.25</ele><time>2026-04-25T08:15:38.817Z</time></trkpt><trkpt lat="38.0668733" lon="15.809425"><ele>1150.5</ele><time>2026-04-25T08:15:39.817Z</time></trkpt><trkpt lat="38.0669383" lon="15.809595"><ele>1150.75</ele><time>2026-04-25T08:15:40.817Z</time></trkpt><trkpt lat="38.0669983" lon="15.809745"><ele>1151.0</ele><time>2026-04-25T08:15:41.816Z</time></trkpt><trkpt lat="38.0670717" lon="15.80989"><ele>1151.0</ele><time>2026-04-25T08:15:42.817Z</time></trkpt><trkpt lat="38.0671417" lon="15.8100333"><ele>1151.0</ele><time>2026-04-25T08:15:43.817Z</time></trkpt><trkpt lat="38.06719" lon="15.810125"><ele>1151.0</ele><time>2026-04-25T08:15:44.817Z</time></trkpt><trkpt lat="38.0672417" lon="15.8102283"><ele>1151.0</ele><time>2026-04-25T08:15:45.816Z</time></trkpt><trkpt lat="38.0673" lon="15.81033"><ele>1151.0</ele><time>2026-04-25T08:15:46.817Z</time></trkpt><trkpt lat="38.0673517" lon="15.8104133"><ele>1152.0</ele><time>2026-04-25T08:15:47.817Z</time></trkpt><trkpt lat="38.0673983" lon="15.8104933"><ele>1153.0</ele><time>2026-04-25T08:15:48.817Z</time></trkpt><trkpt lat="38.0674417" lon="15.810565"><ele>1154.0</ele><time>2026-04-25T08:15:49.816Z</time></trkpt><trkpt lat="38.0674867" lon="15.8106367"><ele>1155.0</ele><time>2026-04-25T08:15:50.817Z</time></trkpt><trkpt lat="38.0675383" lon="15.8106933"><ele>1156.0</ele><time>2026-04-25T08:15:51.816Z</time></trkpt><trkpt lat="38.0676083" lon="15.8107783"><ele>1157.0</ele><time>2026-04-25T08:15:53.817Z</time></trkpt><trkpt lat="38.0677017" lon="15.8108567"><ele>1157.2</ele><time>2026-04-25T08:15:55.816Z</time></trkpt><trkpt lat="38.0677633" lon="15.8108883"><ele>1157.4</ele><time>2026-04-25T08:15:56.817Z</time></trkpt><trkpt lat="38.067825" lon="15.81095"><ele>1157.6</ele><time>2026-04-25T08:15:57.817Z</time></trkpt><trkpt lat="38.0679067" lon="15.811025"><ele>1157.8</ele><time>2026-04-25T08:15:58.817Z</time></trkpt><trkpt lat="38.0680317" lon="15.8111333"><ele>1158.0</ele><time>2026-04-25T08:15:59.817Z</time></trkpt><trkpt lat="38.06812" lon="15.8112067"><ele>1158.4</ele><time>2026-04-25T08:16:00.817Z</time></trkpt><trkpt lat="38.0681883" lon="15.8112783"><ele>1158.8</ele><time>2026-04-25T08:16:01.816Z</time></trkpt><trkpt lat="38.0682583" lon="15.8113533"><ele>1159.2</ele><time>2026-04-25T08:16:02.817Z</time></trkpt><trkpt lat="38.06833" lon="15.8114533"><ele>1159.6</ele><time>2026-04-25T08:16:03.817Z</time></trkpt><trkpt lat="38.068405" lon="15.8115517"><ele>1160.0</ele><time>2026-04-25T08:16:04.817Z</time></trkpt><trkpt lat="38.0683883" lon="15.8117533"><ele>1161.0</ele><time>2026-04-25T08:16:05.816Z</time></trkpt><trkpt lat="38.0684267" lon="15.8118967"><ele>1162.0</ele><time>2026-04-25T08:16:06.817Z</time></trkpt><trkpt lat="38.0684583" lon="15.8120583"><ele>1163.0</ele><time>2026-04-25T08:16:07.817Z</time></trkpt><trkpt lat="38.068505" lon="15.8122033"><ele>1164.0</ele><time>2026-04-25T08:16:08.817Z</time></trkpt><trkpt lat="38.0685717" lon="15.8123317"><ele>1164.0</ele><time>2026-04-25T08:16:09.817Z</time></trkpt><trkpt lat="38.0686417" lon="15.81246"><ele>1164.0</ele><time>2026-04-25T08:16:10.817Z</time></trkpt><trkpt lat="38.0687233" lon="15.8125983"><ele>1164.0</ele><time>2026-04-25T08:16:11.817Z</time></trkpt><trkpt lat="38.0688083" lon="15.8127417"><ele>1164.0</ele><time>2026-04-25T08:16:12.817Z</time></trkpt><trkpt lat="38.0688917" lon="15.8128867"><ele>1164.25</ele><time>2026-04-25T08:16:13.817Z</time></trkpt><trkpt lat="38.068975" lon="15.81303"><ele>1164.5</ele><time>2026-04-25T08:16:14.817Z</time></trkpt><trkpt lat="38.06904" lon="15.8131817"><ele>1164.75</ele><time>2026-04-25T08:16:15.816Z</time></trkpt><trkpt lat="38.0691133" lon="15.8133133"><ele>1165.0</ele><time>2026-04-25T08:16:16.817Z</time></trkpt><trkpt lat="38.0692" lon="15.8134283"><ele>1166.25</ele><time>2026-04-25T08:16:17.817Z</time></trkpt><trkpt lat="38.0692867" lon="15.8135433"><ele>1167.5</ele><time>2026-04-25T08:16:18.817Z</time></trkpt><trkpt lat="38.0693833" lon="15.8136617"><ele>1168.75</ele><time>2026-04-25T08:16:19.817Z</time></trkpt><trkpt lat="38.0694833" lon="15.8137633"><ele>1170.0</ele><time>2026-04-25T08:16:20.816Z</time></trkpt><trkpt lat="38.06957" lon="15.8138583"><ele>1170.0</ele><time>2026-04-25T08:16:21.817Z</time></trkpt><trkpt lat="38.0696267" lon="15.8139567"><ele>1170.0</ele><time>2026-04-25T08:16:22.816Z</time></trkpt><trkpt lat="38.0697033" lon="15.8140733"><ele>1170.0</ele><time>2026-04-25T08:16:23.817Z</time></trkpt><trkpt lat="38.0697683" lon="15.8141933"><ele>1170.0</ele><time>2026-04-25T08:16:24.817Z</time></trkpt><trkpt lat="38.0698183" lon="15.81432"><ele>1170.0</ele><time>2026-04-25T08:16:25.817Z</time></trkpt><trkpt lat="38.069895" lon="15.8144317"><ele>1170.75</ele><time>2026-04-25T08:16:26.817Z</time></trkpt><trkpt lat="38.069945" lon="15.8145483"><ele>1171.5</ele><time>2026-04-25T08:16:27.817Z</time></trkpt><trkpt lat="38.06997" lon="15.814685"><ele>1172.25</ele><time>2026-04-25T08:16:28.816Z</time></trkpt><trkpt lat="38.06999" lon="15.8148767"><ele>1173.0</ele><time>2026-04-25T08:16:29.816Z</time></trkpt><trkpt lat="38.0700183" lon="15.8150767"><ele>1173.5</ele><time>2026-04-25T08:16:30.816Z</time></trkpt><trkpt lat="38.070045" lon="15.815235"><ele>1174.0</ele><time>2026-04-25T08:16:31.817Z</time></trkpt><trkpt lat="38.070105" lon="15.815425"><ele>1174.5</ele><time>2026-04-25T08:16:32.816Z</time></trkpt><trkpt lat="38.070155" lon="15.8155983"><ele>1175.0</ele><time>2026-04-25T08:16:33.817Z</time></trkpt><trkpt lat="38.0702033" lon="15.81575"><ele>1175.0</ele><time>2026-04-25T08:16:34.816Z</time></trkpt><trkpt lat="38.070245" lon="15.815885"><ele>1175.0</ele><time>2026-04-25T08:16:35.816Z</time></trkpt><trkpt lat="38.0702717" lon="15.815995"><ele>1175.0</ele><time>2026-04-25T08:16:36.817Z</time></trkpt><trkpt lat="38.070305" lon="15.8161167"><ele>1175.0</ele><time>2026-04-25T08:16:37.817Z</time></trkpt><trkpt lat="38.070345" lon="15.81623"><ele>1175.0</ele><time>2026-04-25T08:16:39.816Z</time></trkpt><trkpt lat="38.0703583" lon="15.8163817"><ele>1175.0</ele><time>2026-04-25T08:16:41.816Z</time></trkpt><trkpt lat="38.070365" lon="15.8164633"><ele>1175.0</ele><time>2026-04-25T08:16:42.817Z</time></trkpt><trkpt lat="38.07037" lon="15.8165783"><ele>1175.0</ele><time>2026-04-25T08:16:43.817Z</time></trkpt><trkpt lat="38.0703817" lon="15.8166933"><ele>1175.0</ele><time>2026-04-25T08:16:44.816Z</time></trkpt><trkpt lat="38.070355" lon="15.8168467"><ele>1175.0</ele><time>2026-04-25T08:16:45.816Z</time></trkpt><trkpt lat="38.0703667" lon="15.8170183"><ele>1176.0</ele><time>2026-04-25T08:16:46.817Z</time></trkpt><trkpt lat="38.07039" lon="15.8171867"><ele>1177.0</ele><time>2026-04-25T08:16:47.817Z</time></trkpt><trkpt lat="38.0704417" lon="15.8174017"><ele>1178.0</ele><time>2026-04-25T08:16:48.817Z</time></trkpt><trkpt lat="38.07051" lon="15.8176283"><ele>1179.0</ele><time>2026-04-25T08:16:49.817Z</time></trkpt><trkpt lat="38.0705767" lon="15.817865"><ele>1180.0</ele><time>2026-04-25T08:16:50.816Z</time></trkpt><trkpt lat="38.0706333" lon="15.818105"><ele>1181.0</ele><time>2026-04-25T08:16:51.817Z</time></trkpt><trkpt lat="38.07068" lon="15.8183283"><ele>1181.0</ele><time>2026-04-25T08:16:52.817Z</time></trkpt><trkpt lat="38.0707383" lon="15.8185617"><ele>1181.0</ele><time>2026-04-25T08:16:53.817Z</time></trkpt><trkpt lat="38.0707967" lon="15.8187983"><ele>1181.0</ele><time>2026-04-25T08:16:54.817Z</time></trkpt><trkpt lat="38.070845" lon="15.819015"><ele>1181.0</ele><time>2026-04-25T08:16:55.816Z</time></trkpt><trkpt lat="38.070885" lon="15.8192233"><ele>1181.0</ele><time>2026-04-25T08:16:56.816Z</time></trkpt><trkpt lat="38.07094" lon="15.8194317"><ele>1181.0</ele><time>2026-04-25T08:16:57.817Z</time></trkpt><trkpt lat="38.0709833" lon="15.8196367"><ele>1182.6666666666667</ele><time>2026-04-25T08:16:58.817Z</time></trkpt><trkpt lat="38.0710167" lon="15.81984"><ele>1184.3333333333333</ele><time>2026-04-25T08:16:59.817Z</time></trkpt><trkpt lat="38.0710567" lon="15.82005"><ele>1186.0</ele><time>2026-04-25T08:17:00.817Z</time></trkpt><trkpt lat="38.071095" lon="15.8202533"><ele>1186.0</ele><time>2026-04-25T08:17:01.817Z</time></trkpt><trkpt lat="38.0711183" lon="15.8204467"><ele>1186.0</ele><time>2026-04-25T08:17:02.817Z</time></trkpt><trkpt lat="38.07112" lon="15.8206167"><ele>1186.0</ele><time>2026-04-25T08:17:03.817Z</time></trkpt><trkpt lat="38.0711167" lon="15.820795"><ele>1186.0</ele><time>2026-04-25T08:17:04.817Z</time></trkpt><trkpt lat="38.0711433" lon="15.820985"><ele>1186.75</ele><time>2026-04-25T08:17:05.816Z</time></trkpt><trkpt lat="38.071175" lon="15.8211617"><ele>1187.5</ele><time>2026-04-25T08:17:06.817Z</time></trkpt><trkpt lat="38.0712067" lon="15.8213167"><ele>1188.25</ele><time>2026-04-25T08:17:07.817Z</time></trkpt><trkpt lat="38.07124" lon="15.82148"><ele>1189.0</ele><time>2026-04-25T08:17:08.817Z</time></trkpt><trkpt lat="38.07129" lon="15.8216383"><ele>1189.0</ele><time>2026-04-25T08:17:09.817Z</time></trkpt><trkpt lat="38.071345" lon="15.8217983"><ele>1189.0</ele><time>2026-04-25T08:17:10.817Z</time></trkpt><trkpt lat="38.0714017" lon="15.82195"><ele>1189.0</ele><time>2026-04-25T08:17:11.816Z</time></trkpt><trkpt lat="38.0715167" lon="15.8220283"><ele>1189.0</ele><time>2026-04-25T08:17:12.817Z</time></trkpt><trkpt lat="38.0715933" lon="15.8221417"><ele>1189.8</ele><time>2026-04-25T08:17:13.817Z</time></trkpt><trkpt lat="38.0716617" lon="15.82221"><ele>1190.6000000000001</ele><time>2026-04-25T08:17:14.817Z</time></trkpt><trkpt lat="38.07174" lon="15.8222833"><ele>1191.4</ele><time>2026-04-25T08:17:15.817Z</time></trkpt><trkpt lat="38.0717933" lon="15.8223533"><ele>1192.2</ele><time>2026-04-25T08:17:16.816Z</time></trkpt><trkpt lat="38.07168" lon="15.8223983"><ele>1193.0</ele><time>2026-04-25T08:17:20.816Z</time></trkpt><trkpt lat="38.0716017" lon="15.82239"><ele>1193.0</ele><time>2026-04-25T08:17:22.817Z</time></trkpt><trkpt lat="38.0715167" lon="15.8222517"><ele>1193.0</ele><time>2026-04-25T08:17:24.816Z</time></trkpt><trkpt lat="38.0714633" lon="15.8221183"><ele>1193.0</ele><time>2026-04-25T08:17:26.817Z</time></trkpt><trkpt lat="38.0713867" lon="15.8220217"><ele>1193.0</ele><time>2026-04-25T08:17:28.817Z</time></trkpt><trkpt lat="38.07132" lon="15.8219517"><ele>1193.0</ele><time>2026-04-25T08:17:31.817Z</time></trkpt><trkpt lat="38.07139" lon="15.8220033"><ele>1193.0</ele><time>2026-04-25T08:17:44.816Z</time></trkpt><trkpt lat="38.0713133" lon="15.8220717"><ele>1193.0</ele><time>2026-04-25T08:19:05.817Z</time></trkpt><trkpt lat="38.07131" lon="15.8223117"><ele>1193.0</ele><time>2026-04-25T08:23:13.817Z</time></trkpt><trkpt lat="38.0714383" lon="15.822215"><ele>1193.0</ele><time>2026-04-25T08:23:53.817Z</time></trkpt><trkpt lat="38.0714667" lon="15.822105"><ele>1193.0</ele><time>2026-04-25T08:24:01.817Z</time></trkpt><trkpt lat="38.0714633" lon="15.8220167"><ele>1193.0</ele><time>2026-04-25T08:24:17.817Z</time></trkpt><trkpt lat="38.0713867" lon="15.822055"><ele>1193.0</ele><time>2026-04-25T08:26:10.817Z</time></trkpt><trkpt lat="38.0713083" lon="15.822115"><ele>1193.0</ele><time>2026-04-25T08:26:36.817Z</time></trkpt><trkpt lat="38.0712633" lon="15.8221733"><ele>1193.0</ele><time>2026-04-25T08:26:41.816Z</time></trkpt><trkpt lat="38.07131" lon="15.82206"><ele>1193.0</ele><time>2026-04-25T08:27:30.817Z</time></trkpt><trkpt lat="38.0714133" lon="15.8220833"><ele>1193.0</ele><time>2026-04-25T08:27:31.817Z</time></trkpt><trkpt lat="38.0715167" lon="15.822025"><ele>1193.0</ele><time>2026-04-25T08:27:32.816Z</time></trkpt><trkpt lat="38.071585" lon="15.8220367"><ele>1193.0</ele><time>2026-04-25T08:27:33.817Z</time></trkpt><trkpt lat="38.07169" lon="15.8220667"><ele>1193.0</ele><time>2026-04-25T08:27:35.816Z</time></trkpt><trkpt lat="38.07177" lon="15.82207"><ele>1193.0</ele><time>2026-04-25T08:27:38.817Z</time></trkpt><trkpt lat="38.0718" lon="15.8221467"><ele>1193.0</ele><time>2026-04-25T08:27:41.817Z</time></trkpt><trkpt lat="38.0718183" lon="15.8222267"><ele>1193.0</ele><time>2026-04-25T08:27:44.817Z</time></trkpt><trkpt lat="38.0717883" lon="15.8223333"><ele>1193.0</ele><time>2026-04-25T08:27:48.817Z</time></trkpt><trkpt lat="38.071705" lon="15.8224567"><ele>1193.0</ele><time>2026-04-25T08:27:50.817Z</time></trkpt><trkpt lat="38.0716383" lon="15.82255"><ele>1193.0</ele><time>2026-04-25T08:27:51.817Z</time></trkpt><trkpt lat="38.0715817" lon="15.8226367"><ele>1194.25</ele><time>2026-04-25T08:27:52.817Z</time></trkpt><trkpt lat="38.0714917" lon="15.8227683"><ele>1195.5</ele><time>2026-04-25T08:27:53.816Z</time></trkpt><trkpt lat="38.071395" lon="15.822875"><ele>1196.75</ele><time>2026-04-25T08:27:54.817Z</time></trkpt><trkpt lat="38.0713017" lon="15.8229933"><ele>1198.0</ele><time>2026-04-25T08:27:55.817Z</time></trkpt><trkpt lat="38.0712133" lon="15.8231033"><ele>1198.0</ele><time>2026-04-25T08:27:56.817Z</time></trkpt><trkpt lat="38.0711283" lon="15.823225"><ele>1198.0</ele><time>2026-04-25T08:27:57.817Z</time></trkpt><trkpt lat="38.0710483" lon="15.823325"><ele>1198.0</ele><time>2026-04-25T08:27:58.817Z</time></trkpt><trkpt lat="38.0709767" lon="15.823435"><ele>1198.0</ele><time>2026-04-25T08:27:59.816Z</time></trkpt><trkpt lat="38.0709217" lon="15.8235517"><ele>1197.0</ele><time>2026-04-25T08:28:00.816Z</time></trkpt><trkpt lat="38.07084" lon="15.8236917"><ele>1196.0</ele><time>2026-04-25T08:28:01.815Z</time></trkpt><trkpt lat="38.0707683" lon="15.82387"><ele>1195.0</ele><time>2026-04-25T08:28:02.816Z</time></trkpt><trkpt lat="38.07071" lon="15.8240583"><ele>1195.0</ele><time>2026-04-25T08:28:03.816Z</time></trkpt><trkpt lat="38.0706717" lon="15.8242333"><ele>1195.0</ele><time>2026-04-25T08:28:04.816Z</time></trkpt><trkpt lat="38.070635" lon="15.8244167"><ele>1195.0</ele><time>2026-04-25T08:28:05.815Z</time></trkpt><trkpt lat="38.0706183" lon="15.8246017"><ele>1195.0</ele><time>2026-04-25T08:28:06.816Z</time></trkpt><trkpt lat="38.0705317" lon="15.8249133"><ele>1199.0</ele><time>2026-04-25T08:28:07.815Z</time></trkpt><trkpt lat="38.07051" lon="15.8251117"><ele>1203.0</ele><time>2026-04-25T08:28:08.815Z</time></trkpt><trkpt lat="38.07052" lon="15.8254867"><ele>1205.6666666666667</ele><time>2026-04-25T08:28:09.816Z</time></trkpt><trkpt lat="38.07049" lon="15.8257683"><ele>1208.3333333333335</ele><time>2026-04-25T08:28:10.816Z</time></trkpt><trkpt lat="38.070445" lon="15.8259733"><ele>1211.0</ele><time>2026-04-25T08:28:11.815Z</time></trkpt><trkpt lat="38.070415" lon="15.8261933"><ele>1213.0</ele><time>2026-04-25T08:28:12.816Z</time></trkpt><trkpt lat="38.0703733" lon="15.8263633"><ele>1215.0</ele><time>2026-04-25T08:28:13.816Z</time></trkpt><trkpt lat="38.070335" lon="15.8265267"><ele>1217.0</ele><time>2026-04-25T08:28:14.815Z</time></trkpt><trkpt lat="38.07029" lon="15.8266217"><ele>1219.0</ele><time>2026-04-25T08:28:15.816Z</time></trkpt><trkpt lat="38.0702733" lon="15.8267933"><ele>1218.142857142857</ele><time>2026-04-25T08:28:17.816Z</time></trkpt><trkpt lat="38.0702667" lon="15.8269017"><ele>1217.2857142857142</ele><time>2026-04-25T08:28:18.816Z</time></trkpt><trkpt lat="38.0702567" lon="15.8269983"><ele>1216.4285714285716</ele><time>2026-04-25T08:28:19.816Z</time></trkpt><trkpt lat="38.0702533" lon="15.8270917"><ele>1215.5714285714284</ele><time>2026-04-25T08:28:20.816Z</time></trkpt><trkpt lat="38.070255" lon="15.8271833"><ele>1214.7142857142856</ele><time>2026-04-25T08:28:21.815Z</time></trkpt><trkpt lat="38.0702567" lon="15.8272633"><ele>1213.857142857143</ele><time>2026-04-25T08:28:22.816Z</time></trkpt><trkpt lat="38.0702517" lon="15.827355"><ele>1213.0</ele><time>2026-04-25T08:28:23.815Z</time></trkpt><trkpt lat="38.0702517" lon="15.8274433"><ele>1213.0</ele><time>2026-04-25T08:28:24.816Z</time></trkpt><trkpt lat="38.0703567" lon="15.827595"><ele>1213.0</ele><time>2026-04-25T08:28:25.816Z</time></trkpt><trkpt lat="38.0703717" lon="15.8276783"><ele>1213.0</ele><time>2026-04-25T08:28:26.816Z</time></trkpt><trkpt lat="38.0704117" lon="15.8277617"><ele>1213.0</ele><time>2026-04-25T08:28:27.815Z</time></trkpt><trkpt lat="38.0704283" lon="15.82786"><ele>1213.0</ele><time>2026-04-25T08:28:28.816Z</time></trkpt><trkpt lat="38.0706117" lon="15.8277767"><ele>1212.0</ele><time>2026-04-25T08:28:29.816Z</time></trkpt><trkpt lat="38.0706933" lon="15.8277717"><ele>1211.0</ele><time>2026-04-25T08:28:30.816Z</time></trkpt><trkpt lat="38.070725" lon="15.827865"><ele>1210.0</ele><time>2026-04-25T08:28:32.816Z</time></trkpt><trkpt lat="38.0707417" lon="15.827945"><ele>1209.0</ele><time>2026-04-25T08:28:33.816Z</time></trkpt><trkpt lat="38.070775" lon="15.8280183"><ele>1208.0</ele><time>2026-04-25T08:28:35.815Z</time></trkpt><trkpt lat="38.0707917" lon="15.8281533"><ele>1207.0</ele><time>2026-04-25T08:28:37.816Z</time></trkpt><trkpt lat="38.0707267" lon="15.8281767"><ele>1207.0</ele><time>2026-04-25T08:28:39.816Z</time></trkpt><trkpt lat="38.0707717" lon="15.82836"><ele>1207.0</ele><time>2026-04-25T08:28:41.816Z</time></trkpt><trkpt lat="38.070775" lon="15.82847"><ele>1207.0</ele><time>2026-04-25T08:28:42.816Z</time></trkpt><trkpt lat="38.07076" lon="15.8286233"><ele>1207.0</ele><time>2026-04-25T08:28:44.816Z</time></trkpt><trkpt lat="38.0707733" lon="15.8287017"><ele>1207.0</ele><time>2026-04-25T08:28:45.815Z</time></trkpt><trkpt lat="38.0707917" lon="15.8287817"><ele>1205.3333333333333</ele><time>2026-04-25T08:28:46.815Z</time></trkpt><trkpt lat="38.07081" lon="15.828865"><ele>1203.6666666666665</ele><time>2026-04-25T08:28:47.815Z</time></trkpt><trkpt lat="38.0708283" lon="15.8289483"><ele>1202.0</ele><time>2026-04-25T08:28:48.816Z</time></trkpt><trkpt lat="38.0708433" lon="15.829035"><ele>1200.3333333333333</ele><time>2026-04-25T08:28:49.816Z</time></trkpt><trkpt lat="38.0708633" lon="15.82912"><ele>1198.6666666666667</ele><time>2026-04-25T08:28:50.816Z</time></trkpt><trkpt lat="38.0708867" lon="15.8292033"><ele>1197.0</ele><time>2026-04-25T08:28:51.816Z</time></trkpt><trkpt lat="38.0710033" lon="15.82954"><ele>1194.3333333333333</ele><time>2026-04-25T08:28:55.817Z</time></trkpt><trkpt lat="38.07127" lon="15.8296"><ele>1191.6666666666665</ele><time>2026-04-25T08:28:57.816Z</time></trkpt><trkpt lat="38.0712233" lon="15.8295217"><ele>1189.0</ele><time>2026-04-25T08:28:58.816Z</time></trkpt><trkpt lat="38.0714233" lon="15.8293567"><ele>1190.6000000000001</ele><time>2026-04-25T08:28:59.816Z</time></trkpt><trkpt lat="38.0715733" lon="15.8292617"><ele>1192.2</ele><time>2026-04-25T08:29:00.816Z</time></trkpt><trkpt lat="38.0716433" lon="15.8292783"><ele>1193.8000000000002</ele><time>2026-04-25T08:29:01.817Z</time></trkpt><trkpt lat="38.07157" lon="15.8292733"><ele>1195.4</ele><time>2026-04-25T08:29:03.816Z</time></trkpt><trkpt lat="38.0714767" lon="15.82928"><ele>1197.0</ele><time>2026-04-25T08:29:04.817Z</time></trkpt><trkpt lat="38.0713917" lon="15.8292917"><ele>1195.4</ele><time>2026-04-25T08:29:05.816Z</time></trkpt><trkpt lat="38.0713217" lon="15.8293183"><ele>1193.8000000000002</ele><time>2026-04-25T08:29:06.817Z</time></trkpt><trkpt lat="38.0712367" lon="15.82933"><ele>1192.2</ele><time>2026-04-25T08:29:07.817Z</time></trkpt><trkpt lat="38.07114" lon="15.8293367"><ele>1190.6000000000001</ele><time>2026-04-25T08:29:08.817Z</time></trkpt><trkpt lat="38.071035" lon="15.82935"><ele>1189.0</ele><time>2026-04-25T08:29:09.817Z</time></trkpt><trkpt lat="38.0709433" lon="15.82949"><ele>1189.0</ele><time>2026-04-25T08:29:11.816Z</time></trkpt><trkpt lat="38.07088" lon="15.8295867"><ele>1189.0</ele><time>2026-04-25T08:29:12.817Z</time></trkpt><trkpt lat="38.070825" lon="15.82967"><ele>1189.0</ele><time>2026-04-25T08:29:13.817Z</time></trkpt><trkpt lat="38.0707717" lon="15.8297783"><ele>1189.0</ele><time>2026-04-25T08:29:15.817Z</time></trkpt><trkpt lat="38.0707517" lon="15.8298833"><ele>1189.0</ele><time>2026-04-25T08:29:18.817Z</time></trkpt><trkpt lat="38.0706783" lon="15.8299417"><ele>1187.25</ele><time>2026-04-25T08:29:20.817Z</time></trkpt><trkpt lat="38.0705367" lon="15.829985"><ele>1185.5</ele><time>2026-04-25T08:29:22.817Z</time></trkpt><trkpt lat="38.07042" lon="15.8299883"><ele>1183.75</ele><time>2026-04-25T08:29:24.817Z</time></trkpt><trkpt lat="38.0703117" lon="15.8299467"><ele>1182.0</ele><time>2026-04-25T08:29:26.816Z</time></trkpt><trkpt lat="38.0702483" lon="15.8298783"><ele>1182.0</ele><time>2026-04-25T08:29:27.817Z</time></trkpt><trkpt lat="38.0701717" lon="15.8298517"><ele>1182.0</ele><time>2026-04-25T08:29:28.816Z</time></trkpt><trkpt lat="38.0700883" lon="15.8298483"><ele>1182.0</ele><time>2026-04-25T08:29:29.816Z</time></trkpt><trkpt lat="38.0699967" lon="15.8298367"><ele>1182.0</ele><time>2026-04-25T08:29:30.816Z</time></trkpt><trkpt lat="38.0699" lon="15.8298483"><ele>1182.0</ele><time>2026-04-25T08:29:31.816Z</time></trkpt><trkpt lat="38.0698167" lon="15.8298467"><ele>1182.0</ele><time>2026-04-25T08:29:32.817Z</time></trkpt><trkpt lat="38.0697167" lon="15.829835"><ele>1178.75</ele><time>2026-04-25T08:29:33.816Z</time></trkpt><trkpt lat="38.0695967" lon="15.8297967"><ele>1175.5</ele><time>2026-04-25T08:29:34.817Z</time></trkpt><trkpt lat="38.0694833" lon="15.829795"><ele>1172.25</ele><time>2026-04-25T08:29:35.816Z</time></trkpt><trkpt lat="38.0693383" lon="15.8298017"><ele>1169.0</ele><time>2026-04-25T08:29:36.816Z</time></trkpt><trkpt lat="38.06921" lon="15.8298117"><ele>1163.8</ele><time>2026-04-25T08:29:37.817Z</time></trkpt><trkpt lat="38.069095" lon="15.8298267"><ele>1158.6000000000001</ele><time>2026-04-25T08:29:38.817Z</time></trkpt><trkpt lat="38.0689733" lon="15.82984"><ele>1153.4</ele><time>2026-04-25T08:29:39.817Z</time></trkpt><trkpt lat="38.068905" lon="15.829865"><ele>1148.2</ele><time>2026-04-25T08:29:40.816Z</time></trkpt><trkpt lat="38.06886" lon="15.8299267"><ele>1143.0</ele><time>2026-04-25T08:29:41.816Z</time></trkpt><trkpt lat="38.0687933" lon="15.8300383"><ele>1146.3333333333333</ele><time>2026-04-25T08:29:43.816Z</time></trkpt><trkpt lat="38.0689433" lon="15.8302733"><ele>1149.6666666666665</ele><time>2026-04-25T08:29:44.816Z</time></trkpt><trkpt lat="38.0690467" lon="15.8303933"><ele>1153.0</ele><time>2026-04-25T08:29:45.817Z</time></trkpt><trkpt lat="38.0691283" lon="15.8305133"><ele>1153.0</ele><time>2026-04-25T08:29:46.816Z</time></trkpt><trkpt lat="38.069195" lon="15.830615"><ele>1153.0</ele><time>2026-04-25T08:29:47.817Z</time></trkpt><trkpt lat="38.0692567" lon="15.830715"><ele>1153.0</ele><time>2026-04-25T08:29:48.816Z</time></trkpt><trkpt lat="38.0693083" lon="15.8308033"><ele>1153.0</ele><time>2026-04-25T08:29:49.817Z</time></trkpt><trkpt lat="38.0693017" lon="15.8309083"><ele>1153.0</ele><time>2026-04-25T08:29:50.817Z</time></trkpt><trkpt lat="38.069315" lon="15.831005"><ele>1148.4</ele><time>2026-04-25T08:29:51.816Z</time></trkpt><trkpt lat="38.0693233" lon="15.8311033"><ele>1143.8</ele><time>2026-04-25T08:29:52.817Z</time></trkpt><trkpt lat="38.0693333" lon="15.8312"><ele>1139.2</ele><time>2026-04-25T08:29:53.816Z</time></trkpt><trkpt lat="38.0693883" lon="15.8313317"><ele>1134.6</ele><time>2026-04-25T08:29:55.816Z</time></trkpt><trkpt lat="38.06953" lon="15.831395"><ele>1130.0</ele><time>2026-04-25T08:29:57.816Z</time></trkpt><trkpt lat="38.0695917" lon="15.83144"><ele>1130.0</ele><time>2026-04-25T08:29:58.817Z</time></trkpt><trkpt lat="38.0696583" lon="15.8314717"><ele>1130.0</ele><time>2026-04-25T08:29:59.816Z</time></trkpt><trkpt lat="38.0697533" lon="15.8314967"><ele>1130.0</ele><time>2026-04-25T08:30:01.816Z</time></trkpt><trkpt lat="38.069675" lon="15.8315667"><ele>1130.0</ele><time>2026-04-25T08:30:05.816Z</time></trkpt><trkpt lat="38.0696" lon="15.83165"><ele>1130.0</ele><time>2026-04-25T08:30:07.817Z</time></trkpt><trkpt lat="38.0696117" lon="15.8317483"><ele>1130.0</ele><time>2026-04-25T08:30:10.817Z</time></trkpt><trkpt lat="38.0697017" lon="15.8317617"><ele>1130.0</ele><time>2026-04-25T08:30:12.817Z</time></trkpt><trkpt lat="38.069775" lon="15.8317467"><ele>1130.0</ele><time>2026-04-25T08:30:14.817Z</time></trkpt><trkpt lat="38.069945" lon="15.831605"><ele>1130.0</ele><time>2026-04-25T08:30:15.817Z</time></trkpt><trkpt lat="38.0700517" lon="15.831545"><ele>1130.0</ele><time>2026-04-25T08:30:16.816Z</time></trkpt><trkpt lat="38.0701883" lon="15.8315383"><ele>1131.5</ele><time>2026-04-25T08:30:17.817Z</time></trkpt><trkpt lat="38.0703333" lon="15.8315"><ele>1133.0</ele><time>2026-04-25T08:30:18.817Z</time></trkpt><trkpt lat="38.070465" lon="15.83147"><ele>1134.5</ele><time>2026-04-25T08:30:19.816Z</time></trkpt><trkpt lat="38.070595" lon="15.8314467"><ele>1136.0</ele><time>2026-04-25T08:30:20.817Z</time></trkpt><trkpt lat="38.0707233" lon="15.8314183"><ele>1130.0</ele><time>2026-04-25T08:30:21.816Z</time></trkpt><trkpt lat="38.070845" lon="15.8314183"><ele>1124.0</ele><time>2026-04-25T08:30:22.816Z</time></trkpt><trkpt lat="38.070955" lon="15.8314417"><ele>1118.0</ele><time>2026-04-25T08:30:23.817Z</time></trkpt><trkpt lat="38.0710633" lon="15.8314417"><ele>1112.0</ele><time>2026-04-25T08:30:24.817Z</time></trkpt><trkpt lat="38.0711717" lon="15.8314467"><ele>1112.0</ele><time>2026-04-25T08:30:25.817Z</time></trkpt><trkpt lat="38.0712717" lon="15.83149"><ele>1112.0</ele><time>2026-04-25T08:30:26.816Z</time></trkpt><trkpt lat="38.0713667" lon="15.8315283"><ele>1112.0</ele><time>2026-04-25T08:30:27.817Z</time></trkpt><trkpt lat="38.0714533" lon="15.8315483"><ele>1112.0</ele><time>2026-04-25T08:30:28.817Z</time></trkpt><trkpt lat="38.07153" lon="15.8315683"><ele>1112.0</ele><time>2026-04-25T08:30:29.817Z</time></trkpt><trkpt lat="38.0715783" lon="15.8316533"><ele>1112.0</ele><time>2026-04-25T08:30:31.816Z</time></trkpt><trkpt lat="38.0714717" lon="15.8316267"><ele>1112.0</ele><time>2026-04-25T08:30:35.817Z</time></trkpt><trkpt lat="38.071325" lon="15.8315817"><ele>1112.0</ele><time>2026-04-25T08:30:37.817Z</time></trkpt><trkpt lat="38.0712417" lon="15.8315767"><ele>1112.0</ele><time>2026-04-25T08:30:38.817Z</time></trkpt><trkpt lat="38.0711517" lon="15.8316017"><ele>1112.0</ele><time>2026-04-25T08:30:39.817Z</time></trkpt><trkpt lat="38.0709917" lon="15.8317467"><ele>1105.75</ele><time>2026-04-25T08:30:40.817Z</time></trkpt><trkpt lat="38.0708483" lon="15.8318233"><ele>1099.5</ele><time>2026-04-25T08:30:41.817Z</time></trkpt><trkpt lat="38.0707533" lon="15.8318933"><ele>1093.25</ele><time>2026-04-25T08:30:42.817Z</time></trkpt><trkpt lat="38.07065" lon="15.8320017"><ele>1087.0</ele><time>2026-04-25T08:30:43.817Z</time></trkpt><trkpt lat="38.070555" lon="15.8320983"><ele>1087.0</ele><time>2026-04-25T08:30:44.817Z</time></trkpt><trkpt lat="38.0704667" lon="15.8321633"><ele>1087.0</ele><time>2026-04-25T08:30:45.816Z</time></trkpt><trkpt lat="38.0704" lon="15.832225"><ele>1087.0</ele><time>2026-04-25T08:30:46.816Z</time></trkpt><trkpt lat="38.0703233" lon="15.832305"><ele>1087.0</ele><time>2026-04-25T08:30:47.817Z</time></trkpt><trkpt lat="38.0702583" lon="15.8324367"><ele>1087.0</ele><time>2026-04-25T08:30:49.817Z</time></trkpt><trkpt lat="38.0702117" lon="15.8325767"><ele>1079.2</ele><time>2026-04-25T08:30:51.816Z</time></trkpt><trkpt lat="38.0701717" lon="15.8326567"><ele>1071.4</ele><time>2026-04-25T08:30:52.817Z</time></trkpt><trkpt lat="38.0701283" lon="15.83273"><ele>1063.6</ele><time>2026-04-25T08:30:53.816Z</time></trkpt><trkpt lat="38.0700883" lon="15.8328167"><ele>1055.8</ele><time>2026-04-25T08:30:54.817Z</time></trkpt><trkpt lat="38.0700267" lon="15.832955"><ele>1048.0</ele><time>2026-04-25T08:30:56.817Z</time></trkpt><trkpt lat="38.06995" lon="15.8330817"><ele>1050.8</ele><time>2026-04-25T08:30:58.816Z</time></trkpt><trkpt lat="38.0699133" lon="15.8331517"><ele>1053.6</ele><time>2026-04-25T08:30:59.817Z</time></trkpt><trkpt lat="38.0699017" lon="15.833235"><ele>1056.4</ele><time>2026-04-25T08:31:00.817Z</time></trkpt><trkpt lat="38.0698917" lon="15.8333267"><ele>1059.2</ele><time>2026-04-25T08:31:01.817Z</time></trkpt><trkpt lat="38.06983" lon="15.8334567"><ele>1062.0</ele><time>2026-04-25T08:31:03.816Z</time></trkpt><trkpt lat="38.0699967" lon="15.83357"><ele>1055.0</ele><time>2026-04-25T08:31:05.817Z</time></trkpt><trkpt lat="38.070185" lon="15.8335083"><ele>1048.0</ele><time>2026-04-25T08:31:06.816Z</time></trkpt><trkpt lat="38.07052" lon="15.8332633"><ele>1048.0</ele><time>2026-04-25T08:31:07.817Z</time></trkpt><trkpt lat="38.0704367" lon="15.8333883"><ele>1048.0</ele><time>2026-04-25T08:31:12.817Z</time></trkpt><trkpt lat="38.0703883" lon="15.8331717"><ele>1048.0</ele><time>2026-04-25T08:31:14.816Z</time></trkpt><trkpt lat="38.0703183" lon="15.8331717"><ele>1048.0</ele><time>2026-04-25T08:31:16.815Z</time></trkpt><trkpt lat="38.0701283" lon="15.83338"><ele>1048.0</ele><time>2026-04-25T08:31:17.816Z</time></trkpt><trkpt lat="38.0700533" lon="15.833385"><ele>1048.0</ele><time>2026-04-25T08:31:18.815Z</time></trkpt><trkpt lat="38.069635" lon="15.8333933"><ele>1046.0</ele><time>2026-04-25T08:31:20.816Z</time></trkpt><trkpt lat="38.0693417" lon="15.8334317"><ele>1044.0</ele><time>2026-04-25T08:31:21.816Z</time></trkpt><trkpt lat="38.0692267" lon="15.8334967"><ele>1042.0</ele><time>2026-04-25T08:31:22.816Z</time></trkpt><trkpt lat="38.068975" lon="15.8336067"><ele>1042.0</ele><time>2026-04-25T08:31:23.816Z</time></trkpt><trkpt lat="38.0688633" lon="15.83368"><ele>1042.0</ele><time>2026-04-25T08:31:24.815Z</time></trkpt><trkpt lat="38.068755" lon="15.8337667"><ele>1042.0</ele><time>2026-04-25T08:31:25.816Z</time></trkpt><trkpt lat="38.0686383" lon="15.83386"><ele>1042.0</ele><time>2026-04-25T08:31:26.815Z</time></trkpt><trkpt lat="38.0685417" lon="15.8339567"><ele>1042.0</ele><time>2026-04-25T08:31:27.815Z</time></trkpt><trkpt lat="38.06847" lon="15.83406"><ele>1042.0</ele><time>2026-04-25T08:31:28.815Z</time></trkpt><trkpt lat="38.0684067" lon="15.8341617"><ele>1042.0</ele><time>2026-04-25T08:31:29.816Z</time></trkpt><trkpt lat="38.0683567" lon="15.8342683"><ele>1042.0</ele><time>2026-04-25T08:31:30.816Z</time></trkpt><trkpt lat="38.0683083" lon="15.8343717"><ele>1042.0</ele><time>2026-04-25T08:31:31.815Z</time></trkpt><trkpt lat="38.068245" lon="15.8344783"><ele>1034.2</ele><time>2026-04-25T08:31:32.816Z</time></trkpt><trkpt lat="38.0681667" lon="15.8345817"><ele>1026.4</ele><time>2026-04-25T08:31:33.816Z</time></trkpt><trkpt lat="38.068115" lon="15.83468"><ele>1018.5999999999999</ele><time>2026-04-25T08:31:34.816Z</time></trkpt><trkpt lat="38.0680667" lon="15.8347817"><ele>1010.8</ele><time>2026-04-25T08:31:35.815Z</time></trkpt><trkpt lat="38.0679867" lon="15.83491"><ele>1003.0</ele><time>2026-04-25T08:31:37.815Z</time></trkpt><trkpt lat="38.0678917" lon="15.8349467"><ele>1003.0</ele><time>2026-04-25T08:31:38.815Z</time></trkpt><trkpt lat="38.06779" lon="15.8350117"><ele>1003.0</ele><time>2026-04-25T08:31:40.816Z</time></trkpt><trkpt lat="38.0676917" lon="15.8350267"><ele>1003.0</ele><time>2026-04-25T08:31:42.816Z</time></trkpt><trkpt lat="38.0676133" lon="15.8349367"><ele>1003.0</ele><time>2026-04-25T08:31:43.815Z</time></trkpt><trkpt lat="38.0675367" lon="15.83486"><ele>1003.0</ele><time>2026-04-25T08:31:44.816Z</time></trkpt><trkpt lat="38.0674917" lon="15.834745"><ele>993.8</ele><time>2026-04-25T08:31:45.815Z</time></trkpt><trkpt lat="38.067435" lon="15.83462"><ele>984.5999999999999</ele><time>2026-04-25T08:31:46.816Z</time></trkpt><trkpt lat="38.06738" lon="15.8344983"><ele>975.4000000000001</ele><time>2026-04-25T08:31:47.816Z</time></trkpt><trkpt lat="38.0673267" lon="15.8344383"><ele>966.2</ele><time>2026-04-25T08:31:48.815Z</time></trkpt><trkpt lat="38.0673133" lon="15.8343583"><ele>957.0</ele><time>2026-04-25T08:31:49.816Z</time></trkpt><trkpt lat="38.06734" lon="15.834485"><ele>957.0</ele><time>2026-04-25T08:31:52.816Z</time></trkpt><trkpt lat="38.0673667" lon="15.8346317"><ele>957.0</ele><time>2026-04-25T08:31:53.816Z</time></trkpt><trkpt lat="38.0673633" lon="15.8347367"><ele>957.0</ele><time>2026-04-25T08:31:54.815Z</time></trkpt><trkpt lat="38.0673717" lon="15.834825"><ele>957.0</ele><time>2026-04-25T08:31:55.816Z</time></trkpt><trkpt lat="38.0674017" lon="15.8349217"><ele>957.0</ele><time>2026-04-25T08:31:56.816Z</time></trkpt><trkpt lat="38.0674333" lon="15.8349983"><ele>957.0</ele><time>2026-04-25T08:31:57.815Z</time></trkpt><trkpt lat="38.0674933" lon="15.8350717"><ele>961.0</ele><time>2026-04-25T08:31:58.816Z</time></trkpt><trkpt lat="38.0675833" lon="15.83514"><ele>965.0</ele><time>2026-04-25T08:31:59.816Z</time></trkpt><trkpt lat="38.0676333" lon="15.8352133"><ele>969.0</ele><time>2026-04-25T08:32:00.816Z</time></trkpt><trkpt lat="38.0677367" lon="15.8353717"><ele>973.0</ele><time>2026-04-25T08:32:02.815Z</time></trkpt><trkpt lat="38.06777" lon="15.835505"><ele>973.0</ele><time>2026-04-25T08:32:04.816Z</time></trkpt><trkpt lat="38.0678083" lon="15.8356067"><ele>973.0</ele><time>2026-04-25T08:32:06.816Z</time></trkpt><trkpt lat="38.0678583" lon="15.835675"><ele>973.0</ele><time>2026-04-25T08:32:09.816Z</time></trkpt><trkpt lat="38.0677267" lon="15.83545"><ele>973.0</ele><time>2026-04-25T08:32:13.816Z</time></trkpt><trkpt lat="38.0676383" lon="15.8354433"><ele>973.0</ele><time>2026-04-25T08:32:14.816Z</time></trkpt><trkpt lat="38.067565" lon="15.8353667"><ele>973.0</ele><time>2026-04-25T08:32:15.815Z</time></trkpt><trkpt lat="38.0674533" lon="15.83522"><ele>973.0</ele><time>2026-04-25T08:32:16.815Z</time></trkpt><trkpt lat="38.067435" lon="15.83513"><ele>973.0</ele><time>2026-04-25T08:32:17.816Z</time></trkpt><trkpt lat="38.0675183" lon="15.8352067"><ele>973.0</ele><time>2026-04-25T08:32:19.816Z</time></trkpt><trkpt lat="38.0675717" lon="15.835285"><ele>972.9999999999999</ele><time>2026-04-25T08:32:20.816Z</time></trkpt><trkpt lat="38.067615" lon="15.835395"><ele>973.0</ele><time>2026-04-25T08:32:21.816Z</time></trkpt><trkpt lat="38.0676367" lon="15.83554"><ele>973.0</ele><time>2026-04-25T08:32:22.816Z</time></trkpt><trkpt lat="38.0676267" lon="15.8356567"><ele>973.0</ele><time>2026-04-25T08:32:23.816Z</time></trkpt><trkpt lat="38.0676583" lon="15.8357433"><ele>972.9999999999999</ele><time>2026-04-25T08:32:24.816Z</time></trkpt><trkpt lat="38.0676983" lon="15.8358067"><ele>973.0</ele><time>2026-04-25T08:32:25.816Z</time></trkpt><trkpt lat="38.06778" lon="15.8358767"><ele>973.0</ele><time>2026-04-25T08:32:27.816Z</time></trkpt><trkpt lat="38.067795" lon="15.8359833"><ele>973.0</ele><time>2026-04-25T08:32:29.816Z</time></trkpt><trkpt lat="38.067675" lon="15.83594"><ele>973.0</ele><time>2026-04-25T08:32:33.816Z</time></trkpt><trkpt lat="38.0675733" lon="15.8359217"><ele>973.0</ele><time>2026-04-25T08:32:34.816Z</time></trkpt><trkpt lat="38.06748" lon="15.8358967"><ele>973.0</ele><time>2026-04-25T08:32:35.816Z</time></trkpt><trkpt lat="38.0673217" lon="15.835725"><ele>964.75</ele><time>2026-04-25T08:32:37.815Z</time></trkpt><trkpt lat="38.0672233" lon="15.835575"><ele>956.5</ele><time>2026-04-25T08:32:38.816Z</time></trkpt><trkpt lat="38.0671333" lon="15.8354683"><ele>948.25</ele><time>2026-04-25T08:32:39.816Z</time></trkpt><trkpt lat="38.06704" lon="15.8353883"><ele>940.0</ele><time>2026-04-25T08:32:40.816Z</time></trkpt><trkpt lat="38.066955" lon="15.8353167"><ele>940.0</ele><time>2026-04-25T08:32:41.816Z</time></trkpt><trkpt lat="38.0668633" lon="15.83526"><ele>940.0</ele><time>2026-04-25T08:32:42.815Z</time></trkpt><trkpt lat="38.0667733" lon="15.8351933"><ele>940.0</ele><time>2026-04-25T08:32:43.816Z</time></trkpt><trkpt lat="38.06669" lon="15.83513"><ele>940.0</ele><time>2026-04-25T08:32:44.815Z</time></trkpt><trkpt lat="38.0666267" lon="15.8350583"><ele>940.0</ele><time>2026-04-25T08:32:45.816Z</time></trkpt><trkpt lat="38.06664" lon="15.8349283"><ele>943.4</ele><time>2026-04-25T08:32:47.816Z</time></trkpt><trkpt lat="38.06666" lon="15.83482"><ele>946.8</ele><time>2026-04-25T08:32:49.816Z</time></trkpt><trkpt lat="38.066685" lon="15.8346617"><ele>950.2</ele><time>2026-04-25T08:32:51.816Z</time></trkpt><trkpt lat="38.0666683" lon="15.8345317"><ele>953.6</ele><time>2026-04-25T08:32:52.815Z</time></trkpt><trkpt lat="38.0666783" lon="15.8344467"><ele>957.0</ele><time>2026-04-25T08:32:53.815Z</time></trkpt><trkpt lat="38.066655" lon="15.8343267"><ele>957.0</ele><time>2026-04-25T08:32:55.816Z</time></trkpt><trkpt lat="38.06665" lon="15.8344083"><ele>957.0</ele><time>2026-04-25T08:33:00.816Z</time></trkpt><trkpt lat="38.0665767" lon="15.8345333"><ele>957.0</ele><time>2026-04-25T08:33:01.816Z</time></trkpt><trkpt lat="38.0665267" lon="15.834635"><ele>957.0</ele><time>2026-04-25T08:33:02.816Z</time></trkpt><trkpt lat="38.06648" lon="15.8347217"><ele>957.0</ele><time>2026-04-25T08:33:03.816Z</time></trkpt><trkpt lat="38.0664533" lon="15.834805"><ele>957.0</ele><time>2026-04-25T08:33:04.815Z</time></trkpt><trkpt lat="38.0664433" lon="15.8349333"><ele>953.6</ele><time>2026-04-25T08:33:06.816Z</time></trkpt><trkpt lat="38.0664567" lon="15.8350233"><ele>950.2</ele><time>2026-04-25T08:33:07.816Z</time></trkpt><trkpt lat="38.06656" lon="15.8351583"><ele>946.8</ele><time>2026-04-25T08:33:08.815Z</time></trkpt><trkpt lat="38.0666333" lon="15.835245"><ele>943.4</ele><time>2026-04-25T08:33:09.816Z</time></trkpt><trkpt lat="38.0667" lon="15.8352983"><ele>940.0</ele><time>2026-04-25T08:33:10.815Z</time></trkpt><trkpt lat="38.06678" lon="15.8353517"><ele>940.0</ele><time>2026-04-25T08:33:11.816Z</time></trkpt><trkpt lat="38.0668533" lon="15.835405"><ele>940.0</ele><time>2026-04-25T08:33:12.816Z</time></trkpt><trkpt lat="38.0669567" lon="15.8354483"><ele>940.0</ele><time>2026-04-25T08:33:13.816Z</time></trkpt><trkpt lat="38.0670883" lon="15.83553"><ele>940.0</ele><time>2026-04-25T08:33:14.815Z</time></trkpt><trkpt lat="38.0671683" lon="15.835605"><ele>940.0</ele><time>2026-04-25T08:33:15.815Z</time></trkpt><trkpt lat="38.06723" lon="15.8356833"><ele>940.0</ele><time>2026-04-25T08:33:16.815Z</time></trkpt><trkpt lat="38.0673283" lon="15.8358183"><ele>940.0</ele><time>2026-04-25T08:33:18.816Z</time></trkpt><trkpt lat="38.0673833" lon="15.8358767"><ele>940.0</ele><time>2026-04-25T08:33:19.816Z</time></trkpt><trkpt lat="38.0674333" lon="15.835965"><ele>940.0</ele><time>2026-04-25T08:33:20.816Z</time></trkpt><trkpt lat="38.067465" lon="15.8360783"><ele>940.0</ele><time>2026-04-25T08:33:21.815Z</time></trkpt><trkpt lat="38.0674917" lon="15.836175"><ele>937.0</ele><time>2026-04-25T08:33:22.815Z</time></trkpt><trkpt lat="38.0675483" lon="15.8362617"><ele>934.0</ele><time>2026-04-25T08:33:24.816Z</time></trkpt><trkpt lat="38.0676533" lon="15.8363383"><ele>931.0</ele><time>2026-04-25T08:33:26.816Z</time></trkpt><trkpt lat="38.0677167" lon="15.8363733"><ele>928.0</ele><time>2026-04-25T08:33:27.816Z</time></trkpt><trkpt lat="38.0677683" lon="15.836435"><ele>925.0</ele><time>2026-04-25T08:33:28.816Z</time></trkpt><trkpt lat="38.0678633" lon="15.8364917"><ele>925.0</ele><time>2026-04-25T08:33:30.816Z</time></trkpt><trkpt lat="38.0679767" lon="15.8364683"><ele>925.0</ele><time>2026-04-25T08:33:32.816Z</time></trkpt><trkpt lat="38.06807" lon="15.8364367"><ele>925.0</ele><time>2026-04-25T08:33:33.816Z</time></trkpt><trkpt lat="38.0681567" lon="15.8364033"><ele>925.0</ele><time>2026-04-25T08:33:34.816Z</time></trkpt><trkpt lat="38.0682333" lon="15.8363483"><ele>925.0</ele><time>2026-04-25T08:33:35.815Z</time></trkpt><trkpt lat="38.0664433" lon="15.8349333"><ele>922.4</ele><time>2026-04-25T08:33:06.816Z</time></trkpt><trkpt lat="38.0664567" lon="15.8350233"><ele>919.8</ele><time>2026-04-25T08:33:07.816Z</time></trkpt><trkpt lat="38.06656" lon="15.8351583"><ele>917.2</ele><time>2026-04-25T08:33:08.815Z</time></trkpt><trkpt lat="38.0666333" lon="15.835245"><ele>914.6</ele><time>2026-04-25T08:33:09.816Z</time></trkpt><trkpt lat="38.0667" lon="15.8352983"><ele>912.0</ele><time>2026-04-25T08:33:10.815Z</time></trkpt><trkpt lat="38.06678" lon="15.8353517"><ele>917.6</ele><time>2026-04-25T08:33:11.816Z</time></trkpt><trkpt lat="38.0668533" lon="15.835405"><ele>923.2</ele><time>2026-04-25T08:33:12.816Z</time></trkpt><trkpt lat="38.0669567" lon="15.8354483"><ele>928.8</ele><time>2026-04-25T08:33:13.816Z</time></trkpt><trkpt lat="38.0670883" lon="15.83553"><ele>934.4</ele><time>2026-04-25T08:33:14.815Z</time></trkpt><trkpt lat="38.0671683" lon="15.835605"><ele>940.0</ele><time>2026-04-25T08:33:15.815Z</time></trkpt><trkpt lat="38.06723" lon="15.8356833"><ele>940.0</ele><time>2026-04-25T08:33:16.815Z</time></trkpt><trkpt lat="38.0673283" lon="15.8358183"><ele>940.0</ele><time>2026-04-25T08:33:18.816Z</time></trkpt><trkpt lat="38.0673833" lon="15.8358767"><ele>940.0</ele><time>2026-04-25T08:33:19.816Z</time></trkpt><trkpt lat="38.0674333" lon="15.835965"><ele>940.0</ele><time>2026-04-25T08:33:20.816Z</time></trkpt><trkpt lat="38.067465" lon="15.8360783"><ele>940.0</ele><time>2026-04-25T08:33:21.815Z</time></trkpt><trkpt lat="38.0674917" lon="15.836175"><ele>937.0</ele><time>2026-04-25T08:33:22.815Z</time></trkpt><trkpt lat="38.0675483" lon="15.8362617"><ele>934.0</ele><time>2026-04-25T08:33:24.816Z</time></trkpt><trkpt lat="38.0676533" lon="15.8363383"><ele>931.0</ele><time>2026-04-25T08:33:26.816Z</time></trkpt><trkpt lat="38.0677167" lon="15.8363733"><ele>928.0</ele><time>2026-04-25T08:33:27.816Z</time></trkpt><trkpt lat="38.0677683" lon="15.836435"><ele>925.0</ele><time>2026-04-25T08:33:28.816Z</time></trkpt><trkpt lat="38.0678633" lon="15.8364917"><ele>925.0</ele><time>2026-04-25T08:33:30.816Z</time></trkpt><trkpt lat="38.0679767" lon="15.8364683"><ele>925.0</ele><time>2026-04-25T08:33:32.816Z</time></trkpt><trkpt lat="38.06807" lon="15.8364367"><ele>925.0</ele><time>2026-04-25T08:33:33.816Z</time></trkpt><trkpt lat="38.0681567" lon="15.8364033"><ele>925.0</ele><time>2026-04-25T08:33:34.816Z</time></trkpt><trkpt lat="38.0682333" lon="15.8363483"><ele>925.0</ele><time>2026-04-25T08:33:35.815Z</time></trkpt><trkpt lat="38.0683017" lon="15.8363017"><ele>925.3333333333333</ele><time>2026-04-25T08:33:36.816Z</time></trkpt><trkpt lat="38.0683633" lon="15.8362717"><ele>925.6666666666666</ele><time>2026-04-25T08:33:37.815Z</time></trkpt><trkpt lat="38.0684317" lon="15.8362283"><ele>926.0</ele><time>2026-04-25T08:33:38.816Z</time></trkpt><trkpt lat="38.068505" lon="15.836175"><ele>926.3333333333333</ele><time>2026-04-25T08:33:39.816Z</time></trkpt><trkpt lat="38.0685617" lon="15.83612"><ele>926.6666666666666</ele><time>2026-04-25T08:33:40.816Z</time></trkpt><trkpt lat="38.0686183" lon="15.836055"><ele>927.0</ele><time>2026-04-25T08:33:41.816Z</time></trkpt><trkpt lat="38.0686917" lon="15.83599"><ele>927.0</ele><time>2026-04-25T08:33:42.816Z</time></trkpt><trkpt lat="38.068755" lon="15.8359333"><ele>927.0</ele><time>2026-04-25T08:33:43.815Z</time></trkpt><trkpt lat="38.0688133" lon="15.8358867"><ele>927.0</ele><time>2026-04-25T08:33:44.816Z</time></trkpt><trkpt lat="38.0688767" lon="15.8358383"><ele>927.0</ele><time>2026-04-25T08:33:45.815Z</time></trkpt><trkpt lat="38.068935" lon="15.83596"><ele>927.0</ele><time>2026-04-25T08:33:47.815Z</time></trkpt><trkpt lat="38.0689767" lon="15.8360233"><ele>927.0</ele><time>2026-04-25T08:33:48.816Z</time></trkpt><trkpt lat="38.0690233" lon="15.8360883"><ele>927.0</ele><time>2026-04-25T08:33:49.816Z</time></trkpt><trkpt lat="38.0690783" lon="15.8361483"><ele>927.0</ele><time>2026-04-25T08:33:50.816Z</time></trkpt><trkpt lat="38.0691383" lon="15.836205"><ele>927.0</ele><time>2026-04-25T08:33:51.816Z</time></trkpt><trkpt lat="38.069255" lon="15.8362783"><ele>927.0</ele><time>2026-04-25T08:33:53.816Z</time></trkpt><trkpt lat="38.06932" lon="15.8362933"><ele>927.0</ele><time>2026-04-25T08:33:54.816Z</time></trkpt><trkpt lat="38.069395" lon="15.83624"><ele>927.0</ele><time>2026-04-25T08:33:55.816Z</time></trkpt><trkpt lat="38.0694733" lon="15.8361983"><ele>925.0</ele><time>2026-04-25T08:33:56.816Z</time></trkpt><trkpt lat="38.0695833" lon="15.8361283"><ele>923.0</ele><time>2026-04-25T08:33:57.815Z</time></trkpt><trkpt lat="38.069675" lon="15.8361133"><ele>921.0</ele><time>2026-04-25T08:33:58.816Z</time></trkpt><trkpt lat="38.0697883" lon="15.8360967"><ele>919.0</ele><time>2026-04-25T08:33:59.816Z</time></trkpt><trkpt lat="38.0699233" lon="15.8360733"><ele>919.25</ele><time>2026-04-25T08:34:00.816Z</time></trkpt><trkpt lat="38.0700417" lon="15.83613"><ele>919.5</ele><time>2026-04-25T08:34:01.815Z</time></trkpt><trkpt lat="38.0701533" lon="15.836195"><ele>919.75</ele><time>2026-04-25T08:34:02.815Z</time></trkpt><trkpt lat="38.0702633" lon="15.8362767"><ele>920.0</ele><time>2026-04-25T08:34:03.816Z</time></trkpt><trkpt lat="38.07036" lon="15.8363233"><ele>920.0000000000001</ele><time>2026-04-25T08:34:04.816Z</time></trkpt><trkpt lat="38.0704417" lon="15.8363867"><ele>920.0</ele><time>2026-04-25T08:34:05.816Z</time></trkpt><trkpt lat="38.070495" lon="15.836465"><ele>920.0</ele><time>2026-04-25T08:34:06.816Z</time></trkpt><trkpt lat="38.0705333" lon="15.8365533"><ele>920.0</ele><time>2026-04-25T08:34:07.816Z</time></trkpt><trkpt lat="38.0705517" lon="15.836645"><ele>920.0000000000001</ele><time>2026-04-25T08:34:08.816Z</time></trkpt><trkpt lat="38.0705783" lon="15.83674"><ele>920.0</ele><time>2026-04-25T08:34:09.816Z</time></trkpt><trkpt lat="38.0706267" lon="15.8368983"><ele>921.25</ele><time>2026-04-25T08:34:11.816Z</time></trkpt><trkpt lat="38.0706967" lon="15.83704"><ele>922.5</ele><time>2026-04-25T08:34:13.816Z</time></trkpt><trkpt lat="38.0707967" lon="15.8370867"><ele>923.75</ele><time>2026-04-25T08:34:15.816Z</time></trkpt><trkpt lat="38.0708967" lon="15.83717"><ele>925.0</ele><time>2026-04-25T08:34:17.816Z</time></trkpt><trkpt lat="38.0709867" lon="15.8372133"><ele>924.9999999999999</ele><time>2026-04-25T08:34:19.816Z</time></trkpt><trkpt lat="38.071015" lon="15.837285"><ele>925.0</ele><time>2026-04-25T08:34:21.816Z</time></trkpt><trkpt lat="38.07096" lon="15.8373517"><ele>925.0</ele><time>2026-04-25T08:34:23.816Z</time></trkpt><trkpt lat="38.0708967" lon="15.8373783"><ele>925.0</ele><time>2026-04-25T08:34:24.815Z</time></trkpt><trkpt lat="38.0707833" lon="15.83743"><ele>924.9999999999999</ele><time>2026-04-25T08:34:26.816Z</time></trkpt><trkpt lat="38.0707167" lon="15.83745"><ele>925.0</ele><time>2026-04-25T08:34:27.816Z</time></trkpt><trkpt lat="38.0706367" lon="15.83746"><ele>924.9999999999999</ele><time>2026-04-25T08:34:29.816Z</time></trkpt><trkpt lat="38.0705233" lon="15.8373933"><ele>925.0</ele><time>2026-04-25T08:34:32.816Z</time></trkpt><trkpt lat="38.07046" lon="15.8373617"><ele>925.0</ele><time>2026-04-25T08:34:33.816Z</time></trkpt><trkpt lat="38.0703883" lon="15.8373483"><ele>925.0</ele><time>2026-04-25T08:34:34.815Z</time></trkpt><trkpt lat="38.070305" lon="15.8373067"><ele>924.9999999999999</ele><time>2026-04-25T08:34:35.815Z</time></trkpt><trkpt lat="38.0702267" lon="15.837275"><ele>925.0</ele><time>2026-04-25T08:34:36.816Z</time></trkpt><trkpt lat="38.0701583" lon="15.8372333"><ele>924.9999999999999</ele><time>2026-04-25T08:34:37.816Z</time></trkpt><trkpt lat="38.0700783" lon="15.8372167"><ele>925.0</ele><time>2026-04-25T08:34:38.816Z</time></trkpt><trkpt lat="38.0700083" lon="15.8372017"><ele>925.0</ele><time>2026-04-25T08:34:39.816Z</time></trkpt><trkpt lat="38.0699267" lon="15.8372417"><ele>925.0</ele><time>2026-04-25T08:34:40.816Z</time></trkpt><trkpt lat="38.06988" lon="15.8373567"><ele>924.9999999999999</ele><time>2026-04-25T08:34:42.816Z</time></trkpt><trkpt lat="38.06984" lon="15.837475"><ele>925.0</ele><time>2026-04-25T08:34:43.816Z</time></trkpt><trkpt lat="38.0697983" lon="15.8377133"><ele>923.6</ele><time>2026-04-25T08:34:44.815Z</time></trkpt><trkpt lat="38.06977" lon="15.8378833"><ele>922.2</ele><time>2026-04-25T08:34:45.816Z</time></trkpt><trkpt lat="38.0697167" lon="15.8379967"><ele>920.8</ele><time>2026-04-25T08:34:46.816Z</time></trkpt><trkpt lat="38.069655" lon="15.8381033"><ele>919.4</ele><time>2026-04-25T08:34:47.816Z</time></trkpt><trkpt lat="38.0696117" lon="15.8381767"><ele>918.0</ele><time>2026-04-25T08:34:48.816Z</time></trkpt><trkpt lat="38.06956" lon="15.838255"><ele>918.0</ele><time>2026-04-25T08:34:49.816Z</time></trkpt><trkpt lat="38.0695133" lon="15.8383317"><ele>918.0</ele><time>2026-04-25T08:34:50.815Z</time></trkpt><trkpt lat="38.0694867" lon="15.83842"><ele>918.0</ele><time>2026-04-25T08:34:51.816Z</time></trkpt><trkpt lat="38.0694433" lon="15.8385267"><ele>918.0</ele><time>2026-04-25T08:34:52.815Z</time></trkpt><trkpt lat="38.06935" lon="15.838615"><ele>918.0</ele><time>2026-04-25T08:34:53.815Z</time></trkpt><trkpt lat="38.0692783" lon="15.8387083"><ele>918.0</ele><time>2026-04-25T08:34:54.816Z</time></trkpt><trkpt lat="38.06921" lon="15.838785"><ele>918.0</ele><time>2026-04-25T08:34:55.815Z</time></trkpt><trkpt lat="38.069145" lon="15.8388483"><ele>918.0</ele><time>2026-04-25T08:34:56.815Z</time></trkpt><trkpt lat="38.0690967" lon="15.8389017"><ele>918.0</ele><time>2026-04-25T08:34:57.816Z</time></trkpt><trkpt lat="38.0690283" lon="15.838905"><ele>918.0</ele><time>2026-04-25T08:34:58.815Z</time></trkpt><trkpt lat="38.06897" lon="15.8390433"><ele>918.0</ele><time>2026-04-25T08:35:00.816Z</time></trkpt><trkpt lat="38.0689367" lon="15.839145"><ele>918.0</ele><time>2026-04-25T08:35:01.815Z</time></trkpt><trkpt lat="38.0689133" lon="15.8392733"><ele>918.0</ele><time>2026-04-25T08:35:02.816Z</time></trkpt><trkpt lat="38.068895" lon="15.8393817"><ele>918.0</ele><time>2026-04-25T08:35:03.815Z</time></trkpt><trkpt lat="38.0688667" lon="15.8394867"><ele>918.0</ele><time>2026-04-25T08:35:04.816Z</time></trkpt><trkpt lat="38.068815" lon="15.8396117"><ele>918.0</ele><time>2026-04-25T08:35:05.816Z</time></trkpt><trkpt lat="38.06878" lon="15.839685"><ele>926.8</ele><time>2026-04-25T08:35:06.816Z</time></trkpt><trkpt lat="38.0687417" lon="15.839755"><ele>935.5999999999999</ele><time>2026-04-25T08:35:07.816Z</time></trkpt><trkpt lat="38.0686467" lon="15.8397383"><ele>944.4000000000001</ele><time>2026-04-25T08:35:08.815Z</time></trkpt><trkpt lat="38.0685733" lon="15.839755"><ele>953.2</ele><time>2026-04-25T08:35:09.816Z</time></trkpt><trkpt lat="38.0684717" lon="15.8396783"><ele>962.0</ele><time>2026-04-25T08:35:10.815Z</time></trkpt><trkpt lat="38.0683783" lon="15.83963"><ele>962.0</ele><time>2026-04-25T08:35:11.816Z</time></trkpt><trkpt lat="38.06829" lon="15.8394433"><ele>962.0</ele><time>2026-04-25T08:35:12.816Z</time></trkpt><trkpt lat="38.0681833" lon="15.8393783"><ele>962.0</ele><time>2026-04-25T08:35:13.816Z</time></trkpt><trkpt lat="38.0680717" lon="15.8393067"><ele>962.0</ele><time>2026-04-25T08:35:14.815Z</time></trkpt><trkpt lat="38.0679583" lon="15.83921"><ele>953.75</ele><time>2026-04-25T08:35:15.816Z</time></trkpt><trkpt lat="38.067845" lon="15.839115"><ele>945.5</ele><time>2026-04-25T08:35:16.816Z</time></trkpt><trkpt lat="38.0677317" lon="15.83903"><ele>937.25</ele><time>2026-04-25T08:35:17.816Z</time></trkpt><trkpt lat="38.0676233" lon="15.838945"><ele>929.0</ele><time>2026-04-25T08:35:18.816Z</time></trkpt><trkpt lat="38.067525" lon="15.8388667"><ele>931.8000000000001</ele><time>2026-04-25T08:35:19.816Z</time></trkpt><trkpt lat="38.0674433" lon="15.83875"><ele>934.6000000000001</ele><time>2026-04-25T08:35:20.816Z</time></trkpt><trkpt lat="38.067365" lon="15.83865"><ele>937.4</ele><time>2026-04-25T08:35:21.815Z</time></trkpt><trkpt lat="38.0672817" lon="15.8385633"><ele>940.2</ele><time>2026-04-25T08:35:22.815Z</time></trkpt><trkpt lat="38.0671983" lon="15.8384967"><ele>943.0</ele><time>2026-04-25T08:35:23.816Z</time></trkpt><trkpt lat="38.067115" lon="15.8384467"><ele>933.4</ele><time>2026-04-25T08:35:24.816Z</time></trkpt><trkpt lat="38.06705" lon="15.8384217"><ele>923.8</ele><time>2026-04-25T08:35:25.816Z</time></trkpt><trkpt lat="38.06695" lon="15.83831"><ele>914.2</ele><time>2026-04-25T08:35:27.816Z</time></trkpt><trkpt lat="38.0668883" lon="15.8382667"><ele>904.6</ele><time>2026-04-25T08:35:28.815Z</time></trkpt><trkpt lat="38.0667783" lon="15.8382117"><ele>895.0</ele><time>2026-04-25T08:35:30.815Z</time></trkpt><trkpt lat="38.0666833" lon="15.8382133"><ele>896.0</ele><time>2026-04-25T08:35:32.816Z</time></trkpt><trkpt lat="38.0665683" lon="15.8382517"><ele>897.0</ele><time>2026-04-25T08:35:33.816Z</time></trkpt><trkpt lat="38.0664367" lon="15.83826"><ele>898.0</ele><time>2026-04-25T08:35:34.816Z</time></trkpt><trkpt lat="38.066345" lon="15.8382617"><ele>899.0</ele><time>2026-04-25T08:35:35.815Z</time></trkpt><trkpt lat="38.0662567" lon="15.8382983"><ele>900.0</ele><time>2026-04-25T08:35:36.816Z</time></trkpt><trkpt lat="38.0661817" lon="15.838295"><ele>900.0</ele><time>2026-04-25T08:35:37.816Z</time></trkpt><trkpt lat="38.066095" lon="15.83828"><ele>900.0</ele><time>2026-04-25T08:35:38.816Z</time></trkpt><trkpt lat="38.06599" lon="15.838215"><ele>900.0</ele><time>2026-04-25T08:35:39.816Z</time></trkpt><trkpt lat="38.0658767" lon="15.8381317"><ele>900.0</ele><time>2026-04-25T08:35:40.815Z</time></trkpt><trkpt lat="38.0657867" lon="15.8380383"><ele>899.1666666666666</ele><time>2026-04-25T08:35:41.815Z</time></trkpt><trkpt lat="38.065695" lon="15.8379517"><ele>898.3333333333333</ele><time>2026-04-25T08:35:42.816Z</time></trkpt><trkpt lat="38.065625" lon="15.8378983"><ele>897.5</ele><time>2026-04-25T08:35:43.816Z</time></trkpt><trkpt lat="38.0655533" lon="15.837875"><ele>896.6666666666666</ele><time>2026-04-25T08:35:44.815Z</time></trkpt><trkpt lat="38.0654517" lon="15.837925"><ele>895.8333333333333</ele><time>2026-04-25T08:35:46.816Z</time></trkpt><trkpt lat="38.06539" lon="15.8379533"><ele>895.0</ele><time>2026-04-25T08:35:47.816Z</time></trkpt><trkpt lat="38.0654233" lon="15.8380933"><ele>894.9999999999999</ele><time>2026-04-25T08:35:49.816Z</time></trkpt><trkpt lat="38.06541" lon="15.8381933"><ele>895.0</ele><time>2026-04-25T08:35:50.816Z</time></trkpt><trkpt lat="38.065395" lon="15.8382933"><ele>895.0</ele><time>2026-04-25T08:35:51.816Z</time></trkpt><trkpt lat="38.0653683" lon="15.838375"><ele>895.0</ele><time>2026-04-25T08:35:52.815Z</time></trkpt><trkpt lat="38.0652917" lon="15.8384567"><ele>894.9999999999999</ele><time>2026-04-25T08:35:53.815Z</time></trkpt><trkpt lat="38.065245" lon="15.8385267"><ele>895.0</ele><time>2026-04-25T08:35:54.815Z</time></trkpt><trkpt lat="38.0651917" lon="15.838585"><ele>895.0</ele><time>2026-04-25T08:35:55.816Z</time></trkpt><trkpt lat="38.06507" lon="15.8385083"><ele>895.0</ele><time>2026-04-25T08:35:57.815Z</time></trkpt><trkpt lat="38.0650017" lon="15.838455"><ele>895.0</ele><time>2026-04-25T08:35:58.816Z</time></trkpt><trkpt lat="38.06494" lon="15.83843"><ele>895.0</ele><time>2026-04-25T08:35:59.815Z</time></trkpt><trkpt lat="38.064875" lon="15.8383167"><ele>895.0</ele><time>2026-04-25T08:36:00.816Z</time></trkpt><trkpt lat="38.0648133" lon="15.83821"><ele>904.0</ele><time>2026-04-25T08:36:01.816Z</time></trkpt><trkpt lat="38.064755" lon="15.8381167"><ele>913.0</ele><time>2026-04-25T08:36:02.816Z</time></trkpt><trkpt lat="38.0646867" lon="15.8380217"><ele>922.0</ele><time>2026-04-25T08:36:03.816Z</time></trkpt><trkpt lat="38.0646033" lon="15.8379267"><ele>931.0</ele><time>2026-04-25T08:36:04.816Z</time></trkpt><trkpt lat="38.06453" lon="15.8378417"><ele>940.0</ele><time>2026-04-25T08:36:05.816Z</time></trkpt><trkpt lat="38.0644517" lon="15.837765"><ele>940.0</ele><time>2026-04-25T08:36:06.816Z</time></trkpt><trkpt lat="38.0643883" lon="15.8377283"><ele>940.0</ele><time>2026-04-25T08:36:07.815Z</time></trkpt><trkpt lat="38.0643117" lon="15.8377017"><ele>940.0</ele><time>2026-04-25T08:36:08.816Z</time></trkpt><trkpt lat="38.064195" lon="15.8376733"><ele>940.0</ele><time>2026-04-25T08:36:09.816Z</time></trkpt><trkpt lat="38.0640883" lon="15.8376483"><ele>940.0</ele><time>2026-04-25T08:36:10.816Z</time></trkpt><trkpt lat="38.0639583" lon="15.837625"><ele>937.25</ele><time>2026-04-25T08:36:11.816Z</time></trkpt><trkpt lat="38.0638217" lon="15.837615"><ele>934.5</ele><time>2026-04-25T08:36:12.815Z</time></trkpt><trkpt lat="38.0637067" lon="15.8375867"><ele>931.75</ele><time>2026-04-25T08:36:13.816Z</time></trkpt><trkpt lat="38.063585" lon="15.8375367"><ele>929.0</ele><time>2026-04-25T08:36:14.816Z</time></trkpt><trkpt lat="38.0634783" lon="15.8374933"><ele>929.0</ele><time>2026-04-25T08:36:15.816Z</time></trkpt><trkpt lat="38.0634167" lon="15.8374367"><ele>929.0000000000001</ele><time>2026-04-25T08:36:16.816Z</time></trkpt><trkpt lat="38.0633317" lon="15.8373717"><ele>929.0000000000001</ele><time>2026-04-25T08:36:17.816Z</time></trkpt><trkpt lat="38.063275" lon="15.83729"><ele>929.0</ele><time>2026-04-25T08:36:18.816Z</time></trkpt><trkpt lat="38.0632167" lon="15.8371783"><ele>929.0</ele><time>2026-04-25T08:36:19.816Z</time></trkpt><trkpt lat="38.0631517" lon="15.83706"><ele>925.4000000000001</ele><time>2026-04-25T08:36:20.816Z</time></trkpt><trkpt lat="38.0630817" lon="15.8369333"><ele>921.8000000000001</ele><time>2026-04-25T08:36:21.816Z</time></trkpt><trkpt lat="38.0630133" lon="15.8368383"><ele>918.1999999999999</ele><time>2026-04-25T08:36:22.816Z</time></trkpt><trkpt lat="38.0629517" lon="15.8367433"><ele>914.5999999999999</ele><time>2026-04-25T08:36:23.815Z</time></trkpt><trkpt lat="38.0628817" lon="15.8366567"><ele>911.0</ele><time>2026-04-25T08:36:24.816Z</time></trkpt><trkpt lat="38.0628233" lon="15.8366083"><ele>911.0</ele><time>2026-04-25T08:36:25.816Z</time></trkpt><trkpt lat="38.0627067" lon="15.83663"><ele>910.9999999999999</ele><time>2026-04-25T08:36:27.816Z</time></trkpt><trkpt lat="38.062625" lon="15.8366383"><ele>910.9999999999999</ele><time>2026-04-25T08:36:28.816Z</time></trkpt><trkpt lat="38.0625283" lon="15.8366617"><ele>911.0</ele><time>2026-04-25T08:36:29.816Z</time></trkpt><trkpt lat="38.0624467" lon="15.8366767"><ele>911.0</ele><time>2026-04-25T08:36:30.816Z</time></trkpt><trkpt lat="38.0623317" lon="15.83675"><ele>919.4</ele><time>2026-04-25T08:36:32.816Z</time></trkpt><trkpt lat="38.062285" lon="15.8368083"><ele>927.8</ele><time>2026-04-25T08:36:33.816Z</time></trkpt><trkpt lat="38.0623967" lon="15.8368367"><ele>936.1999999999999</ele><time>2026-04-25T08:36:36.815Z</time></trkpt><trkpt lat="38.0624917" lon="15.8368533"><ele>944.5999999999999</ele><time>2026-04-25T08:36:37.816Z</time></trkpt><trkpt lat="38.0626" lon="15.8368583"><ele>953.0</ele><time>2026-04-25T08:36:38.816Z</time></trkpt><trkpt lat="38.06271" lon="15.8368933"><ele>953.0</ele><time>2026-04-25T08:36:39.816Z</time></trkpt><trkpt lat="38.062835" lon="15.8369383"><ele>953.0</ele><time>2026-04-25T08:36:40.815Z</time></trkpt><trkpt lat="38.062935" lon="15.8369833"><ele>953.0</ele><time>2026-04-25T08:36:41.815Z</time></trkpt><trkpt lat="38.06302" lon="15.837025"><ele>953.0</ele><time>2026-04-25T08:36:42.816Z</time></trkpt><trkpt lat="38.063085" lon="15.8370617"><ele>953.0</ele><time>2026-04-25T08:36:43.816Z</time></trkpt><trkpt lat="38.0631617" lon="15.8371083"><ele>953.0</ele><time>2026-04-25T08:36:44.815Z</time></trkpt><trkpt lat="38.0631883" lon="15.8371833"><ele>953.0</ele><time>2026-04-25T08:36:45.815Z</time></trkpt><trkpt lat="38.06327" lon="15.83725"><ele>953.0</ele><time>2026-04-25T08:36:47.816Z</time></trkpt><trkpt lat="38.0631883" lon="15.83725"><ele>953.0</ele><time>2026-04-25T08:36:48.816Z</time></trkpt><trkpt lat="38.0631267" lon="15.8372233"><ele>953.0</ele><time>2026-04-25T08:36:49.816Z</time></trkpt><trkpt lat="38.062985" lon="15.8372017"><ele>953.0</ele><time>2026-04-25T08:36:51.816Z</time></trkpt><trkpt lat="38.0629217" lon="15.8371867"><ele>953.0</ele><time>2026-04-25T08:36:52.816Z</time></trkpt><trkpt lat="38.0628283" lon="15.8372033"><ele>953.0</ele><time>2026-04-25T08:36:53.816Z</time></trkpt><trkpt lat="38.06272" lon="15.8372283"><ele>953.0</ele><time>2026-04-25T08:36:54.815Z</time></trkpt><trkpt lat="38.0625933" lon="15.8372533"><ele>953.0</ele><time>2026-04-25T08:36:55.816Z</time></trkpt><trkpt lat="38.0624633" lon="15.83726"><ele>953.75</ele><time>2026-04-25T08:36:56.816Z</time></trkpt><trkpt lat="38.0623217" lon="15.837235"><ele>954.5</ele><time>2026-04-25T08:36:57.816Z</time></trkpt><trkpt lat="38.06218" lon="15.8372017"><ele>955.25</ele><time>2026-04-25T08:36:58.816Z</time></trkpt><trkpt lat="38.0620533" lon="15.8371617"><ele>956.0</ele><time>2026-04-25T08:36:59.815Z</time></trkpt><trkpt lat="38.0619283" lon="15.8371167"><ele>956.0</ele><time>2026-04-25T08:37:00.815Z</time></trkpt><trkpt lat="38.0617967" lon="15.8370917"><ele>955.9999999999999</ele><time>2026-04-25T08:37:01.816Z</time></trkpt><trkpt lat="38.0616883" lon="15.83708"><ele>955.9999999999999</ele><time>2026-04-25T08:37:02.816Z</time></trkpt><trkpt lat="38.061605" lon="15.8370817"><ele>956.0</ele><time>2026-04-25T08:37:03.815Z</time></trkpt><trkpt lat="38.0615367" lon="15.8370867"><ele>956.0</ele><time>2026-04-25T08:37:04.816Z</time></trkpt><trkpt lat="38.0614633" lon="15.837115"><ele>953.0</ele><time>2026-04-25T08:37:05.816Z</time></trkpt><trkpt lat="38.06139" lon="15.8371433"><ele>949.9999999999999</ele><time>2026-04-25T08:37:06.816Z</time></trkpt><trkpt lat="38.0613317" lon="15.83721"><ele>946.9999999999999</ele><time>2026-04-25T08:37:07.816Z</time></trkpt><trkpt lat="38.0612483" lon="15.8373117"><ele>944.0</ele><time>2026-04-25T08:37:08.815Z</time></trkpt><trkpt lat="38.0611733" lon="15.837405"><ele>941.0</ele><time>2026-04-25T08:37:09.816Z</time></trkpt><trkpt lat="38.0610967" lon="15.8374767"><ele>941.0</ele><time>2026-04-25T08:37:10.816Z</time></trkpt><trkpt lat="38.0610117" lon="15.8375633"><ele>940.9999999999999</ele><time>2026-04-25T08:37:11.816Z</time></trkpt><trkpt lat="38.0609283" lon="15.8376117"><ele>940.9999999999999</ele><time>2026-04-25T08:37:12.816Z</time></trkpt><trkpt lat="38.0608383" lon="15.837645"><ele>941.0</ele><time>2026-04-25T08:37:13.816Z</time></trkpt><trkpt lat="38.0607733" lon="15.8376633"><ele>941.0</ele><time>2026-04-25T08:37:14.816Z</time></trkpt><trkpt lat="38.060635" lon="15.83771"><ele>934.5999999999999</ele><time>2026-04-25T08:37:16.815Z</time></trkpt><trkpt lat="38.0605683" lon="15.837755"><ele>928.1999999999999</ele><time>2026-04-25T08:37:17.815Z</time></trkpt><trkpt lat="38.0605083" lon="15.837815"><ele>921.8000000000001</ele><time>2026-04-25T08:37:18.816Z</time></trkpt><trkpt lat="38.060505" lon="15.837985"><ele>915.4000000000001</ele><time>2026-04-25T08:37:20.815Z</time></trkpt><trkpt lat="38.0605183" lon="15.8380867"><ele>909.0</ele><time>2026-04-25T08:37:21.816Z</time></trkpt><trkpt lat="38.0605233" lon="15.838205"><ele>909.0</ele><time>2026-04-25T08:37:22.816Z</time></trkpt><trkpt lat="38.060525" lon="15.8383083"><ele>909.0000000000001</ele><time>2026-04-25T08:37:23.816Z</time></trkpt><trkpt lat="38.0605267" lon="15.838395"><ele>909.0000000000001</ele><time>2026-04-25T08:37:24.816Z</time></trkpt><trkpt lat="38.0605367" lon="15.8384767"><ele>909.0</ele><time>2026-04-25T08:37:25.816Z</time></trkpt><trkpt lat="38.0606317" lon="15.838645"><ele>909.0</ele><time>2026-04-25T08:37:27.816Z</time></trkpt><trkpt lat="38.0607383" lon="15.8387633"><ele>921.25</ele><time>2026-04-25T08:37:28.816Z</time></trkpt><trkpt lat="38.0608233" lon="15.8388633"><ele>933.5</ele><time>2026-04-25T08:37:29.816Z</time></trkpt><trkpt lat="38.0609183" lon="15.8389467"><ele>945.75</ele><time>2026-04-25T08:37:30.815Z</time></trkpt><trkpt lat="38.0610267" lon="15.8390217"><ele>958.0</ele><time>2026-04-25T08:37:31.816Z</time></trkpt><trkpt lat="38.0611333" lon="15.8391"><ele>958.0</ele><time>2026-04-25T08:37:32.816Z</time></trkpt><trkpt lat="38.0612583" lon="15.8391783"><ele>958.0</ele><time>2026-04-25T08:37:33.816Z</time></trkpt><trkpt lat="38.0613833" lon="15.8392617"><ele>958.0</ele><time>2026-04-25T08:37:34.816Z</time></trkpt><trkpt lat="38.0614983" lon="15.8393867"><ele>958.0</ele><time>2026-04-25T08:37:35.816Z</time></trkpt><trkpt lat="38.0616083" lon="15.8395317"><ele>965.0</ele><time>2026-04-25T08:37:36.816Z</time></trkpt><trkpt lat="38.06171" lon="15.8396417"><ele>972.0</ele><time>2026-04-25T08:37:37.816Z</time></trkpt><trkpt lat="38.0617983" lon="15.8397417"><ele>979.0</ele><time>2026-04-25T08:37:38.815Z</time></trkpt><trkpt lat="38.0618783" lon="15.83984"><ele>986.0</ele><time>2026-04-25T08:37:39.816Z</time></trkpt><trkpt lat="38.0619267" lon="15.8399317"><ele>986.0</ele><time>2026-04-25T08:37:40.816Z</time></trkpt><trkpt lat="38.0619583" lon="15.8400383"><ele>985.9999999999999</ele><time>2026-04-25T08:37:41.815Z</time></trkpt><trkpt lat="38.0619883" lon="15.84018"><ele>985.9999999999999</ele><time>2026-04-25T08:37:42.815Z</time></trkpt><trkpt lat="38.0620117" lon="15.840315"><ele>986.0</ele><time>2026-04-25T08:37:43.816Z</time></trkpt><trkpt lat="38.0620317" lon="15.8404483"><ele>986.0</ele><time>2026-04-25T08:37:44.816Z</time></trkpt><trkpt lat="38.0620467" lon="15.8405733"><ele>988.4</ele><time>2026-04-25T08:37:45.816Z</time></trkpt><trkpt lat="38.06206" lon="15.8406883"><ele>990.8</ele><time>2026-04-25T08:37:46.815Z</time></trkpt><trkpt lat="38.0620667" lon="15.8408"><ele>993.1999999999999</ele><time>2026-04-25T08:37:47.816Z</time></trkpt><trkpt lat="38.062065" lon="15.8408867"><ele>995.5999999999999</ele><time>2026-04-25T08:37:48.815Z</time></trkpt><trkpt lat="38.0620283" lon="15.8410217"><ele>998.0</ele><time>2026-04-25T08:37:50.816Z</time></trkpt><trkpt lat="38.06192" lon="15.8411367"><ele>999.3333333333334</ele><time>2026-04-25T08:37:52.816Z</time></trkpt><trkpt lat="38.0617033" lon="15.841105"><ele>1000.6666666666667</ele><time>2026-04-25T08:37:53.816Z</time></trkpt><trkpt lat="38.061575" lon="15.8411267"><ele>1002.0</ele><time>2026-04-25T08:37:54.816Z</time></trkpt><trkpt lat="38.06145" lon="15.8411967"><ele>1002.0</ele><time>2026-04-25T08:37:55.816Z</time></trkpt><trkpt lat="38.061325" lon="15.8412067"><ele>1002.0</ele><time>2026-04-25T08:37:56.816Z</time></trkpt><trkpt lat="38.06119" lon="15.84121"><ele>1002.0</ele><time>2026-04-25T08:37:57.815Z</time></trkpt><trkpt lat="38.061095" lon="15.8412367"><ele>1002.0</ele><time>2026-04-25T08:37:58.816Z</time></trkpt><trkpt lat="38.06101" lon="15.8412617"><ele>1002.0</ele><time>2026-04-25T08:37:59.816Z</time></trkpt><trkpt lat="38.0609483" lon="15.841375"><ele>1002.0</ele><time>2026-04-25T08:38:01.815Z</time></trkpt><trkpt lat="38.0609117" lon="15.8414733"><ele>1002.0</ele><time>2026-04-25T08:38:02.816Z</time></trkpt><trkpt lat="38.060885" lon="15.8415983"><ele>1002.0</ele><time>2026-04-25T08:38:03.816Z</time></trkpt><trkpt lat="38.0608717" lon="15.8417483"><ele>1002.0</ele><time>2026-04-25T08:38:04.816Z</time></trkpt><trkpt lat="38.0608417" lon="15.8419"><ele>1002.0</ele><time>2026-04-25T08:38:05.815Z</time></trkpt><trkpt lat="38.0608083" lon="15.8420233"><ele>999.6666666666666</ele><time>2026-04-25T08:38:06.816Z</time></trkpt><trkpt lat="38.060795" lon="15.8421417"><ele>997.3333333333333</ele><time>2026-04-25T08:38:07.816Z</time></trkpt><trkpt lat="38.0607967" lon="15.8422583"><ele>995.0</ele><time>2026-04-25T08:38:08.815Z</time></trkpt><trkpt lat="38.0607983" lon="15.8423767"><ele>992.6666666666666</ele><time>2026-04-25T08:38:09.816Z</time></trkpt><trkpt lat="38.0607933" lon="15.8424867"><ele>990.3333333333333</ele><time>2026-04-25T08:38:10.816Z</time></trkpt><trkpt lat="38.06078" lon="15.8425833"><ele>988.0</ele><time>2026-04-25T08:38:11.816Z</time></trkpt><trkpt lat="38.060745" lon="15.84266"><ele>996.5</ele><time>2026-04-25T08:38:12.816Z</time></trkpt><trkpt lat="38.0606283" lon="15.8427317"><ele>1005.0</ele><time>2026-04-25T08:38:13.815Z</time></trkpt><trkpt lat="38.0604967" lon="15.8427883"><ele>1013.5</ele><time>2026-04-25T08:38:14.816Z</time></trkpt><trkpt lat="38.0603667" lon="15.8428483"><ele>1022.0</ele><time>2026-04-25T08:38:15.816Z</time></trkpt><trkpt lat="38.060245" lon="15.8429133"><ele>1022.0</ele><time>2026-04-25T08:38:16.816Z</time></trkpt><trkpt lat="38.0601367" lon="15.84299"><ele>1022.0</ele><time>2026-04-25T08:38:17.816Z</time></trkpt><trkpt lat="38.0600317" lon="15.843045"><ele>1022.0</ele><time>2026-04-25T08:38:18.815Z</time></trkpt><trkpt lat="38.0599433" lon="15.8430933"><ele>1022.0</ele><time>2026-04-25T08:38:19.815Z</time></trkpt><trkpt lat="38.05987" lon="15.84315"><ele>1022.0</ele><time>2026-04-25T08:38:20.816Z</time></trkpt><trkpt lat="38.0598117" lon="15.843245"><ele>1012.0</ele><time>2026-04-25T08:38:21.816Z</time></trkpt><trkpt lat="38.059775" lon="15.8433483"><ele>1002.0</ele><time>2026-04-25T08:38:22.816Z</time></trkpt><trkpt lat="38.0597383" lon="15.8434417"><ele>992.0</ele><time>2026-04-25T08:38:23.816Z</time></trkpt><trkpt lat="38.0597583" lon="15.8436067"><ele>982.0</ele><time>2026-04-25T08:38:25.816Z</time></trkpt><trkpt lat="38.0597967" lon="15.843725"><ele>972.0</ele><time>2026-04-25T08:38:26.816Z</time></trkpt><trkpt lat="38.0598183" lon="15.8438433"><ele>972.0</ele><time>2026-04-25T08:38:27.816Z</time></trkpt><trkpt lat="38.0598417" lon="15.8439817"><ele>972.0</ele><time>2026-04-25T08:38:28.815Z</time></trkpt><trkpt lat="38.0598933" lon="15.8441217"><ele>972.0</ele><time>2026-04-25T08:38:29.816Z</time></trkpt><trkpt lat="38.0599217" lon="15.8442617"><ele>972.0</ele><time>2026-04-25T08:38:30.816Z</time></trkpt><trkpt lat="38.059945" lon="15.844385"><ele>972.0</ele><time>2026-04-25T08:38:31.816Z</time></trkpt><trkpt lat="38.0599717" lon="15.8445067"><ele>975.2</ele><time>2026-04-25T08:38:32.816Z</time></trkpt><trkpt lat="38.0599333" lon="15.8445967"><ele>978.4000000000001</ele><time>2026-04-25T08:38:33.816Z</time></trkpt><trkpt lat="38.059885" lon="15.8447017"><ele>981.5999999999999</ele><time>2026-04-25T08:38:34.816Z</time></trkpt><trkpt lat="38.0598483" lon="15.8447967"><ele>984.8</ele><time>2026-04-25T08:38:35.816Z</time></trkpt><trkpt lat="38.0598217" lon="15.844895"><ele>988.0</ele><time>2026-04-25T08:38:36.816Z</time></trkpt><trkpt lat="38.0599" lon="15.8450117"><ele>993.8</ele><time>2026-04-25T08:38:38.816Z</time></trkpt><trkpt lat="38.059995" lon="15.8450567"><ele>999.5999999999999</ele><time>2026-04-25T08:38:39.815Z</time></trkpt><trkpt lat="38.0600867" lon="15.8451317"><ele>1005.4000000000001</ele><time>2026-04-25T08:38:40.816Z</time></trkpt><trkpt lat="38.0601417" lon="15.8452233"><ele>1011.2</ele><time>2026-04-25T08:38:41.816Z</time></trkpt><trkpt lat="38.0602033" lon="15.8453167"><ele>1017.0</ele><time>2026-04-25T08:38:42.816Z</time></trkpt><trkpt lat="38.0602617" lon="15.84541"><ele>1018.8333333333334</ele><time>2026-04-25T08:38:43.816Z</time></trkpt><trkpt lat="38.0603133" lon="15.8455117"><ele>1020.6666666666667</ele><time>2026-04-25T08:38:44.815Z</time></trkpt><trkpt lat="38.060385" lon="15.84559"><ele>1022.5</ele><time>2026-04-25T08:38:45.816Z</time></trkpt><trkpt lat="38.0604517" lon="15.845615"><ele>1024.3333333333335</ele><time>2026-04-25T08:38:46.816Z</time></trkpt><trkpt lat="38.0603767" lon="15.8456333"><ele>1026.1666666666667</ele><time>2026-04-25T08:38:49.816Z</time></trkpt><trkpt lat="38.0603033" lon="15.84562"><ele>1028.0</ele><time>2026-04-25T08:38:50.816Z</time></trkpt><trkpt lat="38.0601933" lon="15.8455783"><ele>1028.0</ele><time>2026-04-25T08:38:51.815Z</time></trkpt><trkpt lat="38.0600783" lon="15.8456267"><ele>1028.0</ele><time>2026-04-25T08:38:52.816Z</time></trkpt><trkpt lat="38.060005" lon="15.845685"><ele>1028.0</ele><time>2026-04-25T08:38:53.816Z</time></trkpt><trkpt lat="38.05989" lon="15.8457683"><ele>1028.0</ele><time>2026-04-25T08:38:55.815Z</time></trkpt><trkpt lat="38.0597883" lon="15.84584"><ele>1026.2</ele><time>2026-04-25T08:38:56.816Z</time></trkpt><trkpt lat="38.0596733" lon="15.8459217"><ele>1024.4</ele><time>2026-04-25T08:38:57.816Z</time></trkpt><trkpt lat="38.059585" lon="15.8459917"><ele>1022.6000000000001</ele><time>2026-04-25T08:38:58.815Z</time></trkpt><trkpt lat="38.0594983" lon="15.846065"><ele>1020.8000000000001</ele><time>2026-04-25T08:38:59.816Z</time></trkpt><trkpt lat="38.0594067" lon="15.846115"><ele>1019.0</ele><time>2026-04-25T08:39:00.815Z</time></trkpt><trkpt lat="38.0593117" lon="15.8461383"><ele>1031.0</ele><time>2026-04-25T08:39:01.815Z</time></trkpt><trkpt lat="38.0591567" lon="15.8462083"><ele>1043.0</ele><time>2026-04-25T08:39:02.816Z</time></trkpt><trkpt lat="38.059085" lon="15.8461933"><ele>1055.0</ele><time>2026-04-25T08:39:03.816Z</time></trkpt><trkpt lat="38.05895" lon="15.8461317"><ele>1067.0</ele><time>2026-04-25T08:39:05.816Z</time></trkpt><trkpt lat="38.0588633" lon="15.8460783"><ele>1068.0</ele><time>2026-04-25T08:39:06.816Z</time></trkpt><trkpt lat="38.0588267" lon="15.84598"><ele>1069.0</ele><time>2026-04-25T08:39:07.816Z</time></trkpt><trkpt lat="38.058795" lon="15.8458917"><ele>1070.0</ele><time>2026-04-25T08:39:09.816Z</time></trkpt><trkpt lat="38.0587317" lon="15.8459383"><ele>1071.0</ele><time>2026-04-25T08:39:11.816Z</time></trkpt><trkpt lat="38.0586" lon="15.846025"><ele>1072.0</ele><time>2026-04-25T08:39:13.816Z</time></trkpt><trkpt lat="38.0585283" lon="15.8460383"><ele>1072.0</ele><time>2026-04-25T08:39:14.816Z</time></trkpt><trkpt lat="38.0584267" lon="15.84599"><ele>1072.0</ele><time>2026-04-25T08:39:16.815Z</time></trkpt><trkpt lat="38.0583283" lon="15.8458767"><ele>1072.0</ele><time>2026-04-25T08:39:18.816Z</time></trkpt><trkpt lat="38.0582567" lon="15.8458033"><ele>1072.0</ele><time>2026-04-25T08:39:19.816Z</time></trkpt><trkpt lat="38.0581767" lon="15.84574"><ele>1072.0</ele><time>2026-04-25T08:39:20.816Z</time></trkpt><trkpt lat="38.0580517" lon="15.845675"><ele>1067.8</ele><time>2026-04-25T08:39:21.815Z</time></trkpt><trkpt lat="38.0579517" lon="15.8456317"><ele>1063.6</ele><time>2026-04-25T08:39:22.816Z</time></trkpt><trkpt lat="38.0578533" lon="15.8455883"><ele>1059.3999999999999</ele><time>2026-04-25T08:39:23.816Z</time></trkpt><trkpt lat="38.0577583" lon="15.8455"><ele>1055.2</ele><time>2026-04-25T08:39:24.815Z</time></trkpt><trkpt lat="38.0576633" lon="15.8454383"><ele>1051.0</ele><time>2026-04-25T08:39:25.816Z</time></trkpt><trkpt lat="38.0575783" lon="15.8453567"><ele>1051.0</ele><time>2026-04-25T08:39:26.816Z</time></trkpt><trkpt lat="38.0575083" lon="15.8452633"><ele>1051.0</ele><time>2026-04-25T08:39:27.815Z</time></trkpt><trkpt lat="38.0574317" lon="15.84517"><ele>1051.0</ele><time>2026-04-25T08:39:28.816Z</time></trkpt><trkpt lat="38.0573667" lon="15.8450483"><ele>1051.0</ele><time>2026-04-25T08:39:29.816Z</time></trkpt><trkpt lat="38.0573233" lon="15.8449"><ele>1051.0</ele><time>2026-04-25T08:39:30.815Z</time></trkpt><trkpt lat="38.0572983" lon="15.844745"><ele>1046.8</ele><time>2026-04-25T08:39:31.815Z</time></trkpt><trkpt lat="38.0572817" lon="15.8446033"><ele>1042.6</ele><time>2026-04-25T08:39:32.815Z</time></trkpt><trkpt lat="38.057285" lon="15.8444917"><ele>1038.4</ele><time>2026-04-25T08:39:33.816Z</time></trkpt><trkpt lat="38.0572467" lon="15.8443867"><ele>1034.2</ele><time>2026-04-25T08:39:34.815Z</time></trkpt><trkpt lat="38.0572" lon="15.8442867"><ele>1030.0</ele><time>2026-04-25T08:39:35.816Z</time></trkpt><trkpt lat="38.0571467" lon="15.844195"><ele>1026.142857142857</ele><time>2026-04-25T08:39:36.816Z</time></trkpt><trkpt lat="38.0570967" lon="15.844135"><ele>1022.2857142857142</ele><time>2026-04-25T08:39:37.815Z</time></trkpt><trkpt lat="38.057015" lon="15.8441417"><ele>1018.4285714285713</ele><time>2026-04-25T08:39:38.816Z</time></trkpt><trkpt lat="38.0569417" lon="15.8441917"><ele>1014.5714285714286</ele><time>2026-04-25T08:39:39.816Z</time></trkpt><trkpt lat="38.056875" lon="15.8442067"><ele>1010.7142857142856</ele><time>2026-04-25T08:39:40.816Z</time></trkpt><trkpt lat="38.0568017" lon="15.8442217"><ele>1006.8571428571428</ele><time>2026-04-25T08:39:41.815Z</time></trkpt><trkpt lat="38.0567317" lon="15.844245"><ele>1003.0</ele><time>2026-04-25T08:39:42.816Z</time></trkpt><trkpt lat="38.05661" lon="15.8443517"><ele>1000.5999999999999</ele><time>2026-04-25T08:39:44.815Z</time></trkpt><trkpt lat="38.0566067" lon="15.84446"><ele>998.1999999999999</ele><time>2026-04-25T08:39:45.815Z</time></trkpt><trkpt lat="38.05659" lon="15.8445583"><ele>995.8</ele><time>2026-04-25T08:39:46.816Z</time></trkpt><trkpt lat="38.0566" lon="15.8446767"><ele>993.4</ele><time>2026-04-25T08:39:47.815Z</time></trkpt><trkpt lat="38.0565883" lon="15.8448017"><ele>991.0</ele><time>2026-04-25T08:39:48.815Z</time></trkpt><trkpt lat="38.0565883" lon="15.8449233"><ele>991.0</ele><time>2026-04-25T08:39:49.815Z</time></trkpt><trkpt lat="38.0565883" lon="15.8450483"><ele>990.9999999999999</ele><time>2026-04-25T08:39:50.816Z</time></trkpt><trkpt lat="38.0565733" lon="15.845135"><ele>990.9999999999999</ele><time>2026-04-25T08:39:51.816Z</time></trkpt><trkpt lat="38.0564833" lon="15.8452167"><ele>991.0</ele><time>2026-04-25T08:39:52.816Z</time></trkpt><trkpt lat="38.05637" lon="15.845275"><ele>991.0</ele><time>2026-04-25T08:39:53.815Z</time></trkpt><trkpt lat="38.0562767" lon="15.8453467"><ele>999.1999999999999</ele><time>2026-04-25T08:39:54.816Z</time></trkpt><trkpt lat="38.0561533" lon="15.8453783"><ele>1007.3999999999999</ele><time>2026-04-25T08:39:55.816Z</time></trkpt><trkpt lat="38.0560717" lon="15.8454283"><ele>1015.6</ele><time>2026-04-25T08:39:56.815Z</time></trkpt><trkpt lat="38.05601" lon="15.8455017"><ele>1023.8</ele><time>2026-04-25T08:39:57.816Z</time></trkpt><trkpt lat="38.0559717" lon="15.8455967"><ele>1032.0</ele><time>2026-04-25T08:39:58.816Z</time></trkpt><trkpt lat="38.0559233" lon="15.8456917"><ele>1032.0</ele><time>2026-04-25T08:39:59.816Z</time></trkpt><trkpt lat="38.0558783" lon="15.8457817"><ele>1032.0</ele><time>2026-04-25T08:40:00.815Z</time></trkpt><trkpt lat="38.0558017" lon="15.84583"><ele>1032.0</ele><time>2026-04-25T08:40:01.816Z</time></trkpt><trkpt lat="38.0557133" lon="15.8458867"><ele>1032.0</ele><time>2026-04-25T08:40:02.815Z</time></trkpt><trkpt lat="38.0556167" lon="15.84594"><ele>1032.0</ele><time>2026-04-25T08:40:03.816Z</time></trkpt><trkpt lat="38.0555267" lon="15.845995"><ele>1031.5</ele><time>2026-04-25T08:40:04.816Z</time></trkpt><trkpt lat="38.055455" lon="15.8460333"><ele>1031.0</ele><time>2026-04-25T08:40:05.816Z</time></trkpt><trkpt lat="38.055395" lon="15.8460583"><ele>1030.5</ele><time>2026-04-25T08:40:06.815Z</time></trkpt><trkpt lat="38.0553167" lon="15.846095"><ele>1030.0</ele><time>2026-04-25T08:40:07.816Z</time></trkpt><trkpt lat="38.05524" lon="15.8460317"><ele>1029.5</ele><time>2026-04-25T08:40:08.815Z</time></trkpt><trkpt lat="38.055185" lon="15.8458817"><ele>1029.0</ele><time>2026-04-25T08:40:09.816Z</time></trkpt><trkpt lat="38.0551267" lon="15.8457583"><ele>1029.0</ele><time>2026-04-25T08:40:10.815Z</time></trkpt><trkpt lat="38.0550733" lon="15.84566"><ele>1029.0</ele><time>2026-04-25T08:40:11.815Z</time></trkpt><trkpt lat="38.0550233" lon="15.8455967"><ele>1029.0</ele><time>2026-04-25T08:40:12.816Z</time></trkpt><trkpt lat="38.0549617" lon="15.845525"><ele>1029.0</ele><time>2026-04-25T08:40:13.816Z</time></trkpt><trkpt lat="38.0576633" lon="15.8454383"><ele>1029.2</ele><time>2026-04-25T08:39:25.816Z</time></trkpt><trkpt lat="38.0575783" lon="15.8453567"><ele>1029.4</ele><time>2026-04-25T08:39:26.816Z</time></trkpt><trkpt lat="38.0575083" lon="15.8452633"><ele>1029.6</ele><time>2026-04-25T08:39:27.815Z</time></trkpt><trkpt lat="38.0574317" lon="15.84517"><ele>1029.8</ele><time>2026-04-25T08:39:28.816Z</time></trkpt><trkpt lat="38.0573667" lon="15.8450483"><ele>1030.0</ele><time>2026-04-25T08:39:29.816Z</time></trkpt><trkpt lat="38.0573233" lon="15.8449"><ele>1030.0</ele><time>2026-04-25T08:39:30.815Z</time></trkpt><trkpt lat="38.0572983" lon="15.844745"><ele>1030.0</ele><time>2026-04-25T08:39:31.815Z</time></trkpt><trkpt lat="38.0572817" lon="15.8446033"><ele>1030.0</ele><time>2026-04-25T08:39:32.815Z</time></trkpt><trkpt lat="38.057285" lon="15.8444917"><ele>1030.0</ele><time>2026-04-25T08:39:33.816Z</time></trkpt><trkpt lat="38.0572467" lon="15.8443867"><ele>1030.0</ele><time>2026-04-25T08:39:34.815Z</time></trkpt><trkpt lat="38.0572" lon="15.8442867"><ele>1025.5</ele><time>2026-04-25T08:39:35.816Z</time></trkpt><trkpt lat="38.0571467" lon="15.844195"><ele>1021.0</ele><time>2026-04-25T08:39:36.816Z</time></trkpt><trkpt lat="38.0570967" lon="15.844135"><ele>1016.5</ele><time>2026-04-25T08:39:37.815Z</time></trkpt><trkpt lat="38.057015" lon="15.8441417"><ele>1012.0</ele><time>2026-04-25T08:39:38.816Z</time></trkpt><trkpt lat="38.0569417" lon="15.8441917"><ele>1007.4999999999999</ele><time>2026-04-25T08:39:39.816Z</time></trkpt><trkpt lat="38.056875" lon="15.8442067"><ele>1003.0</ele><time>2026-04-25T08:39:40.816Z</time></trkpt><trkpt lat="38.0568017" lon="15.8442217"><ele>1003.0</ele><time>2026-04-25T08:39:41.815Z</time></trkpt><trkpt lat="38.0567317" lon="15.844245"><ele>1003.0</ele><time>2026-04-25T08:39:42.816Z</time></trkpt><trkpt lat="38.05661" lon="15.8443517"><ele>1003.0</ele><time>2026-04-25T08:39:44.815Z</time></trkpt><trkpt lat="38.0566067" lon="15.84446"><ele>1003.0</ele><time>2026-04-25T08:39:45.815Z</time></trkpt><trkpt lat="38.05659" lon="15.8445583"><ele>1003.0</ele><time>2026-04-25T08:39:46.816Z</time></trkpt><trkpt lat="38.0566" lon="15.8446767"><ele>1000.5999999999999</ele><time>2026-04-25T08:39:47.815Z</time></trkpt><trkpt lat="38.0565883" lon="15.8448017"><ele>998.1999999999999</ele><time>2026-04-25T08:39:48.815Z</time></trkpt><trkpt lat="38.0565883" lon="15.8449233"><ele>995.8</ele><time>2026-04-25T08:39:49.815Z</time></trkpt><trkpt lat="38.0565883" lon="15.8450483"><ele>993.4</ele><time>2026-04-25T08:39:50.816Z</time></trkpt><trkpt lat="38.0565733" lon="15.845135"><ele>991.0</ele><time>2026-04-25T08:39:51.816Z</time></trkpt><trkpt lat="38.0564833" lon="15.8452167"><ele>999.1999999999999</ele><time>2026-04-25T08:39:52.816Z</time></trkpt><trkpt lat="38.05637" lon="15.845275"><ele>1007.3999999999999</ele><time>2026-04-25T08:39:53.815Z</time></trkpt><trkpt lat="38.0562767" lon="15.8453467"><ele>1015.6</ele><time>2026-04-25T08:39:54.816Z</time></trkpt><trkpt lat="38.0561533" lon="15.8453783"><ele>1023.8</ele><time>2026-04-25T08:39:55.816Z</time></trkpt><trkpt lat="38.0560717" lon="15.8454283"><ele>1032.0</ele><time>2026-04-25T08:39:56.815Z</time></trkpt><trkpt lat="38.05601" lon="15.8455017"><ele>1032.0</ele><time>2026-04-25T08:39:57.816Z</time></trkpt><trkpt lat="38.0559717" lon="15.8455967"><ele>1032.0</ele><time>2026-04-25T08:39:58.816Z</time></trkpt><trkpt lat="38.0559233" lon="15.8456917"><ele>1032.0</ele><time>2026-04-25T08:39:59.816Z</time></trkpt><trkpt lat="38.0558783" lon="15.8457817"><ele>1032.0</ele><time>2026-04-25T08:40:00.815Z</time></trkpt><trkpt lat="38.0558017" lon="15.84583"><ele>1032.0</ele><time>2026-04-25T08:40:01.816Z</time></trkpt><trkpt lat="38.0557133" lon="15.8458867"><ele>1032.0</ele><time>2026-04-25T08:40:02.815Z</time></trkpt><trkpt lat="38.0556167" lon="15.84594"><ele>1031.5</ele><time>2026-04-25T08:40:03.816Z</time></trkpt><trkpt lat="38.0555267" lon="15.845995"><ele>1031.0</ele><time>2026-04-25T08:40:04.816Z</time></trkpt><trkpt lat="38.055455" lon="15.8460333"><ele>1030.5</ele><time>2026-04-25T08:40:05.816Z</time></trkpt><trkpt lat="38.055395" lon="15.8460583"><ele>1030.0</ele><time>2026-04-25T08:40:06.815Z</time></trkpt><trkpt lat="38.0553167" lon="15.846095"><ele>1029.5</ele><time>2026-04-25T08:40:07.816Z</time></trkpt><trkpt lat="38.05524" lon="15.8460317"><ele>1029.0</ele><time>2026-04-25T08:40:08.815Z</time></trkpt><trkpt lat="38.055185" lon="15.8458817"><ele>1029.0</ele><time>2026-04-25T08:40:09.816Z</time></trkpt><trkpt lat="38.0551267" lon="15.8457583"><ele>1029.0</ele><time>2026-04-25T08:40:10.815Z</time></trkpt><trkpt lat="38.0550733" lon="15.84566"><ele>1029.0</ele><time>2026-04-25T08:40:11.815Z</time></trkpt><trkpt lat="38.0550233" lon="15.8455967"><ele>1029.0</ele><time>2026-04-25T08:40:12.816Z</time></trkpt><trkpt lat="38.0549617" lon="15.845525"><ele>1029.0</ele><time>2026-04-25T08:40:13.816Z</time></trkpt><trkpt lat="38.0548817" lon="15.845555"><ele>1029.0</ele><time>2026-04-25T08:40:15.815Z</time></trkpt><trkpt lat="38.054825" lon="15.8456583"><ele>1032.4</ele><time>2026-04-25T08:40:16.816Z</time></trkpt><trkpt lat="38.05477" lon="15.8457333"><ele>1035.8000000000002</ele><time>2026-04-25T08:40:17.816Z</time></trkpt><trkpt lat="38.0547383" lon="15.845835"><ele>1039.1999999999998</ele><time>2026-04-25T08:40:18.816Z</time></trkpt><trkpt lat="38.0546933" lon="15.8459267"><ele>1042.6</ele><time>2026-04-25T08:40:19.815Z</time></trkpt><trkpt lat="38.05462" lon="15.846025"><ele>1046.0</ele><time>2026-04-25T08:40:20.816Z</time></trkpt><trkpt lat="38.05455" lon="15.84611"><ele>1046.0</ele><time>2026-04-25T08:40:21.816Z</time></trkpt><trkpt lat="38.0545" lon="15.8461983"><ele>1046.0</ele><time>2026-04-25T08:40:22.816Z</time></trkpt><trkpt lat="38.0544217" lon="15.8462867"><ele>1046.0</ele><time>2026-04-25T08:40:23.815Z</time></trkpt><trkpt lat="38.0543233" lon="15.8463717"><ele>1046.0</ele><time>2026-04-25T08:40:24.816Z</time></trkpt><trkpt lat="38.0542333" lon="15.84648"><ele>1046.0</ele><time>2026-04-25T08:40:25.815Z</time></trkpt><trkpt lat="38.0541367" lon="15.8465883"><ele>1044.0</ele><time>2026-04-25T08:40:26.816Z</time></trkpt><trkpt lat="38.054055" lon="15.846675"><ele>1042.0</ele><time>2026-04-25T08:40:27.816Z</time></trkpt><trkpt lat="38.0539733" lon="15.8466967"><ele>1040.0</ele><time>2026-04-25T08:40:28.815Z</time></trkpt><trkpt lat="38.053885" lon="15.8467067"><ele>1038.0</ele><time>2026-04-25T08:40:29.816Z</time></trkpt><trkpt lat="38.053815" lon="15.8467317"><ele>1036.0</ele><time>2026-04-25T08:40:30.815Z</time></trkpt><trkpt lat="38.0537433" lon="15.84676"><ele>1034.0</ele><time>2026-04-25T08:40:31.816Z</time></trkpt><trkpt lat="38.05367" lon="15.8468067"><ele>1034.0</ele><time>2026-04-25T08:40:32.816Z</time></trkpt><trkpt lat="38.05359" lon="15.84687"><ele>1034.0</ele><time>2026-04-25T08:40:33.816Z</time></trkpt><trkpt lat="38.0534983" lon="15.8469383"><ele>1034.0</ele><time>2026-04-25T08:40:34.815Z</time></trkpt><trkpt lat="38.0533933" lon="15.8470167"><ele>1034.0</ele><time>2026-04-25T08:40:35.816Z</time></trkpt><trkpt lat="38.0532817" lon="15.8471133"><ele>1023.4000000000001</ele><time>2026-04-25T08:40:36.816Z</time></trkpt><trkpt lat="38.0532" lon="15.8472"><ele>1012.8000000000001</ele><time>2026-04-25T08:40:37.816Z</time></trkpt><trkpt lat="38.05313" lon="15.8472933"><ele>1002.1999999999999</ele><time>2026-04-25T08:40:38.815Z</time></trkpt><trkpt lat="38.0530833" lon="15.8473867"><ele>991.5999999999999</ele><time>2026-04-25T08:40:39.816Z</time></trkpt><trkpt lat="38.053135" lon="15.8475067"><ele>981.0</ele><time>2026-04-25T08:40:40.816Z</time></trkpt><trkpt lat="38.0531683" lon="15.8476167"><ele>985.8</ele><time>2026-04-25T08:40:41.816Z</time></trkpt><trkpt lat="38.0532017" lon="15.847745"><ele>990.5999999999999</ele><time>2026-04-25T08:40:42.816Z</time></trkpt><trkpt lat="38.0531983" lon="15.8478633"><ele>995.4</ele><time>2026-04-25T08:40:43.815Z</time></trkpt><trkpt lat="38.0532033" lon="15.8479817"><ele>1000.2</ele><time>2026-04-25T08:40:44.816Z</time></trkpt><trkpt lat="38.0532133" lon="15.848095"><ele>1005.0</ele><time>2026-04-25T08:40:45.816Z</time></trkpt><trkpt lat="38.0533217" lon="15.848145"><ele>1012.6</ele><time>2026-04-25T08:40:46.816Z</time></trkpt><trkpt lat="38.0534017" lon="15.8482"><ele>1020.2</ele><time>2026-04-25T08:40:47.816Z</time></trkpt><trkpt lat="38.0534433" lon="15.848275"><ele>1027.8</ele><time>2026-04-25T08:40:48.815Z</time></trkpt><trkpt lat="38.0534567" lon="15.8483967"><ele>1035.4</ele><time>2026-04-25T08:40:50.816Z</time></trkpt><trkpt lat="38.0534233" lon="15.8485"><ele>1043.0</ele><time>2026-04-25T08:40:52.815Z</time></trkpt><trkpt lat="38.0533267" lon="15.8485967"><ele>1041.1666666666667</ele><time>2026-04-25T08:40:54.816Z</time></trkpt><trkpt lat="38.0532583" lon="15.848635"><ele>1039.3333333333335</ele><time>2026-04-25T08:40:55.816Z</time></trkpt><trkpt lat="38.0531983" lon="15.8487233"><ele>1037.5</ele><time>2026-04-25T08:40:57.816Z</time></trkpt><trkpt lat="38.05321" lon="15.8488633"><ele>1035.6666666666667</ele><time>2026-04-25T08:40:59.815Z</time></trkpt><trkpt lat="38.0532083" lon="15.8489433"><ele>1033.8333333333333</ele><time>2026-04-25T08:41:00.815Z</time></trkpt><trkpt lat="38.05324" lon="15.8490567"><ele>1032.0</ele><time>2026-04-25T08:41:01.816Z</time></trkpt><trkpt lat="38.0532433" lon="15.8491667"><ele>1032.0</ele><time>2026-04-25T08:41:02.816Z</time></trkpt><trkpt lat="38.0532217" lon="15.849265"><ele>1032.0</ele><time>2026-04-25T08:41:03.816Z</time></trkpt><trkpt lat="38.0531533" lon="15.84938"><ele>1032.0</ele><time>2026-04-25T08:41:05.816Z</time></trkpt><trkpt lat="38.0531" lon="15.84944"><ele>1032.0</ele><time>2026-04-25T08:41:06.816Z</time></trkpt><trkpt lat="38.0530083" lon="15.84946"><ele>1032.0</ele><time>2026-04-25T08:41:07.816Z</time></trkpt><trkpt lat="38.0529317" lon="15.8495383"><ele>1039.6</ele><time>2026-04-25T08:41:09.815Z</time></trkpt><trkpt lat="38.0528917" lon="15.8496117"><ele>1047.2</ele><time>2026-04-25T08:41:10.816Z</time></trkpt><trkpt lat="38.05284" lon="15.8497183"><ele>1054.8</ele><time>2026-04-25T08:41:11.816Z</time></trkpt><trkpt lat="38.0527967" lon="15.849825"><ele>1062.4</ele><time>2026-04-25T08:41:12.815Z</time></trkpt><trkpt lat="38.05275" lon="15.8499367"><ele>1070.0</ele><time>2026-04-25T08:41:13.816Z</time></trkpt><trkpt lat="38.0527083" lon="15.85005"><ele>1078.8</ele><time>2026-04-25T08:41:14.816Z</time></trkpt><trkpt lat="38.052685" lon="15.8501717"><ele>1087.6</ele><time>2026-04-25T08:41:15.816Z</time></trkpt><trkpt lat="38.0526583" lon="15.8502817"><ele>1096.4</ele><time>2026-04-25T08:41:16.816Z</time></trkpt><trkpt lat="38.0526267" lon="15.8503717"><ele>1105.2</ele><time>2026-04-25T08:41:17.816Z</time></trkpt><trkpt lat="38.0525883" lon="15.85044"><ele>1114.0</ele><time>2026-04-25T08:41:18.816Z</time></trkpt><trkpt lat="38.0524983" lon="15.8505567"><ele>1118.0</ele><time>2026-04-25T08:41:20.816Z</time></trkpt><trkpt lat="38.0524167" lon="15.850495"><ele>1122.0</ele><time>2026-04-25T08:41:21.816Z</time></trkpt><trkpt lat="38.0523567" lon="15.8504667"><ele>1126.0</ele><time>2026-04-25T08:41:22.815Z</time></trkpt><trkpt lat="38.0522483" lon="15.85034"><ele>1130.0</ele><time>2026-04-25T08:41:23.815Z</time></trkpt><trkpt lat="38.0521117" lon="15.85026"><ele>1130.0</ele><time>2026-04-25T08:41:24.816Z</time></trkpt><trkpt lat="38.0520083" lon="15.8501917"><ele>1130.0</ele><time>2026-04-25T08:41:25.815Z</time></trkpt><trkpt lat="38.0519083" lon="15.8501683"><ele>1130.0</ele><time>2026-04-25T08:41:26.815Z</time></trkpt><trkpt lat="38.0518067" lon="15.8501217"><ele>1130.0</ele><time>2026-04-25T08:41:27.816Z</time></trkpt><trkpt lat="38.0517067" lon="15.85007"><ele>1130.0</ele><time>2026-04-25T08:41:28.816Z</time></trkpt><trkpt lat="38.0516117" lon="15.849975"><ele>1124.25</ele><time>2026-04-25T08:41:29.816Z</time></trkpt><trkpt lat="38.0515133" lon="15.8498933"><ele>1118.5</ele><time>2026-04-25T08:41:30.815Z</time></trkpt><trkpt lat="38.05143" lon="15.8497767"><ele>1112.75</ele><time>2026-04-25T08:41:31.815Z</time></trkpt><trkpt lat="38.051365" lon="15.8496367"><ele>1107.0</ele><time>2026-04-25T08:41:32.815Z</time></trkpt><trkpt lat="38.0513567" lon="15.84947"><ele>1107.0</ele><time>2026-04-25T08:41:33.816Z</time></trkpt><trkpt lat="38.0513283" lon="15.8493917"><ele>1107.0</ele><time>2026-04-25T08:41:34.816Z</time></trkpt><trkpt lat="38.0511883" lon="15.8493833"><ele>1107.0</ele><time>2026-04-25T08:41:36.816Z</time></trkpt><trkpt lat="38.0511033" lon="15.84942"><ele>1107.0</ele><time>2026-04-25T08:41:37.816Z</time></trkpt><trkpt lat="38.05101" lon="15.8494733"><ele>1107.0</ele><time>2026-04-25T08:41:38.816Z</time></trkpt><trkpt lat="38.0509233" lon="15.8495117"><ele>1107.0</ele><time>2026-04-25T08:41:39.815Z</time></trkpt><trkpt lat="38.0508467" lon="15.8495067"><ele>1107.0</ele><time>2026-04-25T08:41:40.816Z</time></trkpt><trkpt lat="38.050775" lon="15.8495"><ele>1107.0</ele><time>2026-04-25T08:41:41.816Z</time></trkpt><trkpt lat="38.0507" lon="15.8493433"><ele>1107.0</ele><time>2026-04-25T08:41:42.816Z</time></trkpt><trkpt lat="38.050615" lon="15.849225"><ele>1107.0</ele><time>2026-04-25T08:41:43.816Z</time></trkpt><trkpt lat="38.0505333" lon="15.8490817"><ele>1108.5</ele><time>2026-04-25T08:41:44.816Z</time></trkpt><trkpt lat="38.0504483" lon="15.8489417"><ele>1110.0</ele><time>2026-04-25T08:41:45.816Z</time></trkpt><trkpt lat="38.05035" lon="15.8488133"><ele>1111.5</ele><time>2026-04-25T08:41:46.815Z</time></trkpt><trkpt lat="38.05028" lon="15.8486733"><ele>1113.0</ele><time>2026-04-25T08:41:47.816Z</time></trkpt><trkpt lat="38.050275" lon="15.8485333"><ele>1107.25</ele><time>2026-04-25T08:41:48.816Z</time></trkpt><trkpt lat="38.050275" lon="15.84837"><ele>1101.5</ele><time>2026-04-25T08:41:49.815Z</time></trkpt><trkpt lat="38.0502867" lon="15.8482017"><ele>1095.75</ele><time>2026-04-25T08:41:50.816Z</time></trkpt><trkpt lat="38.0502817" lon="15.8480717"><ele>1090.0</ele><time>2026-04-25T08:41:51.815Z</time></trkpt><trkpt lat="38.0502233" lon="15.8479767"><ele>1090.0</ele><time>2026-04-25T08:41:52.816Z</time></trkpt><trkpt lat="38.0501433" lon="15.847885"><ele>1090.0</ele><time>2026-04-25T08:41:53.815Z</time></trkpt><trkpt lat="38.0500433" lon="15.847795"><ele>1090.0</ele><time>2026-04-25T08:41:54.816Z</time></trkpt><trkpt lat="38.04998" lon="15.8476683"><ele>1090.0</ele><time>2026-04-25T08:41:55.816Z</time></trkpt><trkpt lat="38.049895" lon="15.8475533"><ele>1093.75</ele><time>2026-04-25T08:41:56.816Z</time></trkpt><trkpt lat="38.0498317" lon="15.8474183"><ele>1097.5</ele><time>2026-04-25T08:41:57.815Z</time></trkpt><trkpt lat="38.0497683" lon="15.8472883"><ele>1101.25</ele><time>2026-04-25T08:41:58.815Z</time></trkpt><trkpt lat="38.049705" lon="15.8471517"><ele>1105.0</ele><time>2026-04-25T08:41:59.816Z</time></trkpt><trkpt lat="38.049665" lon="15.846995"><ele>1105.0</ele><time>2026-04-25T08:42:00.816Z</time></trkpt><trkpt lat="38.0495983" lon="15.846885"><ele>1105.0</ele><time>2026-04-25T08:42:01.816Z</time></trkpt><trkpt lat="38.0495433" lon="15.8467867"><ele>1105.0</ele><time>2026-04-25T08:42:02.816Z</time></trkpt><trkpt lat="38.0494817" lon="15.8466933"><ele>1105.0</ele><time>2026-04-25T08:42:03.816Z</time></trkpt><trkpt lat="38.04938" lon="15.8465967"><ele>1105.0</ele><time>2026-04-25T08:42:04.816Z</time></trkpt><trkpt lat="38.0492717" lon="15.8464883"><ele>1101.25</ele><time>2026-04-25T08:42:05.816Z</time></trkpt><trkpt lat="38.0491133" lon="15.8463333"><ele>1097.5</ele><time>2026-04-25T08:42:06.816Z</time></trkpt><trkpt lat="38.0490583" lon="15.8461867"><ele>1093.75</ele><time>2026-04-25T08:42:07.815Z</time></trkpt><trkpt lat="38.048985" lon="15.8460917"><ele>1090.0</ele><time>2026-04-25T08:42:08.816Z</time></trkpt><trkpt lat="38.048905" lon="15.8459783"><ele>1083.4</ele><time>2026-04-25T08:42:09.816Z</time></trkpt><trkpt lat="38.0488183" lon="15.8459217"><ele>1076.8</ele><time>2026-04-25T08:42:10.816Z</time></trkpt><trkpt lat="38.0487217" lon="15.845875"><ele>1070.2</ele><time>2026-04-25T08:42:11.816Z</time></trkpt><trkpt lat="38.0486317" lon="15.84584"><ele>1063.6</ele><time>2026-04-25T08:42:12.815Z</time></trkpt><trkpt lat="38.0485167" lon="15.845825"><ele>1057.0</ele><time>2026-04-25T08:42:13.816Z</time></trkpt><trkpt lat="38.048435" lon="15.8458133"><ele>1057.0</ele><time>2026-04-25T08:42:14.816Z</time></trkpt><trkpt lat="38.0483517" lon="15.8458467"><ele>1057.0</ele><time>2026-04-25T08:42:15.816Z</time></trkpt><trkpt lat="38.0482433" lon="15.8458783"><ele>1057.0</ele><time>2026-04-25T08:42:16.816Z</time></trkpt><trkpt lat="38.0481283" lon="15.8459167"><ele>1057.0</ele><time>2026-04-25T08:42:17.816Z</time></trkpt><trkpt lat="38.0480083" lon="15.8459383"><ele>1057.0</ele><time>2026-04-25T08:42:18.816Z</time></trkpt><trkpt lat="38.047885" lon="15.8459733"><ele>1059.3333333333333</ele><time>2026-04-25T08:42:19.816Z</time></trkpt><trkpt lat="38.047735" lon="15.8461333"><ele>1061.6666666666667</ele><time>2026-04-25T08:42:20.815Z</time></trkpt><trkpt lat="38.0476117" lon="15.8462183"><ele>1064.0</ele><time>2026-04-25T08:42:21.816Z</time></trkpt><trkpt lat="38.0475117" lon="15.8463183"><ele>1062.0</ele><time>2026-04-25T08:42:22.816Z</time></trkpt><trkpt lat="38.0474333" lon="15.846405"><ele>1060.0</ele><time>2026-04-25T08:42:23.815Z</time></trkpt><trkpt lat="38.0473567" lon="15.8464867"><ele>1058.0</ele><time>2026-04-25T08:42:24.815Z</time></trkpt><trkpt lat="38.0472883" lon="15.8465883"><ele>1056.0</ele><time>2026-04-25T08:42:25.816Z</time></trkpt><trkpt lat="38.0472167" lon="15.84674"><ele>1054.0</ele><time>2026-04-25T08:42:26.815Z</time></trkpt><trkpt lat="38.0472" lon="15.8469417"><ele>1054.0</ele><time>2026-04-25T08:42:27.816Z</time></trkpt><trkpt lat="38.0471833" lon="15.8471433"><ele>1054.0</ele><time>2026-04-25T08:42:28.815Z</time></trkpt><trkpt lat="38.0471367" lon="15.8472983"><ele>1054.0</ele><time>2026-04-25T08:42:29.815Z</time></trkpt><trkpt lat="38.0471183" lon="15.84745"><ele>1054.0</ele><time>2026-04-25T08:42:30.816Z</time></trkpt><trkpt lat="38.0470767" lon="15.8475817"><ele>1060.8</ele><time>2026-04-25T08:42:31.816Z</time></trkpt><trkpt lat="38.0470333" lon="15.8476833"><ele>1067.6000000000001</ele><time>2026-04-25T08:42:32.816Z</time></trkpt><trkpt lat="38.046975" lon="15.8477433"><ele>1074.4</ele><time>2026-04-25T08:42:33.816Z</time></trkpt><trkpt lat="38.0469" lon="15.8478317"><ele>1081.2</ele><time>2026-04-25T08:42:34.816Z</time></trkpt><trkpt lat="38.0468267" lon="15.847945"><ele>1088.0</ele><time>2026-04-25T08:42:35.816Z</time></trkpt><trkpt lat="38.0467517" lon="15.848035"><ele>1084.75</ele><time>2026-04-25T08:42:36.816Z</time></trkpt><trkpt lat="38.0465883" lon="15.848005"><ele>1081.5</ele><time>2026-04-25T08:42:38.816Z</time></trkpt><trkpt lat="38.046485" lon="15.84803"><ele>1078.25</ele><time>2026-04-25T08:42:39.815Z</time></trkpt><trkpt lat="38.0463683" lon="15.848075"><ele>1075.0</ele><time>2026-04-25T08:42:40.816Z</time></trkpt><trkpt lat="38.0462583" lon="15.8480867"><ele>1075.0</ele><time>2026-04-25T08:42:41.815Z</time></trkpt><trkpt lat="38.0461717" lon="15.848065"><ele>1075.0</ele><time>2026-04-25T08:42:42.815Z</time></trkpt><trkpt lat="38.0460633" lon="15.84808"><ele>1075.0</ele><time>2026-04-25T08:42:43.816Z</time></trkpt><trkpt lat="38.0459333" lon="15.8480733"><ele>1075.0</ele><time>2026-04-25T08:42:44.816Z</time></trkpt><trkpt lat="38.0457867" lon="15.848085"><ele>1071.6666666666665</ele><time>2026-04-25T08:42:45.816Z</time></trkpt><trkpt lat="38.0456133" lon="15.8481067"><ele>1068.3333333333333</ele><time>2026-04-25T08:42:46.815Z</time></trkpt><trkpt lat="38.0454583" lon="15.8481233"><ele>1065.0</ele><time>2026-04-25T08:42:47.816Z</time></trkpt><trkpt lat="38.0452833" lon="15.8481283"><ele>1065.0</ele><time>2026-04-25T08:42:48.816Z</time></trkpt><trkpt lat="38.0451283" lon="15.848155"><ele>1065.0</ele><time>2026-04-25T08:42:49.816Z</time></trkpt><trkpt lat="38.044965" lon="15.84817"><ele>1065.0</ele><time>2026-04-25T08:42:50.815Z</time></trkpt><trkpt lat="38.0448133" lon="15.8482033"><ele>1063.75</ele><time>2026-04-25T08:42:51.815Z</time></trkpt><trkpt lat="38.0446683" lon="15.8482167"><ele>1062.5</ele><time>2026-04-25T08:42:52.816Z</time></trkpt><trkpt lat="38.0445467" lon="15.848205"><ele>1061.25</ele><time>2026-04-25T08:42:53.816Z</time></trkpt><trkpt lat="38.0444417" lon="15.8482167"><ele>1060.0</ele><time>2026-04-25T08:42:54.815Z</time></trkpt><trkpt lat="38.044335" lon="15.8482417"><ele>1060.0</ele><time>2026-04-25T08:42:55.815Z</time></trkpt><trkpt lat="38.0442717" lon="15.8482133"><ele>1060.0</ele><time>2026-04-25T08:42:56.816Z</time></trkpt><trkpt lat="38.04419" lon="15.8481733"><ele>1060.0</ele><time>2026-04-25T08:42:57.816Z</time></trkpt><trkpt lat="38.044115" lon="15.8481017"><ele>1060.0</ele><time>2026-04-25T08:42:58.816Z</time></trkpt><trkpt lat="38.0440383" lon="15.8481033"><ele>1060.0</ele><time>2026-04-25T08:42:59.815Z</time></trkpt><trkpt lat="38.04394" lon="15.8481267"><ele>1060.0</ele><time>2026-04-25T08:43:00.816Z</time></trkpt><trkpt lat="38.0438433" lon="15.8481583"><ele>1058.4</ele><time>2026-04-25T08:43:01.816Z</time></trkpt><trkpt lat="38.043755" lon="15.8481833"><ele>1056.8</ele><time>2026-04-25T08:43:02.816Z</time></trkpt><trkpt lat="38.0436683" lon="15.84823"><ele>1055.2</ele><time>2026-04-25T08:43:03.816Z</time></trkpt><trkpt lat="38.0435933" lon="15.8482867"><ele>1053.6</ele><time>2026-04-25T08:43:04.816Z</time></trkpt><trkpt lat="38.0435667" lon="15.8484367"><ele>1052.0</ele><time>2026-04-25T08:43:05.816Z</time></trkpt><trkpt lat="38.0435" lon="15.8485567"><ele>1052.0</ele><time>2026-04-25T08:43:06.816Z</time></trkpt><trkpt lat="38.043425" lon="15.8487233"><ele>1052.0</ele><time>2026-04-25T08:43:07.816Z</time></trkpt><trkpt lat="38.0433833" lon="15.8488967"><ele>1052.0</ele><time>2026-04-25T08:43:08.816Z</time></trkpt><trkpt lat="38.0433133" lon="15.8490317"><ele>1052.0</ele><time>2026-04-25T08:43:09.816Z</time></trkpt><trkpt lat="38.04327" lon="15.8491633"><ele>1051.1666666666667</ele><time>2026-04-25T08:43:10.816Z</time></trkpt><trkpt lat="38.04324" lon="15.8492583"><ele>1050.3333333333335</ele><time>2026-04-25T08:43:11.816Z</time></trkpt><trkpt lat="38.043235" lon="15.8493533"><ele>1049.5</ele><time>2026-04-25T08:43:12.816Z</time></trkpt><trkpt lat="38.0432517" lon="15.8494467"><ele>1048.6666666666667</ele><time>2026-04-25T08:43:13.816Z</time></trkpt><trkpt lat="38.0432633" lon="15.8495367"><ele>1047.8333333333333</ele><time>2026-04-25T08:43:14.816Z</time></trkpt><trkpt lat="38.0432833" lon="15.8496167"><ele>1047.0</ele><time>2026-04-25T08:43:15.816Z</time></trkpt><trkpt lat="38.0434067" lon="15.8496083"><ele>1047.0</ele><time>2026-04-25T08:43:16.815Z</time></trkpt><trkpt lat="38.043535" lon="15.8495933"><ele>1047.0</ele><time>2026-04-25T08:43:17.816Z</time></trkpt><trkpt lat="38.0436467" lon="15.849505"><ele>1047.0</ele><time>2026-04-25T08:43:18.816Z</time></trkpt><trkpt lat="38.04373" lon="15.84945"><ele>1047.0</ele><time>2026-04-25T08:43:19.816Z</time></trkpt><trkpt lat="38.0438267" lon="15.8494033"><ele>1047.0</ele><time>2026-04-25T08:43:20.816Z</time></trkpt><trkpt lat="38.0439217" lon="15.8493633"><ele>1047.0</ele><time>2026-04-25T08:43:21.816Z</time></trkpt><trkpt lat="38.0440117" lon="15.8493567"><ele>1047.0</ele><time>2026-04-25T08:43:22.816Z</time></trkpt><trkpt lat="38.044125" lon="15.8493617"><ele>1047.0</ele><time>2026-04-25T08:43:23.815Z</time></trkpt><trkpt lat="38.0442233" lon="15.84939"><ele>1047.0</ele><time>2026-04-25T08:43:24.816Z</time></trkpt><trkpt lat="38.0442967" lon="15.849405"><ele>1046.0</ele><time>2026-04-25T08:43:25.816Z</time></trkpt><trkpt lat="38.0443817" lon="15.8493983"><ele>1045.0</ele><time>2026-04-25T08:43:26.815Z</time></trkpt><trkpt lat="38.04445" lon="15.8493867"><ele>1044.0</ele><time>2026-04-25T08:43:27.815Z</time></trkpt><trkpt lat="38.0445267" lon="15.8493683"><ele>1043.0</ele><time>2026-04-25T08:43:28.815Z</time></trkpt><trkpt lat="38.04459" lon="15.8493383"><ele>1042.0</ele><time>2026-04-25T08:43:29.815Z</time></trkpt><trkpt lat="38.0446667" lon="15.8492233"><ele>1041.0</ele><time>2026-04-25T08:43:30.816Z</time></trkpt><trkpt lat="38.0447317" lon="15.849215"><ele>1042.5</ele><time>2026-04-25T08:43:31.816Z</time></trkpt><trkpt lat="38.0447933" lon="15.84919"><ele>1044.0</ele><time>2026-04-25T08:43:32.815Z</time></trkpt><trkpt lat="38.0448883" lon="15.8492483"><ele>1045.5</ele><time>2026-04-25T08:43:33.815Z</time></trkpt><trkpt lat="38.04501" lon="15.8493417"><ele>1047.0</ele><time>2026-04-25T08:43:34.816Z</time></trkpt><trkpt lat="38.04514" lon="15.8494367"><ele>1047.0</ele><time>2026-04-25T08:43:35.815Z</time></trkpt><trkpt lat="38.0452483" lon="15.8495267"><ele>1047.0</ele><time>2026-04-25T08:43:36.815Z</time></trkpt><trkpt lat="38.0453417" lon="15.8496183"><ele>1047.0</ele><time>2026-04-25T08:43:37.816Z</time></trkpt><trkpt lat="38.0454333" lon="15.849705"><ele>1047.0</ele><time>2026-04-25T08:43:38.816Z</time></trkpt><trkpt lat="38.0455367" lon="15.8497867"><ele>1047.0</ele><time>2026-04-25T08:43:39.816Z</time></trkpt><trkpt lat="38.0456383" lon="15.84986"><ele>1047.0</ele><time>2026-04-25T08:43:40.815Z</time></trkpt><trkpt lat="38.0457567" lon="15.84993"><ele>1047.0</ele><time>2026-04-25T08:43:41.816Z</time></trkpt><trkpt lat="38.0458683" lon="15.8499883"><ele>1047.0</ele><time>2026-04-25T08:43:42.815Z</time></trkpt><trkpt lat="38.04595" lon="15.8501417"><ele>1048.25</ele><time>2026-04-25T08:43:43.816Z</time></trkpt><trkpt lat="38.0460583" lon="15.8502717"><ele>1049.5</ele><time>2026-04-25T08:43:44.816Z</time></trkpt><trkpt lat="38.0461633" lon="15.850325"><ele>1050.75</ele><time>2026-04-25T08:43:45.815Z</time></trkpt><trkpt lat="38.0462567" lon="15.8503617"><ele>1052.0</ele><time>2026-04-25T08:43:46.816Z</time></trkpt><trkpt lat="38.0463333" lon="15.8504217"><ele>1052.0</ele><time>2026-04-25T08:43:47.815Z</time></trkpt><trkpt lat="38.0463933" lon="15.8504817"><ele>1052.0</ele><time>2026-04-25T08:43:48.816Z</time></trkpt><trkpt lat="38.0463867" lon="15.8505667"><ele>1052.0</ele><time>2026-04-25T08:43:50.815Z</time></trkpt><trkpt lat="38.0462167" lon="15.850615"><ele>1052.0</ele><time>2026-04-25T08:43:52.816Z</time></trkpt><trkpt lat="38.0460717" lon="15.8506533"><ele>1052.0</ele><time>2026-04-25T08:43:53.816Z</time></trkpt><trkpt lat="38.0458983" lon="15.850755"><ele>1052.0</ele><time>2026-04-25T08:43:54.815Z</time></trkpt><trkpt lat="38.0457717" lon="15.8508333"><ele>1052.0</ele><time>2026-04-25T08:43:55.815Z</time></trkpt><trkpt lat="38.0456717" lon="15.8509017"><ele>1052.0</ele><time>2026-04-25T08:43:56.816Z</time></trkpt><trkpt lat="38.0455833" lon="15.850985"><ele>1048.4</ele><time>2026-04-25T08:43:57.816Z</time></trkpt><trkpt lat="38.0455133" lon="15.85107"><ele>1044.8000000000002</ele><time>2026-04-25T08:43:58.816Z</time></trkpt><trkpt lat="38.0454617" lon="15.851155"><ele>1041.2</ele><time>2026-04-25T08:43:59.816Z</time></trkpt><trkpt lat="38.045435" lon="15.8512483"><ele>1037.6000000000001</ele><time>2026-04-25T08:44:00.815Z</time></trkpt><trkpt lat="38.0453917" lon="15.8513517"><ele>1034.0</ele><time>2026-04-25T08:44:01.816Z</time></trkpt><trkpt lat="38.045365" lon="15.851485"><ele>1034.0</ele><time>2026-04-25T08:44:02.815Z</time></trkpt><trkpt lat="38.04536" lon="15.8516333"><ele>1034.0</ele><time>2026-04-25T08:44:03.816Z</time></trkpt><trkpt lat="38.0453867" lon="15.85177"><ele>1034.0</ele><time>2026-04-25T08:44:04.816Z</time></trkpt><trkpt lat="38.04541" lon="15.85189"><ele>1034.0</ele><time>2026-04-25T08:44:05.816Z</time></trkpt><trkpt lat="38.0454467" lon="15.8519967"><ele>1034.0</ele><time>2026-04-25T08:44:06.815Z</time></trkpt><trkpt lat="38.0455" lon="15.8520983"><ele>1034.5</ele><time>2026-04-25T08:44:07.816Z</time></trkpt><trkpt lat="38.0455733" lon="15.8521917"><ele>1035.0</ele><time>2026-04-25T08:44:08.816Z</time></trkpt><trkpt lat="38.0457517" lon="15.8522417"><ele>1035.5</ele><time>2026-04-25T08:44:09.816Z</time></trkpt><trkpt lat="38.0458683" lon="15.8522817"><ele>1036.0</ele><time>2026-04-25T08:44:10.816Z</time></trkpt><trkpt lat="38.0460367" lon="15.8522333"><ele>1040.3333333333333</ele><time>2026-04-25T08:44:11.816Z</time></trkpt><trkpt lat="38.04619" lon="15.85219"><ele>1044.6666666666667</ele><time>2026-04-25T08:44:12.816Z</time></trkpt><trkpt lat="38.0463533" lon="15.85215"><ele>1049.0</ele><time>2026-04-25T08:44:13.816Z</time></trkpt><trkpt lat="38.0465183" lon="15.852115"><ele>1053.3333333333335</ele><time>2026-04-25T08:44:14.816Z</time></trkpt><trkpt lat="38.0466767" lon="15.852095"><ele>1057.6666666666667</ele><time>2026-04-25T08:44:15.816Z</time></trkpt><trkpt lat="38.04683" lon="15.8520867"><ele>1062.0</ele><time>2026-04-25T08:44:16.815Z</time></trkpt><trkpt lat="38.0469867" lon="15.8521133"><ele>1062.0</ele><time>2026-04-25T08:44:17.816Z</time></trkpt><trkpt lat="38.04715" lon="15.852145"><ele>1062.0</ele><time>2026-04-25T08:44:18.816Z</time></trkpt><trkpt lat="38.0473067" lon="15.85219"><ele>1062.0</ele><time>2026-04-25T08:44:19.816Z</time></trkpt><trkpt lat="38.0474333" lon="15.8522567"><ele>1065.75</ele><time>2026-04-25T08:44:20.816Z</time></trkpt><trkpt lat="38.0475783" lon="15.8523083"><ele>1069.5</ele><time>2026-04-25T08:44:21.815Z</time></trkpt><trkpt lat="38.04771" lon="15.85232"><ele>1073.25</ele><time>2026-04-25T08:44:22.816Z</time></trkpt><trkpt lat="38.0478183" lon="15.8523267"><ele>1077.0</ele><time>2026-04-25T08:44:23.816Z</time></trkpt><trkpt lat="38.047945" lon="15.852325"><ele>1077.0</ele><time>2026-04-25T08:44:24.816Z</time></trkpt><trkpt lat="38.048005" lon="15.852365"><ele>1077.0</ele><time>2026-04-25T08:44:25.816Z</time></trkpt><trkpt lat="38.048065" lon="15.852415"><ele>1077.0</ele><time>2026-04-25T08:44:26.816Z</time></trkpt><trkpt lat="38.0481167" lon="15.85249"><ele>1077.0</ele><time>2026-04-25T08:44:27.816Z</time></trkpt><trkpt lat="38.0481883" lon="15.8525583"><ele>1077.0</ele><time>2026-04-25T08:44:28.816Z</time></trkpt><trkpt lat="38.04825" lon="15.8526467"><ele>1077.0</ele><time>2026-04-25T08:44:29.816Z</time></trkpt><trkpt lat="38.0483133" lon="15.8527467"><ele>1077.0</ele><time>2026-04-25T08:44:30.816Z</time></trkpt><trkpt lat="38.048365" lon="15.85284"><ele>1077.0</ele><time>2026-04-25T08:44:31.815Z</time></trkpt><trkpt lat="38.0484183" lon="15.852925"><ele>1077.0</ele><time>2026-04-25T08:44:32.816Z</time></trkpt><trkpt lat="38.048355" lon="15.8528783"><ele>1077.0</ele><time>2026-04-25T08:44:37.816Z</time></trkpt><trkpt lat="38.0483217" lon="15.8527817"><ele>1077.0</ele><time>2026-04-25T08:44:38.816Z</time></trkpt><trkpt lat="38.0482767" lon="15.8526633"><ele>1077.0</ele><time>2026-04-25T08:44:39.816Z</time></trkpt><trkpt lat="38.0482517" lon="15.8523717"><ele>1077.0</ele><time>2026-04-25T08:44:40.816Z</time></trkpt><trkpt lat="38.0482067" lon="15.852175"><ele>1077.0</ele><time>2026-04-25T08:44:41.816Z</time></trkpt><trkpt lat="38.0481633" lon="15.8519967"><ele>1077.0</ele><time>2026-04-25T08:44:42.816Z</time></trkpt><trkpt lat="38.048115" lon="15.8518383"><ele>1077.0</ele><time>2026-04-25T08:44:43.816Z</time></trkpt><trkpt lat="38.04805" lon="15.8516817"><ele>1082.25</ele><time>2026-04-25T08:44:44.816Z</time></trkpt><trkpt lat="38.0479883" lon="15.85152"><ele>1087.5</ele><time>2026-04-25T08:44:45.816Z</time></trkpt><trkpt lat="38.04795" lon="15.8513733"><ele>1092.75</ele><time>2026-04-25T08:44:46.815Z</time></trkpt><trkpt lat="38.047875" lon="15.8512183"><ele>1098.0</ele><time>2026-04-25T08:44:47.816Z</time></trkpt><trkpt lat="38.0478117" lon="15.85101"><ele>1098.6666666666667</ele><time>2026-04-25T08:44:48.816Z</time></trkpt><trkpt lat="38.0477467" lon="15.8508067"><ele>1099.3333333333335</ele><time>2026-04-25T08:44:49.816Z</time></trkpt><trkpt lat="38.0477117" lon="15.850585"><ele>1100.0</ele><time>2026-04-25T08:44:50.815Z</time></trkpt><trkpt lat="38.0476517" lon="15.8503833"><ele>1100.0</ele><time>2026-04-25T08:44:51.815Z</time></trkpt><trkpt lat="38.0475917" lon="15.8501933"><ele>1100.0</ele><time>2026-04-25T08:44:52.816Z</time></trkpt><trkpt lat="38.0475333" lon="15.8499967"><ele>1100.0</ele><time>2026-04-25T08:44:53.816Z</time></trkpt><trkpt lat="38.0475117" lon="15.8498217"><ele>1102.8</ele><time>2026-04-25T08:44:54.816Z</time></trkpt><trkpt lat="38.047495" lon="15.849685"><ele>1105.6</ele><time>2026-04-25T08:44:55.816Z</time></trkpt><trkpt lat="38.04748" lon="15.8495583"><ele>1108.4</ele><time>2026-04-25T08:44:56.816Z</time></trkpt><trkpt lat="38.0475317" lon="15.8494667"><ele>1111.2</ele><time>2026-04-25T08:44:58.816Z</time></trkpt><trkpt lat="38.047645" lon="15.8494767"><ele>1114.0</ele><time>2026-04-25T08:45:00.816Z</time></trkpt><trkpt lat="38.047795" lon="15.8496067"><ele>1114.0</ele><time>2026-04-25T08:45:01.816Z</time></trkpt><trkpt lat="38.0479567" lon="15.849725"><ele>1114.0</ele><time>2026-04-25T08:45:02.816Z</time></trkpt><trkpt lat="38.0481467" lon="15.8498217"><ele>1114.0</ele><time>2026-04-25T08:45:03.816Z</time></trkpt><trkpt lat="38.048315" lon="15.849915"><ele>1117.5</ele><time>2026-04-25T08:45:04.816Z</time></trkpt><trkpt lat="38.0485083" lon="15.8500367"><ele>1121.0</ele><time>2026-04-25T08:45:05.815Z</time></trkpt><trkpt lat="38.0487433" lon="15.8501283"><ele>1121.0</ele><time>2026-04-25T08:45:06.816Z</time></trkpt><trkpt lat="38.048945" lon="15.8502383"><ele>1121.0</ele><time>2026-04-25T08:45:07.816Z</time></trkpt><trkpt lat="38.04912" lon="15.850345"><ele>1121.0</ele><time>2026-04-25T08:45:08.816Z</time></trkpt><trkpt lat="38.0492867" lon="15.85047"><ele>1126.6666666666667</ele><time>2026-04-25T08:45:09.815Z</time></trkpt><trkpt lat="38.049435" lon="15.8506283"><ele>1132.3333333333333</ele><time>2026-04-25T08:45:10.816Z</time></trkpt><trkpt lat="38.0495767" lon="15.850775"><ele>1138.0</ele><time>2026-04-25T08:45:11.815Z</time></trkpt><trkpt lat="38.0497083" lon="15.8509333"><ele>1135.3333333333333</ele><time>2026-04-25T08:45:12.816Z</time></trkpt><trkpt lat="38.0498433" lon="15.8510867"><ele>1132.6666666666667</ele><time>2026-04-25T08:45:13.815Z</time></trkpt><trkpt lat="38.0499717" lon="15.851235"><ele>1130.0</ele><time>2026-04-25T08:45:14.816Z</time></trkpt><trkpt lat="38.050105" lon="15.8513817"><ele>1136.0</ele><time>2026-04-25T08:45:15.816Z</time></trkpt><trkpt lat="38.050235" lon="15.8515233"><ele>1142.0</ele><time>2026-04-25T08:45:16.816Z</time></trkpt><trkpt lat="38.0503717" lon="15.8516483"><ele>1148.0</ele><time>2026-04-25T08:45:17.815Z</time></trkpt><trkpt lat="38.050545" lon="15.85175"><ele>1148.6666666666667</ele><time>2026-04-25T08:45:18.815Z</time></trkpt><trkpt lat="38.05074" lon="15.8518517"><ele>1149.3333333333333</ele><time>2026-04-25T08:45:19.816Z</time></trkpt><trkpt lat="38.0508933" lon="15.8519683"><ele>1150.0</ele><time>2026-04-25T08:45:20.816Z</time></trkpt><trkpt lat="38.0510367" lon="15.8520933"><ele>1150.0</ele><time>2026-04-25T08:45:21.816Z</time></trkpt><trkpt lat="38.0511767" lon="15.8522167"><ele>1150.0</ele><time>2026-04-25T08:45:22.815Z</time></trkpt><trkpt lat="38.0512967" lon="15.8523417"><ele>1150.0</ele><time>2026-04-25T08:45:23.816Z</time></trkpt><trkpt lat="38.0514217" lon="15.85243"><ele>1150.0</ele><time>2026-04-25T08:45:24.816Z</time></trkpt><trkpt lat="38.0515283" lon="15.85253"><ele>1150.0</ele><time>2026-04-25T08:45:25.816Z</time></trkpt><trkpt lat="38.05163" lon="15.8526267"><ele>1150.0</ele><time>2026-04-25T08:45:26.815Z</time></trkpt><trkpt lat="38.0517433" lon="15.8527167"><ele>1150.0</ele><time>2026-04-25T08:45:27.815Z</time></trkpt><trkpt lat="38.05185" lon="15.852735"><ele>1151.8</ele><time>2026-04-25T08:45:28.815Z</time></trkpt><trkpt lat="38.0519817" lon="15.8527333"><ele>1153.6</ele><time>2026-04-25T08:45:29.816Z</time></trkpt><trkpt lat="38.0520733" lon="15.85265"><ele>1155.4</ele><time>2026-04-25T08:45:30.816Z</time></trkpt><trkpt lat="38.0520883" lon="15.8525633"><ele>1157.2</ele><time>2026-04-25T08:45:31.816Z</time></trkpt><trkpt lat="38.0521733" lon="15.8525533"><ele>1159.0</ele><time>2026-04-25T08:45:32.816Z</time></trkpt><trkpt lat="38.05224" lon="15.8525083"><ele>1159.0</ele><time>2026-04-25T08:45:33.816Z</time></trkpt><trkpt lat="38.05234" lon="15.8524767"><ele>1159.0</ele><time>2026-04-25T08:45:34.816Z</time></trkpt><trkpt lat="38.0524417" lon="15.8524683"><ele>1159.0</ele><time>2026-04-25T08:45:35.815Z</time></trkpt><trkpt lat="38.0525333" lon="15.8524483"><ele>1159.0</ele><time>2026-04-25T08:45:36.816Z</time></trkpt><trkpt lat="38.0526417" lon="15.8523933"><ele>1159.0</ele><time>2026-04-25T08:45:37.816Z</time></trkpt><trkpt lat="38.0527367" lon="15.8523417"><ele>1159.5</ele><time>2026-04-25T08:45:38.816Z</time></trkpt><trkpt lat="38.0528517" lon="15.8523017"><ele>1160.0</ele><time>2026-04-25T08:45:39.815Z</time></trkpt><trkpt lat="38.0529617" lon="15.8522633"><ele>1160.5</ele><time>2026-04-25T08:45:40.816Z</time></trkpt><trkpt lat="38.0530717" lon="15.85223"><ele>1161.0</ele><time>2026-04-25T08:45:41.816Z</time></trkpt><trkpt lat="38.053175" lon="15.85221"><ele>1161.0</ele><time>2026-04-25T08:45:42.815Z</time></trkpt><trkpt lat="38.0532617" lon="15.852215"><ele>1161.0</ele><time>2026-04-25T08:45:43.816Z</time></trkpt><trkpt lat="38.0533317" lon="15.8522517"><ele>1161.0</ele><time>2026-04-25T08:45:44.816Z</time></trkpt><trkpt lat="38.0533917" lon="15.8523133"><ele>1161.0</ele><time>2026-04-25T08:45:45.816Z</time></trkpt><trkpt lat="38.053465" lon="15.85236"><ele>1161.0</ele><time>2026-04-25T08:45:46.816Z</time></trkpt><trkpt lat="38.0535217" lon="15.8523983"><ele>1161.0</ele><time>2026-04-25T08:45:47.816Z</time></trkpt><trkpt lat="38.053575" lon="15.8522733"><ele>1160.8</ele><time>2026-04-25T08:45:49.816Z</time></trkpt><trkpt lat="38.0535983" lon="15.8521717"><ele>1160.6</ele><time>2026-04-25T08:45:50.815Z</time></trkpt><trkpt lat="38.0536383" lon="15.8520333"><ele>1160.4</ele><time>2026-04-25T08:45:51.816Z</time></trkpt><trkpt lat="38.0536967" lon="15.85193"><ele>1160.2</ele><time>2026-04-25T08:45:52.816Z</time></trkpt><trkpt lat="38.0537683" lon="15.851855"><ele>1160.0</ele><time>2026-04-25T08:45:53.815Z</time></trkpt><trkpt lat="38.05384" lon="15.851785"><ele>1160.0</ele><time>2026-04-25T08:45:54.816Z</time></trkpt><trkpt lat="38.0539317" lon="15.851705"><ele>1160.0</ele><time>2026-04-25T08:45:55.816Z</time></trkpt><trkpt lat="38.0540433" lon="15.8516233"><ele>1160.0</ele><time>2026-04-25T08:45:56.816Z</time></trkpt><trkpt lat="38.0541417" lon="15.851545"><ele>1160.0</ele><time>2026-04-25T08:45:57.815Z</time></trkpt><trkpt lat="38.0542667" lon="15.85148"><ele>1167.3333333333335</ele><time>2026-04-25T08:45:58.815Z</time></trkpt><trkpt lat="38.0543833" lon="15.8514117"><ele>1174.6666666666667</ele><time>2026-04-25T08:45:59.816Z</time></trkpt><trkpt lat="38.0545867" lon="15.8513983"><ele>1182.0</ele><time>2026-04-25T08:46:00.816Z</time></trkpt><trkpt lat="38.05475" lon="15.8513217"><ele>1182.0</ele><time>2026-04-25T08:46:01.816Z</time></trkpt><trkpt lat="38.05488" lon="15.8512883"><ele>1182.0</ele><time>2026-04-25T08:46:02.816Z</time></trkpt><trkpt lat="38.0549867" lon="15.85129"><ele>1182.0</ele><time>2026-04-25T08:46:03.816Z</time></trkpt><trkpt lat="38.0550733" lon="15.8512517"><ele>1182.0</ele><time>2026-04-25T08:46:04.816Z</time></trkpt><trkpt lat="38.0551883" lon="15.851215"><ele>1183.25</ele><time>2026-04-25T08:46:05.816Z</time></trkpt><trkpt lat="38.0553233" lon="15.851215"><ele>1184.5</ele><time>2026-04-25T08:46:06.816Z</time></trkpt><trkpt lat="38.0554633" lon="15.8512383"><ele>1185.75</ele><time>2026-04-25T08:46:07.815Z</time></trkpt><trkpt lat="38.0555867" lon="15.8512517"><ele>1187.0</ele><time>2026-04-25T08:46:08.815Z</time></trkpt><trkpt lat="38.05566" lon="15.8513033"><ele>1187.0</ele><time>2026-04-25T08:46:09.816Z</time></trkpt><trkpt lat="38.0557083" lon="15.8513833"><ele>1187.0</ele><time>2026-04-25T08:46:10.816Z</time></trkpt><trkpt lat="38.05574" lon="15.8514767"><ele>1187.0</ele><time>2026-04-25T08:46:11.816Z</time></trkpt><trkpt lat="38.0557917" lon="15.8515633"><ele>1187.0</ele><time>2026-04-25T08:46:12.815Z</time></trkpt><trkpt lat="38.0558417" lon="15.8516717"><ele>1187.0</ele><time>2026-04-25T08:46:13.816Z</time></trkpt><trkpt lat="38.05586" lon="15.8518117"><ele>1188.0</ele><time>2026-04-25T08:46:14.816Z</time></trkpt><trkpt lat="38.0558833" lon="15.851965"><ele>1189.0</ele><time>2026-04-25T08:46:15.816Z</time></trkpt><trkpt lat="38.0559333" lon="15.8521183"><ele>1190.0</ele><time>2026-04-25T08:46:16.816Z</time></trkpt><trkpt lat="38.0559483" lon="15.8522817"><ele>1191.0</ele><time>2026-04-25T08:46:17.816Z</time></trkpt><trkpt lat="38.0560083" lon="15.852395"><ele>1191.0</ele><time>2026-04-25T08:46:18.816Z</time></trkpt><trkpt lat="38.056045" lon="15.8525133"><ele>1191.0</ele><time>2026-04-25T08:46:19.816Z</time></trkpt><trkpt lat="38.0560583" lon="15.852655"><ele>1191.0</ele><time>2026-04-25T08:46:20.816Z</time></trkpt><trkpt lat="38.0560583" lon="15.8527967"><ele>1191.0</ele><time>2026-04-25T08:46:21.816Z</time></trkpt><trkpt lat="38.0560533" lon="15.8529083"><ele>1191.0</ele><time>2026-04-25T08:46:22.816Z</time></trkpt><trkpt lat="38.0560417" lon="15.8529983"><ele>1192.1666666666667</ele><time>2026-04-25T08:46:23.816Z</time></trkpt><trkpt lat="38.0560117" lon="15.8530817"><ele>1193.3333333333333</ele><time>2026-04-25T08:46:24.815Z</time></trkpt><trkpt lat="38.0559867" lon="15.853165"><ele>1194.5</ele><time>2026-04-25T08:46:25.816Z</time></trkpt><trkpt lat="38.0558967" lon="15.8532283"><ele>1195.6666666666665</ele><time>2026-04-25T08:46:26.816Z</time></trkpt><trkpt lat="38.0558217" lon="15.853225"><ele>1196.8333333333333</ele><time>2026-04-25T08:46:27.816Z</time></trkpt><trkpt lat="38.055745" lon="15.85326"><ele>1198.0</ele><time>2026-04-25T08:46:29.815Z</time></trkpt><trkpt lat="38.055705" lon="15.85337"><ele>1199.0</ele><time>2026-04-25T08:46:31.816Z</time></trkpt><trkpt lat="38.0557067" lon="15.8534517"><ele>1200.0</ele><time>2026-04-25T08:46:32.816Z</time></trkpt><trkpt lat="38.055745" lon="15.8535983"><ele>1201.0</ele><time>2026-04-25T08:46:33.815Z</time></trkpt><trkpt lat="38.0558033" lon="15.8537533"><ele>1202.0</ele><time>2026-04-25T08:46:34.816Z</time></trkpt><trkpt lat="38.0558483" lon="15.8539067"><ele>1202.0</ele><time>2026-04-25T08:46:35.816Z</time></trkpt><trkpt lat="38.0558783" lon="15.8540567"><ele>1202.0</ele><time>2026-04-25T08:46:36.816Z</time></trkpt><trkpt lat="38.055925" lon="15.8542633"><ele>1202.0</ele><time>2026-04-25T08:46:37.815Z</time></trkpt><trkpt lat="38.05602" lon="15.85453"><ele>1201.5</ele><time>2026-04-25T08:46:38.816Z</time></trkpt><trkpt lat="38.05605" lon="15.8546983"><ele>1201.0</ele><time>2026-04-25T08:46:39.816Z</time></trkpt><trkpt lat="38.0560917" lon="15.85487"><ele>1200.5</ele><time>2026-04-25T08:46:40.816Z</time></trkpt><trkpt lat="38.056115" lon="15.855"><ele>1200.0</ele><time>2026-04-25T08:46:41.815Z</time></trkpt><trkpt lat="38.0561633" lon="15.8551367"><ele>1197.3333333333333</ele><time>2026-04-25T08:46:42.816Z</time></trkpt><trkpt lat="38.0563033" lon="15.8552233"><ele>1194.6666666666665</ele><time>2026-04-25T08:46:43.816Z</time></trkpt><trkpt lat="38.0564367" lon="15.855315"><ele>1192.0</ele><time>2026-04-25T08:46:44.816Z</time></trkpt><trkpt lat="38.05657" lon="15.85539"><ele>1196.25</ele><time>2026-04-25T08:46:45.816Z</time></trkpt><trkpt lat="38.0566567" lon="15.8554517"><ele>1200.5</ele><time>2026-04-25T08:46:46.816Z</time></trkpt><trkpt lat="38.05678" lon="15.8554783"><ele>1204.75</ele><time>2026-04-25T08:46:47.816Z</time></trkpt><trkpt lat="38.0569083" lon="15.8554783"><ele>1209.0</ele><time>2026-04-25T08:46:48.816Z</time></trkpt><trkpt lat="38.05701" lon="15.85548"><ele>1209.0</ele><time>2026-04-25T08:46:49.816Z</time></trkpt><trkpt lat="38.0570983" lon="15.855465"><ele>1209.0</ele><time>2026-04-25T08:46:50.816Z</time></trkpt><trkpt lat="38.0571617" lon="15.8554717"><ele>1209.0</ele><time>2026-04-25T08:46:51.816Z</time></trkpt><trkpt lat="38.0572367" lon="15.85547"><ele>1209.0</ele><time>2026-04-25T08:46:52.816Z</time></trkpt><trkpt lat="38.057275" lon="15.8555383"><ele>1209.0</ele><time>2026-04-25T08:46:55.815Z</time></trkpt><trkpt lat="38.0573717" lon="15.8556067"><ele>1209.0</ele><time>2026-04-25T08:46:57.816Z</time></trkpt><trkpt lat="38.057455" lon="15.85567"><ele>1212.0</ele><time>2026-04-25T08:46:58.816Z</time></trkpt><trkpt lat="38.0575733" lon="15.8557133"><ele>1215.0</ele><time>2026-04-25T08:47:00.816Z</time></trkpt><trkpt lat="38.0576733" lon="15.8557283"><ele>1218.0</ele><time>2026-04-25T08:47:02.815Z</time></trkpt><trkpt lat="38.0577667" lon="15.85575"><ele>1221.0</ele><time>2026-04-25T08:47:04.816Z</time></trkpt><trkpt lat="38.0577817" lon="15.8555717"><ele>1221.0</ele><time>2026-04-25T08:47:07.816Z</time></trkpt><trkpt lat="38.0577183" lon="15.8553683"><ele>1221.0</ele><time>2026-04-25T08:47:08.816Z</time></trkpt><trkpt lat="38.057625" lon="15.85515"><ele>1221.0</ele><time>2026-04-25T08:47:09.816Z</time></trkpt><trkpt lat="38.05758" lon="15.8549833"><ele>1220.2</ele><time>2026-04-25T08:47:10.816Z</time></trkpt><trkpt lat="38.057515" lon="15.8548667"><ele>1219.3999999999999</ele><time>2026-04-25T08:47:11.816Z</time></trkpt><trkpt lat="38.0574433" lon="15.85479"><ele>1218.6</ele><time>2026-04-25T08:47:12.816Z</time></trkpt><trkpt lat="38.0573717" lon="15.8547167"><ele>1217.8</ele><time>2026-04-25T08:47:13.816Z</time></trkpt><trkpt lat="38.0573317" lon="15.8546467"><ele>1217.0</ele><time>2026-04-25T08:47:14.816Z</time></trkpt><trkpt lat="38.0572833" lon="15.85456"><ele>1217.0</ele><time>2026-04-25T08:47:15.816Z</time></trkpt><trkpt lat="38.0571933" lon="15.8545017"><ele>1217.0</ele><time>2026-04-25T08:47:16.816Z</time></trkpt><trkpt lat="38.05717" lon="15.8544217"><ele>1217.0</ele><time>2026-04-25T08:47:17.816Z</time></trkpt><trkpt lat="38.05718" lon="15.8543367"><ele>1217.0</ele><time>2026-04-25T08:47:18.816Z</time></trkpt><trkpt lat="38.0573283" lon="15.8542017"><ele>1217.0</ele><time>2026-04-25T08:47:19.816Z</time></trkpt><trkpt lat="38.0573917" lon="15.8540967"><ele>1217.2</ele><time>2026-04-25T08:47:20.816Z</time></trkpt><trkpt lat="38.0574517" lon="15.85401"><ele>1217.4</ele><time>2026-04-25T08:47:21.815Z</time></trkpt><trkpt lat="38.0575217" lon="15.853935"><ele>1217.6</ele><time>2026-04-25T08:47:22.816Z</time></trkpt><trkpt lat="38.0576283" lon="15.85387"><ele>1217.8</ele><time>2026-04-25T08:47:23.815Z</time></trkpt><trkpt lat="38.0577733" lon="15.8538867"><ele>1218.0</ele><time>2026-04-25T08:47:24.815Z</time></trkpt><trkpt lat="38.0579183" lon="15.8540683"><ele>1221.0</ele><time>2026-04-25T08:47:26.815Z</time></trkpt><trkpt lat="38.058005" lon="15.8542867"><ele>1224.0</ele><time>2026-04-25T08:47:27.816Z</time></trkpt><trkpt lat="38.0580617" lon="15.8544117"><ele>1227.0</ele><time>2026-04-25T08:47:28.816Z</time></trkpt><trkpt lat="38.05812" lon="15.85455"><ele>1230.0</ele><time>2026-04-25T08:47:29.816Z</time></trkpt><trkpt lat="38.0581467" lon="15.8546867"><ele>1230.0</ele><time>2026-04-25T08:47:30.816Z</time></trkpt><trkpt lat="38.05818" lon="15.85478"><ele>1230.0</ele><time>2026-04-25T08:47:31.816Z</time></trkpt><trkpt lat="38.058205" lon="15.8548583"><ele>1230.0</ele><time>2026-04-25T08:47:32.815Z</time></trkpt><trkpt lat="38.05824" lon="15.8549383"><ele>1230.0</ele><time>2026-04-25T08:47:33.816Z</time></trkpt><trkpt lat="38.0583033" lon="15.8548133"><ele>1230.0</ele><time>2026-04-25T08:47:35.815Z</time></trkpt><trkpt lat="38.0583117" lon="15.854675"><ele>1230.0</ele><time>2026-04-25T08:47:36.816Z</time></trkpt><trkpt lat="38.05829" lon="15.8544867"><ele>1232.75</ele><time>2026-04-25T08:47:37.816Z</time></trkpt><trkpt lat="38.058295" lon="15.8543333"><ele>1235.5</ele><time>2026-04-25T08:47:38.816Z</time></trkpt><trkpt lat="38.0583083" lon="15.8541833"><ele>1238.25</ele><time>2026-04-25T08:47:39.816Z</time></trkpt><trkpt lat="38.0583383" lon="15.854045"><ele>1241.0</ele><time>2026-04-25T08:47:40.816Z</time></trkpt><trkpt lat="38.05839" lon="15.8539267"><ele>1243.25</ele><time>2026-04-25T08:47:41.815Z</time></trkpt><trkpt lat="38.058465" lon="15.8538167"><ele>1245.5</ele><time>2026-04-25T08:47:42.816Z</time></trkpt><trkpt lat="38.058565" lon="15.8537217"><ele>1247.75</ele><time>2026-04-25T08:47:43.816Z</time></trkpt><trkpt lat="38.0586833" lon="15.8536483"><ele>1250.0</ele><time>2026-04-25T08:47:44.815Z</time></trkpt><trkpt lat="38.0588183" lon="15.853635"><ele>1250.0</ele><time>2026-04-25T08:47:45.815Z</time></trkpt><trkpt lat="38.0589267" lon="15.8536417"><ele>1250.0</ele><time>2026-04-25T08:47:46.816Z</time></trkpt><trkpt lat="38.05902" lon="15.8536583"><ele>1250.0</ele><time>2026-04-25T08:47:47.816Z</time></trkpt><trkpt lat="38.05911" lon="15.8536467"><ele>1250.0</ele><time>2026-04-25T08:47:48.816Z</time></trkpt><trkpt lat="38.05919" lon="15.8536167"><ele>1250.0</ele><time>2026-04-25T08:47:49.816Z</time></trkpt><trkpt lat="38.059275" lon="15.8535217"><ele>1249.0</ele><time>2026-04-25T08:47:50.816Z</time></trkpt><trkpt lat="38.0593767" lon="15.8534617"><ele>1248.0</ele><time>2026-04-25T08:47:51.816Z</time></trkpt><trkpt lat="38.0594867" lon="15.8534067"><ele>1247.0</ele><time>2026-04-25T08:47:52.816Z</time></trkpt><trkpt lat="38.0596133" lon="15.8533767"><ele>1246.0</ele><time>2026-04-25T08:47:53.816Z</time></trkpt><trkpt lat="38.0597533" lon="15.853385"><ele>1249.8</ele><time>2026-04-25T08:47:54.816Z</time></trkpt><trkpt lat="38.059905" lon="15.853355"><ele>1253.6</ele><time>2026-04-25T08:47:55.815Z</time></trkpt><trkpt lat="38.0599933" lon="15.8533233"><ele>1257.4</ele><time>2026-04-25T08:47:56.816Z</time></trkpt><trkpt lat="38.0600767" lon="15.8532533"><ele>1261.2</ele><time>2026-04-25T08:47:57.816Z</time></trkpt><trkpt lat="38.0601567" lon="15.8531717"><ele>1265.0</ele><time>2026-04-25T08:47:58.816Z</time></trkpt><trkpt lat="38.060255" lon="15.853065"><ele>1265.0</ele><time>2026-04-25T08:47:59.815Z</time></trkpt><trkpt lat="38.06035" lon="15.8529283"><ele>1265.0</ele><time>2026-04-25T08:48:00.816Z</time></trkpt><trkpt lat="38.0604767" lon="15.8528217"><ele>1265.0</ele><time>2026-04-25T08:48:01.815Z</time></trkpt><trkpt lat="38.060605" lon="15.852715"><ele>1265.0</ele><time>2026-04-25T08:48:02.815Z</time></trkpt><trkpt lat="38.06074" lon="15.8526067"><ele>1269.25</ele><time>2026-04-25T08:48:03.816Z</time></trkpt><trkpt lat="38.060875" lon="15.8524833"><ele>1273.5</ele><time>2026-04-25T08:48:04.815Z</time></trkpt><trkpt lat="38.060995" lon="15.8523733"><ele>1277.75</ele><time>2026-04-25T08:48:05.816Z</time></trkpt><trkpt lat="38.0610983" lon="15.8523"><ele>1282.0</ele><time>2026-04-25T08:48:06.816Z</time></trkpt><trkpt lat="38.0611767" lon="15.852235"><ele>1282.0</ele><time>2026-04-25T08:48:07.816Z</time></trkpt><trkpt lat="38.0612467" lon="15.8521967"><ele>1282.0</ele><time>2026-04-25T08:48:08.816Z</time></trkpt><trkpt lat="38.0613133" lon="15.85215"><ele>1282.0</ele><time>2026-04-25T08:48:09.816Z</time></trkpt><trkpt lat="38.0613617" lon="15.852065"><ele>1282.0</ele><time>2026-04-25T08:48:11.816Z</time></trkpt><trkpt lat="38.061355" lon="15.8519133"><ele>1282.0</ele><time>2026-04-25T08:48:13.815Z</time></trkpt><trkpt lat="38.06137" lon="15.851805"><ele>1282.0</ele><time>2026-04-25T08:48:14.816Z</time></trkpt><trkpt lat="38.06139" lon="15.8517"><ele>1284.6</ele><time>2026-04-25T08:48:15.816Z</time></trkpt><trkpt lat="38.06144" lon="15.8515583"><ele>1287.1999999999998</ele><time>2026-04-25T08:48:17.815Z</time></trkpt><trkpt lat="38.0614767" lon="15.851465"><ele>1289.8</ele><time>2026-04-25T08:48:19.815Z</time></trkpt><trkpt lat="38.061425" lon="15.85152"><ele>1292.4</ele><time>2026-04-25T08:48:25.816Z</time></trkpt><trkpt lat="38.0613917" lon="15.8516333"><ele>1295.0</ele><time>2026-04-25T08:48:26.815Z</time></trkpt><trkpt lat="38.061355" lon="15.8517433"><ele>1292.8333333333335</ele><time>2026-04-25T08:48:27.816Z</time></trkpt><trkpt lat="38.06131" lon="15.8518567"><ele>1290.6666666666667</ele><time>2026-04-25T08:48:28.816Z</time></trkpt><trkpt lat="38.0612917" lon="15.8519833"><ele>1288.5</ele><time>2026-04-25T08:48:29.816Z</time></trkpt><trkpt lat="38.061295" lon="15.8520783"><ele>1286.3333333333333</ele><time>2026-04-25T08:48:30.816Z</time></trkpt><trkpt lat="38.0612883" lon="15.85216"><ele>1284.1666666666665</ele><time>2026-04-25T08:48:31.816Z</time></trkpt><trkpt lat="38.0612317" lon="15.8522333"><ele>1282.0</ele><time>2026-04-25T08:48:33.816Z</time></trkpt><trkpt lat="38.0611617" lon="15.8522767"><ele>1282.0</ele><time>2026-04-25T08:48:35.816Z</time></trkpt><trkpt lat="38.06122" lon="15.85233"><ele>1282.0</ele><time>2026-04-25T08:48:40.816Z</time></trkpt><trkpt lat="38.061275" lon="15.8523733"><ele>1282.0</ele><time>2026-04-25T08:48:41.816Z</time></trkpt><trkpt lat="38.0613567" lon="15.8524433"><ele>1282.0</ele><time>2026-04-25T08:48:42.815Z</time></trkpt><trkpt lat="38.0614517" lon="15.8525183"><ele>1282.0</ele><time>2026-04-25T08:48:43.816Z</time></trkpt><trkpt lat="38.0615567" lon="15.85258"><ele>1279.6</ele><time>2026-04-25T08:48:44.816Z</time></trkpt><trkpt lat="38.06165" lon="15.8526333"><ele>1277.1999999999998</ele><time>2026-04-25T08:48:45.816Z</time></trkpt><trkpt lat="38.0617467" lon="15.8526467"><ele>1274.8</ele><time>2026-04-25T08:48:46.816Z</time></trkpt><trkpt lat="38.061845" lon="15.852655"><ele>1272.4</ele><time>2026-04-25T08:48:47.816Z</time></trkpt><trkpt lat="38.0619217" lon="15.8526367"><ele>1270.0</ele><time>2026-04-25T08:48:48.816Z</time></trkpt><trkpt lat="38.0620117" lon="15.8525683"><ele>1270.0</ele><time>2026-04-25T08:48:49.816Z</time></trkpt><trkpt lat="38.0620517" lon="15.8524367"><ele>1270.0</ele><time>2026-04-25T08:48:50.816Z</time></trkpt><trkpt lat="38.0621017" lon="15.8523483"><ele>1270.0</ele><time>2026-04-25T08:48:51.816Z</time></trkpt><trkpt lat="38.0621333" lon="15.85225"><ele>1270.0</ele><time>2026-04-25T08:48:52.816Z</time></trkpt><trkpt lat="38.0621117" lon="15.8521083"><ele>1270.0</ele><time>2026-04-25T08:48:53.816Z</time></trkpt><trkpt lat="38.062085" lon="15.8519867"><ele>1270.0</ele><time>2026-04-25T08:48:54.816Z</time></trkpt><trkpt lat="38.0620717" lon="15.8518733"><ele>1270.0</ele><time>2026-04-25T08:48:55.816Z</time></trkpt><trkpt lat="38.0620783" lon="15.851765"><ele>1270.0</ele><time>2026-04-25T08:48:56.816Z</time></trkpt><trkpt lat="38.0620917" lon="15.8516767"><ele>1270.0</ele><time>2026-04-25T08:48:57.816Z</time></trkpt><trkpt lat="38.0621167" lon="15.85159"><ele>1270.0</ele><time>2026-04-25T08:48:58.816Z</time></trkpt><trkpt lat="38.0622733" lon="15.851555"><ele>1271.75</ele><time>2026-04-25T08:49:00.816Z</time></trkpt><trkpt lat="38.0623833" lon="15.8515367"><ele>1273.5</ele><time>2026-04-25T08:49:01.816Z</time></trkpt><trkpt lat="38.062525" lon="15.8515133"><ele>1275.25</ele><time>2026-04-25T08:49:02.816Z</time></trkpt><trkpt lat="38.0626633" lon="15.8514717"><ele>1277.0</ele><time>2026-04-25T08:49:03.816Z</time></trkpt><trkpt lat="38.0627983" lon="15.8514267"><ele>1273.0</ele><time>2026-04-25T08:49:04.815Z</time></trkpt><trkpt lat="38.0629267" lon="15.8513633"><ele>1269.0</ele><time>2026-04-25T08:49:05.816Z</time></trkpt><trkpt lat="38.063055" lon="15.851305"><ele>1265.0</ele><time>2026-04-25T08:49:06.816Z</time></trkpt><trkpt lat="38.06317" lon="15.8512483"><ele>1261.0</ele><time>2026-04-25T08:49:07.816Z</time></trkpt><trkpt lat="38.0632833" lon="15.8511583"><ele>1256.6666666666665</ele><time>2026-04-25T08:49:08.816Z</time></trkpt><trkpt lat="38.0634" lon="15.8510817"><ele>1252.3333333333333</ele><time>2026-04-25T08:49:09.816Z</time></trkpt><trkpt lat="38.06353" lon="15.8509883"><ele>1248.0</ele><time>2026-04-25T08:49:10.816Z</time></trkpt><trkpt lat="38.0636783" lon="15.85088"><ele>1248.0</ele><time>2026-04-25T08:49:11.816Z</time></trkpt><trkpt lat="38.06384" lon="15.8507567"><ele>1248.0</ele><time>2026-04-25T08:49:12.815Z</time></trkpt><trkpt lat="38.06396" lon="15.850685"><ele>1248.0</ele><time>2026-04-25T08:49:13.816Z</time></trkpt><trkpt lat="38.0640683" lon="15.8506533"><ele>1248.0</ele><time>2026-04-25T08:49:14.816Z</time></trkpt><trkpt lat="38.0641683" lon="15.8506567"><ele>1249.4</ele><time>2026-04-25T08:49:15.815Z</time></trkpt><trkpt lat="38.064255" lon="15.8506883"><ele>1250.8</ele><time>2026-04-25T08:49:16.815Z</time></trkpt><trkpt lat="38.0643733" lon="15.8507017"><ele>1252.2</ele><time>2026-04-25T08:49:18.815Z</time></trkpt><trkpt lat="38.0644867" lon="15.8506317"><ele>1253.6</ele><time>2026-04-25T08:49:20.816Z</time></trkpt><trkpt lat="38.0645767" lon="15.8505817"><ele>1255.0</ele><time>2026-04-25T08:49:21.816Z</time></trkpt><trkpt lat="38.0647017" lon="15.85051"><ele>1255.0</ele><time>2026-04-25T08:49:22.815Z</time></trkpt><trkpt lat="38.0648167" lon="15.850445"><ele>1255.0</ele><time>2026-04-25T08:49:23.816Z</time></trkpt><trkpt lat="38.0649167" lon="15.85037"><ele>1255.0</ele><time>2026-04-25T08:49:24.816Z</time></trkpt><trkpt lat="38.0649917" lon="15.8502983"><ele>1255.0</ele><time>2026-04-25T08:49:25.815Z</time></trkpt><trkpt lat="38.0650533" lon="15.8502067"><ele>1255.0</ele><time>2026-04-25T08:49:26.816Z</time></trkpt><trkpt lat="38.0651117" lon="15.8501067"><ele>1259.75</ele><time>2026-04-25T08:49:27.816Z</time></trkpt><trkpt lat="38.065165" lon="15.8499833"><ele>1264.5</ele><time>2026-04-25T08:49:28.816Z</time></trkpt><trkpt lat="38.0652117" lon="15.8498433"><ele>1269.25</ele><time>2026-04-25T08:49:29.816Z</time></trkpt><trkpt lat="38.0652433" lon="15.84969"><ele>1274.0</ele><time>2026-04-25T08:49:30.815Z</time></trkpt><trkpt lat="38.0652717" lon="15.8495367"><ele>1274.0</ele><time>2026-04-25T08:49:31.816Z</time></trkpt><trkpt lat="38.06533" lon="15.84941"><ele>1274.0</ele><time>2026-04-25T08:49:32.816Z</time></trkpt><trkpt lat="38.065345" lon="15.8492783"><ele>1274.0</ele><time>2026-04-25T08:49:33.816Z</time></trkpt><trkpt lat="38.0653967" lon="15.84918"><ele>1274.0</ele><time>2026-04-25T08:49:34.816Z</time></trkpt><trkpt lat="38.0654783" lon="15.84907"><ele>1274.0</ele><time>2026-04-25T08:49:35.816Z</time></trkpt><trkpt lat="38.0655767" lon="15.8489733"><ele>1273.0</ele><time>2026-04-25T08:49:36.816Z</time></trkpt><trkpt lat="38.06566" lon="15.848875"><ele>1272.0</ele><time>2026-04-25T08:49:37.816Z</time></trkpt><trkpt lat="38.0657417" lon="15.848795"><ele>1271.0</ele><time>2026-04-25T08:49:38.816Z</time></trkpt><trkpt lat="38.0658267" lon="15.84878"><ele>1270.0</ele><time>2026-04-25T08:49:39.816Z</time></trkpt><trkpt lat="38.06591" lon="15.848765"><ele>1269.0</ele><time>2026-04-25T08:49:40.816Z</time></trkpt><trkpt lat="38.06599" lon="15.8487483"><ele>1270.6666666666667</ele><time>2026-04-25T08:49:41.815Z</time></trkpt><trkpt lat="38.0660683" lon="15.8486983"><ele>1272.3333333333333</ele><time>2026-04-25T08:49:42.815Z</time></trkpt><trkpt lat="38.06613" lon="15.8486417"><ele>1274.0</ele><time>2026-04-25T08:49:43.815Z</time></trkpt><trkpt lat="38.0661917" lon="15.8485633"><ele>1275.6666666666665</ele><time>2026-04-25T08:49:44.815Z</time></trkpt><trkpt lat="38.066235" lon="15.8484667"><ele>1277.3333333333333</ele><time>2026-04-25T08:49:45.816Z</time></trkpt><trkpt lat="38.06627" lon="15.84838"><ele>1279.0</ele><time>2026-04-25T08:49:46.815Z</time></trkpt><trkpt lat="38.0663067" lon="15.8482533"><ele>1281.75</ele><time>2026-04-25T08:49:47.816Z</time></trkpt><trkpt lat="38.0663567" lon="15.848095"><ele>1284.5</ele><time>2026-04-25T08:49:48.815Z</time></trkpt><trkpt lat="38.0664" lon="15.847945"><ele>1287.25</ele><time>2026-04-25T08:49:49.815Z</time></trkpt><trkpt lat="38.06649" lon="15.8478433"><ele>1290.0</ele><time>2026-04-25T08:49:50.815Z</time></trkpt><trkpt lat="38.0665633" lon="15.8477617"><ele>1290.0</ele><time>2026-04-25T08:49:51.816Z</time></trkpt><trkpt lat="38.0666333" lon="15.8476917"><ele>1290.0</ele><time>2026-04-25T08:49:52.816Z</time></trkpt><trkpt lat="38.0667167" lon="15.8476833"><ele>1290.0</ele><time>2026-04-25T08:49:53.816Z</time></trkpt><trkpt lat="38.0667817" lon="15.84771"><ele>1290.0</ele><time>2026-04-25T08:49:54.816Z</time></trkpt><trkpt lat="38.0668467" lon="15.8477817"><ele>1290.0</ele><time>2026-04-25T08:49:55.815Z</time></trkpt><trkpt lat="38.06695" lon="15.8480017"><ele>1290.0</ele><time>2026-04-25T08:49:56.816Z</time></trkpt><trkpt lat="38.0670233" lon="15.8481033"><ele>1290.0</ele><time>2026-04-25T08:49:57.816Z</time></trkpt><trkpt lat="38.0670783" lon="15.8482067"><ele>1290.0</ele><time>2026-04-25T08:49:58.816Z</time></trkpt><trkpt lat="38.06713" lon="15.848275"><ele>1290.0</ele><time>2026-04-25T08:49:59.816Z</time></trkpt><trkpt lat="38.0672033" lon="15.8483567"><ele>1290.0</ele><time>2026-04-25T08:50:00.815Z</time></trkpt><trkpt lat="38.0672867" lon="15.8484317"><ele>1290.2</ele><time>2026-04-25T08:50:01.816Z</time></trkpt><trkpt lat="38.0673867" lon="15.8485017"><ele>1290.4</ele><time>2026-04-25T08:50:02.816Z</time></trkpt><trkpt lat="38.0674617" lon="15.8485717"><ele>1290.6</ele><time>2026-04-25T08:50:03.816Z</time></trkpt><trkpt lat="38.0675417" lon="15.8486317"><ele>1290.8</ele><time>2026-04-25T08:50:04.816Z</time></trkpt><trkpt lat="38.06763" lon="15.8487267"><ele>1291.0</ele><time>2026-04-25T08:50:05.816Z</time></trkpt><trkpt lat="38.0677317" lon="15.848835"><ele>1291.0</ele><time>2026-04-25T08:50:06.816Z</time></trkpt><trkpt lat="38.0678033" lon="15.8489467"><ele>1291.0</ele><time>2026-04-25T08:50:07.816Z</time></trkpt><trkpt lat="38.067855" lon="15.849045"><ele>1291.0</ele><time>2026-04-25T08:50:08.816Z</time></trkpt><trkpt lat="38.067905" lon="15.84913"><ele>1291.0</ele><time>2026-04-25T08:50:09.816Z</time></trkpt><trkpt lat="38.0679717" lon="15.84919"><ele>1291.0</ele><time>2026-04-25T08:50:10.816Z</time></trkpt><trkpt lat="38.068035" lon="15.8492767"><ele>1291.6</ele><time>2026-04-25T08:50:11.815Z</time></trkpt><trkpt lat="38.0681067" lon="15.849365"><ele>1292.1999999999998</ele><time>2026-04-25T08:50:12.816Z</time></trkpt><trkpt lat="38.0681733" lon="15.84943"><ele>1292.8000000000002</ele><time>2026-04-25T08:50:13.816Z</time></trkpt><trkpt lat="38.0682267" lon="15.8495133"><ele>1293.4</ele><time>2026-04-25T08:50:14.815Z</time></trkpt><trkpt lat="38.0682717" lon="15.8496817"><ele>1294.0</ele><time>2026-04-25T08:50:16.816Z</time></trkpt><trkpt lat="38.068305" lon="15.8497683"><ele>1294.5714285714284</ele><time>2026-04-25T08:50:17.816Z</time></trkpt><trkpt lat="38.0683317" lon="15.849855"><ele>1295.142857142857</ele><time>2026-04-25T08:50:18.816Z</time></trkpt><trkpt lat="38.0683717" lon="15.8499233"><ele>1295.7142857142858</ele><time>2026-04-25T08:50:19.815Z</time></trkpt><trkpt lat="38.068425" lon="15.8499833"><ele>1296.2857142857142</ele><time>2026-04-25T08:50:20.816Z</time></trkpt><trkpt lat="38.06847" lon="15.85004"><ele>1296.857142857143</ele><time>2026-04-25T08:50:21.816Z</time></trkpt><trkpt lat="38.068515" lon="15.8500983"><ele>1297.4285714285713</ele><time>2026-04-25T08:50:22.816Z</time></trkpt><trkpt lat="38.06856" lon="15.850165"><ele>1298.0</ele><time>2026-04-25T08:50:23.815Z</time></trkpt><trkpt lat="38.068605" lon="15.8502267"><ele>1298.0</ele><time>2026-04-25T08:50:24.816Z</time></trkpt><trkpt lat="38.0686833" lon="15.8503467"><ele>1298.0</ele><time>2026-04-25T08:50:26.816Z</time></trkpt><trkpt lat="38.0687583" lon="15.8503733"><ele>1298.0</ele><time>2026-04-25T08:50:27.815Z</time></trkpt><trkpt lat="38.0688717" lon="15.8503983"><ele>1298.0</ele><time>2026-04-25T08:50:28.815Z</time></trkpt><trkpt lat="38.06897" lon="15.8503983"><ele>1298.0</ele><time>2026-04-25T08:50:29.816Z</time></trkpt><trkpt lat="38.0690467" lon="15.85042"><ele>1299.0</ele><time>2026-04-25T08:50:30.816Z</time></trkpt><trkpt lat="38.0691167" lon="15.85043"><ele>1300.0</ele><time>2026-04-25T08:50:31.816Z</time></trkpt><trkpt lat="38.0691967" lon="15.850425"><ele>1301.0</ele><time>2026-04-25T08:50:32.816Z</time></trkpt><trkpt lat="38.0692717" lon="15.8504033"><ele>1302.0</ele><time>2026-04-25T08:50:33.816Z</time></trkpt><trkpt lat="38.0693833" lon="15.8503383"><ele>1303.0</ele><time>2026-04-25T08:50:35.816Z</time></trkpt><trkpt lat="38.0694383" lon="15.8502867"><ele>1304.0</ele><time>2026-04-25T08:50:36.816Z</time></trkpt><trkpt lat="38.0695283" lon="15.8502717"><ele>1304.0</ele><time>2026-04-25T08:50:40.815Z</time></trkpt><trkpt lat="38.0696533" lon="15.850325"><ele>1304.0</ele><time>2026-04-25T08:50:43.816Z</time></trkpt><trkpt lat="38.0697233" lon="15.8503533"><ele>1304.0</ele><time>2026-04-25T08:50:44.816Z</time></trkpt><trkpt lat="38.0698417" lon="15.85036"><ele>1304.0</ele><time>2026-04-25T08:50:46.815Z</time></trkpt><trkpt lat="38.0699017" lon="15.8503333"><ele>1304.0</ele><time>2026-04-25T08:50:47.815Z</time></trkpt><trkpt lat="38.07" lon="15.8502783"><ele>1303.5</ele><time>2026-04-25T08:50:48.816Z</time></trkpt><trkpt lat="38.0701083" lon="15.8502117"><ele>1303.0</ele><time>2026-04-25T08:50:50.815Z</time></trkpt><trkpt lat="38.07021" lon="15.8502483"><ele>1302.5</ele><time>2026-04-25T08:50:52.815Z</time></trkpt><trkpt lat="38.0703133" lon="15.8502867"><ele>1302.0</ele><time>2026-04-25T08:50:53.816Z</time></trkpt><trkpt lat="38.0704667" lon="15.8502917"><ele>1302.0</ele><time>2026-04-25T08:50:54.815Z</time></trkpt><trkpt lat="38.07053" lon="15.85031"><ele>1302.0</ele><time>2026-04-25T08:50:55.816Z</time></trkpt><trkpt lat="38.0706033" lon="15.850375"><ele>1302.0</ele><time>2026-04-25T08:50:57.816Z</time></trkpt><trkpt lat="38.0706767" lon="15.8504767"><ele>1302.0</ele><time>2026-04-25T08:50:59.816Z</time></trkpt><trkpt lat="38.070725" lon="15.8505633"><ele>1302.0</ele><time>2026-04-25T08:51:00.815Z</time></trkpt><trkpt lat="38.0707717" lon="15.8507683"><ele>1303.0</ele><time>2026-04-25T08:51:01.816Z</time></trkpt><trkpt lat="38.070795" lon="15.85099"><ele>1304.0</ele><time>2026-04-25T08:51:02.816Z</time></trkpt><trkpt lat="38.070845" lon="15.851205"><ele>1305.0</ele><time>2026-04-25T08:51:03.816Z</time></trkpt><trkpt lat="38.07089" lon="15.8514167"><ele>1305.0</ele><time>2026-04-25T08:51:04.816Z</time></trkpt><trkpt lat="38.0709683" lon="15.851635"><ele>1305.0</ele><time>2026-04-25T08:51:05.816Z</time></trkpt><trkpt lat="38.0710733" lon="15.8518517"><ele>1305.0</ele><time>2026-04-25T08:51:06.815Z</time></trkpt><trkpt lat="38.0711483" lon="15.8520083"><ele>1304.25</ele><time>2026-04-25T08:51:07.816Z</time></trkpt><trkpt lat="38.0712117" lon="15.8521483"><ele>1303.5</ele><time>2026-04-25T08:51:08.816Z</time></trkpt><trkpt lat="38.071325" lon="15.8522933"><ele>1302.75</ele><time>2026-04-25T08:51:09.816Z</time></trkpt><trkpt lat="38.0713967" lon="15.852405"><ele>1302.0</ele><time>2026-04-25T08:51:10.816Z</time></trkpt><trkpt lat="38.0714667" lon="15.8524983"><ele>1302.0</ele><time>2026-04-25T08:51:11.816Z</time></trkpt><trkpt lat="38.0715367" lon="15.8525617"><ele>1302.0</ele><time>2026-04-25T08:51:12.816Z</time></trkpt><trkpt lat="38.071645" lon="15.85266"><ele>1302.0</ele><time>2026-04-25T08:51:13.815Z</time></trkpt><trkpt lat="38.07171" lon="15.85275"><ele>1302.0</ele><time>2026-04-25T08:51:14.816Z</time></trkpt><trkpt lat="38.071775" lon="15.8528467"><ele>1302.0</ele><time>2026-04-25T08:51:15.815Z</time></trkpt><trkpt lat="38.0718417" lon="15.85293"><ele>1300.6</ele><time>2026-04-25T08:51:16.816Z</time></trkpt><trkpt lat="38.0719117" lon="15.8530133"><ele>1299.1999999999998</ele><time>2026-04-25T08:51:17.816Z</time></trkpt><trkpt lat="38.0719833" lon="15.8531"><ele>1297.8</ele><time>2026-04-25T08:51:18.816Z</time></trkpt><trkpt lat="38.0720517" lon="15.853185"><ele>1296.4</ele><time>2026-04-25T08:51:19.816Z</time></trkpt><trkpt lat="38.0721333" lon="15.8532833"><ele>1295.0</ele><time>2026-04-25T08:51:20.816Z</time></trkpt><trkpt lat="38.0722117" lon="15.85336"><ele>1295.0</ele><time>2026-04-25T08:51:21.816Z</time></trkpt><trkpt lat="38.0722867" lon="15.8534267"><ele>1295.0</ele><time>2026-04-25T08:51:22.816Z</time></trkpt><trkpt lat="38.0723583" lon="15.8535033"><ele>1295.0</ele><time>2026-04-25T08:51:23.815Z</time></trkpt><trkpt lat="38.0724417" lon="15.8535767"><ele>1295.0</ele><time>2026-04-25T08:51:24.816Z</time></trkpt><trkpt lat="38.0725483" lon="15.8536333"><ele>1295.0</ele><time>2026-04-25T08:51:25.816Z</time></trkpt><trkpt lat="38.0727133" lon="15.8536117"><ele>1294.6</ele><time>2026-04-25T08:51:26.816Z</time></trkpt><trkpt lat="38.0727767" lon="15.85363"><ele>1294.2</ele><time>2026-04-25T08:51:27.815Z</time></trkpt><trkpt lat="38.0729" lon="15.853725"><ele>1293.8000000000002</ele><time>2026-04-25T08:51:28.816Z</time></trkpt><trkpt lat="38.0729833" lon="15.853805"><ele>1293.4</ele><time>2026-04-25T08:51:29.816Z</time></trkpt><trkpt lat="38.073025" lon="15.85389"><ele>1293.0</ele><time>2026-04-25T08:51:30.816Z</time></trkpt><trkpt lat="38.0729967" lon="15.85402"><ele>1293.0</ele><time>2026-04-25T08:51:31.815Z</time></trkpt><trkpt lat="38.0729883" lon="15.8541467"><ele>1293.0</ele><time>2026-04-25T08:51:32.816Z</time></trkpt><trkpt lat="38.07291" lon="15.8543"><ele>1293.0</ele><time>2026-04-25T08:51:33.815Z</time></trkpt><trkpt lat="38.0728767" lon="15.8544383"><ele>1293.0</ele><time>2026-04-25T08:51:34.815Z</time></trkpt><trkpt lat="38.0728" lon="15.854535"><ele>1292.6000000000001</ele><time>2026-04-25T08:51:35.816Z</time></trkpt><trkpt lat="38.072745" lon="15.8546167"><ele>1292.2</ele><time>2026-04-25T08:51:36.816Z</time></trkpt><trkpt lat="38.0726633" lon="15.8547"><ele>1291.8</ele><time>2026-04-25T08:51:37.816Z</time></trkpt><trkpt lat="38.072585" lon="15.854765"><ele>1291.4</ele><time>2026-04-25T08:51:38.816Z</time></trkpt><trkpt lat="38.0725017" lon="15.8548067"><ele>1291.0</ele><time>2026-04-25T08:51:39.816Z</time></trkpt><trkpt lat="38.0724283" lon="15.8548517"><ele>1286.8571428571427</ele><time>2026-04-25T08:51:40.816Z</time></trkpt><trkpt lat="38.072365" lon="15.8549033"><ele>1282.7142857142858</ele><time>2026-04-25T08:51:41.816Z</time></trkpt><trkpt lat="38.0723017" lon="15.8549583"><ele>1278.5714285714284</ele><time>2026-04-25T08:51:42.816Z</time></trkpt><trkpt lat="38.0722717" lon="15.855035"><ele>1274.4285714285713</ele><time>2026-04-25T08:51:43.816Z</time></trkpt><trkpt lat="38.072255" lon="15.8551167"><ele>1270.2857142857142</ele><time>2026-04-25T08:51:44.816Z</time></trkpt><trkpt lat="38.0722583" lon="15.8552267"><ele>1266.142857142857</ele><time>2026-04-25T08:51:45.816Z</time></trkpt><trkpt lat="38.0722817" lon="15.8553033"><ele>1262.0</ele><time>2026-04-25T08:51:46.816Z</time></trkpt><trkpt lat="38.0723033" lon="15.8554083"><ele>1261.6</ele><time>2026-04-25T08:51:47.816Z</time></trkpt><trkpt lat="38.0723267" lon="15.8555283"><ele>1261.2</ele><time>2026-04-25T08:51:48.816Z</time></trkpt><trkpt lat="38.0723617" lon="15.8556167"><ele>1260.8</ele><time>2026-04-25T08:51:49.816Z</time></trkpt><trkpt lat="38.0724267" lon="15.8557033"><ele>1260.4</ele><time>2026-04-25T08:51:50.816Z</time></trkpt><trkpt lat="38.072495" lon="15.8557667"><ele>1260.0</ele><time>2026-04-25T08:51:51.815Z</time></trkpt><trkpt lat="38.0726533" lon="15.8557717"><ele>1265.1666666666667</ele><time>2026-04-25T08:51:52.816Z</time></trkpt><trkpt lat="38.072735" lon="15.8557833"><ele>1270.3333333333333</ele><time>2026-04-25T08:51:53.815Z</time></trkpt><trkpt lat="38.0728367" lon="15.8557617"><ele>1275.5</ele><time>2026-04-25T08:51:54.816Z</time></trkpt><trkpt lat="38.072915" lon="15.8557417"><ele>1280.6666666666665</ele><time>2026-04-25T08:51:55.816Z</time></trkpt><trkpt lat="38.072975" lon="15.8557133"><ele>1285.8333333333333</ele><time>2026-04-25T08:51:56.816Z</time></trkpt><trkpt lat="38.0730417" lon="15.8556967"><ele>1291.0</ele><time>2026-04-25T08:51:57.816Z</time></trkpt><trkpt lat="38.07311" lon="15.8556983"><ele>1291.0</ele><time>2026-04-25T08:52:00.816Z</time></trkpt><trkpt lat="38.0731683" lon="15.8558033"><ele>1291.0</ele><time>2026-04-25T08:52:02.815Z</time></trkpt><trkpt lat="38.0731567" lon="15.8559583"><ele>1291.0</ele><time>2026-04-25T08:52:04.816Z</time></trkpt><trkpt lat="38.0731817" lon="15.8560817"><ele>1291.0</ele><time>2026-04-25T08:52:06.815Z</time></trkpt><trkpt lat="38.0732133" lon="15.8561717"><ele>1291.0</ele><time>2026-04-25T08:52:08.816Z</time></trkpt><trkpt lat="38.0732567" lon="15.856105"><ele>1294.75</ele><time>2026-04-25T08:52:10.816Z</time></trkpt><trkpt lat="38.0732883" lon="15.8560283"><ele>1298.5</ele><time>2026-04-25T08:52:11.816Z</time></trkpt><trkpt lat="38.0733517" lon="15.8558967"><ele>1302.25</ele><time>2026-04-25T08:52:13.816Z</time></trkpt><trkpt lat="38.0734167" lon="15.855795"><ele>1306.0</ele><time>2026-04-25T08:52:15.816Z</time></trkpt><trkpt lat="38.0735733" lon="15.8559733"><ele>1306.0</ele><time>2026-04-25T08:52:19.815Z</time></trkpt><trkpt lat="38.073615" lon="15.8560533"><ele>1306.0</ele><time>2026-04-25T08:52:20.816Z</time></trkpt><trkpt lat="38.0737183" lon="15.8562033"><ele>1306.0</ele><time>2026-04-25T08:52:22.816Z</time></trkpt><trkpt lat="38.0738283" lon="15.8563667"><ele>1306.0</ele><time>2026-04-25T08:52:23.816Z</time></trkpt><trkpt lat="38.073875" lon="15.8564667"><ele>1306.0</ele><time>2026-04-25T08:52:24.815Z</time></trkpt><trkpt lat="38.073945" lon="15.8565467"><ele>1306.0</ele><time>2026-04-25T08:52:25.816Z</time></trkpt><trkpt lat="38.074005" lon="15.8565767"><ele>1306.0</ele><time>2026-04-25T08:52:26.816Z</time></trkpt><trkpt lat="38.0740717" lon="15.8566367"><ele>1306.0</ele><time>2026-04-25T08:52:27.816Z</time></trkpt><trkpt lat="38.0741533" lon="15.8566433"><ele>1306.0</ele><time>2026-04-25T08:52:28.815Z</time></trkpt><trkpt lat="38.0742833" lon="15.85656"><ele>1310.4</ele><time>2026-04-25T08:52:29.816Z</time></trkpt><trkpt lat="38.0743817" lon="15.856555"><ele>1314.8</ele><time>2026-04-25T08:52:30.816Z</time></trkpt><trkpt lat="38.074475" lon="15.8565433"><ele>1319.2</ele><time>2026-04-25T08:52:31.816Z</time></trkpt><trkpt lat="38.07458" lon="15.8565433"><ele>1323.6000000000001</ele><time>2026-04-25T08:52:32.815Z</time></trkpt><trkpt lat="38.0746667" lon="15.85659"><ele>1328.0</ele><time>2026-04-25T08:52:33.816Z</time></trkpt><trkpt lat="38.074755" lon="15.8566333"><ele>1328.0</ele><time>2026-04-25T08:52:34.816Z</time></trkpt><trkpt lat="38.0748467" lon="15.8566617"><ele>1328.0</ele><time>2026-04-25T08:52:35.816Z</time></trkpt><trkpt lat="38.074935" lon="15.85669"><ele>1328.0</ele><time>2026-04-25T08:52:36.816Z</time></trkpt><trkpt lat="38.0750367" lon="15.8567"><ele>1328.0</ele><time>2026-04-25T08:52:37.816Z</time></trkpt><trkpt lat="38.075155" lon="15.8566967"><ele>1328.0</ele><time>2026-04-25T08:52:38.815Z</time></trkpt><trkpt lat="38.07528" lon="15.8566883"><ele>1327.0</ele><time>2026-04-25T08:52:39.816Z</time></trkpt><trkpt lat="38.075415" lon="15.8566817"><ele>1326.0</ele><time>2026-04-25T08:52:40.816Z</time></trkpt><trkpt lat="38.0755483" lon="15.8566483"><ele>1325.0</ele><time>2026-04-25T08:52:41.816Z</time></trkpt><trkpt lat="38.0756717" lon="15.8566517"><ele>1324.0</ele><time>2026-04-25T08:52:42.816Z</time></trkpt><trkpt lat="38.0757917" lon="15.85664"><ele>1324.0</ele><time>2026-04-25T08:52:43.816Z</time></trkpt><trkpt lat="38.0759033" lon="15.856595"><ele>1324.0</ele><time>2026-04-25T08:52:44.816Z</time></trkpt><trkpt lat="38.076" lon="15.8565283"><ele>1324.0</ele><time>2026-04-25T08:52:45.816Z</time></trkpt><trkpt lat="38.0761" lon="15.8564733"><ele>1324.0</ele><time>2026-04-25T08:52:46.816Z</time></trkpt><trkpt lat="38.0761867" lon="15.8564217"><ele>1324.0</ele><time>2026-04-25T08:52:47.816Z</time></trkpt><trkpt lat="38.0762517" lon="15.8563933"><ele>1324.0</ele><time>2026-04-25T08:52:48.816Z</time></trkpt><trkpt lat="38.07632" lon="15.8563483"><ele>1324.0</ele><time>2026-04-25T08:52:49.815Z</time></trkpt><trkpt lat="38.0764333" lon="15.856325"><ele>1324.0</ele><time>2026-04-25T08:52:50.816Z</time></trkpt><trkpt lat="38.07654" lon="15.8563117"><ele>1324.0</ele><time>2026-04-25T08:52:51.816Z</time></trkpt><trkpt lat="38.0766283" lon="15.85631"><ele>1324.0</ele><time>2026-04-25T08:52:52.816Z</time></trkpt><trkpt lat="38.0766983" lon="15.8563317"><ele>1324.0</ele><time>2026-04-25T08:52:53.815Z</time></trkpt><trkpt lat="38.0768117" lon="15.8563617"><ele>1324.0</ele><time>2026-04-25T08:52:54.816Z</time></trkpt><trkpt lat="38.0768983" lon="15.8563933"><ele>1324.0</ele><time>2026-04-25T08:52:55.816Z</time></trkpt><trkpt lat="38.0769217" lon="15.8565233"><ele>1324.0</ele><time>2026-04-25T08:52:56.815Z</time></trkpt><trkpt lat="38.0769817" lon="15.8565717"><ele>1324.0</ele><time>2026-04-25T08:52:57.816Z</time></trkpt><trkpt lat="38.07704" lon="15.8566167"><ele>1324.0</ele><time>2026-04-25T08:52:58.816Z</time></trkpt><trkpt lat="38.0770983" lon="15.8566733"><ele>1324.0</ele><time>2026-04-25T08:52:59.815Z</time></trkpt><trkpt lat="38.077115" lon="15.8567867"><ele>1324.0</ele><time>2026-04-25T08:53:00.816Z</time></trkpt><trkpt lat="38.0771667" lon="15.8568567"><ele>1324.0</ele><time>2026-04-25T08:53:01.816Z</time></trkpt><trkpt lat="38.0772067" lon="15.8569317"><ele>1324.0</ele><time>2026-04-25T08:53:02.816Z</time></trkpt><trkpt lat="38.0772533" lon="15.8569917"><ele>1324.0</ele><time>2026-04-25T08:53:03.815Z</time></trkpt><trkpt lat="38.07729" lon="15.857075"><ele>1325.8000000000002</ele><time>2026-04-25T08:53:04.815Z</time></trkpt><trkpt lat="38.07733" lon="15.857145"><ele>1327.6000000000001</ele><time>2026-04-25T08:53:05.815Z</time></trkpt><trkpt lat="38.077375" lon="15.8572767"><ele>1329.4</ele><time>2026-04-25T08:53:07.815Z</time></trkpt><trkpt lat="38.0774067" lon="15.8574117"><ele>1331.2</ele><time>2026-04-25T08:53:09.816Z</time></trkpt><trkpt lat="38.0774033" lon="15.8574967"><ele>1333.0</ele><time>2026-04-25T08:53:10.816Z</time></trkpt><trkpt lat="38.0772817" lon="15.8575433"><ele>1333.0</ele><time>2026-04-25T08:53:11.816Z</time></trkpt><trkpt lat="38.077225" lon="15.8575817"><ele>1333.0</ele><time>2026-04-25T08:53:12.816Z</time></trkpt><trkpt lat="38.0770783" lon="15.8576133"><ele>1333.0</ele><time>2026-04-25T08:53:13.816Z</time></trkpt><trkpt lat="38.076935" lon="15.8576267"><ele>1333.0</ele><time>2026-04-25T08:53:14.816Z</time></trkpt><trkpt lat="38.076735" lon="15.85761"><ele>1329.5</ele><time>2026-04-25T08:53:15.816Z</time></trkpt><trkpt lat="38.076595" lon="15.8576917"><ele>1326.0</ele><time>2026-04-25T08:53:16.815Z</time></trkpt><trkpt lat="38.0764033" lon="15.85761"><ele>1322.5</ele><time>2026-04-25T08:53:17.815Z</time></trkpt><trkpt lat="38.0763117" lon="15.8576217"><ele>1319.0</ele><time>2026-04-25T08:53:18.815Z</time></trkpt><trkpt lat="38.0762267" lon="15.857665"><ele>1319.0</ele><time>2026-04-25T08:53:19.815Z</time></trkpt><trkpt lat="38.0761667" lon="15.85775"><ele>1319.0</ele><time>2026-04-25T08:53:20.816Z</time></trkpt><trkpt lat="38.0761167" lon="15.8579133"><ele>1319.0</ele><time>2026-04-25T08:53:21.815Z</time></trkpt><trkpt lat="38.076055" lon="15.8580917"><ele>1319.0</ele><time>2026-04-25T08:53:22.816Z</time></trkpt><trkpt lat="38.0760117" lon="15.8582067"><ele>1319.0</ele><time>2026-04-25T08:53:23.816Z</time></trkpt><trkpt lat="38.0759733" lon="15.8583383"><ele>1319.0</ele><time>2026-04-25T08:53:24.816Z</time></trkpt><trkpt lat="38.07593" lon="15.8584683"><ele>1319.0</ele><time>2026-04-25T08:53:25.816Z</time></trkpt><trkpt lat="38.0759067" lon="15.858625"><ele>1319.0</ele><time>2026-04-25T08:53:26.816Z</time></trkpt><trkpt lat="38.075905" lon="15.85882"><ele>1323.0</ele><time>2026-04-25T08:53:27.816Z</time></trkpt><trkpt lat="38.0758867" lon="15.859005"><ele>1327.0</ele><time>2026-04-25T08:53:28.816Z</time></trkpt><trkpt lat="38.07587" lon="15.859215"><ele>1331.0</ele><time>2026-04-25T08:53:29.815Z</time></trkpt><trkpt lat="38.0758783" lon="15.8594483"><ele>1334.25</ele><time>2026-04-25T08:53:30.815Z</time></trkpt><trkpt lat="38.0758717" lon="15.85963"><ele>1337.5</ele><time>2026-04-25T08:53:31.816Z</time></trkpt><trkpt lat="38.0758833" lon="15.8597883"><ele>1340.75</ele><time>2026-04-25T08:53:32.816Z</time></trkpt><trkpt lat="38.0758517" lon="15.8599683"><ele>1344.0</ele><time>2026-04-25T08:53:33.815Z</time></trkpt><trkpt lat="38.075885" lon="15.86013"><ele>1344.6</ele><time>2026-04-25T08:53:34.816Z</time></trkpt><trkpt lat="38.07591" lon="15.860265"><ele>1345.2</ele><time>2026-04-25T08:53:35.816Z</time></trkpt><trkpt lat="38.0758883" lon="15.8603983"><ele>1345.8</ele><time>2026-04-25T08:53:37.815Z</time></trkpt><trkpt lat="38.0758267" lon="15.8605017"><ele>1346.3999999999999</ele><time>2026-04-25T08:53:39.815Z</time></trkpt><trkpt lat="38.0757183" lon="15.8604583"><ele>1347.0</ele><time>2026-04-25T08:53:40.815Z</time></trkpt><trkpt lat="38.0755817" lon="15.8603983"><ele>1347.0</ele><time>2026-04-25T08:53:41.815Z</time></trkpt><trkpt lat="38.0754583" lon="15.8602617"><ele>1347.0</ele><time>2026-04-25T08:53:42.815Z</time></trkpt><trkpt lat="38.0753567" lon="15.8601967"><ele>1347.0</ele><time>2026-04-25T08:53:43.816Z</time></trkpt><trkpt lat="38.0752767" lon="15.86015"><ele>1347.0</ele><time>2026-04-25T08:53:44.815Z</time></trkpt><trkpt lat="38.075195" lon="15.8601283"><ele>1347.0</ele><time>2026-04-25T08:53:45.816Z</time></trkpt><trkpt lat="38.07512" lon="15.8601383"><ele>1347.0</ele><time>2026-04-25T08:53:46.816Z</time></trkpt><trkpt lat="38.0750167" lon="15.860215"><ele>1347.0</ele><time>2026-04-25T08:53:48.815Z</time></trkpt><trkpt lat="38.0749867" lon="15.8603283"><ele>1347.0</ele><time>2026-04-25T08:53:49.816Z</time></trkpt><trkpt lat="38.0749633" lon="15.8604483"><ele>1347.0</ele><time>2026-04-25T08:53:50.816Z</time></trkpt><trkpt lat="38.0749317" lon="15.8605683"><ele>1347.0</ele><time>2026-04-25T08:53:51.816Z</time></trkpt><trkpt lat="38.0749517" lon="15.86072"><ele>1347.0</ele><time>2026-04-25T08:53:52.816Z</time></trkpt><trkpt lat="38.0749533" lon="15.8608367"><ele>1347.0</ele><time>2026-04-25T08:53:53.816Z</time></trkpt><trkpt lat="38.074945" lon="15.8609433"><ele>1347.0</ele><time>2026-04-25T08:53:54.815Z</time></trkpt><trkpt lat="38.07496" lon="15.8610633"><ele>1347.0</ele><time>2026-04-25T08:53:55.815Z</time></trkpt><trkpt lat="38.0749583" lon="15.8612067"><ele>1347.0</ele><time>2026-04-25T08:53:56.816Z</time></trkpt><trkpt lat="38.074935" lon="15.86136"><ele>1347.0</ele><time>2026-04-25T08:53:57.816Z</time></trkpt><trkpt lat="38.0748983" lon="15.8615083"><ele>1347.0</ele><time>2026-04-25T08:53:58.816Z</time></trkpt><trkpt lat="38.07486" lon="15.8616283"><ele>1347.0</ele><time>2026-04-25T08:53:59.816Z</time></trkpt><trkpt lat="38.0748317" lon="15.8617283"><ele>1347.0</ele><time>2026-04-25T08:54:00.816Z</time></trkpt><trkpt lat="38.0747617" lon="15.86184"><ele>1347.0</ele><time>2026-04-25T08:54:02.815Z</time></trkpt><trkpt lat="38.074645" lon="15.86187"><ele>1347.0</ele><time>2026-04-25T08:54:04.816Z</time></trkpt><trkpt lat="38.074575" lon="15.8618333"><ele>1347.0</ele><time>2026-04-25T08:54:05.816Z</time></trkpt><trkpt lat="38.0745067" lon="15.8617617"><ele>1347.0</ele><time>2026-04-25T08:54:06.816Z</time></trkpt><trkpt lat="38.0744133" lon="15.8616983"><ele>1347.0</ele><time>2026-04-25T08:54:07.816Z</time></trkpt><trkpt lat="38.0742983" lon="15.8616917"><ele>1347.0</ele><time>2026-04-25T08:54:08.815Z</time></trkpt><trkpt lat="38.0741833" lon="15.8616817"><ele>1347.0</ele><time>2026-04-25T08:54:09.816Z</time></trkpt><trkpt lat="38.0741083" lon="15.861655"><ele>1347.0</ele><time>2026-04-25T08:54:10.816Z</time></trkpt><trkpt lat="38.0740333" lon="15.86163"><ele>1347.0</ele><time>2026-04-25T08:54:11.816Z</time></trkpt><trkpt lat="38.0739567" lon="15.861655"><ele>1347.0</ele><time>2026-04-25T08:54:12.816Z</time></trkpt><trkpt lat="38.0738767" lon="15.861695"><ele>1347.0</ele><time>2026-04-25T08:54:13.816Z</time></trkpt><trkpt lat="38.0738017" lon="15.8617333"><ele>1347.0</ele><time>2026-04-25T08:54:14.816Z</time></trkpt><trkpt lat="38.07372" lon="15.8617683"><ele>1347.6666666666667</ele><time>2026-04-25T08:54:15.816Z</time></trkpt><trkpt lat="38.073645" lon="15.8618017"><ele>1348.3333333333333</ele><time>2026-04-25T08:54:16.816Z</time></trkpt><trkpt lat="38.0735683" lon="15.8618383"><ele>1349.0</ele><time>2026-04-25T08:54:17.816Z</time></trkpt><trkpt lat="38.0734983" lon="15.8618817"><ele>1349.6666666666665</ele><time>2026-04-25T08:54:18.816Z</time></trkpt><trkpt lat="38.0734267" lon="15.8619417"><ele>1350.3333333333333</ele><time>2026-04-25T08:54:19.816Z</time></trkpt><trkpt lat="38.07347" lon="15.8620867"><ele>1351.0</ele><time>2026-04-25T08:54:20.816Z</time></trkpt><trkpt lat="38.0735" lon="15.8622517"><ele>1351.0</ele><time>2026-04-25T08:54:21.816Z</time></trkpt><trkpt lat="38.073465" lon="15.8623633"><ele>1351.0</ele><time>2026-04-25T08:54:22.815Z</time></trkpt><trkpt lat="38.0734683" lon="15.862485"><ele>1351.0</ele><time>2026-04-25T08:54:23.815Z</time></trkpt><trkpt lat="38.073475" lon="15.8625717"><ele>1351.0</ele><time>2026-04-25T08:54:26.816Z</time></trkpt><trkpt lat="38.073535" lon="15.8626333"><ele>1351.0</ele><time>2026-04-25T08:54:29.816Z</time></trkpt><trkpt lat="38.07355" lon="15.8627683"><ele>1351.0</ele><time>2026-04-25T08:54:31.815Z</time></trkpt><trkpt lat="38.073515" lon="15.8629333"><ele>1352.0</ele><time>2026-04-25T08:54:33.815Z</time></trkpt><trkpt lat="38.0735033" lon="15.8630333"><ele>1353.0</ele><time>2026-04-25T08:54:35.815Z</time></trkpt><trkpt lat="38.0735733" lon="15.8631417"><ele>1354.0</ele><time>2026-04-25T08:54:37.815Z</time></trkpt><trkpt lat="38.073775" lon="15.8629283"><ele>1354.0</ele><time>2026-04-25T08:54:39.816Z</time></trkpt><trkpt lat="38.07387" lon="15.8628433"><ele>1354.0</ele><time>2026-04-25T08:54:40.815Z</time></trkpt><trkpt lat="38.07397" lon="15.86278"><ele>1354.0</ele><time>2026-04-25T08:54:41.815Z</time></trkpt><trkpt lat="38.0740667" lon="15.862735"><ele>1354.0</ele><time>2026-04-25T08:54:42.816Z</time></trkpt><trkpt lat="38.0741633" lon="15.8626867"><ele>1354.0</ele><time>2026-04-25T08:54:43.816Z</time></trkpt><trkpt lat="38.0742517" lon="15.8626383"><ele>1357.0</ele><time>2026-04-25T08:54:44.816Z</time></trkpt><trkpt lat="38.0743083" lon="15.862685"><ele>1360.0</ele><time>2026-04-25T08:54:46.816Z</time></trkpt><trkpt lat="38.0742417" lon="15.8627717"><ele>1363.0</ele><time>2026-04-25T08:54:48.816Z</time></trkpt><trkpt lat="38.0742967" lon="15.8628167"><ele>1366.0</ele><time>2026-04-25T08:54:51.815Z</time></trkpt><trkpt lat="38.07442" lon="15.8627517"><ele>1369.0</ele><time>2026-04-25T08:54:52.816Z</time></trkpt><trkpt lat="38.0745417" lon="15.8626917"><ele>1369.0</ele><time>2026-04-25T08:54:53.816Z</time></trkpt><trkpt lat="38.074675" lon="15.8626733"><ele>1369.0</ele><time>2026-04-25T08:54:54.816Z</time></trkpt><trkpt lat="38.0748167" lon="15.8626683"><ele>1369.0</ele><time>2026-04-25T08:54:55.815Z</time></trkpt><trkpt lat="38.0749683" lon="15.8626867"><ele>1369.0</ele><time>2026-04-25T08:54:56.815Z</time></trkpt><trkpt lat="38.07508" lon="15.8627"><ele>1369.0</ele><time>2026-04-25T08:54:57.816Z</time></trkpt><trkpt lat="38.075185" lon="15.862695"><ele>1369.0</ele><time>2026-04-25T08:54:58.816Z</time></trkpt><trkpt lat="38.0752717" lon="15.8626633"><ele>1369.0</ele><time>2026-04-25T08:54:59.816Z</time></trkpt><trkpt lat="38.0753517" lon="15.86259"><ele>1369.0</ele><time>2026-04-25T08:55:00.815Z</time></trkpt><trkpt lat="38.075395" lon="15.862485"><ele>1369.0</ele><time>2026-04-25T08:55:01.816Z</time></trkpt><trkpt lat="38.0754333" lon="15.862355"><ele>1369.0</ele><time>2026-04-25T08:55:02.816Z</time></trkpt><trkpt lat="38.0755183" lon="15.862265"><ele>1369.0</ele><time>2026-04-25T08:55:03.816Z</time></trkpt><trkpt lat="38.0756183" lon="15.8621867"><ele>1369.0</ele><time>2026-04-25T08:55:04.816Z</time></trkpt><trkpt lat="38.0757267" lon="15.8621"><ele>1369.0</ele><time>2026-04-25T08:55:05.816Z</time></trkpt><trkpt lat="38.07583" lon="15.8620617"><ele>1373.25</ele><time>2026-04-25T08:55:06.816Z</time></trkpt><trkpt lat="38.0759367" lon="15.86207"><ele>1377.5</ele><time>2026-04-25T08:55:07.816Z</time></trkpt><trkpt lat="38.076065" lon="15.8621217"><ele>1381.75</ele><time>2026-04-25T08:55:08.815Z</time></trkpt><trkpt lat="38.0762133" lon="15.8621817"><ele>1386.0</ele><time>2026-04-25T08:55:09.816Z</time></trkpt><trkpt lat="38.0763683" lon="15.8622533"><ele>1386.0</ele><time>2026-04-25T08:55:10.816Z</time></trkpt><trkpt lat="38.0765067" lon="15.86231"><ele>1386.0</ele><time>2026-04-25T08:55:11.815Z</time></trkpt><trkpt lat="38.0766133" lon="15.8623667"><ele>1386.0</ele><time>2026-04-25T08:55:12.815Z</time></trkpt><trkpt lat="38.0767283" lon="15.8624383"><ele>1386.0</ele><time>2026-04-25T08:55:13.815Z</time></trkpt><trkpt lat="38.0768283" lon="15.862515"><ele>1387.1666666666667</ele><time>2026-04-25T08:55:14.815Z</time></trkpt><trkpt lat="38.0768633" lon="15.8625817"><ele>1388.3333333333333</ele><time>2026-04-25T08:55:15.816Z</time></trkpt><trkpt lat="38.0769333" lon="15.8626283"><ele>1389.5</ele><time>2026-04-25T08:55:16.815Z</time></trkpt><trkpt lat="38.0770383" lon="15.8625467"><ele>1390.6666666666665</ele><time>2026-04-25T08:55:18.815Z</time></trkpt><trkpt lat="38.0771033" lon="15.8624917"><ele>1391.8333333333333</ele><time>2026-04-25T08:55:19.816Z</time></trkpt><trkpt lat="38.0771833" lon="15.8624317"><ele>1393.0</ele><time>2026-04-25T08:55:20.815Z</time></trkpt><trkpt lat="38.0772467" lon="15.8623917"><ele>1393.0</ele><time>2026-04-25T08:55:21.816Z</time></trkpt><trkpt lat="38.0773283" lon="15.86236"><ele>1393.0</ele><time>2026-04-25T08:55:22.816Z</time></trkpt><trkpt lat="38.077395" lon="15.86233"><ele>1393.0</ele><time>2026-04-25T08:55:23.816Z</time></trkpt><trkpt lat="38.0774483" lon="15.8621867"><ele>1393.0</ele><time>2026-04-25T08:55:25.816Z</time></trkpt><trkpt lat="38.0774267" lon="15.86207"><ele>1393.0</ele><time>2026-04-25T08:55:26.815Z</time></trkpt><trkpt lat="38.07742" lon="15.8619433"><ele>1395.6000000000001</ele><time>2026-04-25T08:55:27.816Z</time></trkpt><trkpt lat="38.0774367" lon="15.8618167"><ele>1398.2</ele><time>2026-04-25T08:55:28.816Z</time></trkpt><trkpt lat="38.07747" lon="15.861705"><ele>1400.8</ele><time>2026-04-25T08:55:29.815Z</time></trkpt><trkpt lat="38.0775033" lon="15.86159"><ele>1403.4</ele><time>2026-04-25T08:55:30.816Z</time></trkpt><trkpt lat="38.0775417" lon="15.861475"><ele>1406.0</ele><time>2026-04-25T08:55:31.816Z</time></trkpt><trkpt lat="38.077705" lon="15.86139"><ele>1406.0</ele><time>2026-04-25T08:55:32.816Z</time></trkpt><trkpt lat="38.07782" lon="15.8612717"><ele>1406.0</ele><time>2026-04-25T08:55:33.816Z</time></trkpt><trkpt lat="38.0779067" lon="15.86114"><ele>1406.0</ele><time>2026-04-25T08:55:34.816Z</time></trkpt><trkpt lat="38.0780083" lon="15.861045"><ele>1406.0</ele><time>2026-04-25T08:55:35.816Z</time></trkpt><trkpt lat="38.0780983" lon="15.86094"><ele>1408.6666666666667</ele><time>2026-04-25T08:55:36.816Z</time></trkpt><trkpt lat="38.078205" lon="15.8608867"><ele>1411.3333333333333</ele><time>2026-04-25T08:55:37.816Z</time></trkpt><trkpt lat="38.07841" lon="15.8610233"><ele>1414.0</ele><time>2026-04-25T08:55:38.815Z</time></trkpt><trkpt lat="38.07863" lon="15.86112"><ele>1414.25</ele><time>2026-04-25T08:55:39.816Z</time></trkpt><trkpt lat="38.0787783" lon="15.8611217"><ele>1414.5</ele><time>2026-04-25T08:55:40.816Z</time></trkpt><trkpt lat="38.0789217" lon="15.8611467"><ele>1414.75</ele><time>2026-04-25T08:55:41.816Z</time></trkpt><trkpt lat="38.0790667" lon="15.8612167"><ele>1415.0</ele><time>2026-04-25T08:55:42.815Z</time></trkpt><trkpt lat="38.0791883" lon="15.8612483"><ele>1415.0</ele><time>2026-04-25T08:55:43.816Z</time></trkpt><trkpt lat="38.0793133" lon="15.8612567"><ele>1415.0</ele><time>2026-04-25T08:55:44.815Z</time></trkpt><trkpt lat="38.0794333" lon="15.8612617"><ele>1415.0</ele><time>2026-04-25T08:55:45.816Z</time></trkpt><trkpt lat="38.0795533" lon="15.8612467"><ele>1415.0</ele><time>2026-04-25T08:55:46.816Z</time></trkpt><trkpt lat="38.0796517" lon="15.8612183"><ele>1415.0</ele><time>2026-04-25T08:55:47.816Z</time></trkpt><trkpt lat="38.0797483" lon="15.8611817"><ele>1415.0</ele><time>2026-04-25T08:55:48.816Z</time></trkpt><trkpt lat="38.079835" lon="15.86117"><ele>1415.0</ele><time>2026-04-25T08:55:49.816Z</time></trkpt><trkpt lat="38.07992" lon="15.8611417"><ele>1415.0</ele><time>2026-04-25T08:55:50.816Z</time></trkpt><trkpt lat="38.0800133" lon="15.8611183"><ele>1415.0</ele><time>2026-04-25T08:55:51.816Z</time></trkpt><trkpt lat="38.0801067" lon="15.8610883"><ele>1415.0</ele><time>2026-04-25T08:55:52.815Z</time></trkpt><trkpt lat="38.0802" lon="15.8610617"><ele>1415.0</ele><time>2026-04-25T08:55:53.816Z</time></trkpt><trkpt lat="38.0803017" lon="15.8610383"><ele>1415.0</ele><time>2026-04-25T08:55:54.816Z</time></trkpt><trkpt lat="38.0803983" lon="15.861025"><ele>1415.0</ele><time>2026-04-25T08:55:55.815Z</time></trkpt><trkpt lat="38.08048" lon="15.8610533"><ele>1415.0</ele><time>2026-04-25T08:55:56.816Z</time></trkpt><trkpt lat="38.0805867" lon="15.86108"><ele>1415.0</ele><time>2026-04-25T08:55:57.816Z</time></trkpt><trkpt lat="38.080705" lon="15.8611333"><ele>1415.0</ele><time>2026-04-25T08:55:58.816Z</time></trkpt><trkpt lat="38.0808383" lon="15.8611533"><ele>1415.0</ele><time>2026-04-25T08:55:59.816Z</time></trkpt><trkpt lat="38.0809517" lon="15.8611867"><ele>1415.0</ele><time>2026-04-25T08:56:00.816Z</time></trkpt><trkpt lat="38.081085" lon="15.8611983"><ele>1410.6666666666667</ele><time>2026-04-25T08:56:01.816Z</time></trkpt><trkpt lat="38.0812467" lon="15.8611483"><ele>1406.3333333333333</ele><time>2026-04-25T08:56:02.816Z</time></trkpt><trkpt lat="38.0813933" lon="15.861115"><ele>1402.0</ele><time>2026-04-25T08:56:03.816Z</time></trkpt><trkpt lat="38.081535" lon="15.8610817"><ele>1402.0</ele><time>2026-04-25T08:56:04.816Z</time></trkpt><trkpt lat="38.0816633" lon="15.8610533"><ele>1402.0</ele><time>2026-04-25T08:56:05.816Z</time></trkpt><trkpt lat="38.0817967" lon="15.8609817"><ele>1402.0</ele><time>2026-04-25T08:56:06.816Z</time></trkpt><trkpt lat="38.082" lon="15.8607467"><ele>1402.0</ele><time>2026-04-25T08:56:07.816Z</time></trkpt><trkpt lat="38.0821767" lon="15.8606333"><ele>1402.0</ele><time>2026-04-25T08:56:08.816Z</time></trkpt><trkpt lat="38.08235" lon="15.8605317"><ele>1402.0</ele><time>2026-04-25T08:56:09.815Z</time></trkpt><trkpt lat="38.0825067" lon="15.8604483"><ele>1401.3333333333333</ele><time>2026-04-25T08:56:10.816Z</time></trkpt><trkpt lat="38.0826517" lon="15.860355"><ele>1400.6666666666667</ele><time>2026-04-25T08:56:11.816Z</time></trkpt><trkpt lat="38.0828433" lon="15.86025"><ele>1400.0</ele><time>2026-04-25T08:56:12.816Z</time></trkpt><trkpt lat="38.08293" lon="15.8602367"><ele>1403.3333333333335</ele><time>2026-04-25T08:56:13.816Z</time></trkpt><trkpt lat="38.083065" lon="15.8600967"><ele>1406.6666666666667</ele><time>2026-04-25T08:56:14.816Z</time></trkpt><trkpt lat="38.0831917" lon="15.8599783"><ele>1410.0</ele><time>2026-04-25T08:56:15.815Z</time></trkpt><trkpt lat="38.0833033" lon="15.85986"><ele>1411.6</ele><time>2026-04-25T08:56:16.816Z</time></trkpt><trkpt lat="38.0834217" lon="15.8597917"><ele>1413.2</ele><time>2026-04-25T08:56:17.815Z</time></trkpt><trkpt lat="38.0835183" lon="15.8597317"><ele>1414.8000000000002</ele><time>2026-04-25T08:56:18.815Z</time></trkpt><trkpt lat="38.0835883" lon="15.8596583"><ele>1416.4</ele><time>2026-04-25T08:56:19.815Z</time></trkpt><trkpt lat="38.0836717" lon="15.8596083"><ele>1418.0</ele><time>2026-04-25T08:56:20.816Z</time></trkpt><trkpt lat="38.083805" lon="15.8595283"><ele>1418.0</ele><time>2026-04-25T08:56:22.816Z</time></trkpt><trkpt lat="38.0838683" lon="15.8595083"><ele>1418.0</ele><time>2026-04-25T08:56:23.816Z</time></trkpt><trkpt lat="38.0839567" lon="15.8595467"><ele>1418.0</ele><time>2026-04-25T08:56:25.816Z</time></trkpt><trkpt lat="38.0840267" lon="15.8595783"><ele>1418.0</ele><time>2026-04-25T08:56:26.815Z</time></trkpt><trkpt lat="38.0841133" lon="15.8595567"><ele>1418.0</ele><time>2026-04-25T08:56:27.815Z</time></trkpt><trkpt lat="38.0842" lon="15.859525"><ele>1418.0</ele><time>2026-04-25T08:56:28.816Z</time></trkpt><trkpt lat="38.0842767" lon="15.8594733"><ele>1418.0</ele><time>2026-04-25T08:56:29.816Z</time></trkpt><trkpt lat="38.0843533" lon="15.859475"><ele>1418.0</ele><time>2026-04-25T08:56:30.816Z</time></trkpt><trkpt lat="38.084445" lon="15.8594667"><ele>1418.0</ele><time>2026-04-25T08:56:31.815Z</time></trkpt><trkpt lat="38.0845133" lon="15.859465"><ele>1418.0</ele><time>2026-04-25T08:56:32.815Z</time></trkpt><trkpt lat="38.0846233" lon="15.8595633"><ele>1418.0</ele><time>2026-04-25T08:56:34.816Z</time></trkpt><trkpt lat="38.0846667" lon="15.8596883"><ele>1418.0</ele><time>2026-04-25T08:56:35.816Z</time></trkpt><trkpt lat="38.0847133" lon="15.8598033"><ele>1418.0</ele><time>2026-04-25T08:56:36.816Z</time></trkpt><trkpt lat="38.08479" lon="15.85991"><ele>1418.0</ele><time>2026-04-25T08:56:37.816Z</time></trkpt><trkpt lat="38.08489" lon="15.86007"><ele>1418.0</ele><time>2026-04-25T08:56:38.816Z</time></trkpt><trkpt lat="38.0849733" lon="15.8601983"><ele>1417.5</ele><time>2026-04-25T08:56:39.816Z</time></trkpt><trkpt lat="38.0850783" lon="15.8603183"><ele>1417.0</ele><time>2026-04-25T08:56:40.816Z</time></trkpt><trkpt lat="38.0851683" lon="15.8604417"><ele>1416.5</ele><time>2026-04-25T08:56:41.816Z</time></trkpt><trkpt lat="38.08525" lon="15.8605633"><ele>1416.0</ele><time>2026-04-25T08:56:42.815Z</time></trkpt><trkpt lat="38.0853133" lon="15.8606783"><ele>1416.0</ele><time>2026-04-25T08:56:43.816Z</time></trkpt><trkpt lat="38.0853933" lon="15.8608067"><ele>1416.0</ele><time>2026-04-25T08:56:44.816Z</time></trkpt><trkpt lat="38.0854533" lon="15.8609417"><ele>1416.0</ele><time>2026-04-25T08:56:45.816Z</time></trkpt><trkpt lat="38.0854933" lon="15.8610867"><ele>1416.0</ele><time>2026-04-25T08:56:46.816Z</time></trkpt><trkpt lat="38.085515" lon="15.8612317"><ele>1414.75</ele><time>2026-04-25T08:56:47.815Z</time></trkpt><trkpt lat="38.085525" lon="15.8613717"><ele>1413.5</ele><time>2026-04-25T08:56:48.816Z</time></trkpt><trkpt lat="38.08555" lon="15.8615067"><ele>1412.25</ele><time>2026-04-25T08:56:49.815Z</time></trkpt><trkpt lat="38.0855867" lon="15.86164"><ele>1411.0</ele><time>2026-04-25T08:56:50.816Z</time></trkpt><trkpt lat="38.0856283" lon="15.8617817"><ele>1411.25</ele><time>2026-04-25T08:56:51.816Z</time></trkpt><trkpt lat="38.0856817" lon="15.8619367"><ele>1411.5</ele><time>2026-04-25T08:56:52.816Z</time></trkpt><trkpt lat="38.08575" lon="15.8620933"><ele>1411.75</ele><time>2026-04-25T08:56:53.816Z</time></trkpt><trkpt lat="38.0858483" lon="15.8622517"><ele>1412.0</ele><time>2026-04-25T08:56:54.816Z</time></trkpt><trkpt lat="38.08595" lon="15.8623683"><ele>1412.0</ele><time>2026-04-25T08:56:55.816Z</time></trkpt><trkpt lat="38.0860517" lon="15.8625"><ele>1412.0</ele><time>2026-04-25T08:56:56.816Z</time></trkpt><trkpt lat="38.0861633" lon="15.8626317"><ele>1412.0</ele><time>2026-04-25T08:56:57.816Z</time></trkpt><trkpt lat="38.08629" lon="15.8627517"><ele>1411.0</ele><time>2026-04-25T08:56:58.816Z</time></trkpt><trkpt lat="38.0864167" lon="15.862865"><ele>1410.0</ele><time>2026-04-25T08:56:59.816Z</time></trkpt><trkpt lat="38.08657" lon="15.86295"><ele>1409.0</ele><time>2026-04-25T08:57:00.816Z</time></trkpt><trkpt lat="38.0867567" lon="15.86296"><ele>1409.0</ele><time>2026-04-25T08:57:01.815Z</time></trkpt><trkpt lat="38.0869233" lon="15.8630317"><ele>1409.0</ele><time>2026-04-25T08:57:02.816Z</time></trkpt><trkpt lat="38.0870817" lon="15.8630867"><ele>1409.0</ele><time>2026-04-25T08:57:03.816Z</time></trkpt><trkpt lat="38.0871983" lon="15.86316"><ele>1409.0</ele><time>2026-04-25T08:57:04.816Z</time></trkpt><trkpt lat="38.0872917" lon="15.8632717"><ele>1409.0</ele><time>2026-04-25T08:57:05.816Z</time></trkpt><trkpt lat="38.0873533" lon="15.8633583"><ele>1409.0</ele><time>2026-04-25T08:57:06.815Z</time></trkpt><trkpt lat="38.0874383" lon="15.86345"><ele>1409.0</ele><time>2026-04-25T08:57:07.816Z</time></trkpt><trkpt lat="38.0875233" lon="15.863565"><ele>1406.75</ele><time>2026-04-25T08:57:08.816Z</time></trkpt><trkpt lat="38.0876033" lon="15.8636833"><ele>1404.5</ele><time>2026-04-25T08:57:09.816Z</time></trkpt><trkpt lat="38.0876817" lon="15.863805"><ele>1402.25</ele><time>2026-04-25T08:57:10.816Z</time></trkpt><trkpt lat="38.087745" lon="15.8639283"><ele>1400.0</ele><time>2026-04-25T08:57:11.816Z</time></trkpt><trkpt lat="38.0878017" lon="15.8640367"><ele>1400.0</ele><time>2026-04-25T08:57:12.815Z</time></trkpt><trkpt lat="38.08785" lon="15.8641383"><ele>1400.0</ele><time>2026-04-25T08:57:13.816Z</time></trkpt><trkpt lat="38.087865" lon="15.8642283"><ele>1400.0</ele><time>2026-04-25T08:57:14.815Z</time></trkpt><trkpt lat="38.0878833" lon="15.8643333"><ele>1400.0</ele><time>2026-04-25T08:57:15.816Z</time></trkpt><trkpt lat="38.087875" lon="15.8644283"><ele>1400.0</ele><time>2026-04-25T08:57:16.816Z</time></trkpt><trkpt lat="38.0878283" lon="15.8645567"><ele>1400.0</ele><time>2026-04-25T08:57:17.816Z</time></trkpt><trkpt lat="38.0878167" lon="15.8646817"><ele>1398.6</ele><time>2026-04-25T08:57:18.816Z</time></trkpt><trkpt lat="38.0878" lon="15.8647967"><ele>1397.2</ele><time>2026-04-25T08:57:19.816Z</time></trkpt><trkpt lat="38.0877617" lon="15.8649183"><ele>1395.8000000000002</ele><time>2026-04-25T08:57:20.815Z</time></trkpt><trkpt lat="38.0877233" lon="15.8650483"><ele>1394.4</ele><time>2026-04-25T08:57:21.816Z</time></trkpt><trkpt lat="38.0877" lon="15.8651783"><ele>1393.0</ele><time>2026-04-25T08:57:22.816Z</time></trkpt><trkpt lat="38.0876783" lon="15.865305"><ele>1392.0</ele><time>2026-04-25T08:57:23.816Z</time></trkpt><trkpt lat="38.087685" lon="15.8654533"><ele>1391.0</ele><time>2026-04-25T08:57:24.816Z</time></trkpt><trkpt lat="38.0877283" lon="15.865575"><ele>1390.0</ele><time>2026-04-25T08:57:25.816Z</time></trkpt><trkpt lat="38.0877367" lon="15.8656683"><ele>1389.0</ele><time>2026-04-25T08:57:26.816Z</time></trkpt><trkpt lat="38.0877617" lon="15.8657717"><ele>1388.0</ele><time>2026-04-25T08:57:27.815Z</time></trkpt><trkpt lat="38.087795" lon="15.86588"><ele>1388.0</ele><time>2026-04-25T08:57:28.815Z</time></trkpt><trkpt lat="38.0878367" lon="15.86599"><ele>1388.0</ele><time>2026-04-25T08:57:29.816Z</time></trkpt><trkpt lat="38.0878483" lon="15.866095"><ele>1388.0</ele><time>2026-04-25T08:57:30.816Z</time></trkpt><trkpt lat="38.08784" lon="15.8662117"><ele>1388.0</ele><time>2026-04-25T08:57:31.816Z</time></trkpt><trkpt lat="38.0878283" lon="15.8663283"><ele>1388.0</ele><time>2026-04-25T08:57:32.815Z</time></trkpt><trkpt lat="38.0877817" lon="15.8664567"><ele>1388.0</ele><time>2026-04-25T08:57:33.816Z</time></trkpt><trkpt lat="38.087785" lon="15.8665483"><ele>1388.0</ele><time>2026-04-25T08:57:34.816Z</time></trkpt><trkpt lat="38.0877883" lon="15.8666433"><ele>1388.0</ele><time>2026-04-25T08:57:35.816Z</time></trkpt><trkpt lat="38.08783" lon="15.8667383"><ele>1388.0</ele><time>2026-04-25T08:57:36.816Z</time></trkpt><trkpt lat="38.0878567" lon="15.866815"><ele>1388.0</ele><time>2026-04-25T08:57:37.816Z</time></trkpt><trkpt lat="38.0879367" lon="15.8669467"><ele>1388.0</ele><time>2026-04-25T08:57:39.815Z</time></trkpt><trkpt lat="38.087985" lon="15.867025"><ele>1388.0</ele><time>2026-04-25T08:57:40.816Z</time></trkpt><trkpt lat="38.0880333" lon="15.867085"><ele>1388.0</ele><time>2026-04-25T08:57:41.816Z</time></trkpt><trkpt lat="38.0880833" lon="15.8671433"><ele>1388.0</ele><time>2026-04-25T08:57:42.816Z</time></trkpt><trkpt lat="38.0881617" lon="15.8671933"><ele>1388.0</ele><time>2026-04-25T08:57:43.816Z</time></trkpt><trkpt lat="38.0883283" lon="15.867195"><ele>1388.0</ele><time>2026-04-25T08:57:44.816Z</time></trkpt><trkpt lat="38.088405" lon="15.8672617"><ele>1388.0</ele><time>2026-04-25T08:57:45.816Z</time></trkpt><trkpt lat="38.0884817" lon="15.867345"><ele>1388.0</ele><time>2026-04-25T08:57:46.816Z</time></trkpt><trkpt lat="38.08859" lon="15.8674317"><ele>1388.0</ele><time>2026-04-25T08:57:47.816Z</time></trkpt><trkpt lat="38.0887067" lon="15.8675267"><ele>1388.0</ele><time>2026-04-25T08:57:48.816Z</time></trkpt><trkpt lat="38.0888067" lon="15.86761"><ele>1386.75</ele><time>2026-04-25T08:57:49.816Z</time></trkpt><trkpt lat="38.0889283" lon="15.867685"><ele>1385.5</ele><time>2026-04-25T08:57:50.816Z</time></trkpt><trkpt lat="38.089045" lon="15.8677717"><ele>1384.25</ele><time>2026-04-25T08:57:51.816Z</time></trkpt><trkpt lat="38.089145" lon="15.8678667"><ele>1383.0</ele><time>2026-04-25T08:57:52.816Z</time></trkpt><trkpt lat="38.0892867" lon="15.867945"><ele>1382.8000000000002</ele><time>2026-04-25T08:57:53.816Z</time></trkpt><trkpt lat="38.0894" lon="15.8680133"><ele>1382.6</ele><time>2026-04-25T08:57:54.816Z</time></trkpt><trkpt lat="38.0895383" lon="15.868055"><ele>1382.4</ele><time>2026-04-25T08:57:55.815Z</time></trkpt><trkpt lat="38.0896217" lon="15.8679983"><ele>1382.1999999999998</ele><time>2026-04-25T08:57:57.816Z</time></trkpt><trkpt lat="38.08968" lon="15.8680317"><ele>1382.0</ele><time>2026-04-25T08:58:00.816Z</time></trkpt><trkpt lat="38.089845" lon="15.8680183"><ele>1382.0</ele><time>2026-04-25T08:58:21.816Z</time></trkpt><trkpt lat="38.0899217" lon="15.8680417"><ele>1382.0</ele><time>2026-04-25T08:58:24.815Z</time></trkpt><trkpt lat="38.0902517" lon="15.8680483"><ele>1382.0</ele><time>2026-04-25T08:58:28.815Z</time></trkpt><trkpt lat="38.0904117" lon="15.86799"><ele>1384.1999999999998</ele><time>2026-04-25T08:58:29.816Z</time></trkpt><trkpt lat="38.0905133" lon="15.867975"><ele>1386.4</ele><time>2026-04-25T08:58:30.816Z</time></trkpt><trkpt lat="38.0906" lon="15.86797"><ele>1388.6</ele><time>2026-04-25T08:58:31.815Z</time></trkpt><trkpt lat="38.0906767" lon="15.867955"><ele>1390.8000000000002</ele><time>2026-04-25T08:58:32.816Z</time></trkpt><trkpt lat="38.090755" lon="15.8679583"><ele>1393.0</ele><time>2026-04-25T08:58:33.816Z</time></trkpt><trkpt lat="38.0908967" lon="15.86794"><ele>1395.25</ele><time>2026-04-25T08:58:34.816Z</time></trkpt><trkpt lat="38.0910183" lon="15.8678817"><ele>1397.5</ele><time>2026-04-25T08:58:35.816Z</time></trkpt><trkpt lat="38.09116" lon="15.86776"><ele>1399.75</ele><time>2026-04-25T08:58:36.815Z</time></trkpt><trkpt lat="38.091245" lon="15.867625"><ele>1402.0</ele><time>2026-04-25T08:58:37.816Z</time></trkpt><trkpt lat="38.0913283" lon="15.8675533"><ele>1402.0</ele><time>2026-04-25T08:58:38.816Z</time></trkpt><trkpt lat="38.091405" lon="15.8674933"><ele>1402.0</ele><time>2026-04-25T08:58:39.816Z</time></trkpt><trkpt lat="38.0914933" lon="15.8674333"><ele>1402.0</ele><time>2026-04-25T08:58:40.816Z</time></trkpt><trkpt lat="38.0915733" lon="15.8673567"><ele>1402.0</ele><time>2026-04-25T08:58:41.816Z</time></trkpt><trkpt lat="38.0916467" lon="15.86729"><ele>1402.0</ele><time>2026-04-25T08:58:42.816Z</time></trkpt><trkpt lat="38.0917217" lon="15.867235"><ele>1406.3999999999999</ele><time>2026-04-25T08:58:43.816Z</time></trkpt><trkpt lat="38.0918167" lon="15.8671617"><ele>1410.8</ele><time>2026-04-25T08:58:45.816Z</time></trkpt><trkpt lat="38.0919217" lon="15.867095"><ele>1415.2</ele><time>2026-04-25T08:58:47.816Z</time></trkpt><trkpt lat="38.0920117" lon="15.8670183"><ele>1419.6</ele><time>2026-04-25T08:58:49.816Z</time></trkpt><trkpt lat="38.0921083" lon="15.8669717"><ele>1424.0</ele><time>2026-04-25T08:58:51.816Z</time></trkpt><trkpt lat="38.09212" lon="15.8668383"><ele>1422.2</ele><time>2026-04-25T08:58:53.815Z</time></trkpt><trkpt lat="38.0921217" lon="15.8666867"><ele>1420.4</ele><time>2026-04-25T08:58:55.816Z</time></trkpt><trkpt lat="38.092185" lon="15.8665367"><ele>1418.6</ele><time>2026-04-25T08:58:57.816Z</time></trkpt><trkpt lat="38.0921917" lon="15.8664267"><ele>1416.8</ele><time>2026-04-25T08:58:58.816Z</time></trkpt><trkpt lat="38.0921867" lon="15.86633"><ele>1415.0</ele><time>2026-04-25T08:58:59.816Z</time></trkpt><trkpt lat="38.0921833" lon="15.866245"><ele>1415.0</ele><time>2026-04-25T08:59:00.816Z</time></trkpt><trkpt lat="38.0921783" lon="15.8661367"><ele>1415.0</ele><time>2026-04-25T08:59:01.816Z</time></trkpt><trkpt lat="38.0921367" lon="15.86601"><ele>1415.0</ele><time>2026-04-25T08:59:02.816Z</time></trkpt><trkpt lat="38.092095" lon="15.8658467"><ele>1415.0</ele><time>2026-04-25T08:59:03.816Z</time></trkpt><trkpt lat="38.092045" lon="15.8656833"><ele>1413.75</ele><time>2026-04-25T08:59:04.816Z</time></trkpt><trkpt lat="38.0920067" lon="15.86558"><ele>1412.5</ele><time>2026-04-25T08:59:05.815Z</time></trkpt><trkpt lat="38.09192" lon="15.8654617"><ele>1411.25</ele><time>2026-04-25T08:59:06.816Z</time></trkpt><trkpt lat="38.09186" lon="15.86532"><ele>1410.0</ele><time>2026-04-25T08:59:07.816Z</time></trkpt><trkpt lat="38.0918133" lon="15.865185"><ele>1408.8</ele><time>2026-04-25T08:59:08.816Z</time></trkpt><trkpt lat="38.0918067" lon="15.865055"><ele>1407.6</ele><time>2026-04-25T08:59:09.815Z</time></trkpt><trkpt lat="38.0916833" lon="15.8651017"><ele>1406.4</ele><time>2026-04-25T08:59:10.816Z</time></trkpt><trkpt lat="38.0916583" lon="15.8650217"><ele>1405.2</ele><time>2026-04-25T08:59:11.815Z</time></trkpt><trkpt lat="38.0916667" lon="15.864905"><ele>1404.0</ele><time>2026-04-25T08:59:12.816Z</time></trkpt><trkpt lat="38.09166" lon="15.86481"><ele>1404.0</ele><time>2026-04-25T08:59:13.816Z</time></trkpt><trkpt lat="38.091655" lon="15.864715"><ele>1404.0</ele><time>2026-04-25T08:59:14.816Z</time></trkpt><trkpt lat="38.0917017" lon="15.8646083"><ele>1404.0</ele><time>2026-04-25T08:59:15.816Z</time></trkpt><trkpt lat="38.0917433" lon="15.864525"><ele>1404.0</ele><time>2026-04-25T08:59:16.816Z</time></trkpt><trkpt lat="38.0917417" lon="15.8644267"><ele>1404.0</ele><time>2026-04-25T08:59:17.816Z</time></trkpt><trkpt lat="38.0917317" lon="15.8643283"><ele>1404.0</ele><time>2026-04-25T08:59:19.815Z</time></trkpt><trkpt lat="38.091815" lon="15.864255"><ele>1401.6666666666667</ele><time>2026-04-25T08:59:21.816Z</time></trkpt><trkpt lat="38.09185" lon="15.8641533"><ele>1399.3333333333333</ele><time>2026-04-25T08:59:22.816Z</time></trkpt><trkpt lat="38.0918717" lon="15.86406"><ele>1397.0</ele><time>2026-04-25T08:59:23.816Z</time></trkpt><trkpt lat="38.0918367" lon="15.8639767"><ele>1394.6666666666665</ele><time>2026-04-25T08:59:24.816Z</time></trkpt><trkpt lat="38.0917917" lon="15.8638633"><ele>1392.3333333333333</ele><time>2026-04-25T08:59:26.816Z</time></trkpt><trkpt lat="38.091785" lon="15.86376"><ele>1390.0</ele><time>2026-04-25T08:59:28.816Z</time></trkpt><trkpt lat="38.0918133" lon="15.863625"><ele>1390.0</ele><time>2026-04-25T08:59:30.816Z</time></trkpt><trkpt lat="38.09188" lon="15.86359"><ele>1390.0</ele><time>2026-04-25T08:59:31.816Z</time></trkpt><trkpt lat="38.091965" lon="15.8635733"><ele>1390.0</ele><time>2026-04-25T08:59:32.816Z</time></trkpt><trkpt lat="38.09205" lon="15.8635483"><ele>1390.0</ele><time>2026-04-25T08:59:33.816Z</time></trkpt><trkpt lat="38.0921433" lon="15.8635133"><ele>1390.0</ele><time>2026-04-25T08:59:34.816Z</time></trkpt><trkpt lat="38.0922383" lon="15.8634883"><ele>1390.0</ele><time>2026-04-25T08:59:35.816Z</time></trkpt><trkpt lat="38.0923317" lon="15.863475"><ele>1389.6666666666665</ele><time>2026-04-25T08:59:36.815Z</time></trkpt><trkpt lat="38.0924233" lon="15.863485"><ele>1389.3333333333333</ele><time>2026-04-25T08:59:37.816Z</time></trkpt><trkpt lat="38.0925083" lon="15.8635"><ele>1389.0</ele><time>2026-04-25T08:59:38.816Z</time></trkpt><trkpt lat="38.0925983" lon="15.8635117"><ele>1388.6666666666667</ele><time>2026-04-25T08:59:39.815Z</time></trkpt><trkpt lat="38.0926767" lon="15.86349"><ele>1388.3333333333335</ele><time>2026-04-25T08:59:40.815Z</time></trkpt><trkpt lat="38.092715" lon="15.8634217"><ele>1388.0</ele><time>2026-04-25T08:59:41.816Z</time></trkpt><trkpt lat="38.09277" lon="15.8633817"><ele>1388.0</ele><time>2026-04-25T08:59:42.815Z</time></trkpt><trkpt lat="38.0928417" lon="15.86334"><ele>1388.0</ele><time>2026-04-25T08:59:43.816Z</time></trkpt><trkpt lat="38.092985" lon="15.8633"><ele>1388.0</ele><time>2026-04-25T08:59:44.816Z</time></trkpt><trkpt lat="38.0931017" lon="15.8632817"><ele>1388.0</ele><time>2026-04-25T08:59:45.816Z</time></trkpt><trkpt lat="38.093175" lon="15.8632783"><ele>1388.0</ele><time>2026-04-25T08:59:46.816Z</time></trkpt><trkpt lat="38.093255" lon="15.8632667"><ele>1387.8000000000002</ele><time>2026-04-25T08:59:47.816Z</time></trkpt><trkpt lat="38.09336" lon="15.8633083"><ele>1387.6</ele><time>2026-04-25T08:59:49.816Z</time></trkpt><trkpt lat="38.0934683" lon="15.8634"><ele>1387.4</ele><time>2026-04-25T08:59:51.815Z</time></trkpt><trkpt lat="38.0934817" lon="15.8634883"><ele>1387.1999999999998</ele><time>2026-04-25T08:59:52.815Z</time></trkpt><trkpt lat="38.0934967" lon="15.8635883"><ele>1387.0</ele><time>2026-04-25T08:59:53.816Z</time></trkpt><trkpt lat="38.0935183" lon="15.8637017"><ele>1391.0</ele><time>2026-04-25T08:59:54.816Z</time></trkpt><trkpt lat="38.0935467" lon="15.863815"><ele>1395.0</ele><time>2026-04-25T08:59:55.815Z</time></trkpt><trkpt lat="38.0935567" lon="15.8639217"><ele>1399.0</ele><time>2026-04-25T08:59:56.816Z</time></trkpt><trkpt lat="38.0935833" lon="15.863995"><ele>1403.0</ele><time>2026-04-25T08:59:57.815Z</time></trkpt><trkpt lat="38.0936017" lon="15.8641217"><ele>1407.0</ele><time>2026-04-25T08:59:59.816Z</time></trkpt><trkpt lat="38.0936317" lon="15.8642033"><ele>1411.0</ele><time>2026-04-25T09:00:01.816Z</time></trkpt><trkpt lat="38.0937333" lon="15.86419"><ele>1411.0</ele><time>2026-04-25T09:00:06.816Z</time></trkpt><trkpt lat="38.0937883" lon="15.8640683"><ele>1411.0</ele><time>2026-04-25T09:00:08.815Z</time></trkpt><trkpt lat="38.093875" lon="15.8637683"><ele>1411.0</ele><time>2026-04-25T09:00:10.816Z</time></trkpt><trkpt lat="38.09393" lon="15.863715"><ele>1411.0</ele><time>2026-04-25T09:00:11.816Z</time></trkpt><trkpt lat="38.0940033" lon="15.8636367"><ele>1411.0</ele><time>2026-04-25T09:00:13.816Z</time></trkpt><trkpt lat="38.0940167" lon="15.863555"><ele>1411.0</ele><time>2026-04-25T09:00:14.815Z</time></trkpt><trkpt lat="38.0940333" lon="15.86345"><ele>1411.0</ele><time>2026-04-25T09:00:15.816Z</time></trkpt><trkpt lat="38.094065" lon="15.8633433"><ele>1411.0</ele><time>2026-04-25T09:00:17.816Z</time></trkpt><trkpt lat="38.0940917" lon="15.8632583"><ele>1411.0</ele><time>2026-04-25T09:00:19.816Z</time></trkpt><trkpt lat="38.0941483" lon="15.8632017"><ele>1411.0</ele><time>2026-04-25T09:00:20.815Z</time></trkpt><trkpt lat="38.0942033" lon="15.8630617"><ele>1406.6</ele><time>2026-04-25T09:00:22.816Z</time></trkpt><trkpt lat="38.094265" lon="15.8629617"><ele>1402.1999999999998</ele><time>2026-04-25T09:00:24.816Z</time></trkpt><trkpt lat="38.0943033" lon="15.8628617"><ele>1397.8000000000002</ele><time>2026-04-25T09:00:26.815Z</time></trkpt><trkpt lat="38.09426" lon="15.8627117"><ele>1393.4</ele><time>2026-04-25T09:00:28.816Z</time></trkpt><trkpt lat="38.0942" lon="15.8626117"><ele>1389.0</ele><time>2026-04-25T09:00:29.816Z</time></trkpt><trkpt lat="38.0940417" lon="15.8624267"><ele>1384.5</ele><time>2026-04-25T09:00:31.816Z</time></trkpt><trkpt lat="38.0939467" lon="15.8622933"><ele>1380.0</ele><time>2026-04-25T09:00:32.816Z</time></trkpt><trkpt lat="38.0938" lon="15.8621867"><ele>1375.5</ele><time>2026-04-25T09:00:33.816Z</time></trkpt><trkpt lat="38.0936967" lon="15.8620733"><ele>1371.0</ele><time>2026-04-25T09:00:34.815Z</time></trkpt><trkpt lat="38.0936" lon="15.861945"><ele>1371.0</ele><time>2026-04-25T09:00:35.816Z</time></trkpt><trkpt lat="38.0935517" lon="15.8618067"><ele>1371.0</ele><time>2026-04-25T09:00:36.815Z</time></trkpt><trkpt lat="38.093545" lon="15.86148"><ele>1371.0</ele><time>2026-04-25T09:00:37.816Z</time></trkpt><trkpt lat="38.09353" lon="15.861355"><ele>1370.8333333333333</ele><time>2026-04-25T09:00:38.816Z</time></trkpt><trkpt lat="38.0935383" lon="15.8612383"><ele>1370.6666666666667</ele><time>2026-04-25T09:00:39.816Z</time></trkpt><trkpt lat="38.0935417" lon="15.8611283"><ele>1370.5</ele><time>2026-04-25T09:00:40.816Z</time></trkpt><trkpt lat="38.0935433" lon="15.8610267"><ele>1370.3333333333335</ele><time>2026-04-25T09:00:41.816Z</time></trkpt><trkpt lat="38.0935467" lon="15.8609217"><ele>1370.1666666666667</ele><time>2026-04-25T09:00:42.816Z</time></trkpt><trkpt lat="38.09353" lon="15.8608067"><ele>1370.0</ele><time>2026-04-25T09:00:43.816Z</time></trkpt><trkpt lat="38.093515" lon="15.8607167"><ele>1370.0</ele><time>2026-04-25T09:00:44.816Z</time></trkpt><trkpt lat="38.0935017" lon="15.8606383"><ele>1370.0</ele><time>2026-04-25T09:00:45.815Z</time></trkpt><trkpt lat="38.0934467" lon="15.8605633"><ele>1370.0</ele><time>2026-04-25T09:00:47.816Z</time></trkpt><trkpt lat="38.0933417" lon="15.8605383"><ele>1370.0</ele><time>2026-04-25T09:00:49.815Z</time></trkpt><trkpt lat="38.09327" lon="15.86049"><ele>1370.0</ele><time>2026-04-25T09:00:51.816Z</time></trkpt><trkpt lat="38.093165" lon="15.8605183"><ele>1370.0</ele><time>2026-04-25T09:01:11.816Z</time></trkpt><trkpt lat="38.0931083" lon="15.8604417"><ele>1366.6</ele><time>2026-04-25T09:01:13.815Z</time></trkpt><trkpt lat="38.0930283" lon="15.8603083"><ele>1363.2</ele><time>2026-04-25T09:01:15.815Z</time></trkpt><trkpt lat="38.0929933" lon="15.8601917"><ele>1359.8000000000002</ele><time>2026-04-25T09:01:16.816Z</time></trkpt><trkpt lat="38.0929433" lon="15.8601233"><ele>1356.4</ele><time>2026-04-25T09:01:17.816Z</time></trkpt><trkpt lat="38.09289" lon="15.8600517"><ele>1353.0</ele><time>2026-04-25T09:01:18.816Z</time></trkpt><trkpt lat="38.0928533" lon="15.8599733"><ele>1353.0</ele><time>2026-04-25T09:01:19.816Z</time></trkpt><trkpt lat="38.0928267" lon="15.8599"><ele>1353.0</ele><time>2026-04-25T09:01:20.816Z</time></trkpt><trkpt lat="38.092805" lon="15.8598133"><ele>1353.0</ele><time>2026-04-25T09:01:21.816Z</time></trkpt><trkpt lat="38.0927867" lon="15.8597283"><ele>1353.0</ele><time>2026-04-25T09:01:22.816Z</time></trkpt><trkpt lat="38.0928317" lon="15.859665"><ele>1353.0</ele><time>2026-04-25T09:01:23.816Z</time></trkpt><trkpt lat="38.0928317" lon="15.8595283"><ele>1353.0</ele><time>2026-04-25T09:01:24.816Z</time></trkpt><trkpt lat="38.0928333" lon="15.859445"><ele>1353.0</ele><time>2026-04-25T09:01:25.816Z</time></trkpt><trkpt lat="38.0928383" lon="15.8593383"><ele>1349.75</ele><time>2026-04-25T09:01:26.816Z</time></trkpt><trkpt lat="38.09288" lon="15.8591183"><ele>1346.5</ele><time>2026-04-25T09:01:27.816Z</time></trkpt><trkpt lat="38.0929117" lon="15.8590067"><ele>1343.25</ele><time>2026-04-25T09:01:28.816Z</time></trkpt><trkpt lat="38.0929383" lon="15.8589017"><ele>1340.0</ele><time>2026-04-25T09:01:29.815Z</time></trkpt><trkpt lat="38.0929917" lon="15.85873"><ele>1340.0</ele><time>2026-04-25T09:01:30.816Z</time></trkpt><trkpt lat="38.09305" lon="15.8585883"><ele>1340.0</ele><time>2026-04-25T09:01:31.816Z</time></trkpt><trkpt lat="38.0931" lon="15.8584667"><ele>1340.0</ele><time>2026-04-25T09:01:32.816Z</time></trkpt><trkpt lat="38.0931433" lon="15.858355"><ele>1340.0</ele><time>2026-04-25T09:01:33.815Z</time></trkpt><trkpt lat="38.0931967" lon="15.8582367"><ele>1340.0</ele><time>2026-04-25T09:01:34.816Z</time></trkpt><trkpt lat="38.093225" lon="15.8580917"><ele>1338.0</ele><time>2026-04-25T09:01:35.815Z</time></trkpt><trkpt lat="38.0932633" lon="15.857935"><ele>1336.0</ele><time>2026-04-25T09:01:36.816Z</time></trkpt><trkpt lat="38.09331" lon="15.8578133"><ele>1334.0</ele><time>2026-04-25T09:01:37.815Z</time></trkpt><trkpt lat="38.0933633" lon="15.8577117"><ele>1332.0</ele><time>2026-04-25T09:01:38.816Z</time></trkpt><trkpt lat="38.0934283" lon="15.85762"><ele>1330.0</ele><time>2026-04-25T09:01:39.815Z</time></trkpt><trkpt lat="38.0934933" lon="15.85755"><ele>1330.0</ele><time>2026-04-25T09:01:40.816Z</time></trkpt><trkpt lat="38.0935867" lon="15.8575517"><ele>1330.0</ele><time>2026-04-25T09:01:41.815Z</time></trkpt><trkpt lat="38.0936583" lon="15.85753"><ele>1330.0</ele><time>2026-04-25T09:01:42.815Z</time></trkpt><trkpt lat="38.0937317" lon="15.85749"><ele>1330.0</ele><time>2026-04-25T09:01:43.816Z</time></trkpt><trkpt lat="38.0938033" lon="15.8574333"><ele>1330.0</ele><time>2026-04-25T09:01:44.816Z</time></trkpt><trkpt lat="38.0938967" lon="15.8573517"><ele>1330.0</ele><time>2026-04-25T09:01:46.815Z</time></trkpt><trkpt lat="38.0939633" lon="15.8573067"><ele>1330.0</ele><time>2026-04-25T09:01:48.816Z</time></trkpt><trkpt lat="38.0940517" lon="15.8572117"><ele>1330.0</ele><time>2026-04-25T09:01:50.815Z</time></trkpt><trkpt lat="38.094135" lon="15.857105"><ele>1330.0</ele><time>2026-04-25T09:01:52.816Z</time></trkpt><trkpt lat="38.09416" lon="15.8570233"><ele>1330.0</ele><time>2026-04-25T09:01:53.816Z</time></trkpt><trkpt lat="38.09418" lon="15.85689"><ele>1330.0</ele><time>2026-04-25T09:01:54.816Z</time></trkpt><trkpt lat="38.0940933" lon="15.8567583"><ele>1326.6</ele><time>2026-04-25T09:01:55.816Z</time></trkpt><trkpt lat="38.09408" lon="15.8566617"><ele>1323.2</ele><time>2026-04-25T09:01:56.815Z</time></trkpt><trkpt lat="38.09405" lon="15.8565"><ele>1319.8000000000002</ele><time>2026-04-25T09:01:57.816Z</time></trkpt><trkpt lat="38.0940067" lon="15.8563767"><ele>1316.4</ele><time>2026-04-25T09:01:58.816Z</time></trkpt><trkpt lat="38.0940417" lon="15.8562833"><ele>1313.0</ele><time>2026-04-25T09:01:59.816Z</time></trkpt><trkpt lat="38.0940717" lon="15.8561967"><ele>1314.4</ele><time>2026-04-25T09:02:00.816Z</time></trkpt><trkpt lat="38.0941133" lon="15.85611"><ele>1315.8000000000002</ele><time>2026-04-25T09:02:01.815Z</time></trkpt><trkpt lat="38.0941633" lon="15.85599"><ele>1317.2</ele><time>2026-04-25T09:02:02.815Z</time></trkpt><trkpt lat="38.0941817" lon="15.8558383"><ele>1318.6</ele><time>2026-04-25T09:02:03.816Z</time></trkpt><trkpt lat="38.0942133" lon="15.85569"><ele>1320.0</ele><time>2026-04-25T09:02:04.815Z</time></trkpt><trkpt lat="38.0942467" lon="15.855545"><ele>1320.0</ele><time>2026-04-25T09:02:05.815Z</time></trkpt><trkpt lat="38.0942767" lon="15.855425"><ele>1320.0</ele><time>2026-04-25T09:02:06.816Z</time></trkpt><trkpt lat="38.0943083" lon="15.8553183"><ele>1320.0</ele><time>2026-04-25T09:02:07.815Z</time></trkpt><trkpt lat="38.0943483" lon="15.8552367"><ele>1320.0</ele><time>2026-04-25T09:02:08.816Z</time></trkpt><trkpt lat="38.0944233" lon="15.8551283"><ele>1320.0</ele><time>2026-04-25T09:02:09.816Z</time></trkpt><trkpt lat="38.094485" lon="15.8550367"><ele>1315.4</ele><time>2026-04-25T09:02:10.816Z</time></trkpt><trkpt lat="38.094525" lon="15.854955"><ele>1310.8</ele><time>2026-04-25T09:02:11.815Z</time></trkpt><trkpt lat="38.09457" lon="15.8548"><ele>1306.1999999999998</ele><time>2026-04-25T09:02:13.816Z</time></trkpt><trkpt lat="38.0946" lon="15.854725"><ele>1301.6</ele><time>2026-04-25T09:02:14.815Z</time></trkpt><trkpt lat="38.0946467" lon="15.8546467"><ele>1297.0</ele><time>2026-04-25T09:02:15.815Z</time></trkpt><trkpt lat="38.0947317" lon="15.8545383"><ele>1297.0</ele><time>2026-04-25T09:02:17.816Z</time></trkpt><trkpt lat="38.0948033" lon="15.8544267"><ele>1297.0</ele><time>2026-04-25T09:02:19.816Z</time></trkpt><trkpt lat="38.0948767" lon="15.8545"><ele>1297.0</ele><time>2026-04-25T09:02:20.816Z</time></trkpt><trkpt lat="38.094925" lon="15.8543933"><ele>1297.0</ele><time>2026-04-25T09:02:22.816Z</time></trkpt><trkpt lat="38.094955" lon="15.8542183"><ele>1297.0</ele><time>2026-04-25T09:02:24.816Z</time></trkpt><trkpt lat="38.0949567" lon="15.8540933"><ele>1297.8</ele><time>2026-04-25T09:02:25.815Z</time></trkpt><trkpt lat="38.0949683" lon="15.8540017"><ele>1298.6</ele><time>2026-04-25T09:02:26.816Z</time></trkpt><trkpt lat="38.094995" lon="15.85387"><ele>1299.3999999999999</ele><time>2026-04-25T09:02:28.816Z</time></trkpt><trkpt lat="38.0950367" lon="15.8537817"><ele>1300.1999999999998</ele><time>2026-04-25T09:02:30.815Z</time></trkpt><trkpt lat="38.0951067" lon="15.8537033"><ele>1301.0</ele><time>2026-04-25T09:02:32.815Z</time></trkpt><trkpt lat="38.0952183" lon="15.8537033"><ele>1301.0</ele><time>2026-04-25T09:02:34.816Z</time></trkpt><trkpt lat="38.095365" lon="15.8537517"><ele>1301.0</ele><time>2026-04-25T09:02:36.816Z</time></trkpt><trkpt lat="38.0954633" lon="15.85382"><ele>1301.0</ele><time>2026-04-25T09:02:38.816Z</time></trkpt><trkpt lat="38.0955283" lon="15.8539067"><ele>1301.0</ele><time>2026-04-25T09:02:40.816Z</time></trkpt><trkpt lat="38.0955833" lon="15.8539667"><ele>1301.0</ele><time>2026-04-25T09:02:41.815Z</time></trkpt><trkpt lat="38.0956667" lon="15.8540383"><ele>1301.0</ele><time>2026-04-25T09:02:42.816Z</time></trkpt><trkpt lat="38.0957283" lon="15.8541333"><ele>1301.0</ele><time>2026-04-25T09:02:43.815Z</time></trkpt><trkpt lat="38.0957633" lon="15.854325"><ele>1301.0</ele><time>2026-04-25T09:02:44.816Z</time></trkpt><trkpt lat="38.0958133" lon="15.85442"><ele>1301.0</ele><time>2026-04-25T09:02:45.816Z</time></trkpt><trkpt lat="38.0958517" lon="15.8544967"><ele>1301.0</ele><time>2026-04-25T09:02:46.816Z</time></trkpt><trkpt lat="38.0958767" lon="15.8546483"><ele>1302.8333333333335</ele><time>2026-04-25T09:02:48.816Z</time></trkpt><trkpt lat="38.095895" lon="15.854775"><ele>1304.6666666666667</ele><time>2026-04-25T09:02:50.816Z</time></trkpt><trkpt lat="38.0959117" lon="15.8548867"><ele>1306.5</ele><time>2026-04-25T09:02:53.815Z</time></trkpt><trkpt lat="38.0959133" lon="15.8549667"><ele>1308.3333333333333</ele><time>2026-04-25T09:02:55.815Z</time></trkpt><trkpt lat="38.0959267" lon="15.855045"><ele>1310.1666666666665</ele><time>2026-04-25T09:02:57.815Z</time></trkpt><trkpt lat="38.09592" lon="15.8548983"><ele>1312.0</ele><time>2026-04-25T09:03:00.816Z</time></trkpt><trkpt lat="38.095975" lon="15.854835"><ele>1312.0</ele><time>2026-04-25T09:03:02.816Z</time></trkpt><trkpt lat="38.0960867" lon="15.8547467"><ele>1312.0</ele><time>2026-04-25T09:03:04.816Z</time></trkpt><trkpt lat="38.0961483" lon="15.8547117"><ele>1312.0</ele><time>2026-04-25T09:03:05.816Z</time></trkpt><trkpt lat="38.096235" lon="15.8546367"><ele>1312.0</ele><time>2026-04-25T09:03:07.815Z</time></trkpt><trkpt lat="38.0963533" lon="15.8545133"><ele>1312.0</ele><time>2026-04-25T09:03:09.816Z</time></trkpt><trkpt lat="38.09638" lon="15.854415"><ele>1312.0</ele><time>2026-04-25T09:03:12.816Z</time></trkpt><trkpt lat="38.0964" lon="15.8543017"><ele>1312.0</ele><time>2026-04-25T09:03:16.816Z</time></trkpt><trkpt lat="38.09637" lon="15.8541767"><ele>1312.0</ele><time>2026-04-25T09:03:19.816Z</time></trkpt><trkpt lat="38.096355" lon="15.85407"><ele>1312.0</ele><time>2026-04-25T09:03:20.816Z</time></trkpt><trkpt lat="38.0963267" lon="15.8539233"><ele>1308.5</ele><time>2026-04-25T09:03:21.815Z</time></trkpt><trkpt lat="38.0962883" lon="15.8538017"><ele>1305.0</ele><time>2026-04-25T09:03:22.816Z</time></trkpt><trkpt lat="38.0962917" lon="15.8537183"><ele>1301.5</ele><time>2026-04-25T09:03:23.816Z</time></trkpt><trkpt lat="38.096295" lon="15.853625"><ele>1298.0</ele><time>2026-04-25T09:03:24.815Z</time></trkpt><trkpt lat="38.0963033" lon="15.8535217"><ele>1294.5</ele><time>2026-04-25T09:03:25.816Z</time></trkpt><trkpt lat="38.096305" lon="15.8534233"><ele>1291.0</ele><time>2026-04-25T09:03:26.816Z</time></trkpt><trkpt lat="38.0963083" lon="15.8533167"><ele>1288.6</ele><time>2026-04-25T09:03:27.815Z</time></trkpt><trkpt lat="38.0963117" lon="15.853215"><ele>1286.1999999999998</ele><time>2026-04-25T09:03:28.816Z</time></trkpt><trkpt lat="38.096355" lon="15.853085"><ele>1283.8000000000002</ele><time>2026-04-25T09:03:30.815Z</time></trkpt><trkpt lat="38.0963583" lon="15.8529867"><ele>1281.4</ele><time>2026-04-25T09:03:31.816Z</time></trkpt><trkpt lat="38.0963767" lon="15.8528367"><ele>1279.0</ele><time>2026-04-25T09:03:33.816Z</time></trkpt><trkpt lat="38.0963133" lon="15.85268"><ele>1281.2</ele><time>2026-04-25T09:03:35.816Z</time></trkpt><trkpt lat="38.0962017" lon="15.8525867"><ele>1283.4</ele><time>2026-04-25T09:03:36.816Z</time></trkpt><trkpt lat="38.0961083" lon="15.85252"><ele>1285.6</ele><time>2026-04-25T09:03:37.815Z</time></trkpt><trkpt lat="38.0960267" lon="15.85244"><ele>1287.8</ele><time>2026-04-25T09:03:38.815Z</time></trkpt><trkpt lat="38.0959383" lon="15.8523717"><ele>1290.0</ele><time>2026-04-25T09:03:39.816Z</time></trkpt><trkpt lat="38.09586" lon="15.8522817"><ele>1290.0</ele><time>2026-04-25T09:03:40.816Z</time></trkpt><trkpt lat="38.095785" lon="15.8521783"><ele>1290.0</ele><time>2026-04-25T09:03:41.815Z</time></trkpt><trkpt lat="38.09573" lon="15.8520717"><ele>1290.0</ele><time>2026-04-25T09:03:42.815Z</time></trkpt><trkpt lat="38.0956833" lon="15.8519717"><ele>1290.0</ele><time>2026-04-25T09:03:43.815Z</time></trkpt><trkpt lat="38.095645" lon="15.8518383"><ele>1290.0</ele><time>2026-04-25T09:03:45.816Z</time></trkpt><trkpt lat="38.0956067" lon="15.8517583"><ele>1287.1666666666667</ele><time>2026-04-25T09:03:46.816Z</time></trkpt><trkpt lat="38.0955683" lon="15.8516783"><ele>1284.3333333333333</ele><time>2026-04-25T09:03:47.815Z</time></trkpt><trkpt lat="38.09553" lon="15.8515967"><ele>1281.5</ele><time>2026-04-25T09:03:48.815Z</time></trkpt><trkpt lat="38.0954933" lon="15.8515133"><ele>1278.6666666666665</ele><time>2026-04-25T09:03:49.816Z</time></trkpt><trkpt lat="38.0954633" lon="15.8514267"><ele>1275.8333333333333</ele><time>2026-04-25T09:03:50.815Z</time></trkpt><trkpt lat="38.095425" lon="15.8513567"><ele>1273.0</ele><time>2026-04-25T09:03:51.816Z</time></trkpt><trkpt lat="38.0953667" lon="15.85125"><ele>1273.0</ele><time>2026-04-25T09:03:53.816Z</time></trkpt><trkpt lat="38.095705" lon="15.8515167"><ele>1273.0</ele><time>2026-04-25T09:03:54.816Z</time></trkpt><trkpt lat="38.09585" lon="15.8516333"><ele>1277.0</ele><time>2026-04-25T09:03:55.816Z</time></trkpt><trkpt lat="38.096035" lon="15.8516633"><ele>1281.0</ele><time>2026-04-25T09:03:56.816Z</time></trkpt><trkpt lat="38.0961333" lon="15.8517083"><ele>1285.0</ele><time>2026-04-25T09:03:57.816Z</time></trkpt><trkpt lat="38.0962083" lon="15.8517867"><ele>1289.0</ele><time>2026-04-25T09:03:59.816Z</time></trkpt><trkpt lat="38.0964167" lon="15.8516867"><ele>1289.0</ele><time>2026-04-25T09:04:22.818Z</time></trkpt><trkpt lat="38.0963783" lon="15.8513983"><ele>1289.0</ele><time>2026-04-25T09:04:23.817Z</time></trkpt><trkpt lat="38.096345" lon="15.8514883"><ele>1289.0</ele><time>2026-04-25T09:04:29.817Z</time></trkpt><trkpt lat="38.0962033" lon="15.8516067"><ele>1289.0</ele><time>2026-04-25T09:04:37.817Z</time></trkpt><trkpt lat="38.0961483" lon="15.8516833"><ele>1289.0</ele><time>2026-04-25T09:04:40.818Z</time></trkpt><trkpt lat="38.0962267" lon="15.8517567"><ele>1289.0</ele><time>2026-04-25T09:04:47.818Z</time></trkpt><trkpt lat="38.09632" lon="15.8517433"><ele>1289.0</ele><time>2026-04-25T09:04:48.817Z</time></trkpt><trkpt lat="38.096385" lon="15.8517267"><ele>1289.0</ele><time>2026-04-25T09:04:49.818Z</time></trkpt><trkpt lat="38.096465" lon="15.8517067"><ele>1289.0</ele><time>2026-04-25T09:04:50.818Z</time></trkpt><trkpt lat="38.096585" lon="15.851705"><ele>1294.2</ele><time>2026-04-25T09:04:51.817Z</time></trkpt><trkpt lat="38.0966733" lon="15.851705"><ele>1299.4</ele><time>2026-04-25T09:04:52.817Z</time></trkpt><trkpt lat="38.0967633" lon="15.85169"><ele>1304.6</ele><time>2026-04-25T09:04:53.818Z</time></trkpt><trkpt lat="38.0968533" lon="15.8516717"><ele>1309.8</ele><time>2026-04-25T09:04:54.818Z</time></trkpt><trkpt lat="38.0969733" lon="15.85162"><ele>1315.0</ele><time>2026-04-25T09:04:55.818Z</time></trkpt><trkpt lat="38.0970367" lon="15.851545"><ele>1315.0</ele><time>2026-04-25T09:04:56.818Z</time></trkpt><trkpt lat="38.09712" lon="15.85147"><ele>1315.0</ele><time>2026-04-25T09:04:57.818Z</time></trkpt><trkpt lat="38.0971433" lon="15.8513467"><ele>1315.0</ele><time>2026-04-25T09:04:59.818Z</time></trkpt><trkpt lat="38.097085" lon="15.8512367"><ele>1315.0</ele><time>2026-04-25T09:05:01.818Z</time></trkpt><trkpt lat="38.0969517" lon="15.8512067"><ele>1315.0</ele><time>2026-04-25T09:05:02.818Z</time></trkpt><trkpt lat="38.09683" lon="15.851155"><ele>1315.0</ele><time>2026-04-25T09:05:03.818Z</time></trkpt><trkpt lat="38.09674" lon="15.851085"><ele>1315.0</ele><time>2026-04-25T09:05:04.818Z</time></trkpt><trkpt lat="38.096685" lon="15.8510417"><ele>1315.0</ele><time>2026-04-25T09:05:05.818Z</time></trkpt><trkpt lat="38.0966283" lon="15.8509367"><ele>1315.0</ele><time>2026-04-25T09:05:06.818Z</time></trkpt><trkpt lat="38.0965683" lon="15.8508433"><ele>1315.0</ele><time>2026-04-25T09:05:07.818Z</time></trkpt><trkpt lat="38.0965067" lon="15.8507133"><ele>1308.0</ele><time>2026-04-25T09:05:08.817Z</time></trkpt><trkpt lat="38.0964433" lon="15.8506317"><ele>1301.0</ele><time>2026-04-25T09:05:09.817Z</time></trkpt><trkpt lat="38.0963983" lon="15.8505683"><ele>1294.0</ele><time>2026-04-25T09:05:10.817Z</time></trkpt><trkpt lat="38.0964367" lon="15.8504"><ele>1287.0</ele><time>2026-04-25T09:05:12.818Z</time></trkpt><trkpt lat="38.09645" lon="15.850285"><ele>1280.0</ele><time>2026-04-25T09:05:13.818Z</time></trkpt><trkpt lat="38.09655" lon="15.8501417"><ele>1279.8</ele><time>2026-04-25T09:05:14.818Z</time></trkpt><trkpt lat="38.096565" lon="15.8500467"><ele>1279.6</ele><time>2026-04-25T09:05:15.818Z</time></trkpt><trkpt lat="38.096495" lon="15.849905"><ele>1279.4</ele><time>2026-04-25T09:05:17.817Z</time></trkpt><trkpt lat="38.0964633" lon="15.8497967"><ele>1279.2</ele><time>2026-04-25T09:05:18.817Z</time></trkpt><trkpt lat="38.0964433" lon="15.8496833"><ele>1279.0</ele><time>2026-04-25T09:05:19.817Z</time></trkpt><trkpt lat="38.09643" lon="15.8495683"><ele>1279.0</ele><time>2026-04-25T09:05:20.818Z</time></trkpt><trkpt lat="38.0964433" lon="15.8494233"><ele>1279.0</ele><time>2026-04-25T09:05:21.818Z</time></trkpt><trkpt lat="38.0964583" lon="15.8492717"><ele>1279.0</ele><time>2026-04-25T09:05:22.817Z</time></trkpt><trkpt lat="38.096505" lon="15.8491267"><ele>1279.0</ele><time>2026-04-25T09:05:23.817Z</time></trkpt><trkpt lat="38.0965317" lon="15.8490033"><ele>1281.1666666666665</ele><time>2026-04-25T09:05:24.818Z</time></trkpt><trkpt lat="38.0965583" lon="15.84892"><ele>1283.3333333333333</ele><time>2026-04-25T09:05:25.818Z</time></trkpt><trkpt lat="38.0964783" lon="15.8489217"><ele>1285.5</ele><time>2026-04-25T09:05:28.818Z</time></trkpt><trkpt lat="38.0963733" lon="15.8488867"><ele>1287.6666666666667</ele><time>2026-04-25T09:05:29.817Z</time></trkpt><trkpt lat="38.09628" lon="15.8488567"><ele>1289.8333333333335</ele><time>2026-04-25T09:05:30.818Z</time></trkpt><trkpt lat="38.0961967" lon="15.84881"><ele>1292.0</ele><time>2026-04-25T09:05:31.818Z</time></trkpt><trkpt lat="38.0961217" lon="15.8487617"><ele>1292.0</ele><time>2026-04-25T09:05:32.818Z</time></trkpt><trkpt lat="38.0961233" lon="15.848645"><ele>1292.0</ele><time>2026-04-25T09:05:33.818Z</time></trkpt><trkpt lat="38.0961083" lon="15.84856"><ele>1292.0</ele><time>2026-04-25T09:05:34.818Z</time></trkpt><trkpt lat="38.096105" lon="15.84846"><ele>1292.0</ele><time>2026-04-25T09:05:35.818Z</time></trkpt><trkpt lat="38.0961183" lon="15.848335"><ele>1292.0</ele><time>2026-04-25T09:05:36.817Z</time></trkpt><trkpt lat="38.09614" lon="15.8481867"><ele>1294.5</ele><time>2026-04-25T09:05:37.818Z</time></trkpt><trkpt lat="38.09614" lon="15.8481067"><ele>1297.0</ele><time>2026-04-25T09:05:38.817Z</time></trkpt><trkpt lat="38.0961733" lon="15.8480317"><ele>1299.5</ele><time>2026-04-25T09:05:39.818Z</time></trkpt><trkpt lat="38.09612" lon="15.847895"><ele>1302.0</ele><time>2026-04-25T09:05:41.818Z</time></trkpt><trkpt lat="38.0960383" lon="15.8478583"><ele>1304.5</ele><time>2026-04-25T09:05:42.818Z</time></trkpt><trkpt lat="38.0959317" lon="15.8478267"><ele>1307.0</ele><time>2026-04-25T09:05:43.818Z</time></trkpt><trkpt lat="38.0958067" lon="15.847785"><ele>1306.0</ele><time>2026-04-25T09:05:44.818Z</time></trkpt><trkpt lat="38.09573" lon="15.8477033"><ele>1305.0</ele><time>2026-04-25T09:05:45.818Z</time></trkpt><trkpt lat="38.09566" lon="15.8475717"><ele>1304.0</ele><time>2026-04-25T09:05:46.818Z</time></trkpt><trkpt lat="38.0956083" lon="15.8474467"><ele>1303.0</ele><time>2026-04-25T09:05:47.818Z</time></trkpt><trkpt lat="38.09556" lon="15.847355"><ele>1302.0</ele><time>2026-04-25T09:05:48.818Z</time></trkpt><trkpt lat="38.0955667" lon="15.84722"><ele>1302.0</ele><time>2026-04-25T09:05:49.818Z</time></trkpt><trkpt lat="38.0955233" lon="15.84713"><ele>1302.0</ele><time>2026-04-25T09:05:50.818Z</time></trkpt><trkpt lat="38.095485" lon="15.8470467"><ele>1302.0</ele><time>2026-04-25T09:05:51.818Z</time></trkpt><trkpt lat="38.0954633" lon="15.8469583"><ele>1302.0</ele><time>2026-04-25T09:05:52.818Z</time></trkpt><trkpt lat="38.095475" lon="15.8467967"><ele>1302.0</ele><time>2026-04-25T09:05:54.818Z</time></trkpt><trkpt lat="38.0955067" lon="15.8467067"><ele>1302.0</ele><time>2026-04-25T09:05:55.817Z</time></trkpt><trkpt lat="38.0954867" lon="15.8466283"><ele>1304.3333333333333</ele><time>2026-04-25T09:05:56.817Z</time></trkpt><trkpt lat="38.0954783" lon="15.8465417"><ele>1306.6666666666667</ele><time>2026-04-25T09:05:57.818Z</time></trkpt><trkpt lat="38.0954367" lon="15.8464667"><ele>1309.0</ele><time>2026-04-25T09:05:58.818Z</time></trkpt><trkpt lat="38.0954" lon="15.8463883"><ele>1311.3333333333335</ele><time>2026-04-25T09:05:59.818Z</time></trkpt><trkpt lat="38.0953417" lon="15.84632"><ele>1313.6666666666667</ele><time>2026-04-25T09:06:00.818Z</time></trkpt><trkpt lat="38.0952483" lon="15.8462567"><ele>1316.0</ele><time>2026-04-25T09:06:01.818Z</time></trkpt><trkpt lat="38.0951383" lon="15.8461983"><ele>1316.0</ele><time>2026-04-25T09:06:02.818Z</time></trkpt><trkpt lat="38.0950317" lon="15.8461617"><ele>1316.0</ele><time>2026-04-25T09:06:03.818Z</time></trkpt><trkpt lat="38.0949317" lon="15.8461367"><ele>1316.0</ele><time>2026-04-25T09:06:04.817Z</time></trkpt><trkpt lat="38.09485" lon="15.8460833"><ele>1316.0</ele><time>2026-04-25T09:06:05.817Z</time></trkpt><trkpt lat="38.0947683" lon="15.8460283"><ele>1316.0</ele><time>2026-04-25T09:06:06.818Z</time></trkpt><trkpt lat="38.094705" lon="15.84595"><ele>1315.5</ele><time>2026-04-25T09:06:07.818Z</time></trkpt><trkpt lat="38.09464" lon="15.8458717"><ele>1315.0</ele><time>2026-04-25T09:06:08.818Z</time></trkpt><trkpt lat="38.09455" lon="15.8457317"><ele>1314.5</ele><time>2026-04-25T09:06:09.818Z</time></trkpt><trkpt lat="38.0944683" lon="15.845595"><ele>1314.0</ele><time>2026-04-25T09:06:10.818Z</time></trkpt><trkpt lat="38.0944033" lon="15.8454783"><ele>1314.0</ele><time>2026-04-25T09:06:11.818Z</time></trkpt><trkpt lat="38.09436" lon="15.8453583"><ele>1314.0</ele><time>2026-04-25T09:06:12.818Z</time></trkpt><trkpt lat="38.09433" lon="15.8452267"><ele>1314.0</ele><time>2026-04-25T09:06:13.818Z</time></trkpt><trkpt lat="38.0943183" lon="15.8450883"><ele>1314.0</ele><time>2026-04-25T09:06:14.818Z</time></trkpt><trkpt lat="38.094285" lon="15.8449633"><ele>1314.0</ele><time>2026-04-25T09:06:15.817Z</time></trkpt><trkpt lat="38.0942317" lon="15.8448383"><ele>1313.0</ele><time>2026-04-25T09:06:16.818Z</time></trkpt><trkpt lat="38.0941717" lon="15.8447317"><ele>1312.0</ele><time>2026-04-25T09:06:17.818Z</time></trkpt><trkpt lat="38.0940983" lon="15.8446533"><ele>1311.0</ele><time>2026-04-25T09:06:18.818Z</time></trkpt><trkpt lat="38.09403" lon="15.844565"><ele>1310.0</ele><time>2026-04-25T09:06:19.818Z</time></trkpt><trkpt lat="38.0939583" lon="15.84449"><ele>1309.0</ele><time>2026-04-25T09:06:20.818Z</time></trkpt><trkpt lat="38.0938917" lon="15.84441"><ele>1309.0</ele><time>2026-04-25T09:06:21.818Z</time></trkpt><trkpt lat="38.0937983" lon="15.8443433"><ele>1309.0</ele><time>2026-04-25T09:06:22.818Z</time></trkpt><trkpt lat="38.0937183" lon="15.8442617"><ele>1309.0</ele><time>2026-04-25T09:06:23.818Z</time></trkpt><trkpt lat="38.0936567" lon="15.8441733"><ele>1309.0</ele><time>2026-04-25T09:06:24.818Z</time></trkpt><trkpt lat="38.093565" lon="15.8440917"><ele>1309.0</ele><time>2026-04-25T09:06:25.818Z</time></trkpt><trkpt lat="38.0934783" lon="15.8439883"><ele>1309.5</ele><time>2026-04-25T09:06:26.818Z</time></trkpt><trkpt lat="38.0933883" lon="15.8438917"><ele>1310.0</ele><time>2026-04-25T09:06:27.817Z</time></trkpt><trkpt lat="38.0932783" lon="15.8437833"><ele>1310.5</ele><time>2026-04-25T09:06:28.818Z</time></trkpt><trkpt lat="38.0932167" lon="15.8436733"><ele>1311.0</ele><time>2026-04-25T09:06:29.818Z</time></trkpt><trkpt lat="38.09315" lon="15.8435533"><ele>1312.25</ele><time>2026-04-25T09:06:30.818Z</time></trkpt><trkpt lat="38.0931" lon="15.843435"><ele>1313.5</ele><time>2026-04-25T09:06:31.818Z</time></trkpt><trkpt lat="38.0931033" lon="15.8433033"><ele>1314.75</ele><time>2026-04-25T09:06:32.817Z</time></trkpt><trkpt lat="38.0931167" lon="15.84314"><ele>1316.0</ele><time>2026-04-25T09:06:33.818Z</time></trkpt><trkpt lat="38.093135" lon="15.8429933"><ele>1316.0</ele><time>2026-04-25T09:06:34.818Z</time></trkpt><trkpt lat="38.0932183" lon="15.8427733"><ele>1316.0</ele><time>2026-04-25T09:06:35.817Z</time></trkpt><trkpt lat="38.0933" lon="15.842565"><ele>1316.0</ele><time>2026-04-25T09:06:36.818Z</time></trkpt><trkpt lat="38.0934217" lon="15.84228"><ele>1324.3333333333335</ele><time>2026-04-25T09:06:37.817Z</time></trkpt><trkpt lat="38.0934333" lon="15.8420467"><ele>1332.6666666666667</ele><time>2026-04-25T09:06:38.818Z</time></trkpt><trkpt lat="38.0934367" lon="15.8418333"><ele>1341.0</ele><time>2026-04-25T09:06:39.818Z</time></trkpt><trkpt lat="38.0934517" lon="15.841645"><ele>1341.0</ele><time>2026-04-25T09:06:40.818Z</time></trkpt><trkpt lat="38.093465" lon="15.84147"><ele>1341.0</ele><time>2026-04-25T09:06:41.818Z</time></trkpt><trkpt lat="38.09349" lon="15.8413183"><ele>1341.0</ele><time>2026-04-25T09:06:42.818Z</time></trkpt><trkpt lat="38.0935367" lon="15.8411983"><ele>1341.0</ele><time>2026-04-25T09:06:43.818Z</time></trkpt><trkpt lat="38.0935817" lon="15.8410883"><ele>1341.0</ele><time>2026-04-25T09:06:44.818Z</time></trkpt><trkpt lat="38.093635" lon="15.8409883"><ele>1341.0</ele><time>2026-04-25T09:06:45.818Z</time></trkpt><trkpt lat="38.0937033" lon="15.840915"><ele>1341.0</ele><time>2026-04-25T09:06:46.818Z</time></trkpt><trkpt lat="38.0938" lon="15.8408783"><ele>1341.0</ele><time>2026-04-25T09:06:47.818Z</time></trkpt><trkpt lat="38.0939183" lon="15.8408733"><ele>1341.0</ele><time>2026-04-25T09:06:48.817Z</time></trkpt><trkpt lat="38.0940717" lon="15.84093"><ele>1355.0</ele><time>2026-04-25T09:06:49.818Z</time></trkpt><trkpt lat="38.09427" lon="15.8410617"><ele>1369.0</ele><time>2026-04-25T09:06:50.818Z</time></trkpt><trkpt lat="38.0944983" lon="15.841215"><ele>1369.0</ele><time>2026-04-25T09:06:51.818Z</time></trkpt><trkpt lat="38.094645" lon="15.8412767"><ele>1369.0</ele><time>2026-04-25T09:06:52.817Z</time></trkpt><trkpt lat="38.094775" lon="15.8412817"><ele>1369.0</ele><time>2026-04-25T09:06:53.817Z</time></trkpt><trkpt lat="38.0949133" lon="15.8413183"><ele>1369.0</ele><time>2026-04-25T09:06:54.818Z</time></trkpt><trkpt lat="38.0949467" lon="15.841195"><ele>1371.0</ele><time>2026-04-25T09:06:55.818Z</time></trkpt><trkpt lat="38.09498" lon="15.8410967"><ele>1373.0</ele><time>2026-04-25T09:06:56.817Z</time></trkpt><trkpt lat="38.09497" lon="15.8409733"><ele>1375.0</ele><time>2026-04-25T09:06:57.817Z</time></trkpt><trkpt lat="38.0949367" lon="15.840825"><ele>1377.0</ele><time>2026-04-25T09:06:58.818Z</time></trkpt><trkpt lat="38.094865" lon="15.84061"><ele>1371.0</ele><time>2026-04-25T09:06:59.817Z</time></trkpt><trkpt lat="38.094755" lon="15.8403533"><ele>1365.0</ele><time>2026-04-25T09:07:00.818Z</time></trkpt><trkpt lat="38.094645" lon="15.8401"><ele>1365.0</ele><time>2026-04-25T09:07:01.818Z</time></trkpt><trkpt lat="38.0945317" lon="15.83984"><ele>1365.0</ele><time>2026-04-25T09:07:02.818Z</time></trkpt><trkpt lat="38.0944267" lon="15.8396167"><ele>1365.0</ele><time>2026-04-25T09:07:03.818Z</time></trkpt><trkpt lat="38.094355" lon="15.8394217"><ele>1367.0</ele><time>2026-04-25T09:07:04.817Z</time></trkpt><trkpt lat="38.0942983" lon="15.8392633"><ele>1369.0</ele><time>2026-04-25T09:07:05.818Z</time></trkpt><trkpt lat="38.0942583" lon="15.8391283"><ele>1371.0</ele><time>2026-04-25T09:07:06.818Z</time></trkpt><trkpt lat="38.0942433" lon="15.839005"><ele>1373.0</ele><time>2026-04-25T09:07:07.818Z</time></trkpt><trkpt lat="38.0942983" lon="15.8389033"><ele>1375.0</ele><time>2026-04-25T09:07:09.817Z</time></trkpt><trkpt lat="38.0944317" lon="15.8388867"><ele>1375.0</ele><time>2026-04-25T09:07:10.818Z</time></trkpt><trkpt lat="38.0945533" lon="15.8388833"><ele>1375.0</ele><time>2026-04-25T09:07:11.817Z</time></trkpt><trkpt lat="38.09471" lon="15.8389317"><ele>1375.0</ele><time>2026-04-25T09:07:12.817Z</time></trkpt><trkpt lat="38.094865" lon="15.8389883"><ele>1375.0</ele><time>2026-04-25T09:07:13.818Z</time></trkpt><trkpt lat="38.0951233" lon="15.8389467"><ele>1377.3333333333333</ele><time>2026-04-25T09:07:14.818Z</time></trkpt><trkpt lat="38.095275" lon="15.8389367"><ele>1379.6666666666667</ele><time>2026-04-25T09:07:15.817Z</time></trkpt><trkpt lat="38.0954483" lon="15.8389717"><ele>1382.0</ele><time>2026-04-25T09:07:16.818Z</time></trkpt><trkpt lat="38.0955817" lon="15.8390133"><ele>1382.0</ele><time>2026-04-25T09:07:17.818Z</time></trkpt><trkpt lat="38.095725" lon="15.839045"><ele>1382.0</ele><time>2026-04-25T09:07:18.818Z</time></trkpt><trkpt lat="38.0958617" lon="15.839095"><ele>1382.0</ele><time>2026-04-25T09:07:19.818Z</time></trkpt><trkpt lat="38.0959867" lon="15.8391517"><ele>1382.0</ele><time>2026-04-25T09:07:20.817Z</time></trkpt><trkpt lat="38.0961117" lon="15.8391867"><ele>1382.0</ele><time>2026-04-25T09:07:21.818Z</time></trkpt><trkpt lat="38.0962467" lon="15.839225"><ele>1382.0</ele><time>2026-04-25T09:07:22.818Z</time></trkpt><trkpt lat="38.0963833" lon="15.839255"><ele>1382.0</ele><time>2026-04-25T09:07:23.818Z</time></trkpt><trkpt lat="38.0965083" lon="15.839225"><ele>1382.0</ele><time>2026-04-25T09:07:24.818Z</time></trkpt><trkpt lat="38.0966467" lon="15.8392217"><ele>1382.0</ele><time>2026-04-25T09:07:25.818Z</time></trkpt><trkpt lat="38.0967883" lon="15.8391833"><ele>1382.0</ele><time>2026-04-25T09:07:26.818Z</time></trkpt><trkpt lat="38.09691" lon="15.8390983"><ele>1382.0</ele><time>2026-04-25T09:07:27.818Z</time></trkpt><trkpt lat="38.09702" lon="15.8390583"><ele>1382.0</ele><time>2026-04-25T09:07:28.817Z</time></trkpt><trkpt lat="38.0971217" lon="15.8390083"><ele>1382.0</ele><time>2026-04-25T09:07:29.818Z</time></trkpt><trkpt lat="38.0972217" lon="15.838935"><ele>1382.0</ele><time>2026-04-25T09:07:30.818Z</time></trkpt><trkpt lat="38.0972567" lon="15.8387067"><ele>1382.0</ele><time>2026-04-25T09:07:31.817Z</time></trkpt><trkpt lat="38.0973467" lon="15.83861"><ele>1382.0</ele><time>2026-04-25T09:07:32.818Z</time></trkpt><trkpt lat="38.0974633" lon="15.8385417"><ele>1385.75</ele><time>2026-04-25T09:07:33.817Z</time></trkpt><trkpt lat="38.0975583" lon="15.8384683"><ele>1389.5</ele><time>2026-04-25T09:07:34.818Z</time></trkpt><trkpt lat="38.0976483" lon="15.83839"><ele>1393.25</ele><time>2026-04-25T09:07:35.818Z</time></trkpt><trkpt lat="38.0977383" lon="15.8382933"><ele>1397.0</ele><time>2026-04-25T09:07:36.818Z</time></trkpt><trkpt lat="38.09785" lon="15.8382667"><ele>1390.8</ele><time>2026-04-25T09:07:37.818Z</time></trkpt><trkpt lat="38.0979367" lon="15.8382133"><ele>1384.6</ele><time>2026-04-25T09:07:38.817Z</time></trkpt><trkpt lat="38.0980317" lon="15.8381833"><ele>1378.3999999999999</ele><time>2026-04-25T09:07:39.818Z</time></trkpt><trkpt lat="38.098135" lon="15.8382683"><ele>1372.1999999999998</ele><time>2026-04-25T09:07:40.818Z</time></trkpt><trkpt lat="38.098245" lon="15.8382733"><ele>1366.0</ele><time>2026-04-25T09:07:41.818Z</time></trkpt><trkpt lat="38.09836" lon="15.838295"><ele>1365.0</ele><time>2026-04-25T09:07:42.818Z</time></trkpt><trkpt lat="38.098475" lon="15.8383483"><ele>1364.0</ele><time>2026-04-25T09:07:43.818Z</time></trkpt><trkpt lat="38.0985717" lon="15.8384417"><ele>1363.0</ele><time>2026-04-25T09:07:44.818Z</time></trkpt><trkpt lat="38.0986367" lon="15.8385867"><ele>1362.0</ele><time>2026-04-25T09:07:45.818Z</time></trkpt><trkpt lat="38.0986817" lon="15.8387733"><ele>1371.6666666666667</ele><time>2026-04-25T09:07:46.818Z</time></trkpt><trkpt lat="38.0986983" lon="15.838985"><ele>1381.3333333333335</ele><time>2026-04-25T09:07:47.818Z</time></trkpt><trkpt lat="38.0987217" lon="15.83918"><ele>1391.0</ele><time>2026-04-25T09:07:48.818Z</time></trkpt><trkpt lat="38.0986883" lon="15.8394567"><ele>1395.1999999999998</ele><time>2026-04-25T09:07:49.818Z</time></trkpt><trkpt lat="38.0987383" lon="15.8395783"><ele>1399.3999999999999</ele><time>2026-04-25T09:07:50.818Z</time></trkpt><trkpt lat="38.0987783" lon="15.8397067"><ele>1403.6</ele><time>2026-04-25T09:07:51.818Z</time></trkpt><trkpt lat="38.0988883" lon="15.8397383"><ele>1407.8</ele><time>2026-04-25T09:07:53.817Z</time></trkpt><trkpt lat="38.0989717" lon="15.839735"><ele>1412.0</ele><time>2026-04-25T09:07:54.817Z</time></trkpt><trkpt lat="38.0990783" lon="15.8397267"><ele>1408.6</ele><time>2026-04-25T09:07:55.817Z</time></trkpt><trkpt lat="38.099195" lon="15.8397283"><ele>1405.1999999999998</ele><time>2026-04-25T09:07:56.818Z</time></trkpt><trkpt lat="38.09929" lon="15.83975"><ele>1401.8</ele><time>2026-04-25T09:07:57.818Z</time></trkpt><trkpt lat="38.0993867" lon="15.83976"><ele>1398.4</ele><time>2026-04-25T09:07:58.818Z</time></trkpt><trkpt lat="38.09949" lon="15.8397467"><ele>1395.0</ele><time>2026-04-25T09:07:59.817Z</time></trkpt><trkpt lat="38.099615" lon="15.8396783"><ele>1395.0</ele><time>2026-04-25T09:08:00.817Z</time></trkpt><trkpt lat="38.0997283" lon="15.83959"><ele>1395.0</ele><time>2026-04-25T09:08:01.818Z</time></trkpt><trkpt lat="38.0998333" lon="15.8395233"><ele>1395.0</ele><time>2026-04-25T09:08:02.818Z</time></trkpt><trkpt lat="38.0999517" lon="15.8394583"><ele>1395.0</ele><time>2026-04-25T09:08:03.817Z</time></trkpt><trkpt lat="38.1000833" lon="15.83944"><ele>1394.25</ele><time>2026-04-25T09:08:04.818Z</time></trkpt><trkpt lat="38.10022" lon="15.8394883"><ele>1393.5</ele><time>2026-04-25T09:08:05.818Z</time></trkpt><trkpt lat="38.1003533" lon="15.8395733"><ele>1392.75</ele><time>2026-04-25T09:08:06.818Z</time></trkpt><trkpt lat="38.1004583" lon="15.8395933"><ele>1392.0</ele><time>2026-04-25T09:08:07.817Z</time></trkpt><trkpt lat="38.1006333" lon="15.839735"><ele>1386.3333333333333</ele><time>2026-04-25T09:08:08.818Z</time></trkpt><trkpt lat="38.100795" lon="15.8398633"><ele>1380.6666666666665</ele><time>2026-04-25T09:08:09.817Z</time></trkpt><trkpt lat="38.100945" lon="15.83999"><ele>1375.0</ele><time>2026-04-25T09:08:10.817Z</time></trkpt><trkpt lat="38.101095" lon="15.840105"><ele>1387.3333333333333</ele><time>2026-04-25T09:08:11.818Z</time></trkpt><trkpt lat="38.1012367" lon="15.8402217"><ele>1399.6666666666667</ele><time>2026-04-25T09:08:12.818Z</time></trkpt><trkpt lat="38.101385" lon="15.84031"><ele>1412.0</ele><time>2026-04-25T09:08:13.818Z</time></trkpt><trkpt lat="38.1015" lon="15.8404117"><ele>1403.25</ele><time>2026-04-25T09:08:14.818Z</time></trkpt><trkpt lat="38.1016067" lon="15.8405267"><ele>1394.5</ele><time>2026-04-25T09:08:15.818Z</time></trkpt><trkpt lat="38.1016817" lon="15.8406417"><ele>1385.75</ele><time>2026-04-25T09:08:16.818Z</time></trkpt><trkpt lat="38.1017633" lon="15.8407567"><ele>1377.0</ele><time>2026-04-25T09:08:17.818Z</time></trkpt><trkpt lat="38.1018783" lon="15.84086"><ele>1377.0</ele><time>2026-04-25T09:08:18.818Z</time></trkpt><trkpt lat="38.1019817" lon="15.8409567"><ele>1377.0</ele><time>2026-04-25T09:08:19.818Z</time></trkpt><trkpt lat="38.1020767" lon="15.84105"><ele>1377.0</ele><time>2026-04-25T09:08:20.818Z</time></trkpt><trkpt lat="38.1021633" lon="15.8411483"><ele>1377.0</ele><time>2026-04-25T09:08:21.818Z</time></trkpt><trkpt lat="38.102225" lon="15.8412383"><ele>1377.0</ele><time>2026-04-25T09:08:22.818Z</time></trkpt><trkpt lat="38.1023017" lon="15.841325"><ele>1377.0</ele><time>2026-04-25T09:08:23.818Z</time></trkpt><trkpt lat="38.1023833" lon="15.8413833"><ele>1377.0</ele><time>2026-04-25T09:08:24.818Z</time></trkpt><trkpt lat="38.1025133" lon="15.8414"><ele>1377.0</ele><time>2026-04-25T09:08:25.818Z</time></trkpt><trkpt lat="38.1026233" lon="15.841415"><ele>1377.0</ele><time>2026-04-25T09:08:26.818Z</time></trkpt><trkpt lat="38.1026917" lon="15.8415617"><ele>1377.0</ele><time>2026-04-25T09:08:27.818Z</time></trkpt><trkpt lat="38.102805" lon="15.84163"><ele>1377.0</ele><time>2026-04-25T09:08:28.817Z</time></trkpt><trkpt lat="38.1029067" lon="15.8416883"><ele>1377.0</ele><time>2026-04-25T09:08:29.818Z</time></trkpt><trkpt lat="38.1030233" lon="15.8417467"><ele>1377.0</ele><time>2026-04-25T09:08:30.818Z</time></trkpt><trkpt lat="38.103115" lon="15.8418167"><ele>1379.1999999999998</ele><time>2026-04-25T09:08:31.817Z</time></trkpt><trkpt lat="38.103215" lon="15.8419267"><ele>1381.4</ele><time>2026-04-25T09:08:32.818Z</time></trkpt><trkpt lat="38.1032617" lon="15.8420433"><ele>1383.6</ele><time>2026-04-25T09:08:33.817Z</time></trkpt><trkpt lat="38.1032867" lon="15.8421683"><ele>1385.8000000000002</ele><time>2026-04-25T09:08:34.818Z</time></trkpt><trkpt lat="38.1033717" lon="15.842245"><ele>1388.0</ele><time>2026-04-25T09:08:35.818Z</time></trkpt><trkpt lat="38.1035317" lon="15.8422583"><ele>1388.0</ele><time>2026-04-25T09:08:36.818Z</time></trkpt><trkpt lat="38.1036633" lon="15.8422917"><ele>1388.0</ele><time>2026-04-25T09:08:37.817Z</time></trkpt><trkpt lat="38.103795" lon="15.8423517"><ele>1388.0</ele><time>2026-04-25T09:08:38.817Z</time></trkpt><trkpt lat="38.1039133" lon="15.8424233"><ele>1388.0</ele><time>2026-04-25T09:08:39.818Z</time></trkpt><trkpt lat="38.1040333" lon="15.8425083"><ele>1388.5</ele><time>2026-04-25T09:08:40.818Z</time></trkpt><trkpt lat="38.10417" lon="15.8426183"><ele>1389.0</ele><time>2026-04-25T09:08:41.817Z</time></trkpt><trkpt lat="38.1042767" lon="15.842745"><ele>1389.5</ele><time>2026-04-25T09:08:42.818Z</time></trkpt><trkpt lat="38.1043567" lon="15.842865"><ele>1390.0</ele><time>2026-04-25T09:08:43.817Z</time></trkpt><trkpt lat="38.10446" lon="15.842965"><ele>1390.0</ele><time>2026-04-25T09:08:44.817Z</time></trkpt><trkpt lat="38.104565" lon="15.8430717"><ele>1390.0</ele><time>2026-04-25T09:08:45.817Z</time></trkpt><trkpt lat="38.104645" lon="15.8431783"><ele>1390.0</ele><time>2026-04-25T09:08:46.818Z</time></trkpt><trkpt lat="38.1047167" lon="15.8433167"><ele>1390.0</ele><time>2026-04-25T09:08:47.818Z</time></trkpt><trkpt lat="38.104795" lon="15.8434367"><ele>1385.75</ele><time>2026-04-25T09:08:48.818Z</time></trkpt><trkpt lat="38.1048767" lon="15.843545"><ele>1381.5</ele><time>2026-04-25T09:08:49.817Z</time></trkpt><trkpt lat="38.1049533" lon="15.8436617"><ele>1377.25</ele><time>2026-04-25T09:08:50.818Z</time></trkpt><trkpt lat="38.1050517" lon="15.843755"><ele>1373.0</ele><time>2026-04-25T09:08:51.818Z</time></trkpt><trkpt lat="38.1051183" lon="15.8438683"><ele>1373.0</ele><time>2026-04-25T09:08:52.817Z</time></trkpt><trkpt lat="38.1052317" lon="15.843935"><ele>1373.0</ele><time>2026-04-25T09:08:53.818Z</time></trkpt><trkpt lat="38.1053233" lon="15.84402"><ele>1373.0</ele><time>2026-04-25T09:08:54.818Z</time></trkpt><trkpt lat="38.105375" lon="15.8441217"><ele>1373.0</ele><time>2026-04-25T09:08:55.818Z</time></trkpt><trkpt lat="38.1054233" lon="15.8442467"><ele>1373.0</ele><time>2026-04-25T09:08:56.818Z</time></trkpt><trkpt lat="38.1054567" lon="15.844375"><ele>1375.75</ele><time>2026-04-25T09:08:57.818Z</time></trkpt><trkpt lat="38.1055" lon="15.844505"><ele>1378.5</ele><time>2026-04-25T09:08:58.818Z</time></trkpt><trkpt lat="38.10554" lon="15.844635"><ele>1381.25</ele><time>2026-04-25T09:08:59.818Z</time></trkpt><trkpt lat="38.1054933" lon="15.8448133"><ele>1384.0</ele><time>2026-04-25T09:09:00.817Z</time></trkpt><trkpt lat="38.1056" lon="15.844875"><ele>1384.0</ele><time>2026-04-25T09:09:01.818Z</time></trkpt><trkpt lat="38.1056383" lon="15.8449767"><ele>1384.0</ele><time>2026-04-25T09:09:02.818Z</time></trkpt><trkpt lat="38.10568" lon="15.84506"><ele>1384.0</ele><time>2026-04-25T09:09:03.818Z</time></trkpt><trkpt lat="38.105735" lon="15.8451733"><ele>1384.0</ele><time>2026-04-25T09:09:05.817Z</time></trkpt><trkpt lat="38.1057933" lon="15.8452117"><ele>1384.0</ele><time>2026-04-25T09:09:06.818Z</time></trkpt><trkpt lat="38.1058917" lon="15.845185"><ele>1384.0</ele><time>2026-04-25T09:09:07.817Z</time></trkpt><trkpt lat="38.1060083" lon="15.8451467"><ele>1385.25</ele><time>2026-04-25T09:09:08.818Z</time></trkpt><trkpt lat="38.1060983" lon="15.84513"><ele>1386.5</ele><time>2026-04-25T09:09:09.818Z</time></trkpt><trkpt lat="38.1062667" lon="15.8450317"><ele>1387.75</ele><time>2026-04-25T09:09:10.818Z</time></trkpt><trkpt lat="38.106375" lon="15.845015"><ele>1389.0</ele><time>2026-04-25T09:09:11.817Z</time></trkpt><trkpt lat="38.1064833" lon="15.845015"><ele>1386.6</ele><time>2026-04-25T09:09:12.818Z</time></trkpt><trkpt lat="38.10659" lon="15.84502"><ele>1384.2</ele><time>2026-04-25T09:09:13.818Z</time></trkpt><trkpt lat="38.106705" lon="15.8450567"><ele>1381.8</ele><time>2026-04-25T09:09:14.817Z</time></trkpt><trkpt lat="38.1067983" lon="15.8451167"><ele>1379.3999999999999</ele><time>2026-04-25T09:09:15.818Z</time></trkpt><trkpt lat="38.106885" lon="15.8451717"><ele>1377.0</ele><time>2026-04-25T09:09:16.818Z</time></trkpt><trkpt lat="38.1069917" lon="15.8452717"><ele>1377.0</ele><time>2026-04-25T09:09:17.818Z</time></trkpt><trkpt lat="38.1071067" lon="15.8453717"><ele>1377.0</ele><time>2026-04-25T09:09:18.817Z</time></trkpt><trkpt lat="38.1072167" lon="15.8455067"><ele>1377.0</ele><time>2026-04-25T09:09:19.817Z</time></trkpt><trkpt lat="38.1072883" lon="15.8457067"><ele>1377.0</ele><time>2026-04-25T09:09:20.818Z</time></trkpt><trkpt lat="38.1073583" lon="15.84586"><ele>1377.0</ele><time>2026-04-25T09:09:21.818Z</time></trkpt><trkpt lat="38.1074333" lon="15.8459917"><ele>1377.0</ele><time>2026-04-25T09:09:22.818Z</time></trkpt><trkpt lat="38.1075033" lon="15.8461167"><ele>1377.0</ele><time>2026-04-25T09:09:23.818Z</time></trkpt><trkpt lat="38.10757" lon="15.8462483"><ele>1366.5</ele><time>2026-04-25T09:09:24.817Z</time></trkpt><trkpt lat="38.1076517" lon="15.8463683"><ele>1356.0</ele><time>2026-04-25T09:09:25.818Z</time></trkpt><trkpt lat="38.1077033" lon="15.8465217"><ele>1345.5</ele><time>2026-04-25T09:09:26.818Z</time></trkpt><trkpt lat="38.1077483" lon="15.846655"><ele>1335.0</ele><time>2026-04-25T09:09:27.817Z</time></trkpt><trkpt lat="38.1077867" lon="15.8468283"><ele>1335.0</ele><time>2026-04-25T09:09:28.818Z</time></trkpt><trkpt lat="38.10779" lon="15.8469183"><ele>1335.0</ele><time>2026-04-25T09:09:29.817Z</time></trkpt><trkpt lat="38.107835" lon="15.8470283"><ele>1335.0</ele><time>2026-04-25T09:09:30.818Z</time></trkpt><trkpt lat="38.1077733" lon="15.847155"><ele>1335.0</ele><time>2026-04-25T09:09:31.818Z</time></trkpt><trkpt lat="38.1076967" lon="15.8472367"><ele>1335.0</ele><time>2026-04-25T09:09:32.818Z</time></trkpt><trkpt lat="38.1075267" lon="15.84732"><ele>1335.0</ele><time>2026-04-25T09:09:33.818Z</time></trkpt><trkpt lat="38.1074367" lon="15.84737"><ele>1335.0</ele><time>2026-04-25T09:09:34.818Z</time></trkpt><trkpt lat="38.1073583" lon="15.8474467"><ele>1335.0</ele><time>2026-04-25T09:09:35.818Z</time></trkpt><trkpt lat="38.10734" lon="15.8475283"><ele>1335.0</ele><time>2026-04-25T09:09:36.818Z</time></trkpt><trkpt lat="38.107275" lon="15.8476017"><ele>1335.0</ele><time>2026-04-25T09:09:37.818Z</time></trkpt><trkpt lat="38.1072233" lon="15.8476817"><ele>1335.0</ele><time>2026-04-25T09:09:38.818Z</time></trkpt><trkpt lat="38.1070817" lon="15.84778"><ele>1339.8333333333333</ele><time>2026-04-25T09:09:40.818Z</time></trkpt><trkpt lat="38.1071233" lon="15.847865"><ele>1344.6666666666667</ele><time>2026-04-25T09:09:42.818Z</time></trkpt><trkpt lat="38.1071867" lon="15.8478933"><ele>1349.5</ele><time>2026-04-25T09:09:43.818Z</time></trkpt><trkpt lat="38.107255" lon="15.84789"><ele>1354.3333333333335</ele><time>2026-04-25T09:09:44.818Z</time></trkpt><trkpt lat="38.1073717" lon="15.8478717"><ele>1359.1666666666667</ele><time>2026-04-25T09:09:45.817Z</time></trkpt><trkpt lat="38.1074683" lon="15.8478367"><ele>1364.0</ele><time>2026-04-25T09:09:46.818Z</time></trkpt><trkpt lat="38.1075783" lon="15.84777"><ele>1364.0</ele><time>2026-04-25T09:09:47.818Z</time></trkpt><trkpt lat="38.1076783" lon="15.84767"><ele>1364.0</ele><time>2026-04-25T09:09:48.818Z</time></trkpt><trkpt lat="38.1077833" lon="15.8475767"><ele>1364.0</ele><time>2026-04-25T09:09:49.818Z</time></trkpt><trkpt lat="38.1079083" lon="15.84751"><ele>1364.0</ele><time>2026-04-25T09:09:50.817Z</time></trkpt><trkpt lat="38.108055" lon="15.8474417"><ele>1361.0</ele><time>2026-04-25T09:09:51.817Z</time></trkpt><trkpt lat="38.108175" lon="15.8473883"><ele>1358.0</ele><time>2026-04-25T09:09:52.817Z</time></trkpt><trkpt lat="38.1083017" lon="15.8473067"><ele>1355.0</ele><time>2026-04-25T09:09:53.818Z</time></trkpt><trkpt lat="38.10842" lon="15.847235"><ele>1352.0</ele><time>2026-04-25T09:09:54.818Z</time></trkpt><trkpt lat="38.1085433" lon="15.8471517"><ele>1352.0</ele><time>2026-04-25T09:09:55.818Z</time></trkpt><trkpt lat="38.1086733" lon="15.8470667"><ele>1352.0</ele><time>2026-04-25T09:09:56.818Z</time></trkpt><trkpt lat="38.1088067" lon="15.8469717"><ele>1352.0</ele><time>2026-04-25T09:09:57.818Z</time></trkpt><trkpt lat="38.1089233" lon="15.8468383"><ele>1352.75</ele><time>2026-04-25T09:09:58.817Z</time></trkpt><trkpt lat="38.1090617" lon="15.846745"><ele>1353.5</ele><time>2026-04-25T09:09:59.818Z</time></trkpt><trkpt lat="38.10917" lon="15.8466083"><ele>1354.25</ele><time>2026-04-25T09:10:00.818Z</time></trkpt><trkpt lat="38.1092783" lon="15.8465033"><ele>1355.0</ele><time>2026-04-25T09:10:01.818Z</time></trkpt><trkpt lat="38.109375" lon="15.8463883"><ele>1355.0</ele><time>2026-04-25T09:10:02.818Z</time></trkpt><trkpt lat="38.10947" lon="15.846275"><ele>1355.0</ele><time>2026-04-25T09:10:03.818Z</time></trkpt><trkpt lat="38.1095533" lon="15.84619"><ele>1355.0</ele><time>2026-04-25T09:10:04.818Z</time></trkpt><trkpt lat="38.1096133" lon="15.8460617"><ele>1355.0</ele><time>2026-04-25T09:10:05.818Z</time></trkpt><trkpt lat="38.1096783" lon="15.845985"><ele>1355.0</ele><time>2026-04-25T09:10:06.818Z</time></trkpt><trkpt lat="38.1097533" lon="15.8459317"><ele>1355.6</ele><time>2026-04-25T09:10:07.818Z</time></trkpt><trkpt lat="38.1097567" lon="15.8458317"><ele>1356.2</ele><time>2026-04-25T09:10:08.818Z</time></trkpt><trkpt lat="38.1098783" lon="15.8457867"><ele>1356.8000000000002</ele><time>2026-04-25T09:10:10.818Z</time></trkpt><trkpt lat="38.1099517" lon="15.8457617"><ele>1357.4</ele><time>2026-04-25T09:10:11.818Z</time></trkpt><trkpt lat="38.1100533" lon="15.845795"><ele>1358.0</ele><time>2026-04-25T09:10:12.818Z</time></trkpt><trkpt lat="38.110155" lon="15.8458417"><ele>1358.0</ele><time>2026-04-25T09:10:13.818Z</time></trkpt><trkpt lat="38.1102367" lon="15.84582"><ele>1358.0</ele><time>2026-04-25T09:10:14.818Z</time></trkpt><trkpt lat="38.1102983" lon="15.8457933"><ele>1358.0</ele><time>2026-04-25T09:10:15.818Z</time></trkpt><trkpt lat="38.1103717" lon="15.8457567"><ele>1358.0</ele><time>2026-04-25T09:10:16.817Z</time></trkpt><trkpt lat="38.1104417" lon="15.8457083"><ele>1358.0</ele><time>2026-04-25T09:10:17.818Z</time></trkpt><trkpt lat="38.1104967" lon="15.8456517"><ele>1358.0</ele><time>2026-04-25T09:10:18.818Z</time></trkpt><trkpt lat="38.11055" lon="15.8455767"><ele>1358.0</ele><time>2026-04-25T09:10:19.818Z</time></trkpt><trkpt lat="38.1105733" lon="15.8454783"><ele>1358.0</ele><time>2026-04-25T09:10:20.818Z</time></trkpt><trkpt lat="38.1105683" lon="15.84535"><ele>1358.0</ele><time>2026-04-25T09:10:21.818Z</time></trkpt><trkpt lat="38.1106383" lon="15.84523"><ele>1358.0</ele><time>2026-04-25T09:10:23.817Z</time></trkpt><trkpt lat="38.1107017" lon="15.845105"><ele>1358.0</ele><time>2026-04-25T09:10:25.818Z</time></trkpt><trkpt lat="38.1107583" lon="15.8449633"><ele>1377.0</ele><time>2026-04-25T09:10:27.818Z</time></trkpt><trkpt lat="38.1087117" lon="15.8415083"><ele>1358.0</ele><time>2026-04-25T09:10:53.817Z</time></trkpt><trkpt lat="38.1100533" lon="15.845795"><ele>1358.0</ele><time>2026-04-25T09:10:12.818Z</time></trkpt><trkpt lat="38.110155" lon="15.8458417"><ele>1358.0</ele><time>2026-04-25T09:10:13.818Z</time></trkpt><trkpt lat="38.1102367" lon="15.84582"><ele>1358.0</ele><time>2026-04-25T09:10:14.818Z</time></trkpt><trkpt lat="38.1102983" lon="15.8457933"><ele>1358.0</ele><time>2026-04-25T09:10:15.818Z</time></trkpt><trkpt lat="38.1103717" lon="15.8457567"><ele>1358.0</ele><time>2026-04-25T09:10:16.817Z</time></trkpt><trkpt lat="38.1104417" lon="15.8457083"><ele>1358.0</ele><time>2026-04-25T09:10:17.818Z</time></trkpt><trkpt lat="38.1104967" lon="15.8456517"><ele>1358.0</ele><time>2026-04-25T09:10:18.818Z</time></trkpt><trkpt lat="38.11055" lon="15.8455767"><ele>1358.0</ele><time>2026-04-25T09:10:19.818Z</time></trkpt><trkpt lat="38.1105733" lon="15.8454783"><ele>1358.0</ele><time>2026-04-25T09:10:20.818Z</time></trkpt><trkpt lat="38.1105683" lon="15.84535"><ele>1358.0</ele><time>2026-04-25T09:10:21.818Z</time></trkpt><trkpt lat="38.1106383" lon="15.84523"><ele>1358.0</ele><time>2026-04-25T09:10:23.817Z</time></trkpt><trkpt lat="38.1107017" lon="15.845105"><ele>1367.5</ele><time>2026-04-25T09:10:25.818Z</time></trkpt><trkpt lat="38.1107583" lon="15.8449633"><ele>1377.0</ele><time>2026-04-25T09:10:27.818Z</time></trkpt><trkpt lat="38.1087117" lon="15.8415083"><ele>1377.0</ele><time>2026-04-25T09:10:53.817Z</time></trkpt><trkpt lat="38.108845" lon="15.8415633"><ele>1377.0</ele><time>2026-04-25T09:10:55.817Z</time></trkpt><trkpt lat="38.108935" lon="15.8415833"><ele>1377.0</ele><time>2026-04-25T09:10:56.817Z</time></trkpt><trkpt lat="38.1090483" lon="15.8416417"><ele>1377.0</ele><time>2026-04-25T09:10:57.817Z</time></trkpt><trkpt lat="38.1091483" lon="15.8416433"><ele>1379.6</ele><time>2026-04-25T09:10:58.817Z</time></trkpt><trkpt lat="38.1092383" lon="15.841645"><ele>1382.1999999999998</ele><time>2026-04-25T09:10:59.817Z</time></trkpt><trkpt lat="38.1093383" lon="15.84166"><ele>1384.8</ele><time>2026-04-25T09:11:00.817Z</time></trkpt><trkpt lat="38.109455" lon="15.841585"><ele>1387.4</ele><time>2026-04-25T09:11:01.816Z</time></trkpt><trkpt lat="38.1095383" lon="15.8414667"><ele>1390.0</ele><time>2026-04-25T09:11:02.817Z</time></trkpt><trkpt lat="38.1096033" lon="15.8413517"><ele>1390.0</ele><time>2026-04-25T09:11:03.816Z</time></trkpt><trkpt lat="38.10966" lon="15.841225"><ele>1390.0</ele><time>2026-04-25T09:11:04.816Z</time></trkpt><trkpt lat="38.1097183" lon="15.8411283"><ele>1390.0</ele><time>2026-04-25T09:11:05.817Z</time></trkpt><trkpt lat="38.109775" lon="15.8410267"><ele>1390.0</ele><time>2026-04-25T09:11:06.817Z</time></trkpt><trkpt lat="38.1098283" lon="15.840945"><ele>1390.0</ele><time>2026-04-25T09:11:07.817Z</time></trkpt><trkpt lat="38.1098733" lon="15.8408583"><ele>1390.2</ele><time>2026-04-25T09:11:08.816Z</time></trkpt><trkpt lat="38.1099333" lon="15.8407783"><ele>1390.4</ele><time>2026-04-25T09:11:09.817Z</time></trkpt><trkpt lat="38.1099917" lon="15.8407217"><ele>1390.6</ele><time>2026-04-25T09:11:10.817Z</time></trkpt><trkpt lat="38.1100517" lon="15.84063"><ele>1390.8</ele><time>2026-04-25T09:11:11.817Z</time></trkpt><trkpt lat="38.1101083" lon="15.8405433"><ele>1391.0</ele><time>2026-04-25T09:11:12.817Z</time></trkpt><trkpt lat="38.1103983" lon="15.84015"><ele>1391.0</ele><time>2026-04-25T09:11:17.818Z</time></trkpt><trkpt lat="38.1104933" lon="15.8400867"><ele>1391.0</ele><time>2026-04-25T09:11:20.818Z</time></trkpt><trkpt lat="38.1105367" lon="15.8401483"><ele>1391.0</ele><time>2026-04-25T09:11:21.818Z</time></trkpt><trkpt lat="38.112935" lon="15.842235"><ele>1392.0</ele><time>2026-04-25T09:11:37.815Z</time></trkpt><trkpt lat="38.11305" lon="15.8422717"><ele>1393.0</ele><time>2026-04-25T09:11:38.816Z</time></trkpt><trkpt lat="38.113445" lon="15.8424533"><ele>1390.0</ele><time>2026-04-25T09:11:42.817Z</time></trkpt><trkpt lat="38.1136217" lon="15.842605"><ele>1387.0</ele><time>2026-04-25T09:11:43.817Z</time></trkpt><trkpt lat="38.1138133" lon="15.84274"><ele>1384.0</ele><time>2026-04-25T09:11:44.817Z</time></trkpt><trkpt lat="38.1139067" lon="15.8427167"><ele>1387.0</ele><time>2026-04-25T09:11:45.817Z</time></trkpt><trkpt lat="38.113995" lon="15.8426983"><ele>1390.0</ele><time>2026-04-25T09:11:46.817Z</time></trkpt><trkpt lat="38.1140983" lon="15.8427133"><ele>1393.0</ele><time>2026-04-25T09:11:47.817Z</time></trkpt><trkpt lat="38.114195" lon="15.8427683"><ele>1396.0</ele><time>2026-04-25T09:11:48.816Z</time></trkpt><trkpt lat="38.1142717" lon="15.8427983"><ele>1399.0</ele><time>2026-04-25T09:11:49.817Z</time></trkpt><trkpt lat="38.1143333" lon="15.842865"><ele>1399.0</ele><time>2026-04-25T09:11:50.816Z</time></trkpt><trkpt lat="38.114405" lon="15.8429367"><ele>1399.0</ele><time>2026-04-25T09:11:51.817Z</time></trkpt><trkpt lat="38.1144733" lon="15.8430467"><ele>1399.0</ele><time>2026-04-25T09:11:52.817Z</time></trkpt><trkpt lat="38.1145617" lon="15.843135"><ele>1399.0</ele><time>2026-04-25T09:11:53.817Z</time></trkpt><trkpt lat="38.11468" lon="15.8432417"><ele>1399.0</ele><time>2026-04-25T09:11:55.817Z</time></trkpt><trkpt lat="38.1147433" lon="15.8432783"><ele>1399.0</ele><time>2026-04-25T09:11:56.817Z</time></trkpt><trkpt lat="38.1148767" lon="15.8432467"><ele>1399.0</ele><time>2026-04-25T09:11:58.817Z</time></trkpt><trkpt lat="38.1149733" lon="15.8432667"><ele>1399.0</ele><time>2026-04-25T09:12:00.817Z</time></trkpt><trkpt lat="38.1150633" lon="15.8432283"><ele>1399.0</ele><time>2026-04-25T09:12:01.816Z</time></trkpt><trkpt lat="38.1152033" lon="15.8431417"><ele>1395.5</ele><time>2026-04-25T09:12:02.816Z</time></trkpt><trkpt lat="38.115365" lon="15.8430533"><ele>1392.0</ele><time>2026-04-25T09:12:03.817Z</time></trkpt><trkpt lat="38.1154883" lon="15.8430217"><ele>1388.5</ele><time>2026-04-25T09:12:04.817Z</time></trkpt><trkpt lat="38.11561" lon="15.8430533"><ele>1385.0</ele><time>2026-04-25T09:12:05.817Z</time></trkpt><trkpt lat="38.1156983" lon="15.8430233"><ele>1386.5</ele><time>2026-04-25T09:12:06.817Z</time></trkpt><trkpt lat="38.11579" lon="15.8430083"><ele>1388.0</ele><time>2026-04-25T09:12:07.817Z</time></trkpt><trkpt lat="38.11587" lon="15.842985"><ele>1389.5</ele><time>2026-04-25T09:12:08.817Z</time></trkpt><trkpt lat="38.115955" lon="15.842995"><ele>1391.0</ele><time>2026-04-25T09:12:09.816Z</time></trkpt><trkpt lat="38.1160183" lon="15.8430333"><ele>1392.5</ele><time>2026-04-25T09:12:10.817Z</time></trkpt><trkpt lat="38.1160983" lon="15.8430917"><ele>1394.0</ele><time>2026-04-25T09:12:11.817Z</time></trkpt><trkpt lat="38.1161817" lon="15.8431317"><ele>1394.0</ele><time>2026-04-25T09:12:12.817Z</time></trkpt><trkpt lat="38.11627" lon="15.8431467"><ele>1394.0</ele><time>2026-04-25T09:12:13.816Z</time></trkpt><trkpt lat="38.1163533" lon="15.8431617"><ele>1394.0</ele><time>2026-04-25T09:12:14.817Z</time></trkpt><trkpt lat="38.11645" lon="15.8431633"><ele>1394.0</ele><time>2026-04-25T09:12:15.817Z</time></trkpt><trkpt lat="38.116565" lon="15.8431633"><ele>1394.0</ele><time>2026-04-25T09:12:16.817Z</time></trkpt><trkpt lat="38.1166717" lon="15.8431683"><ele>1389.5</ele><time>2026-04-25T09:12:17.817Z</time></trkpt><trkpt lat="38.1167883" lon="15.8432117"><ele>1385.0</ele><time>2026-04-25T09:12:18.817Z</time></trkpt><trkpt lat="38.116905" lon="15.843255"><ele>1380.5</ele><time>2026-04-25T09:12:19.816Z</time></trkpt><trkpt lat="38.117035" lon="15.8432983"><ele>1376.0</ele><time>2026-04-25T09:12:20.817Z</time></trkpt><trkpt lat="38.1171533" lon="15.84335"><ele>1376.0</ele><time>2026-04-25T09:12:21.816Z</time></trkpt><trkpt lat="38.1172617" lon="15.843385"><ele>1376.0</ele><time>2026-04-25T09:12:22.817Z</time></trkpt><trkpt lat="38.11735" lon="15.843425"><ele>1376.0</ele><time>2026-04-25T09:12:23.817Z</time></trkpt><trkpt lat="38.1174333" lon="15.8434717"><ele>1376.0</ele><time>2026-04-25T09:12:24.817Z</time></trkpt><trkpt lat="38.11751" lon="15.84351"><ele>1376.0</ele><time>2026-04-25T09:12:25.817Z</time></trkpt><trkpt lat="38.11758" lon="15.843525"><ele>1375.3333333333335</ele><time>2026-04-25T09:12:26.816Z</time></trkpt><trkpt lat="38.11765" lon="15.8435033"><ele>1374.6666666666667</ele><time>2026-04-25T09:12:27.817Z</time></trkpt><trkpt lat="38.1177033" lon="15.84346"><ele>1374.0</ele><time>2026-04-25T09:12:28.817Z</time></trkpt><trkpt lat="38.11782" lon="15.843385"><ele>1373.3333333333333</ele><time>2026-04-25T09:12:30.817Z</time></trkpt><trkpt lat="38.1178783" lon="15.8433283"><ele>1372.6666666666665</ele><time>2026-04-25T09:12:31.817Z</time></trkpt><trkpt lat="38.1179167" lon="15.843245"><ele>1372.0</ele><time>2026-04-25T09:12:32.817Z</time></trkpt><trkpt lat="38.1179517" lon="15.8431733"><ele>1372.0</ele><time>2026-04-25T09:12:33.817Z</time></trkpt><trkpt lat="38.1179417" lon="15.8430833"><ele>1372.0</ele><time>2026-04-25T09:12:34.817Z</time></trkpt><trkpt lat="38.1179033" lon="15.84295"><ele>1372.0</ele><time>2026-04-25T09:12:35.816Z</time></trkpt><trkpt lat="38.1178" lon="15.8427567"><ele>1372.0</ele><time>2026-04-25T09:12:36.816Z</time></trkpt><trkpt lat="38.1177" lon="15.8425633"><ele>1373.0</ele><time>2026-04-25T09:12:37.817Z</time></trkpt><trkpt lat="38.117525" lon="15.84238"><ele>1374.0</ele><time>2026-04-25T09:12:38.817Z</time></trkpt><trkpt lat="38.1173183" lon="15.8421667"><ele>1376.3333333333333</ele><time>2026-04-25T09:12:39.816Z</time></trkpt><trkpt lat="38.117185" lon="15.8419517"><ele>1378.6666666666665</ele><time>2026-04-25T09:12:40.817Z</time></trkpt><trkpt lat="38.1170667" lon="15.84178"><ele>1381.0</ele><time>2026-04-25T09:12:41.817Z</time></trkpt><trkpt lat="38.116965" lon="15.841685"><ele>1381.0</ele><time>2026-04-25T09:12:42.817Z</time></trkpt><trkpt lat="38.1168483" lon="15.8416333"><ele>1381.0</ele><time>2026-04-25T09:12:43.816Z</time></trkpt><trkpt lat="38.1167483" lon="15.8415433"><ele>1381.0</ele><time>2026-04-25T09:12:44.817Z</time></trkpt><trkpt lat="38.1166417" lon="15.8414283"><ele>1381.0</ele><time>2026-04-25T09:12:45.816Z</time></trkpt><trkpt lat="38.1165233" lon="15.841325"><ele>1372.6666666666665</ele><time>2026-04-25T09:12:46.817Z</time></trkpt><trkpt lat="38.1163933" lon="15.8412367"><ele>1364.3333333333333</ele><time>2026-04-25T09:12:47.817Z</time></trkpt><trkpt lat="38.1162217" lon="15.8412383"><ele>1356.0</ele><time>2026-04-25T09:12:48.817Z</time></trkpt><trkpt lat="38.1160933" lon="15.8411917"><ele>1356.0</ele><time>2026-04-25T09:12:49.817Z</time></trkpt><trkpt lat="38.11598" lon="15.84111"><ele>1356.0</ele><time>2026-04-25T09:12:50.817Z</time></trkpt><trkpt lat="38.1158883" lon="15.8410083"><ele>1356.0</ele><time>2026-04-25T09:12:51.816Z</time></trkpt><trkpt lat="38.1158067" lon="15.8409133"><ele>1356.0</ele><time>2026-04-25T09:12:52.816Z</time></trkpt><trkpt lat="38.11572" lon="15.8407967"><ele>1351.6666666666667</ele><time>2026-04-25T09:12:53.817Z</time></trkpt><trkpt lat="38.1156333" lon="15.8406317"><ele>1347.3333333333335</ele><time>2026-04-25T09:12:54.817Z</time></trkpt><trkpt lat="38.1155317" lon="15.8404917"><ele>1343.0</ele><time>2026-04-25T09:12:55.817Z</time></trkpt><trkpt lat="38.11543" lon="15.8403433"><ele>1352.0</ele><time>2026-04-25T09:12:56.817Z</time></trkpt><trkpt lat="38.11539" lon="15.8401117"><ele>1361.0</ele><time>2026-04-25T09:12:57.816Z</time></trkpt><trkpt lat="38.1152867" lon="15.8399583"><ele>1370.0</ele><time>2026-04-25T09:12:58.817Z</time></trkpt><trkpt lat="38.1152" lon="15.83982"><ele>1370.0</ele><time>2026-04-25T09:12:59.816Z</time></trkpt><trkpt lat="38.1151133" lon="15.8396867"><ele>1370.0</ele><time>2026-04-25T09:13:00.817Z</time></trkpt><trkpt lat="38.1150467" lon="15.8395433"><ele>1370.0</ele><time>2026-04-25T09:13:01.816Z</time></trkpt><trkpt lat="38.115015" lon="15.8393867"><ele>1370.0</ele><time>2026-04-25T09:13:02.817Z</time></trkpt><trkpt lat="38.1149967" lon="15.8392617"><ele>1373.0</ele><time>2026-04-25T09:13:03.817Z</time></trkpt><trkpt lat="38.1149483" lon="15.8391383"><ele>1376.0</ele><time>2026-04-25T09:13:04.817Z</time></trkpt><trkpt lat="38.1149167" lon="15.839015"><ele>1379.0</ele><time>2026-04-25T09:13:05.817Z</time></trkpt><trkpt lat="38.1149083" lon="15.838885"><ele>1382.0</ele><time>2026-04-25T09:13:06.817Z</time></trkpt><trkpt lat="38.1149483" lon="15.838725"><ele>1385.0</ele><time>2026-04-25T09:13:07.816Z</time></trkpt><trkpt lat="38.1150217" lon="15.8385767"><ele>1385.0</ele><time>2026-04-25T09:13:08.817Z</time></trkpt><trkpt lat="38.1151033" lon="15.8384933"><ele>1385.0</ele><time>2026-04-25T09:13:09.817Z</time></trkpt><trkpt lat="38.1151533" lon="15.8383833"><ele>1385.0</ele><time>2026-04-25T09:13:10.816Z</time></trkpt><trkpt lat="38.1152033" lon="15.8382667"><ele>1385.0</ele><time>2026-04-25T09:13:11.816Z</time></trkpt><trkpt lat="38.115245" lon="15.8381183"><ele>1385.0</ele><time>2026-04-25T09:13:12.817Z</time></trkpt><trkpt lat="38.1153" lon="15.8379667"><ele>1382.0</ele><time>2026-04-25T09:13:13.817Z</time></trkpt><trkpt lat="38.11534" lon="15.8378233"><ele>1379.0</ele><time>2026-04-25T09:13:14.817Z</time></trkpt><trkpt lat="38.1153683" lon="15.8376833"><ele>1376.0</ele><time>2026-04-25T09:13:15.817Z</time></trkpt><trkpt lat="38.1154217" lon="15.8375667"><ele>1373.0</ele><time>2026-04-25T09:13:16.817Z</time></trkpt><trkpt lat="38.1154733" lon="15.8374483"><ele>1370.0</ele><time>2026-04-25T09:13:17.817Z</time></trkpt><trkpt lat="38.1155083" lon="15.8373233"><ele>1367.8</ele><time>2026-04-25T09:13:18.816Z</time></trkpt><trkpt lat="38.1155417" lon="15.8372"><ele>1365.6</ele><time>2026-04-25T09:13:19.816Z</time></trkpt><trkpt lat="38.1155867" lon="15.8370883"><ele>1363.4</ele><time>2026-04-25T09:13:20.816Z</time></trkpt><trkpt lat="38.11565" lon="15.8369917"><ele>1361.2</ele><time>2026-04-25T09:13:21.817Z</time></trkpt><trkpt lat="38.11573" lon="15.8369"><ele>1359.0</ele><time>2026-04-25T09:13:22.817Z</time></trkpt><trkpt lat="38.1160333" lon="15.8366633"><ele>1349.5</ele><time>2026-04-25T09:13:23.816Z</time></trkpt><trkpt lat="38.116145" lon="15.836535"><ele>1340.0</ele><time>2026-04-25T09:13:24.817Z</time></trkpt><trkpt lat="38.1163933" lon="15.8367583"><ele>1381.0</ele><time>2026-04-25T09:13:25.817Z</time></trkpt><trkpt lat="38.1167533" lon="15.8371383"><ele>1381.0</ele><time>2026-04-25T09:13:26.817Z</time></trkpt><trkpt lat="38.1170417" lon="15.8373817"><ele>1381.0</ele><time>2026-04-25T09:13:27.817Z</time></trkpt><trkpt lat="38.1171983" lon="15.8373417"><ele>1381.0</ele><time>2026-04-25T09:13:28.817Z</time></trkpt><trkpt lat="38.1173433" lon="15.8372217"><ele>1381.0</ele><time>2026-04-25T09:13:29.817Z</time></trkpt><trkpt lat="38.1174217" lon="15.8371083"><ele>1381.0</ele><time>2026-04-25T09:13:30.817Z</time></trkpt><trkpt lat="38.1174883" lon="15.8370367"><ele>1381.0</ele><time>2026-04-25T09:13:31.816Z</time></trkpt><trkpt lat="38.1175767" lon="15.8369533"><ele>1381.5</ele><time>2026-04-25T09:13:32.817Z</time></trkpt><trkpt lat="38.1176367" lon="15.8368517"><ele>1382.0</ele><time>2026-04-25T09:13:33.817Z</time></trkpt><trkpt lat="38.1177067" lon="15.83675"><ele>1382.5</ele><time>2026-04-25T09:13:34.817Z</time></trkpt><trkpt lat="38.11779" lon="15.836645"><ele>1383.0</ele><time>2026-04-25T09:13:35.817Z</time></trkpt><trkpt lat="38.1178617" lon="15.836465"><ele>1383.0</ele><time>2026-04-25T09:13:36.817Z</time></trkpt><trkpt lat="38.11801" lon="15.8363717"><ele>1383.0</ele><time>2026-04-25T09:13:37.817Z</time></trkpt><trkpt lat="38.1181483" lon="15.83625"><ele>1383.0</ele><time>2026-04-25T09:13:38.817Z</time></trkpt><trkpt lat="38.1182883" lon="15.8361467"><ele>1381.75</ele><time>2026-04-25T09:13:39.816Z</time></trkpt><trkpt lat="38.1184467" lon="15.8360717"><ele>1380.5</ele><time>2026-04-25T09:13:40.816Z</time></trkpt><trkpt lat="38.1185767" lon="15.8359883"><ele>1379.25</ele><time>2026-04-25T09:13:41.816Z</time></trkpt><trkpt lat="38.1186633" lon="15.8358833"><ele>1378.0</ele><time>2026-04-25T09:13:42.816Z</time></trkpt><trkpt lat="38.1187483" lon="15.83577"><ele>1378.0</ele><time>2026-04-25T09:13:43.817Z</time></trkpt><trkpt lat="38.1188183" lon="15.8356383"><ele>1378.0</ele><time>2026-04-25T09:13:44.816Z</time></trkpt><trkpt lat="38.1188733" lon="15.8355"><ele>1378.0</ele><time>2026-04-25T09:13:45.817Z</time></trkpt><trkpt lat="38.1189133" lon="15.83534"><ele>1378.0</ele><time>2026-04-25T09:13:46.817Z</time></trkpt><trkpt lat="38.1189617" lon="15.83522"><ele>1378.8000000000002</ele><time>2026-04-25T09:13:47.816Z</time></trkpt><trkpt lat="38.1190167" lon="15.8351233"><ele>1379.6</ele><time>2026-04-25T09:13:48.816Z</time></trkpt><trkpt lat="38.1191133" lon="15.8350433"><ele>1380.4</ele><time>2026-04-25T09:13:49.817Z</time></trkpt><trkpt lat="38.1192117" lon="15.83496"><ele>1381.1999999999998</ele><time>2026-04-25T09:13:50.816Z</time></trkpt><trkpt lat="38.119315" lon="15.8349033"><ele>1382.0</ele><time>2026-04-25T09:13:51.817Z</time></trkpt><trkpt lat="38.1194233" lon="15.8348633"><ele>1382.0</ele><time>2026-04-25T09:13:52.817Z</time></trkpt><trkpt lat="38.1195133" lon="15.834835"><ele>1382.0</ele><time>2026-04-25T09:13:53.817Z</time></trkpt><trkpt lat="38.1196017" lon="15.8348217"><ele>1382.0</ele><time>2026-04-25T09:13:54.816Z</time></trkpt><trkpt lat="38.1196733" lon="15.8348517"><ele>1382.0</ele><time>2026-04-25T09:13:55.817Z</time></trkpt><trkpt lat="38.1197383" lon="15.8348933"><ele>1382.0</ele><time>2026-04-25T09:13:56.817Z</time></trkpt><trkpt lat="38.1197567" lon="15.8350017"><ele>1382.0</ele><time>2026-04-25T09:13:57.816Z</time></trkpt><trkpt lat="38.1197717" lon="15.835105"><ele>1387.75</ele><time>2026-04-25T09:13:58.817Z</time></trkpt><trkpt lat="38.1197367" lon="15.8353583"><ele>1393.5</ele><time>2026-04-25T09:13:59.817Z</time></trkpt><trkpt lat="38.1197517" lon="15.8355333"><ele>1399.25</ele><time>2026-04-25T09:14:00.817Z</time></trkpt><trkpt lat="38.119795" lon="15.8356517"><ele>1405.0</ele><time>2026-04-25T09:14:01.817Z</time></trkpt><trkpt lat="38.11987" lon="15.8357533"><ele>1405.25</ele><time>2026-04-25T09:14:02.817Z</time></trkpt><trkpt lat="38.1199517" lon="15.8358317"><ele>1405.5</ele><time>2026-04-25T09:14:03.817Z</time></trkpt><trkpt lat="38.120055" lon="15.835895"><ele>1405.75</ele><time>2026-04-25T09:14:04.816Z</time></trkpt><trkpt lat="38.1201283" lon="15.835975"><ele>1406.0</ele><time>2026-04-25T09:14:05.817Z</time></trkpt><trkpt lat="38.1202667" lon="15.836005"><ele>1414.0</ele><time>2026-04-25T09:14:06.817Z</time></trkpt><trkpt lat="38.1203833" lon="15.83604"><ele>1422.0</ele><time>2026-04-25T09:14:07.817Z</time></trkpt><trkpt lat="38.12051" lon="15.836065"><ele>1430.0</ele><time>2026-04-25T09:14:08.816Z</time></trkpt><trkpt lat="38.1206383" lon="15.836015"><ele>1438.0</ele><time>2026-04-25T09:14:09.816Z</time></trkpt><trkpt lat="38.1207433" lon="15.836005"><ele>1439.6000000000001</ele><time>2026-04-25T09:14:10.817Z</time></trkpt><trkpt lat="38.12087" lon="15.83599"><ele>1441.2</ele><time>2026-04-25T09:14:11.816Z</time></trkpt><trkpt lat="38.1209783" lon="15.8360033"><ele>1442.8</ele><time>2026-04-25T09:14:12.817Z</time></trkpt><trkpt lat="38.1210517" lon="15.835995"><ele>1444.4</ele><time>2026-04-25T09:14:13.816Z</time></trkpt><trkpt lat="38.121145" lon="15.8359683"><ele>1446.0</ele><time>2026-04-25T09:14:14.817Z</time></trkpt><trkpt lat="38.1212167" lon="15.8359167"><ele>1436.25</ele><time>2026-04-25T09:14:15.817Z</time></trkpt><trkpt lat="38.1212683" lon="15.8358483"><ele>1426.5</ele><time>2026-04-25T09:14:16.816Z</time></trkpt><trkpt lat="38.1212933" lon="15.83573"><ele>1416.75</ele><time>2026-04-25T09:14:17.817Z</time></trkpt><trkpt lat="38.1212633" lon="15.83549"><ele>1407.0</ele><time>2026-04-25T09:14:18.817Z</time></trkpt><trkpt lat="38.1212767" lon="15.8352917"><ele>1402.0</ele><time>2026-04-25T09:14:19.817Z</time></trkpt><trkpt lat="38.1213117" lon="15.8350917"><ele>1397.0</ele><time>2026-04-25T09:14:20.817Z</time></trkpt><trkpt lat="38.12136" lon="15.8349033"><ele>1392.0</ele><time>2026-04-25T09:14:21.817Z</time></trkpt><trkpt lat="38.1214067" lon="15.8347433"><ele>1392.0</ele><time>2026-04-25T09:14:22.817Z</time></trkpt><trkpt lat="38.1214517" lon="15.834585"><ele>1392.0</ele><time>2026-04-25T09:14:23.817Z</time></trkpt><trkpt lat="38.1214933" lon="15.8344417"><ele>1392.0</ele><time>2026-04-25T09:14:24.817Z</time></trkpt><trkpt lat="38.12151" lon="15.834285"><ele>1392.0</ele><time>2026-04-25T09:14:25.817Z</time></trkpt><trkpt lat="38.12144" lon="15.834095"><ele>1393.5</ele><time>2026-04-25T09:14:26.817Z</time></trkpt><trkpt lat="38.1213733" lon="15.8338767"><ele>1395.0</ele><time>2026-04-25T09:14:27.816Z</time></trkpt><trkpt lat="38.12136" lon="15.8337233"><ele>1396.5</ele><time>2026-04-25T09:14:28.816Z</time></trkpt><trkpt lat="38.12136" lon="15.83359"><ele>1398.0</ele><time>2026-04-25T09:14:29.816Z</time></trkpt><trkpt lat="38.1213533" lon="15.8334433"><ele>1398.0</ele><time>2026-04-25T09:14:30.817Z</time></trkpt><trkpt lat="38.1213567" lon="15.8333"><ele>1398.0</ele><time>2026-04-25T09:14:31.817Z</time></trkpt><trkpt lat="38.12135" lon="15.83316"><ele>1398.0</ele><time>2026-04-25T09:14:32.817Z</time></trkpt><trkpt lat="38.1213667" lon="15.83303"><ele>1398.0</ele><time>2026-04-25T09:14:33.816Z</time></trkpt><trkpt lat="38.1213833" lon="15.8328983"><ele>1398.0</ele><time>2026-04-25T09:14:34.817Z</time></trkpt><trkpt lat="38.1214033" lon="15.8328133"><ele>1398.0</ele><time>2026-04-25T09:14:35.817Z</time></trkpt><trkpt lat="38.1215283" lon="15.8328033"><ele>1398.0</ele><time>2026-04-25T09:14:36.817Z</time></trkpt><trkpt lat="38.1216717" lon="15.8328383"><ele>1398.0</ele><time>2026-04-25T09:14:37.817Z</time></trkpt><trkpt lat="38.1218" lon="15.8328533"><ele>1398.0</ele><time>2026-04-25T09:14:38.816Z</time></trkpt><trkpt lat="38.1219267" lon="15.8328867"><ele>1401.6000000000001</ele><time>2026-04-25T09:14:39.817Z</time></trkpt><trkpt lat="38.1220217" lon="15.832865"><ele>1405.2</ele><time>2026-04-25T09:14:40.816Z</time></trkpt><trkpt lat="38.1221183" lon="15.8328533"><ele>1408.8</ele><time>2026-04-25T09:14:41.817Z</time></trkpt><trkpt lat="38.12222" lon="15.8328633"><ele>1412.4</ele><time>2026-04-25T09:14:42.817Z</time></trkpt><trkpt lat="38.1223417" lon="15.8328983"><ele>1416.0</ele><time>2026-04-25T09:14:43.816Z</time></trkpt><trkpt lat="38.1224517" lon="15.8329267"><ele>1416.0</ele><time>2026-04-25T09:14:44.817Z</time></trkpt><trkpt lat="38.1225933" lon="15.8330017"><ele>1416.0</ele><time>2026-04-25T09:14:45.816Z</time></trkpt><trkpt lat="38.1226933" lon="15.8330967"><ele>1416.0</ele><time>2026-04-25T09:14:46.817Z</time></trkpt><trkpt lat="38.1227733" lon="15.8333217"><ele>1416.0</ele><time>2026-04-25T09:14:47.817Z</time></trkpt><trkpt lat="38.1228767" lon="15.8334617"><ele>1416.0</ele><time>2026-04-25T09:14:48.817Z</time></trkpt><trkpt lat="38.12297" lon="15.8335633"><ele>1416.0</ele><time>2026-04-25T09:14:49.817Z</time></trkpt><trkpt lat="38.1230567" lon="15.833645"><ele>1416.0</ele><time>2026-04-25T09:14:50.817Z</time></trkpt><trkpt lat="38.1231433" lon="15.8337167"><ele>1415.1999999999998</ele><time>2026-04-25T09:14:51.817Z</time></trkpt><trkpt lat="38.1232167" lon="15.8338117"><ele>1414.3999999999999</ele><time>2026-04-25T09:14:52.816Z</time></trkpt><trkpt lat="38.1233117" lon="15.8338733"><ele>1413.6</ele><time>2026-04-25T09:14:53.816Z</time></trkpt><trkpt lat="38.1233983" lon="15.833945"><ele>1412.8</ele><time>2026-04-25T09:14:54.816Z</time></trkpt><trkpt lat="38.1235317" lon="15.8339583"><ele>1412.0</ele><time>2026-04-25T09:14:55.816Z</time></trkpt><trkpt lat="38.12363" lon="15.8340433"><ele>1412.0</ele><time>2026-04-25T09:14:56.817Z</time></trkpt><trkpt lat="38.1237233" lon="15.8341317"><ele>1412.0</ele><time>2026-04-25T09:14:57.817Z</time></trkpt><trkpt lat="38.123825" lon="15.8342183"><ele>1412.0</ele><time>2026-04-25T09:14:58.817Z</time></trkpt><trkpt lat="38.1239267" lon="15.83432"><ele>1412.0</ele><time>2026-04-25T09:14:59.817Z</time></trkpt><trkpt lat="38.12403" lon="15.8344067"><ele>1411.6</ele><time>2026-04-25T09:15:00.817Z</time></trkpt><trkpt lat="38.1241233" lon="15.8345067"><ele>1411.1999999999998</ele><time>2026-04-25T09:15:01.817Z</time></trkpt><trkpt lat="38.1241983" lon="15.8346117"><ele>1410.8</ele><time>2026-04-25T09:15:02.817Z</time></trkpt><trkpt lat="38.1242717" lon="15.8346933"><ele>1410.4</ele><time>2026-04-25T09:15:03.817Z</time></trkpt><trkpt lat="38.1243367" lon="15.8347833"><ele>1410.0</ele><time>2026-04-25T09:15:04.817Z</time></trkpt><trkpt lat="38.12442" lon="15.83486"><ele>1410.0</ele><time>2026-04-25T09:15:05.817Z</time></trkpt><trkpt lat="38.1245117" lon="15.8349117"><ele>1410.0</ele><time>2026-04-25T09:15:06.817Z</time></trkpt><trkpt lat="38.1245967" lon="15.834965"><ele>1410.0</ele><time>2026-04-25T09:15:07.817Z</time></trkpt><trkpt lat="38.12468" lon="15.835025"><ele>1410.0</ele><time>2026-04-25T09:15:08.816Z</time></trkpt><trkpt lat="38.124765" lon="15.835085"><ele>1410.0</ele><time>2026-04-25T09:15:09.817Z</time></trkpt><trkpt lat="38.124855" lon="15.835135"><ele>1415.2</ele><time>2026-04-25T09:15:10.816Z</time></trkpt><trkpt lat="38.12493" lon="15.8351833"><ele>1420.4</ele><time>2026-04-25T09:15:11.817Z</time></trkpt><trkpt lat="38.1250033" lon="15.8352233"><ele>1425.6</ele><time>2026-04-25T09:15:12.816Z</time></trkpt><trkpt lat="38.1251233" lon="15.8351683"><ele>1430.8</ele><time>2026-04-25T09:15:14.816Z</time></trkpt><trkpt lat="38.125195" lon="15.83515"><ele>1436.0</ele><time>2026-04-25T09:15:15.817Z</time></trkpt><trkpt lat="38.1252817" lon="15.8351683"><ele>1436.0</ele><time>2026-04-25T09:15:16.817Z</time></trkpt><trkpt lat="38.1253683" lon="15.835205"><ele>1436.0</ele><time>2026-04-25T09:15:17.817Z</time></trkpt><trkpt lat="38.1254633" lon="15.8352417"><ele>1436.0</ele><time>2026-04-25T09:15:18.816Z</time></trkpt><trkpt lat="38.1255517" lon="15.83528"><ele>1436.0</ele><time>2026-04-25T09:15:19.817Z</time></trkpt><trkpt lat="38.125685" lon="15.83532"><ele>1436.0</ele><time>2026-04-25T09:15:20.817Z</time></trkpt><trkpt lat="38.1257533" lon="15.835385"><ele>1434.5</ele><time>2026-04-25T09:15:21.816Z</time></trkpt><trkpt lat="38.1259867" lon="15.8354233"><ele>1433.0</ele><time>2026-04-25T09:15:24.817Z</time></trkpt><trkpt lat="38.12607" lon="15.8354567"><ele>1431.5</ele><time>2026-04-25T09:15:25.818Z</time></trkpt><trkpt lat="38.1261417" lon="15.83547"><ele>1430.0</ele><time>2026-04-25T09:15:26.818Z</time></trkpt><trkpt lat="38.1262217" lon="15.8355367"><ele>1430.0</ele><time>2026-04-25T09:15:27.818Z</time></trkpt><trkpt lat="38.1263133" lon="15.8356167"><ele>1430.0</ele><time>2026-04-25T09:15:28.818Z</time></trkpt><trkpt lat="38.1264017" lon="15.8356767"><ele>1430.0</ele><time>2026-04-25T09:15:29.817Z</time></trkpt><trkpt lat="38.1264933" lon="15.8357417"><ele>1430.0</ele><time>2026-04-25T09:15:30.818Z</time></trkpt><trkpt lat="38.1265867" lon="15.8358117"><ele>1430.0</ele><time>2026-04-25T09:15:31.818Z</time></trkpt><trkpt lat="38.126685" lon="15.835885"><ele>1430.6</ele><time>2026-04-25T09:15:32.818Z</time></trkpt><trkpt lat="38.1267467" lon="15.836"><ele>1431.2</ele><time>2026-04-25T09:15:33.818Z</time></trkpt><trkpt lat="38.1268583" lon="15.8360767"><ele>1431.8000000000002</ele><time>2026-04-25T09:15:34.818Z</time></trkpt><trkpt lat="38.1269517" lon="15.8361067"><ele>1432.4</ele><time>2026-04-25T09:15:35.818Z</time></trkpt><trkpt lat="38.12703" lon="15.83616"><ele>1433.0</ele><time>2026-04-25T09:15:36.817Z</time></trkpt><trkpt lat="38.1271683" lon="15.8362117"><ele>1424.3333333333335</ele><time>2026-04-25T09:15:37.818Z</time></trkpt><trkpt lat="38.1273967" lon="15.8362183"><ele>1415.6666666666667</ele><time>2026-04-25T09:15:38.818Z</time></trkpt><trkpt lat="38.127465" lon="15.836315"><ele>1407.0</ele><time>2026-04-25T09:15:39.817Z</time></trkpt><trkpt lat="38.1276017" lon="15.8363683"><ele>1407.0</ele><time>2026-04-25T09:15:40.818Z</time></trkpt><trkpt lat="38.127725" lon="15.8364367"><ele>1407.0</ele><time>2026-04-25T09:15:41.818Z</time></trkpt><trkpt lat="38.127825" lon="15.8364767"><ele>1407.0</ele><time>2026-04-25T09:15:42.818Z</time></trkpt><trkpt lat="38.127925" lon="15.836485"><ele>1407.0</ele><time>2026-04-25T09:15:43.818Z</time></trkpt><trkpt lat="38.1280133" lon="15.836495"><ele>1407.0</ele><time>2026-04-25T09:15:44.818Z</time></trkpt><trkpt lat="38.128105" lon="15.83653"><ele>1407.0</ele><time>2026-04-25T09:15:45.817Z</time></trkpt><trkpt lat="38.128205" lon="15.8365817"><ele>1407.0</ele><time>2026-04-25T09:15:46.817Z</time></trkpt><trkpt lat="38.1283067" lon="15.8366383"><ele>1407.0</ele><time>2026-04-25T09:15:47.817Z</time></trkpt><trkpt lat="38.128405" lon="15.8366967"><ele>1407.0</ele><time>2026-04-25T09:15:48.817Z</time></trkpt><trkpt lat="38.1284817" lon="15.836755"><ele>1407.0</ele><time>2026-04-25T09:15:49.818Z</time></trkpt><trkpt lat="38.128565" lon="15.8368333"><ele>1406.8</ele><time>2026-04-25T09:15:50.818Z</time></trkpt><trkpt lat="38.1286583" lon="15.8369017"><ele>1406.6</ele><time>2026-04-25T09:15:51.817Z</time></trkpt><trkpt lat="38.1287533" lon="15.8369733"><ele>1406.3999999999999</ele><time>2026-04-25T09:15:52.818Z</time></trkpt><trkpt lat="38.128845" lon="15.8370367"><ele>1406.1999999999998</ele><time>2026-04-25T09:15:53.817Z</time></trkpt><trkpt lat="38.1289283" lon="15.8370767"><ele>1406.0</ele><time>2026-04-25T09:15:54.818Z</time></trkpt><trkpt lat="38.1290267" lon="15.8371817"><ele>1436.0</ele><time>2026-04-25T09:15:55.818Z</time></trkpt><trkpt lat="38.1251233" lon="15.8351683"><ele>1436.0</ele><time>2026-04-25T09:15:14.816Z</time></trkpt><trkpt lat="38.125195" lon="15.83515"><ele>1436.0</ele><time>2026-04-25T09:15:15.817Z</time></trkpt><trkpt lat="38.1252817" lon="15.8351683"><ele>1436.0</ele><time>2026-04-25T09:15:16.817Z</time></trkpt><trkpt lat="38.1253683" lon="15.835205"><ele>1436.0</ele><time>2026-04-25T09:15:17.817Z</time></trkpt><trkpt lat="38.1254633" lon="15.8352417"><ele>1436.0</ele><time>2026-04-25T09:15:18.816Z</time></trkpt><trkpt lat="38.1255517" lon="15.83528"><ele>1436.0</ele><time>2026-04-25T09:15:19.817Z</time></trkpt><trkpt lat="38.125685" lon="15.83532"><ele>1434.5</ele><time>2026-04-25T09:15:20.817Z</time></trkpt><trkpt lat="38.1257533" lon="15.835385"><ele>1433.0</ele><time>2026-04-25T09:15:21.816Z</time></trkpt><trkpt lat="38.1259867" lon="15.8354233"><ele>1431.5</ele><time>2026-04-25T09:15:24.817Z</time></trkpt><trkpt lat="38.12607" lon="15.8354567"><ele>1430.0</ele><time>2026-04-25T09:15:25.818Z</time></trkpt><trkpt lat="38.1261417" lon="15.83547"><ele>1430.0</ele><time>2026-04-25T09:15:26.818Z</time></trkpt><trkpt lat="38.1262217" lon="15.8355367"><ele>1430.0</ele><time>2026-04-25T09:15:27.818Z</time></trkpt><trkpt lat="38.1263133" lon="15.8356167"><ele>1430.0</ele><time>2026-04-25T09:15:28.818Z</time></trkpt><trkpt lat="38.1264017" lon="15.8356767"><ele>1430.0</ele><time>2026-04-25T09:15:29.817Z</time></trkpt><trkpt lat="38.1264933" lon="15.8357417"><ele>1430.0</ele><time>2026-04-25T09:15:30.818Z</time></trkpt><trkpt lat="38.1265867" lon="15.8358117"><ele>1430.6</ele><time>2026-04-25T09:15:31.818Z</time></trkpt><trkpt lat="38.126685" lon="15.835885"><ele>1431.2</ele><time>2026-04-25T09:15:32.818Z</time></trkpt><trkpt lat="38.1267467" lon="15.836"><ele>1431.8000000000002</ele><time>2026-04-25T09:15:33.818Z</time></trkpt><trkpt lat="38.1268583" lon="15.8360767"><ele>1432.4</ele><time>2026-04-25T09:15:34.818Z</time></trkpt><trkpt lat="38.1269517" lon="15.8361067"><ele>1433.0</ele><time>2026-04-25T09:15:35.818Z</time></trkpt><trkpt lat="38.12703" lon="15.83616"><ele>1433.0</ele><time>2026-04-25T09:15:36.817Z</time></trkpt><trkpt lat="38.1271683" lon="15.8362117"><ele>1433.0</ele><time>2026-04-25T09:15:37.818Z</time></trkpt><trkpt lat="38.1273967" lon="15.8362183"><ele>1433.0</ele><time>2026-04-25T09:15:38.818Z</time></trkpt><trkpt lat="38.127465" lon="15.836315"><ele>1426.5</ele><time>2026-04-25T09:15:39.817Z</time></trkpt><trkpt lat="38.1276017" lon="15.8363683"><ele>1420.0</ele><time>2026-04-25T09:15:40.818Z</time></trkpt><trkpt lat="38.127725" lon="15.8364367"><ele>1413.5</ele><time>2026-04-25T09:15:41.818Z</time></trkpt><trkpt lat="38.127825" lon="15.8364767"><ele>1407.0</ele><time>2026-04-25T09:15:42.818Z</time></trkpt><trkpt lat="38.127925" lon="15.836485"><ele>1407.0</ele><time>2026-04-25T09:15:43.818Z</time></trkpt><trkpt lat="38.1280133" lon="15.836495"><ele>1407.0</ele><time>2026-04-25T09:15:44.818Z</time></trkpt><trkpt lat="38.128105" lon="15.83653"><ele>1407.0</ele><time>2026-04-25T09:15:45.817Z</time></trkpt><trkpt lat="38.128205" lon="15.8365817"><ele>1407.0</ele><time>2026-04-25T09:15:46.817Z</time></trkpt><trkpt lat="38.1283067" lon="15.8366383"><ele>1407.0</ele><time>2026-04-25T09:15:47.817Z</time></trkpt><trkpt lat="38.128405" lon="15.8366967"><ele>1406.8</ele><time>2026-04-25T09:15:48.817Z</time></trkpt><trkpt lat="38.1284817" lon="15.836755"><ele>1406.6</ele><time>2026-04-25T09:15:49.818Z</time></trkpt><trkpt lat="38.128565" lon="15.8368333"><ele>1406.3999999999999</ele><time>2026-04-25T09:15:50.818Z</time></trkpt><trkpt lat="38.1286583" lon="15.8369017"><ele>1406.1999999999998</ele><time>2026-04-25T09:15:51.817Z</time></trkpt><trkpt lat="38.1287533" lon="15.8369733"><ele>1406.0</ele><time>2026-04-25T09:15:52.818Z</time></trkpt><trkpt lat="38.128845" lon="15.8370367"><ele>1406.0</ele><time>2026-04-25T09:15:53.817Z</time></trkpt><trkpt lat="38.1289283" lon="15.8370767"><ele>1406.0</ele><time>2026-04-25T09:15:54.818Z</time></trkpt><trkpt lat="38.1290267" lon="15.8371817"><ele>1406.0</ele><time>2026-04-25T09:15:55.818Z</time></trkpt><trkpt lat="38.1291283" lon="15.8373067"><ele>1406.0</ele><time>2026-04-25T09:15:56.818Z</time></trkpt><trkpt lat="38.1292283" lon="15.8373967"><ele>1399.0</ele><time>2026-04-25T09:15:57.818Z</time></trkpt><trkpt lat="38.12931" lon="15.837465"><ele>1392.0</ele><time>2026-04-25T09:15:58.818Z</time></trkpt><trkpt lat="38.1294517" lon="15.837495"><ele>1385.0</ele><time>2026-04-25T09:15:59.818Z</time></trkpt><trkpt lat="38.129545" lon="15.8375667"><ele>1378.0</ele><time>2026-04-25T09:16:00.817Z</time></trkpt><trkpt lat="38.1296567" lon="15.837615"><ele>1381.0</ele><time>2026-04-25T09:16:01.818Z</time></trkpt><trkpt lat="38.129755" lon="15.8376667"><ele>1384.0</ele><time>2026-04-25T09:16:02.818Z</time></trkpt><trkpt lat="38.1298567" lon="15.8377133"><ele>1387.0</ele><time>2026-04-25T09:16:03.818Z</time></trkpt><trkpt lat="38.13028" lon="15.8370967"><ele>1387.0</ele><time>2026-04-25T09:16:08.817Z</time></trkpt><trkpt lat="38.13041" lon="15.8370633"><ele>1387.0</ele><time>2026-04-25T09:16:09.817Z</time></trkpt><trkpt lat="38.1305467" lon="15.8368933"><ele>1387.0</ele><time>2026-04-25T09:16:10.817Z</time></trkpt><trkpt lat="38.1306517" lon="15.8367883"><ele>1390.75</ele><time>2026-04-25T09:16:11.817Z</time></trkpt><trkpt lat="38.1307417" lon="15.8367317"><ele>1394.5</ele><time>2026-04-25T09:16:12.816Z</time></trkpt><trkpt lat="38.1307983" lon="15.8366083"><ele>1398.25</ele><time>2026-04-25T09:16:13.817Z</time></trkpt><trkpt lat="38.1308917" lon="15.8364983"><ele>1402.0</ele><time>2026-04-25T09:16:14.816Z</time></trkpt><trkpt lat="38.1309417" lon="15.8363317"><ele>1402.0</ele><time>2026-04-25T09:16:15.817Z</time></trkpt><trkpt lat="38.1310217" lon="15.836215"><ele>1402.0</ele><time>2026-04-25T09:16:16.816Z</time></trkpt><trkpt lat="38.1311017" lon="15.836135"><ele>1402.0</ele><time>2026-04-25T09:16:17.817Z</time></trkpt><trkpt lat="38.13119" lon="15.8360783"><ele>1402.0</ele><time>2026-04-25T09:16:18.817Z</time></trkpt><trkpt lat="38.13126" lon="15.8360233"><ele>1402.0</ele><time>2026-04-25T09:16:19.817Z</time></trkpt><trkpt lat="38.1313367" lon="15.83593"><ele>1397.0</ele><time>2026-04-25T09:16:20.816Z</time></trkpt><trkpt lat="38.13145" lon="15.8359067"><ele>1392.0</ele><time>2026-04-25T09:16:21.817Z</time></trkpt><trkpt lat="38.1315333" lon="15.835855"><ele>1387.0</ele><time>2026-04-25T09:16:22.817Z</time></trkpt><trkpt lat="38.1316317" lon="15.8358117"><ele>1382.0</ele><time>2026-04-25T09:16:23.816Z</time></trkpt><trkpt lat="38.1318383" lon="15.83575"><ele>1382.0</ele><time>2026-04-25T09:16:25.816Z</time></trkpt><trkpt lat="38.13193" lon="15.8357317"><ele>1382.0</ele><time>2026-04-25T09:16:26.816Z</time></trkpt><trkpt lat="38.132005" lon="15.835605"><ele>1382.0</ele><time>2026-04-25T09:16:27.816Z</time></trkpt><trkpt lat="38.13207" lon="15.83548"><ele>1382.0</ele><time>2026-04-25T09:16:28.816Z</time></trkpt><trkpt lat="38.1321333" lon="15.8354167"><ele>1382.0</ele><time>2026-04-25T09:16:29.816Z</time></trkpt><trkpt lat="38.1321917" lon="15.8353283"><ele>1382.0</ele><time>2026-04-25T09:16:30.816Z</time></trkpt><trkpt lat="38.1323083" lon="15.83529"><ele>1382.0</ele><time>2026-04-25T09:16:31.816Z</time></trkpt><trkpt lat="38.1324267" lon="15.83527"><ele>1382.0</ele><time>2026-04-25T09:16:32.816Z</time></trkpt><trkpt lat="38.13251" lon="15.8352"><ele>1382.0</ele><time>2026-04-25T09:16:33.816Z</time></trkpt><trkpt lat="38.132615" lon="15.8351317"><ele>1379.6</ele><time>2026-04-25T09:16:34.816Z</time></trkpt><trkpt lat="38.1327283" lon="15.8350633"><ele>1377.1999999999998</ele><time>2026-04-25T09:16:35.816Z</time></trkpt><trkpt lat="38.1328433" lon="15.8350567"><ele>1374.8</ele><time>2026-04-25T09:16:36.815Z</time></trkpt><trkpt lat="38.1329233" lon="15.8349767"><ele>1372.4</ele><time>2026-04-25T09:16:37.815Z</time></trkpt><trkpt lat="38.133" lon="15.83491"><ele>1370.0</ele><time>2026-04-25T09:16:38.816Z</time></trkpt><trkpt lat="38.1330617" lon="15.83484"><ele>1370.0</ele><time>2026-04-25T09:16:39.816Z</time></trkpt><trkpt lat="38.1331367" lon="15.8348"><ele>1370.0</ele><time>2026-04-25T09:16:40.816Z</time></trkpt><trkpt lat="38.133225" lon="15.83474"><ele>1370.0</ele><time>2026-04-25T09:16:41.816Z</time></trkpt><trkpt lat="38.1333167" lon="15.8346933"><ele>1370.0</ele><time>2026-04-25T09:16:42.815Z</time></trkpt><trkpt lat="38.1335333" lon="15.8346517"><ele>1379.0</ele><time>2026-04-25T09:16:44.817Z</time></trkpt><trkpt lat="38.136635" lon="15.8357683"><ele>1379.0</ele><time>2026-04-25T09:17:36.816Z</time></trkpt><trkpt lat="38.1366267" lon="15.835405"><ele>1379.0</ele><time>2026-04-25T09:17:37.816Z</time></trkpt><trkpt lat="38.1367367" lon="15.83533"><ele>1379.0</ele><time>2026-04-25T09:17:38.815Z</time></trkpt><trkpt lat="38.13689" lon="15.8353633"><ele>1379.0</ele><time>2026-04-25T09:17:39.815Z</time></trkpt><trkpt lat="38.1370433" lon="15.8354"><ele>1379.0</ele><time>2026-04-25T09:17:40.816Z</time></trkpt><trkpt lat="38.137145" lon="15.835385"><ele>1379.0</ele><time>2026-04-25T09:17:41.816Z</time></trkpt><trkpt lat="38.13724" lon="15.8353667"><ele>1379.0</ele><time>2026-04-25T09:17:42.816Z</time></trkpt><trkpt lat="38.1373383" lon="15.8353583"><ele>1381.6</ele><time>2026-04-25T09:17:43.815Z</time></trkpt><trkpt lat="38.13744" lon="15.8353417"><ele>1384.2</ele><time>2026-04-25T09:17:44.816Z</time></trkpt><trkpt lat="38.1375383" lon="15.83533"><ele>1386.8</ele><time>2026-04-25T09:17:45.815Z</time></trkpt><trkpt lat="38.1376617" lon="15.8353433"><ele>1389.3999999999999</ele><time>2026-04-25T09:17:46.816Z</time></trkpt><trkpt lat="38.13777" lon="15.83533"><ele>1392.0</ele><time>2026-04-25T09:17:47.816Z</time></trkpt><trkpt lat="38.137895" lon="15.835315"><ele>1391.0</ele><time>2026-04-25T09:17:48.815Z</time></trkpt><trkpt lat="38.1382633" lon="15.8353783"><ele>1390.0</ele><time>2026-04-25T09:17:52.817Z</time></trkpt><trkpt lat="38.1389333" lon="15.83511"><ele>1380.0</ele><time>2026-04-25T09:17:59.817Z</time></trkpt><trkpt lat="38.1388417" lon="15.8345483"><ele>1380.0</ele><time>2026-04-25T09:18:00.817Z</time></trkpt><trkpt lat="38.1389133" lon="15.834365"><ele>1380.0</ele><time>2026-04-25T09:18:02.817Z</time></trkpt><trkpt lat="38.138845" lon="15.8342617"><ele>1380.0</ele><time>2026-04-25T09:18:03.817Z</time></trkpt><trkpt lat="38.1388317" lon="15.8340083"><ele>1378.75</ele><time>2026-04-25T09:18:04.817Z</time></trkpt><trkpt lat="38.138775" lon="15.8339683"><ele>1377.5</ele><time>2026-04-25T09:18:05.817Z</time></trkpt><trkpt lat="38.138935" lon="15.834025"><ele>1376.25</ele><time>2026-04-25T09:18:08.816Z</time></trkpt><trkpt lat="38.139075" lon="15.8340917"><ele>1375.0</ele><time>2026-04-25T09:18:09.817Z</time></trkpt><trkpt lat="38.1391933" lon="15.8341017"><ele>1375.0</ele><time>2026-04-25T09:18:10.816Z</time></trkpt><trkpt lat="38.1393017" lon="15.8341083"><ele>1375.0</ele><time>2026-04-25T09:18:11.817Z</time></trkpt><trkpt lat="38.1394017" lon="15.83409"><ele>1375.0</ele><time>2026-04-25T09:18:12.817Z</time></trkpt><trkpt lat="38.1395267" lon="15.83401"><ele>1375.0</ele><time>2026-04-25T09:18:13.816Z</time></trkpt><trkpt lat="38.1396333" lon="15.8339567"><ele>1375.0</ele><time>2026-04-25T09:18:14.817Z</time></trkpt><trkpt lat="38.139735" lon="15.8339333"><ele>1375.0</ele><time>2026-04-25T09:18:15.816Z</time></trkpt><trkpt lat="38.139845" lon="15.833915"><ele>1375.0</ele><time>2026-04-25T09:18:16.817Z</time></trkpt><trkpt lat="38.1399617" lon="15.83393"><ele>1375.0</ele><time>2026-04-25T09:18:17.817Z</time></trkpt><trkpt lat="38.140075" lon="15.8339583"><ele>1375.0</ele><time>2026-04-25T09:18:18.817Z</time></trkpt><trkpt lat="38.1401883" lon="15.8339767"><ele>1374.5</ele><time>2026-04-25T09:18:19.817Z</time></trkpt><trkpt lat="38.1402917" lon="15.8340417"><ele>1374.0</ele><time>2026-04-25T09:18:20.817Z</time></trkpt><trkpt lat="38.1403867" lon="15.8341233"><ele>1373.5</ele><time>2026-04-25T09:18:21.817Z</time></trkpt><trkpt lat="38.1404883" lon="15.8342417"><ele>1373.0</ele><time>2026-04-25T09:18:22.816Z</time></trkpt><trkpt lat="38.1406017" lon="15.83432"><ele>1373.4</ele><time>2026-04-25T09:18:23.817Z</time></trkpt><trkpt lat="38.1407083" lon="15.83436"><ele>1373.8000000000002</ele><time>2026-04-25T09:18:24.817Z</time></trkpt><trkpt lat="38.14082" lon="15.834395"><ele>1374.2</ele><time>2026-04-25T09:18:25.817Z</time></trkpt><trkpt lat="38.1409067" lon="15.83445"><ele>1374.6</ele><time>2026-04-25T09:18:26.817Z</time></trkpt><trkpt lat="38.1409717" lon="15.8345033"><ele>1375.0</ele><time>2026-04-25T09:18:27.816Z</time></trkpt><trkpt lat="38.141025" lon="15.8345733"><ele>1375.0</ele><time>2026-04-25T09:18:28.817Z</time></trkpt><trkpt lat="38.1410983" lon="15.8346283"><ele>1375.0</ele><time>2026-04-25T09:18:29.817Z</time></trkpt><trkpt lat="38.1412183" lon="15.834645"><ele>1375.0</ele><time>2026-04-25T09:18:30.817Z</time></trkpt><trkpt lat="38.141345" lon="15.8346533"><ele>1375.0</ele><time>2026-04-25T09:18:31.816Z</time></trkpt><trkpt lat="38.1414517" lon="15.8345917"><ele>1375.0</ele><time>2026-04-25T09:18:32.817Z</time></trkpt><trkpt lat="38.141535" lon="15.834515"><ele>1375.0</ele><time>2026-04-25T09:18:33.817Z</time></trkpt><trkpt lat="38.14164" lon="15.8344517"><ele>1375.0</ele><time>2026-04-25T09:18:34.817Z</time></trkpt><trkpt lat="38.141765" lon="15.8344517"><ele>1375.0</ele><time>2026-04-25T09:18:35.817Z</time></trkpt><trkpt lat="38.1418783" lon="15.8344567"><ele>1374.25</ele><time>2026-04-25T09:18:36.816Z</time></trkpt><trkpt lat="38.142" lon="15.8344517"><ele>1373.5</ele><time>2026-04-25T09:18:37.817Z</time></trkpt><trkpt lat="38.142115" lon="15.8344617"><ele>1372.75</ele><time>2026-04-25T09:18:38.817Z</time></trkpt><trkpt lat="38.1422167" lon="15.834465"><ele>1372.0</ele><time>2026-04-25T09:18:39.816Z</time></trkpt><trkpt lat="38.1423367" lon="15.8344967"><ele>1369.25</ele><time>2026-04-25T09:18:40.816Z</time></trkpt><trkpt lat="38.1424433" lon="15.83453"><ele>1366.5</ele><time>2026-04-25T09:18:41.816Z</time></trkpt><trkpt lat="38.142455" lon="15.8347033"><ele>1363.75</ele><time>2026-04-25T09:18:42.816Z</time></trkpt><trkpt lat="38.1425667" lon="15.83477"><ele>1361.0</ele><time>2026-04-25T09:18:44.817Z</time></trkpt><trkpt lat="38.1426583" lon="15.8348483"><ele>1361.0</ele><time>2026-04-25T09:18:45.817Z</time></trkpt><trkpt lat="38.1427417" lon="15.8349183"><ele>1361.0</ele><time>2026-04-25T09:18:46.816Z</time></trkpt><trkpt lat="38.1428433" lon="15.8349733"><ele>1361.0</ele><time>2026-04-25T09:18:47.817Z</time></trkpt><trkpt lat="38.1429267" lon="15.8350217"><ele>1361.0</ele><time>2026-04-25T09:18:48.817Z</time></trkpt><trkpt lat="38.1430183" lon="15.83508"><ele>1361.0</ele><time>2026-04-25T09:18:49.817Z</time></trkpt><trkpt lat="38.143125" lon="15.8351317"><ele>1365.1999999999998</ele><time>2026-04-25T09:18:50.817Z</time></trkpt><trkpt lat="38.1432383" lon="15.8351667"><ele>1369.3999999999999</ele><time>2026-04-25T09:18:51.817Z</time></trkpt><trkpt lat="38.1433583" lon="15.83521"><ele>1373.6</ele><time>2026-04-25T09:18:52.817Z</time></trkpt><trkpt lat="38.1434567" lon="15.8352483"><ele>1377.8</ele><time>2026-04-25T09:18:53.817Z</time></trkpt><trkpt lat="38.1435517" lon="15.835305"><ele>1382.0</ele><time>2026-04-25T09:18:54.816Z</time></trkpt><trkpt lat="38.1436933" lon="15.8353167"><ele>1382.0</ele><time>2026-04-25T09:18:55.817Z</time></trkpt><trkpt lat="38.1438367" lon="15.8353283"><ele>1382.0</ele><time>2026-04-25T09:18:56.817Z</time></trkpt><trkpt lat="38.14396" lon="15.8353667"><ele>1382.0</ele><time>2026-04-25T09:18:57.817Z</time></trkpt><trkpt lat="38.1440817" lon="15.83542"><ele>1382.0</ele><time>2026-04-25T09:18:58.817Z</time></trkpt><trkpt lat="38.144225" lon="15.8354483"><ele>1379.25</ele><time>2026-04-25T09:18:59.817Z</time></trkpt><trkpt lat="38.1443767" lon="15.8354783"><ele>1376.5</ele><time>2026-04-25T09:19:00.817Z</time></trkpt><trkpt lat="38.1445133" lon="15.8354767"><ele>1373.75</ele><time>2026-04-25T09:19:01.817Z</time></trkpt><trkpt lat="38.1446383" lon="15.8354733"><ele>1371.0</ele><time>2026-04-25T09:19:02.817Z</time></trkpt><trkpt lat="38.1447517" lon="15.8354683"><ele>1371.0</ele><time>2026-04-25T09:19:03.816Z</time></trkpt><trkpt lat="38.14486" lon="15.8355183"><ele>1371.0</ele><time>2026-04-25T09:19:04.817Z</time></trkpt><trkpt lat="38.144975" lon="15.8355617"><ele>1371.0</ele><time>2026-04-25T09:19:06.816Z</time></trkpt><trkpt lat="38.145035" lon="15.8356233"><ele>1371.0</ele><time>2026-04-25T09:19:07.816Z</time></trkpt><trkpt lat="38.145115" lon="15.835665"><ele>1371.0</ele><time>2026-04-25T09:19:08.816Z</time></trkpt><trkpt lat="38.1451983" lon="15.8356983"><ele>1367.5</ele><time>2026-04-25T09:19:09.817Z</time></trkpt><trkpt lat="38.1452833" lon="15.835715"><ele>1364.0</ele><time>2026-04-25T09:19:10.817Z</time></trkpt><trkpt lat="38.145365" lon="15.8356867"><ele>1360.5</ele><time>2026-04-25T09:19:11.817Z</time></trkpt><trkpt lat="38.14544" lon="15.83572"><ele>1357.0</ele><time>2026-04-25T09:19:15.816Z</time></trkpt><trkpt lat="38.1455267" lon="15.8356917"><ele>1353.5</ele><time>2026-04-25T09:19:17.817Z</time></trkpt><trkpt lat="38.1456017" lon="15.8356783"><ele>1350.0</ele><time>2026-04-25T09:19:19.817Z</time></trkpt><trkpt lat="38.145665" lon="15.8356533"><ele>1355.25</ele><time>2026-04-25T09:19:20.816Z</time></trkpt><trkpt lat="38.14573" lon="15.8356233"><ele>1360.5</ele><time>2026-04-25T09:19:21.816Z</time></trkpt><trkpt lat="38.1458133" lon="15.83558"><ele>1365.75</ele><time>2026-04-25T09:19:22.817Z</time></trkpt><trkpt lat="38.1459267" lon="15.8355333"><ele>1371.0</ele><time>2026-04-25T09:19:24.816Z</time></trkpt><trkpt lat="38.14611" lon="15.8351917"><ele>1366.5</ele><time>2026-04-25T09:19:26.817Z</time></trkpt><trkpt lat="38.1461783" lon="15.8350517"><ele>1362.0</ele><time>2026-04-25T09:19:27.817Z</time></trkpt><trkpt lat="38.14627" lon="15.8348967"><ele>1357.5</ele><time>2026-04-25T09:19:28.817Z</time></trkpt><trkpt lat="38.1463067" lon="15.8346967"><ele>1353.0</ele><time>2026-04-25T09:19:29.817Z</time></trkpt><trkpt lat="38.1463" lon="15.83431"><ele>1353.8333333333333</ele><time>2026-04-25T09:19:30.816Z</time></trkpt><trkpt lat="38.1463383" lon="15.8342017"><ele>1354.6666666666667</ele><time>2026-04-25T09:19:31.817Z</time></trkpt><trkpt lat="38.1464" lon="15.8341133"><ele>1355.5</ele><time>2026-04-25T09:19:32.817Z</time></trkpt><trkpt lat="38.1464633" lon="15.83404"><ele>1356.3333333333335</ele><time>2026-04-25T09:19:33.817Z</time></trkpt><trkpt lat="38.1465317" lon="15.8339717"><ele>1357.1666666666667</ele><time>2026-04-25T09:19:34.817Z</time></trkpt><trkpt lat="38.1466033" lon="15.8339033"><ele>1358.0</ele><time>2026-04-25T09:19:35.817Z</time></trkpt><trkpt lat="38.1466667" lon="15.8338183"><ele>1358.0</ele><time>2026-04-25T09:19:36.817Z</time></trkpt><trkpt lat="38.14673" lon="15.8337383"><ele>1358.0</ele><time>2026-04-25T09:19:37.817Z</time></trkpt><trkpt lat="38.1467883" lon="15.833675"><ele>1358.0</ele><time>2026-04-25T09:19:38.816Z</time></trkpt><trkpt lat="38.146835" lon="15.8336083"><ele>1358.0</ele><time>2026-04-25T09:19:39.816Z</time></trkpt><trkpt lat="38.1468767" lon="15.8335283"><ele>1358.0</ele><time>2026-04-25T09:19:40.817Z</time></trkpt><trkpt lat="38.146925" lon="15.8334383"><ele>1358.0</ele><time>2026-04-25T09:19:41.817Z</time></trkpt><trkpt lat="38.146995" lon="15.833285"><ele>1354.3333333333335</ele><time>2026-04-25T09:19:43.817Z</time></trkpt><trkpt lat="38.1470483" lon="15.8331967"><ele>1350.6666666666667</ele><time>2026-04-25T09:19:44.816Z</time></trkpt><trkpt lat="38.147095" lon="15.8331267"><ele>1347.0</ele><time>2026-04-25T09:19:45.817Z</time></trkpt><trkpt lat="38.1471383" lon="15.83305"><ele>1343.3333333333333</ele><time>2026-04-25T09:19:46.816Z</time></trkpt><trkpt lat="38.1471883" lon="15.8329683"><ele>1339.6666666666665</ele><time>2026-04-25T09:19:47.817Z</time></trkpt><trkpt lat="38.14724" lon="15.832885"><ele>1336.0</ele><time>2026-04-25T09:19:48.816Z</time></trkpt><trkpt lat="38.147295" lon="15.8327967"><ele>1336.0</ele><time>2026-04-25T09:19:49.816Z</time></trkpt><trkpt lat="38.147355" lon="15.8327067"><ele>1336.0</ele><time>2026-04-25T09:19:50.817Z</time></trkpt><trkpt lat="38.1474117" lon="15.8326467"><ele>1336.0</ele><time>2026-04-25T09:19:51.816Z</time></trkpt><trkpt lat="38.1474733" lon="15.832565"><ele>1336.0</ele><time>2026-04-25T09:19:52.816Z</time></trkpt><trkpt lat="38.1475583" lon="15.83251"><ele>1336.0</ele><time>2026-04-25T09:19:53.816Z</time></trkpt><trkpt lat="38.1476167" lon="15.83247"><ele>1336.0</ele><time>2026-04-25T09:19:54.817Z</time></trkpt><trkpt lat="38.1476683" lon="15.8324083"><ele>1339.8</ele><time>2026-04-25T09:19:55.817Z</time></trkpt><trkpt lat="38.1477517" lon="15.8323183"><ele>1343.6</ele><time>2026-04-25T09:19:56.817Z</time></trkpt><trkpt lat="38.1478267" lon="15.83232"><ele>1347.4</ele><time>2026-04-25T09:19:57.817Z</time></trkpt><trkpt lat="38.1479217" lon="15.8322867"><ele>1351.2</ele><time>2026-04-25T09:19:58.816Z</time></trkpt><trkpt lat="38.1480133" lon="15.8322417"><ele>1355.0</ele><time>2026-04-25T09:19:59.817Z</time></trkpt><trkpt lat="38.1480867" lon="15.8321533"><ele>1355.0</ele><time>2026-04-25T09:20:00.816Z</time></trkpt><trkpt lat="38.1481617" lon="15.8321217"><ele>1355.0</ele><time>2026-04-25T09:20:01.817Z</time></trkpt><trkpt lat="38.1483183" lon="15.8319817"><ele>1355.0</ele><time>2026-04-25T09:20:02.817Z</time></trkpt><trkpt lat="38.1484583" lon="15.8317983"><ele>1353.0</ele><time>2026-04-25T09:20:03.816Z</time></trkpt><trkpt lat="38.14863" lon="15.8316517"><ele>1351.0</ele><time>2026-04-25T09:20:04.816Z</time></trkpt><trkpt lat="38.14875" lon="15.8315367"><ele>1349.0</ele><time>2026-04-25T09:20:05.817Z</time></trkpt><trkpt lat="38.148855" lon="15.8314983"><ele>1349.0</ele><time>2026-04-25T09:20:06.817Z</time></trkpt><trkpt lat="38.1489767" lon="15.8314783"><ele>1349.0</ele><time>2026-04-25T09:20:07.816Z</time></trkpt><trkpt lat="38.1491083" lon="15.8315917"><ele>1349.0</ele><time>2026-04-25T09:20:08.817Z</time></trkpt><trkpt lat="38.1492183" lon="15.8316683"><ele>1349.0</ele><time>2026-04-25T09:20:09.816Z</time></trkpt><trkpt lat="38.1492867" lon="15.8317283"><ele>1350.0</ele><time>2026-04-25T09:20:10.817Z</time></trkpt><trkpt lat="38.1493667" lon="15.831825"><ele>1351.0</ele><time>2026-04-25T09:20:11.816Z</time></trkpt><trkpt lat="38.1494733" lon="15.8319183"><ele>1352.0</ele><time>2026-04-25T09:20:12.817Z</time></trkpt><trkpt lat="38.149575" lon="15.83199"><ele>1353.0</ele><time>2026-04-25T09:20:13.816Z</time></trkpt><trkpt lat="38.14969" lon="15.8320433"><ele>1353.0</ele><time>2026-04-25T09:20:14.817Z</time></trkpt><trkpt lat="38.1497983" lon="15.832115"><ele>1353.0</ele><time>2026-04-25T09:20:15.817Z</time></trkpt><trkpt lat="38.1499317" lon="15.8321433"><ele>1353.0</ele><time>2026-04-25T09:20:16.817Z</time></trkpt><trkpt lat="38.1500417" lon="15.8321667"><ele>1353.0</ele><time>2026-04-25T09:20:17.817Z</time></trkpt><trkpt lat="38.15014" lon="15.832185"><ele>1353.2</ele><time>2026-04-25T09:20:18.817Z</time></trkpt><trkpt lat="38.150215" lon="15.83208"><ele>1353.4</ele><time>2026-04-25T09:20:19.817Z</time></trkpt><trkpt lat="38.1503183" lon="15.8320433"><ele>1353.6000000000001</ele><time>2026-04-25T09:20:20.817Z</time></trkpt><trkpt lat="38.1504133" lon="15.8319917"><ele>1353.8000000000002</ele><time>2026-04-25T09:20:21.817Z</time></trkpt><trkpt lat="38.1504833" lon="15.8319683"><ele>1354.0</ele><time>2026-04-25T09:20:22.817Z</time></trkpt><trkpt lat="38.150555" lon="15.8319533"><ele>1354.0</ele><time>2026-04-25T09:20:23.816Z</time></trkpt><trkpt lat="38.1505933" lon="15.8318717"><ele>1354.0</ele><time>2026-04-25T09:20:24.817Z</time></trkpt><trkpt lat="38.1506733" lon="15.8318417"><ele>1354.0</ele><time>2026-04-25T09:20:25.817Z</time></trkpt><trkpt lat="38.1507517" lon="15.83181"><ele>1354.0</ele><time>2026-04-25T09:20:26.817Z</time></trkpt><trkpt lat="38.1508367" lon="15.8318033"><ele>1354.0</ele><time>2026-04-25T09:20:27.817Z</time></trkpt><trkpt lat="38.1509167" lon="15.8317833"><ele>1354.0</ele><time>2026-04-25T09:20:28.817Z</time></trkpt><trkpt lat="38.1509967" lon="15.8317667"><ele>1353.2</ele><time>2026-04-25T09:20:29.817Z</time></trkpt><trkpt lat="38.15109" lon="15.8317317"><ele>1352.4</ele><time>2026-04-25T09:20:30.817Z</time></trkpt><trkpt lat="38.1511733" lon="15.8316933"><ele>1351.6</ele><time>2026-04-25T09:20:31.817Z</time></trkpt><trkpt lat="38.1512583" lon="15.83164"><ele>1350.8</ele><time>2026-04-25T09:20:32.817Z</time></trkpt><trkpt lat="38.15134" lon="15.8316117"><ele>1350.0</ele><time>2026-04-25T09:20:33.817Z</time></trkpt><trkpt lat="38.1519917" lon="15.8314933"><ele>1349.0</ele><time>2026-04-25T09:20:40.817Z</time></trkpt><trkpt lat="38.1531883" lon="15.83176"><ele>1349.6666666666667</ele><time>2026-04-25T09:20:49.815Z</time></trkpt><trkpt lat="38.1533717" lon="15.8318617"><ele>1350.3333333333333</ele><time>2026-04-25T09:20:50.816Z</time></trkpt><trkpt lat="38.15359" lon="15.8319967"><ele>1351.0</ele><time>2026-04-25T09:20:51.816Z</time></trkpt><trkpt lat="38.1537817" lon="15.832095"><ele>1352.0</ele><time>2026-04-25T09:20:52.816Z</time></trkpt><trkpt lat="38.1541433" lon="15.83236"><ele>1353.0</ele><time>2026-04-25T09:20:53.816Z</time></trkpt><trkpt lat="38.1543167" lon="15.8324533"><ele>1353.0</ele><time>2026-04-25T09:20:54.815Z</time></trkpt><trkpt lat="38.1544667" lon="15.83252"><ele>1353.0</ele><time>2026-04-25T09:20:55.816Z</time></trkpt><trkpt lat="38.1546067" lon="15.8325917"><ele>1353.0</ele><time>2026-04-25T09:20:56.815Z</time></trkpt><trkpt lat="38.154735" lon="15.8326433"><ele>1353.0</ele><time>2026-04-25T09:20:57.815Z</time></trkpt><trkpt lat="38.15486" lon="15.832695"><ele>1355.3333333333333</ele><time>2026-04-25T09:20:58.816Z</time></trkpt><trkpt lat="38.154985" lon="15.83274"><ele>1357.6666666666665</ele><time>2026-04-25T09:20:59.816Z</time></trkpt><trkpt lat="38.1551717" lon="15.8327483"><ele>1360.0</ele><time>2026-04-25T09:21:00.816Z</time></trkpt><trkpt lat="38.155325" lon="15.83277"><ele>1360.0</ele><time>2026-04-25T09:21:01.815Z</time></trkpt><trkpt lat="38.1554717" lon="15.8327983"><ele>1360.0</ele><time>2026-04-25T09:21:02.815Z</time></trkpt><trkpt lat="38.15562" lon="15.8328683"><ele>1360.0</ele><time>2026-04-25T09:21:03.816Z</time></trkpt><trkpt lat="38.155755" lon="15.8329417"><ele>1359.25</ele><time>2026-04-25T09:21:04.816Z</time></trkpt><trkpt lat="38.1558967" lon="15.8330117"><ele>1358.5</ele><time>2026-04-25T09:21:05.816Z</time></trkpt><trkpt lat="38.1560467" lon="15.833045"><ele>1357.75</ele><time>2026-04-25T09:21:06.816Z</time></trkpt><trkpt lat="38.1561667" lon="15.833105"><ele>1357.0</ele><time>2026-04-25T09:21:07.815Z</time></trkpt><trkpt lat="38.1562733" lon="15.8331567"><ele>1357.0</ele><time>2026-04-25T09:21:08.816Z</time></trkpt><trkpt lat="38.1563833" lon="15.83319"><ele>1357.0</ele><time>2026-04-25T09:21:09.816Z</time></trkpt><trkpt lat="38.15649" lon="15.833205"><ele>1357.0</ele><time>2026-04-25T09:21:10.816Z</time></trkpt><trkpt lat="38.1566083" lon="15.8332483"><ele>1357.0</ele><time>2026-04-25T09:21:11.815Z</time></trkpt><trkpt lat="38.1566817" lon="15.8332533"><ele>1357.0</ele><time>2026-04-25T09:21:12.816Z</time></trkpt><trkpt lat="38.1567933" lon="15.8332417"><ele>1356.8333333333333</ele><time>2026-04-25T09:21:13.816Z</time></trkpt><trkpt lat="38.1568867" lon="15.833235"><ele>1356.6666666666665</ele><time>2026-04-25T09:21:14.816Z</time></trkpt><trkpt lat="38.1569667" lon="15.8332383"><ele>1356.5</ele><time>2026-04-25T09:21:15.816Z</time></trkpt><trkpt lat="38.15705" lon="15.83325"><ele>1356.3333333333333</ele><time>2026-04-25T09:21:16.816Z</time></trkpt><trkpt lat="38.157155" lon="15.8333067"><ele>1356.1666666666667</ele><time>2026-04-25T09:21:18.815Z</time></trkpt><trkpt lat="38.15723" lon="15.8333183"><ele>1356.0</ele><time>2026-04-25T09:21:19.815Z</time></trkpt><trkpt lat="38.1573167" lon="15.8333233"><ele>1355.6</ele><time>2026-04-25T09:21:20.816Z</time></trkpt><trkpt lat="38.1574067" lon="15.833315"><ele>1355.1999999999998</ele><time>2026-04-25T09:21:21.816Z</time></trkpt><trkpt lat="38.1574983" lon="15.833305"><ele>1354.8000000000002</ele><time>2026-04-25T09:21:22.816Z</time></trkpt><trkpt lat="38.1576033" lon="15.8333017"><ele>1354.4</ele><time>2026-04-25T09:21:23.816Z</time></trkpt><trkpt lat="38.1577117" lon="15.8333133"><ele>1354.0</ele><time>2026-04-25T09:21:24.816Z</time></trkpt><trkpt lat="38.1578167" lon="15.8333317"><ele>1356.6666666666665</ele><time>2026-04-25T09:21:25.816Z</time></trkpt><trkpt lat="38.1579817" lon="15.833505"><ele>1359.3333333333333</ele><time>2026-04-25T09:21:26.816Z</time></trkpt><trkpt lat="38.158125" lon="15.8335933"><ele>1362.0</ele><time>2026-04-25T09:21:27.815Z</time></trkpt><trkpt lat="38.158255" lon="15.8336167"><ele>1362.0</ele><time>2026-04-25T09:21:28.816Z</time></trkpt><trkpt lat="38.1584017" lon="15.8336283"><ele>1362.0</ele><time>2026-04-25T09:21:29.815Z</time></trkpt><trkpt lat="38.158545" lon="15.83365"><ele>1362.0</ele><time>2026-04-25T09:21:30.816Z</time></trkpt><trkpt lat="38.1586783" lon="15.8336067"><ele>1362.0</ele><time>2026-04-25T09:21:31.816Z</time></trkpt><trkpt lat="38.1588233" lon="15.8336267"><ele>1362.0</ele><time>2026-04-25T09:21:32.815Z</time></trkpt><trkpt lat="38.1589733" lon="15.83364"><ele>1362.0</ele><time>2026-04-25T09:21:33.816Z</time></trkpt><trkpt lat="38.159125" lon="15.8336383"><ele>1362.0</ele><time>2026-04-25T09:21:34.815Z</time></trkpt><trkpt lat="38.15929" lon="15.8336267"><ele>1359.3333333333333</ele><time>2026-04-25T09:21:35.815Z</time></trkpt><trkpt lat="38.159445" lon="15.8336367"><ele>1356.6666666666665</ele><time>2026-04-25T09:21:36.816Z</time></trkpt><trkpt lat="38.159595" lon="15.8336483"><ele>1354.0</ele><time>2026-04-25T09:21:37.815Z</time></trkpt><trkpt lat="38.1597467" lon="15.8336483"><ele>1352.6666666666665</ele><time>2026-04-25T09:21:38.816Z</time></trkpt><trkpt lat="38.15991" lon="15.83364"><ele>1351.3333333333333</ele><time>2026-04-25T09:21:39.816Z</time></trkpt><trkpt lat="38.1600767" lon="15.8336133"><ele>1350.0</ele><time>2026-04-25T09:21:40.816Z</time></trkpt><trkpt lat="38.1602383" lon="15.8336083"><ele>1350.0</ele><time>2026-04-25T09:21:41.816Z</time></trkpt><trkpt lat="38.160395" lon="15.833615"><ele>1350.0</ele><time>2026-04-25T09:21:42.816Z</time></trkpt><trkpt lat="38.1605417" lon="15.8336333"><ele>1350.0</ele><time>2026-04-25T09:21:43.815Z</time></trkpt><trkpt lat="38.16069" lon="15.8336433"><ele>1349.75</ele><time>2026-04-25T09:21:44.815Z</time></trkpt><trkpt lat="38.1608383" lon="15.8336533"><ele>1349.5</ele><time>2026-04-25T09:21:45.815Z</time></trkpt><trkpt lat="38.1609833" lon="15.83367"><ele>1349.25</ele><time>2026-04-25T09:21:46.816Z</time></trkpt><trkpt lat="38.1611267" lon="15.8336883"><ele>1349.0</ele><time>2026-04-25T09:21:47.815Z</time></trkpt><trkpt lat="38.16272" lon="15.8365133"><ele>1346.0</ele><time>2026-04-25T09:22:22.817Z</time></trkpt><trkpt lat="38.1627067" lon="15.8363133"><ele>1343.0</ele><time>2026-04-25T09:22:23.817Z</time></trkpt><trkpt lat="38.162745" lon="15.8361967"><ele>1340.0</ele><time>2026-04-25T09:22:24.817Z</time></trkpt><trkpt lat="38.1628017" lon="15.8361"><ele>1337.0</ele><time>2026-04-25T09:22:25.816Z</time></trkpt><trkpt lat="38.16287" lon="15.836015"><ele>1334.0</ele><time>2026-04-25T09:22:26.817Z</time></trkpt><trkpt lat="38.1629383" lon="15.835935"><ele>1332.5</ele><time>2026-04-25T09:22:27.816Z</time></trkpt><trkpt lat="38.1630167" lon="15.8358533"><ele>1331.0</ele><time>2026-04-25T09:22:28.816Z</time></trkpt><trkpt lat="38.1630417" lon="15.835695"><ele>1329.5</ele><time>2026-04-25T09:22:29.817Z</time></trkpt><trkpt lat="38.163095" lon="15.8355683"><ele>1328.0</ele><time>2026-04-25T09:22:30.817Z</time></trkpt><trkpt lat="38.1631267" lon="15.835375"><ele>1328.0</ele><time>2026-04-25T09:22:31.817Z</time></trkpt><trkpt lat="38.163155" lon="15.835165"><ele>1328.0</ele><time>2026-04-25T09:22:32.817Z</time></trkpt><trkpt lat="38.163215" lon="15.8350283"><ele>1328.0</ele><time>2026-04-25T09:22:33.816Z</time></trkpt><trkpt lat="38.163215" lon="15.8350283"><ele>1328.0</ele><time>2026-04-25T09:22:33.816Z</time></trkpt><trkpt lat="38.163215" lon="15.8350283"><ele>1328.0</ele><time>2026-04-25T09:22:33.816Z</time></trkpt><trkpt lat="38.163215" lon="15.8350283"><ele>1328.0</ele><time>2026-04-25T09:22:33.816Z</time></trkpt><trkpt lat="38.163215" lon="15.8350283"><ele>1328.0</ele><time>2026-04-25T09:22:33.816Z</time></trkpt><trkpt lat="38.163215" lon="15.8350283"><ele>1328.0</ele><time>2026-04-25T09:22:33.816Z</time></trkpt><trkpt lat="38.163215" lon="15.8350283"><ele>1328.0</ele><time>2026-04-25T09:22:33.816Z</time></trkpt><trkpt lat="38.163215" lon="15.8350283"><ele>1328.0</ele><time>2026-04-25T09:22:33.816Z</time></trkpt><trkpt lat="38.163215" lon="15.8350283"><ele>1328.0</ele><time>2026-04-25T09:22:33.816Z</time></trkpt><trkpt lat="38.163215" lon="15.8350283"><ele>1328.0</ele><time>2026-04-25T09:22:33.816Z</time></trkpt><trkpt lat="38.163215" lon="15.8350283"><ele>1328.0</ele><time>2026-04-25T09:22:33.816Z</time></trkpt><trkpt lat="38.163215" lon="15.8350283"><ele>1328.0</ele><time>2026-04-25T09:22:33.816Z</time></trkpt><trkpt lat="38.163215" lon="15.8350283"><ele>1328.0</ele><time>2026-04-25T09:22:33.816Z</time></trkpt><trkpt lat="38.163215" lon="15.8350283"><ele>1328.0</ele><time>2026-04-25T09:22:33.816Z</time></trkpt><trkpt lat="38.163215" lon="15.8350283"><ele>1328.0</ele><time>2026-04-25T09:22:33.816Z</time></trkpt><trkpt lat="38.163215" lon="15.8350283"><ele>1328.0</ele><time>2026-04-25T09:22:33.816Z</time></trkpt><trkpt lat="38.163215" lon="15.8350283"><ele>1328.0</ele><time>2026-04-25T09:22:33.816Z</time></trkpt><trkpt lat="38.163215" lon="15.8350283"><ele>1328.0</ele><time>2026-04-25T09:22:33.816Z</time></trkpt><trkpt lat="38.163215" lon="15.8350283"><ele>1328.0</ele><time>2026-04-25T09:22:33.816Z</time></trkpt><trkpt lat="38.1652356" lon="15.8349227"><ele>1320.0</ele><time>2026-04-25T09:23:01.32Z</time></trkpt><trkpt lat="38.1671417" lon="15.835715"><ele>1320.25</ele><time>2026-04-25T09:23:24.818Z</time></trkpt><trkpt lat="38.167225" lon="15.8359733"><ele>1320.5</ele><time>2026-04-25T09:23:25.818Z</time></trkpt><trkpt lat="38.167285" lon="15.8360017"><ele>1320.75</ele><time>2026-04-25T09:23:27.818Z</time></trkpt><trkpt lat="38.1672433" lon="15.83612"><ele>1321.0</ele><time>2026-04-25T09:23:29.818Z</time></trkpt><trkpt lat="38.1671783" lon="15.8362667"><ele>1321.0</ele><time>2026-04-25T09:23:31.818Z</time></trkpt><trkpt lat="38.1671433" lon="15.83636"><ele>1321.0</ele><time>2026-04-25T09:23:33.818Z</time></trkpt><trkpt lat="38.1670817" lon="15.8364067"><ele>1321.0</ele><time>2026-04-25T09:23:36.817Z</time></trkpt><trkpt lat="38.167" lon="15.836415"><ele>1321.0</ele><time>2026-04-25T09:23:40.818Z</time></trkpt><trkpt lat="38.1669267" lon="15.836415"><ele>1321.0</ele><time>2026-04-25T09:23:42.818Z</time></trkpt><trkpt lat="38.1668367" lon="15.83646"><ele>1321.0</ele><time>2026-04-25T09:23:44.818Z</time></trkpt><trkpt lat="38.1667717" lon="15.836485"><ele>1321.0</ele><time>2026-04-25T09:23:45.817Z</time></trkpt><trkpt lat="38.1667033" lon="15.8365217"><ele>1321.0</ele><time>2026-04-25T09:23:46.818Z</time></trkpt><trkpt lat="38.166645" lon="15.8365667"><ele>1321.0</ele><time>2026-04-25T09:23:47.817Z</time></trkpt><trkpt lat="38.1665517" lon="15.8366433"><ele>1321.0</ele><time>2026-04-25T09:23:49.818Z</time></trkpt><trkpt lat="38.166465" lon="15.836735"><ele>1321.0</ele><time>2026-04-25T09:23:51.818Z</time></trkpt><trkpt lat="38.1663717" lon="15.8368267"><ele>1322.8</ele><time>2026-04-25T09:23:53.818Z</time></trkpt><trkpt lat="38.16634" lon="15.836915"><ele>1324.6</ele><time>2026-04-25T09:23:54.818Z</time></trkpt><trkpt lat="38.1662933" lon="15.8370267"><ele>1326.4</ele><time>2026-04-25T09:23:56.818Z</time></trkpt><trkpt lat="38.1662483" lon="15.8371633"><ele>1328.2</ele><time>2026-04-25T09:23:58.818Z</time></trkpt><trkpt lat="38.166175" lon="15.8372917"><ele>1330.0</ele><time>2026-04-25T09:24:00.818Z</time></trkpt><trkpt lat="38.1661283" lon="15.83738"><ele>1330.0</ele><time>2026-04-25T09:24:01.818Z</time></trkpt><trkpt lat="38.1661" lon="15.8375333"><ele>1330.0</ele><time>2026-04-25T09:24:02.818Z</time></trkpt><trkpt lat="38.166065" lon="15.837655"><ele>1330.0</ele><time>2026-04-25T09:24:03.818Z</time></trkpt><trkpt lat="38.16602" lon="15.8377467"><ele>1330.0</ele><time>2026-04-25T09:24:04.818Z</time></trkpt><trkpt lat="38.1659783" lon="15.837845"><ele>1330.0</ele><time>2026-04-25T09:24:05.817Z</time></trkpt><trkpt lat="38.1659" lon="15.83791"><ele>1331.6</ele><time>2026-04-25T09:24:06.818Z</time></trkpt><trkpt lat="38.16581" lon="15.837975"><ele>1333.2</ele><time>2026-04-25T09:24:07.818Z</time></trkpt><trkpt lat="38.16574" lon="15.83805"><ele>1334.8000000000002</ele><time>2026-04-25T09:24:08.818Z</time></trkpt><trkpt lat="38.16569" lon="15.8381483"><ele>1336.4</ele><time>2026-04-25T09:24:09.818Z</time></trkpt><trkpt lat="38.1656033" lon="15.8382017"><ele>1338.0</ele><time>2026-04-25T09:24:10.818Z</time></trkpt><trkpt lat="38.1655383" lon="15.83829"><ele>1339.4</ele><time>2026-04-25T09:24:11.818Z</time></trkpt><trkpt lat="38.16548" lon="15.83837"><ele>1340.8000000000002</ele><time>2026-04-25T09:24:12.817Z</time></trkpt><trkpt lat="38.1654333" lon="15.838465"><ele>1342.2</ele><time>2026-04-25T09:24:13.818Z</time></trkpt><trkpt lat="38.165365" lon="15.8385467"><ele>1343.6</ele><time>2026-04-25T09:24:14.818Z</time></trkpt><trkpt lat="38.1652267" lon="15.83851"><ele>1345.0</ele><time>2026-04-25T09:24:15.818Z</time></trkpt><trkpt lat="38.16517" lon="15.8386"><ele>1346.5</ele><time>2026-04-25T09:24:16.818Z</time></trkpt><trkpt lat="38.1651083" lon="15.83869"><ele>1348.0</ele><time>2026-04-25T09:24:17.818Z</time></trkpt><trkpt lat="38.16505" lon="15.8388067"><ele>1349.5</ele><time>2026-04-25T09:24:18.818Z</time></trkpt><trkpt lat="38.1649833" lon="15.8389467"><ele>1351.0</ele><time>2026-04-25T09:24:19.818Z</time></trkpt><trkpt lat="38.1649183" lon="15.8390833"><ele>1352.8</ele><time>2026-04-25T09:24:20.818Z</time></trkpt><trkpt lat="38.16486" lon="15.8391883"><ele>1354.6</ele><time>2026-04-25T09:24:21.818Z</time></trkpt><trkpt lat="38.16479" lon="15.8392917"><ele>1356.4</ele><time>2026-04-25T09:24:22.817Z</time></trkpt><trkpt lat="38.16472" lon="15.8393817"><ele>1358.2</ele><time>2026-04-25T09:24:23.818Z</time></trkpt><trkpt lat="38.164675" lon="15.8394933"><ele>1360.0</ele><time>2026-04-25T09:24:24.818Z</time></trkpt><trkpt lat="38.1646183" lon="15.8395833"><ele>1360.0</ele><time>2026-04-25T09:24:25.817Z</time></trkpt><trkpt lat="38.1645667" lon="15.83968"><ele>1360.0</ele><time>2026-04-25T09:24:26.818Z</time></trkpt><trkpt lat="38.1644967" lon="15.8398283"><ele>1360.0</ele><time>2026-04-25T09:24:28.818Z</time></trkpt><trkpt lat="38.16444" lon="15.83991"><ele>1360.0</ele><time>2026-04-25T09:24:29.818Z</time></trkpt><trkpt lat="38.1643783" lon="15.8399533"><ele>1360.0</ele><time>2026-04-25T09:24:30.818Z</time></trkpt><trkpt lat="38.1643317" lon="15.84001"><ele>1360.0</ele><time>2026-04-25T09:24:31.817Z</time></trkpt><trkpt lat="38.1642833" lon="15.8401"><ele>1361.6</ele><time>2026-04-25T09:24:32.818Z</time></trkpt><trkpt lat="38.1642233" lon="15.8402167"><ele>1363.2</ele><time>2026-04-25T09:24:33.818Z</time></trkpt><trkpt lat="38.1641517" lon="15.84034"><ele>1364.8000000000002</ele><time>2026-04-25T09:24:34.818Z</time></trkpt><trkpt lat="38.164085" lon="15.8404483"><ele>1366.4</ele><time>2026-04-25T09:24:35.818Z</time></trkpt><trkpt lat="38.1640183" lon="15.8405517"><ele>1368.0</ele><time>2026-04-25T09:24:36.818Z</time></trkpt><trkpt lat="38.1639517" lon="15.8406583"><ele>1369.4</ele><time>2026-04-25T09:24:37.818Z</time></trkpt><trkpt lat="38.163895" lon="15.840755"><ele>1370.8000000000002</ele><time>2026-04-25T09:24:38.818Z</time></trkpt><trkpt lat="38.1638283" lon="15.840855"><ele>1372.2</ele><time>2026-04-25T09:24:39.818Z</time></trkpt><trkpt lat="38.1637667" lon="15.8409617"><ele>1373.6</ele><time>2026-04-25T09:24:40.817Z</time></trkpt><trkpt lat="38.1637133" lon="15.841065"><ele>1375.0</ele><time>2026-04-25T09:24:41.817Z</time></trkpt><trkpt lat="38.1636667" lon="15.84116"><ele>1377.6666666666665</ele><time>2026-04-25T09:24:42.818Z</time></trkpt><trkpt lat="38.1636133" lon="15.8412533"><ele>1380.3333333333333</ele><time>2026-04-25T09:24:43.818Z</time></trkpt><trkpt lat="38.1635517" lon="15.841365"><ele>1383.0</ele><time>2026-04-25T09:24:45.817Z</time></trkpt><trkpt lat="38.1635183" lon="15.8414383"><ele>1385.6666666666667</ele><time>2026-04-25T09:24:47.818Z</time></trkpt><trkpt lat="38.163595" lon="15.8414283"><ele>1388.3333333333335</ele><time>2026-04-25T09:24:51.818Z</time></trkpt><trkpt lat="38.1636217" lon="15.8413483"><ele>1391.0</ele><time>2026-04-25T09:24:53.818Z</time></trkpt><trkpt lat="38.1636667" lon="15.8412767"><ele>1391.0</ele><time>2026-04-25T09:24:54.818Z</time></trkpt><trkpt lat="38.1637167" lon="15.8412"><ele>1391.0</ele><time>2026-04-25T09:24:55.818Z</time></trkpt><trkpt lat="38.163755" lon="15.841115"><ele>1391.0</ele><time>2026-04-25T09:24:56.818Z</time></trkpt><trkpt lat="38.1637917" lon="15.841035"><ele>1391.0</ele><time>2026-04-25T09:24:57.817Z</time></trkpt><trkpt lat="38.1638433" lon="15.8408883"><ele>1391.0</ele><time>2026-04-25T09:24:58.818Z</time></trkpt><trkpt lat="38.1639033" lon="15.8408033"><ele>1391.0</ele><time>2026-04-25T09:24:59.818Z</time></trkpt><trkpt lat="38.163955" lon="15.8407033"><ele>1387.8</ele><time>2026-04-25T09:25:00.817Z</time></trkpt><trkpt lat="38.163995" lon="15.8406217"><ele>1384.6</ele><time>2026-04-25T09:25:01.818Z</time></trkpt><trkpt lat="38.1640267" lon="15.840485"><ele>1381.4</ele><time>2026-04-25T09:25:02.818Z</time></trkpt><trkpt lat="38.16406" lon="15.840365"><ele>1378.2</ele><time>2026-04-25T09:25:03.818Z</time></trkpt><trkpt lat="38.1640967" lon="15.8402633"><ele>1375.0</ele><time>2026-04-25T09:25:04.818Z</time></trkpt><trkpt lat="38.1641367" lon="15.8401833"><ele>1373.6</ele><time>2026-04-25T09:25:05.818Z</time></trkpt><trkpt lat="38.1642617" lon="15.8401433"><ele>1372.2</ele><time>2026-04-25T09:25:07.818Z</time></trkpt><trkpt lat="38.1643617" lon="15.8401517"><ele>1370.8000000000002</ele><time>2026-04-25T09:25:08.818Z</time></trkpt><trkpt lat="38.1644383" lon="15.8401433"><ele>1369.4</ele><time>2026-04-25T09:25:09.818Z</time></trkpt><trkpt lat="38.164535" lon="15.840075"><ele>1368.0</ele><time>2026-04-25T09:25:11.818Z</time></trkpt><trkpt lat="38.1646467" lon="15.8400433"><ele>1366.6666666666667</ele><time>2026-04-25T09:25:13.818Z</time></trkpt><trkpt lat="38.164705" lon="15.8399933"><ele>1365.3333333333333</ele><time>2026-04-25T09:25:15.818Z</time></trkpt><trkpt lat="38.1647533" lon="15.8399317"><ele>1364.0</ele><time>2026-04-25T09:25:17.818Z</time></trkpt><trkpt lat="38.1647983" lon="15.83986"><ele>1362.6666666666665</ele><time>2026-04-25T09:25:19.817Z</time></trkpt><trkpt lat="38.1648467" lon="15.8397817"><ele>1361.3333333333333</ele><time>2026-04-25T09:25:21.817Z</time></trkpt><trkpt lat="38.1648767" lon="15.8396217"><ele>1360.0</ele><time>2026-04-25T09:25:23.818Z</time></trkpt><trkpt lat="38.1649233" lon="15.83949"><ele>1359.8</ele><time>2026-04-25T09:25:25.817Z</time></trkpt><trkpt lat="38.1650067" lon="15.8393833"><ele>1359.6</ele><time>2026-04-25T09:25:27.818Z</time></trkpt><trkpt lat="38.1650867" lon="15.8393417"><ele>1359.4</ele><time>2026-04-25T09:25:28.818Z</time></trkpt><trkpt lat="38.1651583" lon="15.8392233"><ele>1359.2</ele><time>2026-04-25T09:25:30.817Z</time></trkpt><trkpt lat="38.1652283" lon="15.83912"><ele>1359.0</ele><time>2026-04-25T09:25:32.818Z</time></trkpt><trkpt lat="38.1652983" lon="15.8390267"><ele>1357.4</ele><time>2026-04-25T09:25:34.818Z</time></trkpt><trkpt lat="38.1653933" lon="15.8389633"><ele>1355.8000000000002</ele><time>2026-04-25T09:25:36.818Z</time></trkpt><trkpt lat="38.1654883" lon="15.83893"><ele>1354.1999999999998</ele><time>2026-04-25T09:25:38.818Z</time></trkpt><trkpt lat="38.1655617" lon="15.83897"><ele>1352.6</ele><time>2026-04-25T09:25:39.818Z</time></trkpt><trkpt lat="38.165665" lon="15.83905"><ele>1351.0</ele><time>2026-04-25T09:25:41.817Z</time></trkpt><trkpt lat="38.1657367" lon="15.8390583"><ele>1350.1999999999998</ele><time>2026-04-25T09:25:44.817Z</time></trkpt><trkpt lat="38.1658017" lon="15.8389667"><ele>1349.3999999999999</ele><time>2026-04-25T09:25:47.818Z</time></trkpt><trkpt lat="38.1658367" lon="15.8388633"><ele>1348.6</ele><time>2026-04-25T09:25:49.817Z</time></trkpt><trkpt lat="38.1658833" lon="15.83873"><ele>1347.8</ele><time>2026-04-25T09:25:51.818Z</time></trkpt><trkpt lat="38.1658867" lon="15.8386283"><ele>1347.0</ele><time>2026-04-25T09:25:53.818Z</time></trkpt><trkpt lat="38.1659267" lon="15.838535"><ele>1345.5</ele><time>2026-04-25T09:25:55.818Z</time></trkpt><trkpt lat="38.1659667" lon="15.8384367"><ele>1344.0</ele><time>2026-04-25T09:25:57.818Z</time></trkpt><trkpt lat="38.1660083" lon="15.8383633"><ele>1342.5</ele><time>2026-04-25T09:25:59.818Z</time></trkpt><trkpt lat="38.1660517" lon="15.8382667"><ele>1341.0</ele><time>2026-04-25T09:26:02.818Z</time></trkpt><trkpt lat="38.16599" lon="15.838315"><ele>1339.5</ele><time>2026-04-25T09:26:08.818Z</time></trkpt><trkpt lat="38.16595" lon="15.83838"><ele>1338.0</ele><time>2026-04-25T09:26:09.818Z</time></trkpt><trkpt lat="38.1659133" lon="15.8384583"><ele>1339.8000000000002</ele><time>2026-04-25T09:26:10.817Z</time></trkpt><trkpt lat="38.1658733" lon="15.838565"><ele>1341.6</ele><time>2026-04-25T09:26:11.818Z</time></trkpt><trkpt lat="38.1658417" lon="15.8386967"><ele>1343.4</ele><time>2026-04-25T09:26:12.818Z</time></trkpt><trkpt lat="38.16578" lon="15.83881"><ele>1345.1999999999998</ele><time>2026-04-25T09:26:13.818Z</time></trkpt><trkpt lat="38.1657283" lon="15.8389333"><ele>1347.0</ele><time>2026-04-25T09:26:14.818Z</time></trkpt><trkpt lat="38.1656367" lon="15.83906"><ele>1348.0</ele><time>2026-04-25T09:26:15.818Z</time></trkpt><trkpt lat="38.16557" lon="15.8392067"><ele>1349.0</ele><time>2026-04-25T09:26:16.817Z</time></trkpt><trkpt lat="38.165475" lon="15.8393183"><ele>1350.0</ele><time>2026-04-25T09:26:17.818Z</time></trkpt><trkpt lat="38.1653983" lon="15.839435"><ele>1351.0</ele><time>2026-04-25T09:26:18.818Z</time></trkpt><trkpt lat="38.1653283" lon="15.8395433"><ele>1352.6</ele><time>2026-04-25T09:26:19.818Z</time></trkpt><trkpt lat="38.1652617" lon="15.839655"><ele>1354.1999999999998</ele><time>2026-04-25T09:26:20.817Z</time></trkpt><trkpt lat="38.1652117" lon="15.839765"><ele>1355.8000000000002</ele><time>2026-04-25T09:26:21.818Z</time></trkpt><trkpt lat="38.1651633" lon="15.8398767"><ele>1357.4</ele><time>2026-04-25T09:26:22.818Z</time></trkpt><trkpt lat="38.1651233" lon="15.839985"><ele>1359.0</ele><time>2026-04-25T09:26:23.818Z</time></trkpt><trkpt lat="38.1650983" lon="15.8401"><ele>1360.8000000000002</ele><time>2026-04-25T09:26:24.817Z</time></trkpt><trkpt lat="38.1650717" lon="15.8402233"><ele>1362.6000000000001</ele><time>2026-04-25T09:26:25.818Z</time></trkpt><trkpt lat="38.1650517" lon="15.8403467"><ele>1364.4</ele><time>2026-04-25T09:26:26.818Z</time></trkpt><trkpt lat="38.1650533" lon="15.840465"><ele>1366.2</ele><time>2026-04-25T09:26:27.818Z</time></trkpt><trkpt lat="38.16508" lon="15.8405833"><ele>1368.0</ele><time>2026-04-25T09:26:28.817Z</time></trkpt><trkpt lat="38.165115" lon="15.84069"><ele>1368.0</ele><time>2026-04-25T09:26:29.817Z</time></trkpt><trkpt lat="38.165155" lon="15.8407933"><ele>1368.0</ele><time>2026-04-25T09:26:30.818Z</time></trkpt><trkpt lat="38.16517" lon="15.84092"><ele>1368.0</ele><time>2026-04-25T09:26:32.818Z</time></trkpt><trkpt lat="38.16519" lon="15.841025"><ele>1368.0</ele><time>2026-04-25T09:26:34.817Z</time></trkpt><trkpt lat="38.1651233" lon="15.8409867"><ele>1368.0</ele><time>2026-04-25T09:26:37.818Z</time></trkpt><trkpt lat="38.1650017" lon="15.8408333"><ele>1368.0</ele><time>2026-04-25T09:26:40.818Z</time></trkpt><trkpt lat="38.1649317" lon="15.8407417"><ele>1368.0</ele><time>2026-04-25T09:26:41.817Z</time></trkpt><trkpt lat="38.1648833" lon="15.8406833"><ele>1368.0</ele><time>2026-04-25T09:26:42.818Z</time></trkpt><trkpt lat="38.1648367" lon="15.840605"><ele>1368.0</ele><time>2026-04-25T09:26:43.817Z</time></trkpt><trkpt lat="38.1647867" lon="15.8404667"><ele>1368.0</ele><time>2026-04-25T09:26:45.818Z</time></trkpt><trkpt lat="38.16474" lon="15.840405"><ele>1368.0</ele><time>2026-04-25T09:26:46.818Z</time></trkpt><trkpt lat="38.1646667" lon="15.84035"><ele>1368.0</ele><time>2026-04-25T09:26:48.818Z</time></trkpt><trkpt lat="38.1646017" lon="15.8403733"><ele>1368.0</ele><time>2026-04-25T09:26:50.818Z</time></trkpt></trkseg></trk></gpx>